<?xml version="1.0" encoding="UTF-8" standalone="no" ?>
<gpx xmlns="http://www.topografix.com/GPX/1/1" xmlns:xsi="http://www.w3.org/2001/XMLSchema-instance" xsi:schemaLocation="http://www.topografix.com/GPX/1/1 http://www.topografix.com/GPX/1/1/gpx.xsd" version="1.1" creator="VisuGPX - https://www.visugpx.com">
  <metadata>
    <name>Virée épicurienne</name>
  </metadata>
  <trk>
    <name><![CDATA[2023 05 30 virée épicurienne]]></name>
    <trkseg>
      <trkpt lat="46.18916" lon="-1.38806">
        <ele>57.539</ele>
        <time>2023-05-30T08:39:32.000Z</time>
      </trkpt>
      <trkpt lat="46.18918" lon="-1.38801">
        <ele>57.59924</ele>
        <time>2023-05-30T08:39:37.000Z</time>
      </trkpt>
      <trkpt lat="46.1892" lon="-1.38798">
        <ele>57.46647</ele>
        <time>2023-05-30T08:39:38.000Z</time>
      </trkpt>
      <trkpt lat="46.18921" lon="-1.38795">
        <ele>57.54449</ele>
        <time>2023-05-30T08:39:39.000Z</time>
      </trkpt>
      <trkpt lat="46.18923" lon="-1.38792">
        <ele>57.64863</ele>
        <time>2023-05-30T08:39:40.000Z</time>
      </trkpt>
      <trkpt lat="46.18925" lon="-1.38788">
        <ele>57.74675</ele>
        <time>2023-05-30T08:39:41.000Z</time>
      </trkpt>
      <trkpt lat="46.18926" lon="-1.38785">
        <ele>57.6362</ele>
        <time>2023-05-30T08:39:42.000Z</time>
      </trkpt>
      <trkpt lat="46.18928" lon="-1.38781">
        <ele>57.84428</ele>
        <time>2023-05-30T08:39:43.000Z</time>
      </trkpt>
      <trkpt lat="46.1893" lon="-1.38778">
        <ele>58.01221</ele>
        <time>2023-05-30T08:39:44.000Z</time>
      </trkpt>
      <trkpt lat="46.18932" lon="-1.38775">
        <ele>58.22277</ele>
        <time>2023-05-30T08:39:45.000Z</time>
      </trkpt>
      <trkpt lat="46.18934" lon="-1.38772">
        <ele>58.24238</ele>
        <time>2023-05-30T08:39:46.000Z</time>
      </trkpt>
      <trkpt lat="46.18935" lon="-1.38769">
        <ele>58.24081</ele>
        <time>2023-05-30T08:39:47.000Z</time>
      </trkpt>
      <trkpt lat="46.18937" lon="-1.38766">
        <ele>58.25516</ele>
        <time>2023-05-30T08:39:48.000Z</time>
      </trkpt>
      <trkpt lat="46.18939" lon="-1.38763">
        <ele>58.23915</ele>
        <time>2023-05-30T08:39:49.000Z</time>
      </trkpt>
      <trkpt lat="46.1894" lon="-1.3876">
        <ele>58.22109</ele>
        <time>2023-05-30T08:39:50.000Z</time>
      </trkpt>
      <trkpt lat="46.18942" lon="-1.38758">
        <ele>58.36019</ele>
        <time>2023-05-30T08:39:51.000Z</time>
      </trkpt>
      <trkpt lat="46.18943" lon="-1.38756">
        <ele>58.48983</ele>
        <time>2023-05-30T08:39:52.000Z</time>
      </trkpt>
      <trkpt lat="46.18945" lon="-1.38753">
        <ele>58.58118</ele>
        <time>2023-05-30T08:39:54.000Z</time>
      </trkpt>
      <trkpt lat="46.18948" lon="-1.38749">
        <ele>58.53267</ele>
        <time>2023-05-30T08:39:56.000Z</time>
      </trkpt>
      <trkpt lat="46.1895" lon="-1.38747">
        <ele>58.46262</ele>
        <time>2023-05-30T08:39:57.000Z</time>
      </trkpt>
      <trkpt lat="46.18951" lon="-1.38744">
        <ele>58.43964</ele>
        <time>2023-05-30T08:39:58.000Z</time>
      </trkpt>
      <trkpt lat="46.18953" lon="-1.38741">
        <ele>58.40987</ele>
        <time>2023-05-30T08:39:59.000Z</time>
      </trkpt>
      <trkpt lat="46.18954" lon="-1.38739">
        <ele>58.39819</ele>
        <time>2023-05-30T08:40:00.000Z</time>
      </trkpt>
      <trkpt lat="46.18955" lon="-1.38736">
        <ele>58.46679</ele>
        <time>2023-05-30T08:40:01.000Z</time>
      </trkpt>
      <trkpt lat="46.18957" lon="-1.38734">
        <ele>58.50934</ele>
        <time>2023-05-30T08:40:02.000Z</time>
      </trkpt>
      <trkpt lat="46.18958" lon="-1.38732">
        <ele>58.50902</ele>
        <time>2023-05-30T08:40:03.000Z</time>
      </trkpt>
      <trkpt lat="46.18959" lon="-1.38729">
        <ele>58.56434</ele>
        <time>2023-05-30T08:40:04.000Z</time>
      </trkpt>
      <trkpt lat="46.18961" lon="-1.38726">
        <ele>58.49796</ele>
        <time>2023-05-30T08:40:05.000Z</time>
      </trkpt>
      <trkpt lat="46.18963" lon="-1.38724">
        <ele>58.41756</ele>
        <time>2023-05-30T08:40:06.000Z</time>
      </trkpt>
      <trkpt lat="46.18965" lon="-1.38722">
        <ele>58.31353</ele>
        <time>2023-05-30T08:40:07.000Z</time>
      </trkpt>
      <trkpt lat="46.18967" lon="-1.3872">
        <ele>58.29537</ele>
        <time>2023-05-30T08:40:08.000Z</time>
      </trkpt>
      <trkpt lat="46.18968" lon="-1.38717">
        <ele>58.30635</ele>
        <time>2023-05-30T08:40:09.000Z</time>
      </trkpt>
      <trkpt lat="46.1897" lon="-1.38715">
        <ele>58.28151</ele>
        <time>2023-05-30T08:40:10.000Z</time>
      </trkpt>
      <trkpt lat="46.18971" lon="-1.38712">
        <ele>58.2751</ele>
        <time>2023-05-30T08:40:11.000Z</time>
      </trkpt>
      <trkpt lat="46.18972" lon="-1.38709">
        <ele>58.27229</ele>
        <time>2023-05-30T08:40:12.000Z</time>
      </trkpt>
      <trkpt lat="46.18973" lon="-1.38707">
        <ele>58.13494</ele>
        <time>2023-05-30T08:40:13.000Z</time>
      </trkpt>
      <trkpt lat="46.18975" lon="-1.38704">
        <ele>58.04553</ele>
        <time>2023-05-30T08:40:15.000Z</time>
      </trkpt>
      <trkpt lat="46.18976" lon="-1.38702">
        <ele>57.93406</ele>
        <time>2023-05-30T08:41:00.000Z</time>
      </trkpt>
      <trkpt lat="46.18979" lon="-1.387">
        <ele>57.94078</ele>
        <time>2023-05-30T08:41:02.000Z</time>
      </trkpt>
      <trkpt lat="46.1898" lon="-1.387">
        <ele>57.98814</ele>
        <time>2023-05-30T08:41:03.000Z</time>
      </trkpt>
      <trkpt lat="46.18982" lon="-1.38702">
        <ele>58.05532</ele>
        <time>2023-05-30T08:41:04.000Z</time>
      </trkpt>
      <trkpt lat="46.18983" lon="-1.38705">
        <ele>58.14772</ele>
        <time>2023-05-30T08:41:05.000Z</time>
      </trkpt>
      <trkpt lat="46.18983" lon="-1.38708">
        <ele>58.24256</ele>
        <time>2023-05-30T08:41:06.000Z</time>
      </trkpt>
      <trkpt lat="46.18984" lon="-1.3871">
        <ele>58.25763</ele>
        <time>2023-05-30T08:41:07.000Z</time>
      </trkpt>
      <trkpt lat="46.18984" lon="-1.38713">
        <ele>58.28381</ele>
        <time>2023-05-30T08:41:08.000Z</time>
      </trkpt>
      <trkpt lat="46.18985" lon="-1.38715">
        <ele>58.26532</ele>
        <time>2023-05-30T08:41:09.000Z</time>
      </trkpt>
      <trkpt lat="46.18985" lon="-1.38718">
        <ele>58.30758</ele>
        <time>2023-05-30T08:41:10.000Z</time>
      </trkpt>
      <trkpt lat="46.18986" lon="-1.38721">
        <ele>58.35627</ele>
        <time>2023-05-30T08:41:11.000Z</time>
      </trkpt>
      <trkpt lat="46.18987" lon="-1.38724">
        <ele>58.42054</ele>
        <time>2023-05-30T08:41:12.000Z</time>
      </trkpt>
      <trkpt lat="46.18987" lon="-1.38727">
        <ele>58.47807</ele>
        <time>2023-05-30T08:41:13.000Z</time>
      </trkpt>
      <trkpt lat="46.18988" lon="-1.3873">
        <ele>58.53041</ele>
        <time>2023-05-30T08:41:14.000Z</time>
      </trkpt>
      <trkpt lat="46.18989" lon="-1.38733">
        <ele>58.58555</ele>
        <time>2023-05-30T08:41:15.000Z</time>
      </trkpt>
      <trkpt lat="46.1899" lon="-1.38736">
        <ele>58.68463</ele>
        <time>2023-05-30T08:41:16.000Z</time>
      </trkpt>
      <trkpt lat="46.18991" lon="-1.3874">
        <ele>58.77056</ele>
        <time>2023-05-30T08:41:17.000Z</time>
      </trkpt>
      <trkpt lat="46.18991" lon="-1.38744">
        <ele>58.85029</ele>
        <time>2023-05-30T08:41:18.000Z</time>
      </trkpt>
      <trkpt lat="46.18992" lon="-1.38748">
        <ele>58.96394</ele>
        <time>2023-05-30T08:41:19.000Z</time>
      </trkpt>
      <trkpt lat="46.18993" lon="-1.38752">
        <ele>58.93235</ele>
        <time>2023-05-30T08:41:20.000Z</time>
      </trkpt>
      <trkpt lat="46.18993" lon="-1.38755">
        <ele>59.00387</ele>
        <time>2023-05-30T08:41:21.000Z</time>
      </trkpt>
      <trkpt lat="46.18993" lon="-1.3876">
        <ele>59.08198</ele>
        <time>2023-05-30T08:41:22.000Z</time>
      </trkpt>
      <trkpt lat="46.18994" lon="-1.38764">
        <ele>59.14951</ele>
        <time>2023-05-30T08:41:23.000Z</time>
      </trkpt>
      <trkpt lat="46.18994" lon="-1.38768">
        <ele>59.20089</ele>
        <time>2023-05-30T08:41:24.000Z</time>
      </trkpt>
      <trkpt lat="46.18995" lon="-1.38772">
        <ele>59.23539</ele>
        <time>2023-05-30T08:41:25.000Z</time>
      </trkpt>
      <trkpt lat="46.18996" lon="-1.38776">
        <ele>59.28086</ele>
        <time>2023-05-30T08:41:26.000Z</time>
      </trkpt>
      <trkpt lat="46.18996" lon="-1.38779">
        <ele>59.30463</ele>
        <time>2023-05-30T08:41:27.000Z</time>
      </trkpt>
      <trkpt lat="46.18997" lon="-1.38783">
        <ele>59.32556</ele>
        <time>2023-05-30T08:41:28.000Z</time>
      </trkpt>
      <trkpt lat="46.18997" lon="-1.38787">
        <ele>59.41732</ele>
        <time>2023-05-30T08:41:29.000Z</time>
      </trkpt>
      <trkpt lat="46.18998" lon="-1.38791">
        <ele>59.45588</ele>
        <time>2023-05-30T08:41:30.000Z</time>
      </trkpt>
      <trkpt lat="46.18998" lon="-1.38794">
        <ele>59.48765</ele>
        <time>2023-05-30T08:41:31.000Z</time>
      </trkpt>
      <trkpt lat="46.18998" lon="-1.38798">
        <ele>59.49037</ele>
        <time>2023-05-30T08:41:32.000Z</time>
      </trkpt>
      <trkpt lat="46.18998" lon="-1.38801">
        <ele>59.48237</ele>
        <time>2023-05-30T08:41:33.000Z</time>
      </trkpt>
      <trkpt lat="46.18998" lon="-1.38805">
        <ele>59.47346</ele>
        <time>2023-05-30T08:41:34.000Z</time>
      </trkpt>
      <trkpt lat="46.18998" lon="-1.38808">
        <ele>59.43843</ele>
        <time>2023-05-30T08:41:35.000Z</time>
      </trkpt>
      <trkpt lat="46.18998" lon="-1.38811">
        <ele>59.38407</ele>
        <time>2023-05-30T08:41:36.000Z</time>
      </trkpt>
      <trkpt lat="46.18998" lon="-1.38814">
        <ele>59.34264</ele>
        <time>2023-05-30T08:41:37.000Z</time>
      </trkpt>
      <trkpt lat="46.18999" lon="-1.38819">
        <ele>59.26736</ele>
        <time>2023-05-30T08:41:39.000Z</time>
      </trkpt>
      <trkpt lat="46.18999" lon="-1.38822">
        <ele>59.27485</ele>
        <time>2023-05-30T08:41:40.000Z</time>
      </trkpt>
      <trkpt lat="46.19" lon="-1.38825">
        <ele>59.38754</ele>
        <time>2023-05-30T08:41:41.000Z</time>
      </trkpt>
      <trkpt lat="46.19" lon="-1.38828">
        <ele>59.44976</ele>
        <time>2023-05-30T08:41:42.000Z</time>
      </trkpt>
      <trkpt lat="46.19001" lon="-1.38831">
        <ele>59.50373</ele>
        <time>2023-05-30T08:41:43.000Z</time>
      </trkpt>
      <trkpt lat="46.19002" lon="-1.38833">
        <ele>59.5653</ele>
        <time>2023-05-30T08:41:44.000Z</time>
      </trkpt>
      <trkpt lat="46.19003" lon="-1.38836">
        <ele>59.62536</ele>
        <time>2023-05-30T08:41:45.000Z</time>
      </trkpt>
      <trkpt lat="46.19004" lon="-1.38839">
        <ele>59.65252</ele>
        <time>2023-05-30T08:41:46.000Z</time>
      </trkpt>
      <trkpt lat="46.19005" lon="-1.38842">
        <ele>59.69527</ele>
        <time>2023-05-30T08:41:47.000Z</time>
      </trkpt>
      <trkpt lat="46.19006" lon="-1.38845">
        <ele>59.71106</ele>
        <time>2023-05-30T08:41:48.000Z</time>
      </trkpt>
      <trkpt lat="46.19007" lon="-1.38848">
        <ele>59.74316</ele>
        <time>2023-05-30T08:41:49.000Z</time>
      </trkpt>
      <trkpt lat="46.19008" lon="-1.38851">
        <ele>59.78413</ele>
        <time>2023-05-30T08:41:50.000Z</time>
      </trkpt>
      <trkpt lat="46.19009" lon="-1.38855">
        <ele>59.82993</ele>
        <time>2023-05-30T08:41:51.000Z</time>
      </trkpt>
      <trkpt lat="46.1901" lon="-1.38858">
        <ele>59.88734</ele>
        <time>2023-05-30T08:41:52.000Z</time>
      </trkpt>
      <trkpt lat="46.1901" lon="-1.3886">
        <ele>59.94552</ele>
        <time>2023-05-30T08:41:53.000Z</time>
      </trkpt>
      <trkpt lat="46.19011" lon="-1.38865">
        <ele>60.00254</ele>
        <time>2023-05-30T08:41:55.000Z</time>
      </trkpt>
      <trkpt lat="46.19013" lon="-1.38868">
        <ele>60.06689</ele>
        <time>2023-05-30T08:41:57.000Z</time>
      </trkpt>
      <trkpt lat="46.19013" lon="-1.38872">
        <ele>60.05877</ele>
        <time>2023-05-30T08:41:59.000Z</time>
      </trkpt>
      <trkpt lat="46.19016" lon="-1.38873">
        <ele>60.11055</ele>
        <time>2023-05-30T08:42:01.000Z</time>
      </trkpt>
      <trkpt lat="46.19017" lon="-1.3887">
        <ele>60.19742</ele>
        <time>2023-05-30T08:42:03.000Z</time>
      </trkpt>
      <trkpt lat="46.19016" lon="-1.38865">
        <ele>60.29649</ele>
        <time>2023-05-30T08:42:05.000Z</time>
      </trkpt>
      <trkpt lat="46.19016" lon="-1.38862">
        <ele>60.31353</ele>
        <time>2023-05-30T08:42:06.000Z</time>
      </trkpt>
      <trkpt lat="46.19015" lon="-1.38859">
        <ele>60.33606</ele>
        <time>2023-05-30T08:42:07.000Z</time>
      </trkpt>
      <trkpt lat="46.19014" lon="-1.38856">
        <ele>60.36292</ele>
        <time>2023-05-30T08:42:08.000Z</time>
      </trkpt>
      <trkpt lat="46.19013" lon="-1.38854">
        <ele>60.32743</ele>
        <time>2023-05-30T08:42:09.000Z</time>
      </trkpt>
      <trkpt lat="46.19011" lon="-1.38852">
        <ele>60.28386</ele>
        <time>2023-05-30T08:42:10.000Z</time>
      </trkpt>
      <trkpt lat="46.19009" lon="-1.38849">
        <ele>60.17135</ele>
        <time>2023-05-30T08:42:11.000Z</time>
      </trkpt>
      <trkpt lat="46.19007" lon="-1.38847">
        <ele>60.0556</ele>
        <time>2023-05-30T08:42:12.000Z</time>
      </trkpt>
      <trkpt lat="46.19005" lon="-1.38844">
        <ele>59.92408</ele>
        <time>2023-05-30T08:42:13.000Z</time>
      </trkpt>
      <trkpt lat="46.19003" lon="-1.3884">
        <ele>59.80101</ele>
        <time>2023-05-30T08:42:14.000Z</time>
      </trkpt>
      <trkpt lat="46.19002" lon="-1.38835">
        <ele>59.65983</ele>
        <time>2023-05-30T08:42:15.000Z</time>
      </trkpt>
      <trkpt lat="46.19001" lon="-1.38831">
        <ele>59.63488</ele>
        <time>2023-05-30T08:42:16.000Z</time>
      </trkpt>
      <trkpt lat="46.19" lon="-1.38826">
        <ele>59.58564</ele>
        <time>2023-05-30T08:42:17.000Z</time>
      </trkpt>
      <trkpt lat="46.18999" lon="-1.3882">
        <ele>59.53001</ele>
        <time>2023-05-30T08:42:18.000Z</time>
      </trkpt>
      <trkpt lat="46.18998" lon="-1.38815">
        <ele>59.45364</ele>
        <time>2023-05-30T08:42:19.000Z</time>
      </trkpt>
      <trkpt lat="46.18997" lon="-1.38809">
        <ele>59.37887</ele>
        <time>2023-05-30T08:42:20.000Z</time>
      </trkpt>
      <trkpt lat="46.18997" lon="-1.38804">
        <ele>59.30619</ele>
        <time>2023-05-30T08:42:21.000Z</time>
      </trkpt>
      <trkpt lat="46.18997" lon="-1.38799">
        <ele>59.30148</ele>
        <time>2023-05-30T08:42:22.000Z</time>
      </trkpt>
      <trkpt lat="46.18997" lon="-1.38794">
        <ele>59.24236</ele>
        <time>2023-05-30T08:42:23.000Z</time>
      </trkpt>
      <trkpt lat="46.18996" lon="-1.38789">
        <ele>59.08764</ele>
        <time>2023-05-30T08:42:24.000Z</time>
      </trkpt>
      <trkpt lat="46.18996" lon="-1.38785">
        <ele>58.94963</ele>
        <time>2023-05-30T08:42:25.000Z</time>
      </trkpt>
      <trkpt lat="46.18995" lon="-1.38781">
        <ele>58.76072</ele>
        <time>2023-05-30T08:42:26.000Z</time>
      </trkpt>
      <trkpt lat="46.18995" lon="-1.38777">
        <ele>58.6524</ele>
        <time>2023-05-30T08:42:27.000Z</time>
      </trkpt>
      <trkpt lat="46.18994" lon="-1.38773">
        <ele>58.52569</ele>
        <time>2023-05-30T08:42:28.000Z</time>
      </trkpt>
      <trkpt lat="46.18994" lon="-1.38768">
        <ele>58.46963</ele>
        <time>2023-05-30T08:42:29.000Z</time>
      </trkpt>
      <trkpt lat="46.18993" lon="-1.38764">
        <ele>58.38869</ele>
        <time>2023-05-30T08:42:30.000Z</time>
      </trkpt>
      <trkpt lat="46.18993" lon="-1.3876">
        <ele>58.39532</ele>
        <time>2023-05-30T08:42:31.000Z</time>
      </trkpt>
      <trkpt lat="46.18992" lon="-1.38756">
        <ele>58.42238</ele>
        <time>2023-05-30T08:42:32.000Z</time>
      </trkpt>
      <trkpt lat="46.18992" lon="-1.38752">
        <ele>58.4293</ele>
        <time>2023-05-30T08:42:33.000Z</time>
      </trkpt>
      <trkpt lat="46.18991" lon="-1.38748">
        <ele>58.44991</ele>
        <time>2023-05-30T08:42:34.000Z</time>
      </trkpt>
      <trkpt lat="46.18991" lon="-1.38744">
        <ele>58.46817</ele>
        <time>2023-05-30T08:42:35.000Z</time>
      </trkpt>
      <trkpt lat="46.1899" lon="-1.38741">
        <ele>58.36298</ele>
        <time>2023-05-30T08:42:36.000Z</time>
      </trkpt>
      <trkpt lat="46.18989" lon="-1.38737">
        <ele>58.28472</ele>
        <time>2023-05-30T08:42:37.000Z</time>
      </trkpt>
      <trkpt lat="46.18988" lon="-1.38734">
        <ele>58.17404</ele>
        <time>2023-05-30T08:42:38.000Z</time>
      </trkpt>
      <trkpt lat="46.18987" lon="-1.3873">
        <ele>58.0871</ele>
        <time>2023-05-30T08:42:39.000Z</time>
      </trkpt>
      <trkpt lat="46.18987" lon="-1.38726">
        <ele>58.0042</ele>
        <time>2023-05-30T08:42:40.000Z</time>
      </trkpt>
      <trkpt lat="46.18986" lon="-1.38722">
        <ele>57.91279</ele>
        <time>2023-05-30T08:42:41.000Z</time>
      </trkpt>
      <trkpt lat="46.18985" lon="-1.38718">
        <ele>57.83068</ele>
        <time>2023-05-30T08:42:42.000Z</time>
      </trkpt>
      <trkpt lat="46.18984" lon="-1.38714">
        <ele>57.75253</ele>
        <time>2023-05-30T08:42:43.000Z</time>
      </trkpt>
      <trkpt lat="46.18983" lon="-1.3871">
        <ele>57.74593</ele>
        <time>2023-05-30T08:42:44.000Z</time>
      </trkpt>
      <trkpt lat="46.18982" lon="-1.38706">
        <ele>57.75306</ele>
        <time>2023-05-30T08:42:45.000Z</time>
      </trkpt>
      <trkpt lat="46.18981" lon="-1.38702">
        <ele>57.78817</ele>
        <time>2023-05-30T08:42:46.000Z</time>
      </trkpt>
      <trkpt lat="46.1898" lon="-1.38698">
        <ele>57.74566</ele>
        <time>2023-05-30T08:42:47.000Z</time>
      </trkpt>
      <trkpt lat="46.18979" lon="-1.38694">
        <ele>57.72139</ele>
        <time>2023-05-30T08:42:48.000Z</time>
      </trkpt>
      <trkpt lat="46.18978" lon="-1.38691">
        <ele>57.70658</ele>
        <time>2023-05-30T08:42:49.000Z</time>
      </trkpt>
      <trkpt lat="46.18977" lon="-1.38687">
        <ele>57.65059</ele>
        <time>2023-05-30T08:42:50.000Z</time>
      </trkpt>
      <trkpt lat="46.18976" lon="-1.38684">
        <ele>57.64586</ele>
        <time>2023-05-30T08:42:51.000Z</time>
      </trkpt>
      <trkpt lat="46.18975" lon="-1.3868">
        <ele>57.63729</ele>
        <time>2023-05-30T08:42:52.000Z</time>
      </trkpt>
      <trkpt lat="46.18974" lon="-1.38676">
        <ele>57.63969</ele>
        <time>2023-05-30T08:42:53.000Z</time>
      </trkpt>
      <trkpt lat="46.18973" lon="-1.38672">
        <ele>57.63686</ele>
        <time>2023-05-30T08:42:54.000Z</time>
      </trkpt>
      <trkpt lat="46.18972" lon="-1.38668">
        <ele>57.65245</ele>
        <time>2023-05-30T08:42:55.000Z</time>
      </trkpt>
      <trkpt lat="46.18972" lon="-1.38664">
        <ele>57.68279</ele>
        <time>2023-05-30T08:42:56.000Z</time>
      </trkpt>
      <trkpt lat="46.18971" lon="-1.3866">
        <ele>57.69544</ele>
        <time>2023-05-30T08:42:57.000Z</time>
      </trkpt>
      <trkpt lat="46.1897" lon="-1.38656">
        <ele>57.73568</ele>
        <time>2023-05-30T08:42:58.000Z</time>
      </trkpt>
      <trkpt lat="46.18969" lon="-1.38652">
        <ele>57.80066</ele>
        <time>2023-05-30T08:42:59.000Z</time>
      </trkpt>
      <trkpt lat="46.18968" lon="-1.38649">
        <ele>57.86686</ele>
        <time>2023-05-30T08:43:00.000Z</time>
      </trkpt>
      <trkpt lat="46.18967" lon="-1.38646">
        <ele>57.95628</ele>
        <time>2023-05-30T08:43:01.000Z</time>
      </trkpt>
      <trkpt lat="46.18966" lon="-1.38642">
        <ele>58.0507</ele>
        <time>2023-05-30T08:43:02.000Z</time>
      </trkpt>
      <trkpt lat="46.18965" lon="-1.38638">
        <ele>58.13779</ele>
        <time>2023-05-30T08:43:03.000Z</time>
      </trkpt>
      <trkpt lat="46.18964" lon="-1.38635">
        <ele>58.20752</ele>
        <time>2023-05-30T08:43:04.000Z</time>
      </trkpt>
      <trkpt lat="46.18963" lon="-1.38631">
        <ele>58.25613</ele>
        <time>2023-05-30T08:43:05.000Z</time>
      </trkpt>
      <trkpt lat="46.18962" lon="-1.38626">
        <ele>58.29998</ele>
        <time>2023-05-30T08:43:06.000Z</time>
      </trkpt>
      <trkpt lat="46.1896" lon="-1.38622">
        <ele>58.31116</ele>
        <time>2023-05-30T08:43:07.000Z</time>
      </trkpt>
      <trkpt lat="46.18959" lon="-1.38618">
        <ele>58.29577</ele>
        <time>2023-05-30T08:43:08.000Z</time>
      </trkpt>
      <trkpt lat="46.18957" lon="-1.38614">
        <ele>58.2377</ele>
        <time>2023-05-30T08:43:09.000Z</time>
      </trkpt>
      <trkpt lat="46.18956" lon="-1.3861">
        <ele>58.24827</ele>
        <time>2023-05-30T08:43:10.000Z</time>
      </trkpt>
      <trkpt lat="46.18955" lon="-1.38606">
        <ele>57.95918</ele>
        <time>2023-05-30T08:43:11.000Z</time>
      </trkpt>
      <trkpt lat="46.18954" lon="-1.38601">
        <ele>57.72949</ele>
        <time>2023-05-30T08:43:12.000Z</time>
      </trkpt>
      <trkpt lat="46.18952" lon="-1.38597">
        <ele>57.65429</ele>
        <time>2023-05-30T08:43:13.000Z</time>
      </trkpt>
      <trkpt lat="46.18951" lon="-1.38593">
        <ele>57.55867</ele>
        <time>2023-05-30T08:43:14.000Z</time>
      </trkpt>
      <trkpt lat="46.1895" lon="-1.38588">
        <ele>57.45758</ele>
        <time>2023-05-30T08:43:15.000Z</time>
      </trkpt>
      <trkpt lat="46.18948" lon="-1.38584">
        <ele>57.45199</ele>
        <time>2023-05-30T08:43:16.000Z</time>
      </trkpt>
      <trkpt lat="46.18946" lon="-1.3858">
        <ele>57.49204</ele>
        <time>2023-05-30T08:43:17.000Z</time>
      </trkpt>
      <trkpt lat="46.18944" lon="-1.38575">
        <ele>57.53939</ele>
        <time>2023-05-30T08:43:18.000Z</time>
      </trkpt>
      <trkpt lat="46.18942" lon="-1.38571">
        <ele>57.58546</ele>
        <time>2023-05-30T08:43:19.000Z</time>
      </trkpt>
      <trkpt lat="46.1894" lon="-1.38567">
        <ele>57.62246</ele>
        <time>2023-05-30T08:43:20.000Z</time>
      </trkpt>
      <trkpt lat="46.18939" lon="-1.38563">
        <ele>57.64455</ele>
        <time>2023-05-30T08:43:21.000Z</time>
      </trkpt>
      <trkpt lat="46.18937" lon="-1.38558">
        <ele>57.64658</ele>
        <time>2023-05-30T08:43:22.000Z</time>
      </trkpt>
      <trkpt lat="46.18935" lon="-1.38554">
        <ele>57.65142</ele>
        <time>2023-05-30T08:43:23.000Z</time>
      </trkpt>
      <trkpt lat="46.18933" lon="-1.3855">
        <ele>57.65496</ele>
        <time>2023-05-30T08:43:24.000Z</time>
      </trkpt>
      <trkpt lat="46.18932" lon="-1.38546">
        <ele>57.69104</ele>
        <time>2023-05-30T08:43:25.000Z</time>
      </trkpt>
      <trkpt lat="46.1893" lon="-1.38543">
        <ele>57.67832</ele>
        <time>2023-05-30T08:43:26.000Z</time>
      </trkpt>
      <trkpt lat="46.18928" lon="-1.3854">
        <ele>57.65193</ele>
        <time>2023-05-30T08:43:27.000Z</time>
      </trkpt>
      <trkpt lat="46.18927" lon="-1.38536">
        <ele>57.58327</ele>
        <time>2023-05-30T08:43:28.000Z</time>
      </trkpt>
      <trkpt lat="46.18925" lon="-1.38532">
        <ele>57.51687</ele>
        <time>2023-05-30T08:43:29.000Z</time>
      </trkpt>
      <trkpt lat="46.18923" lon="-1.38528">
        <ele>57.43939</ele>
        <time>2023-05-30T08:43:30.000Z</time>
      </trkpt>
      <trkpt lat="46.18921" lon="-1.38524">
        <ele>57.56051</ele>
        <time>2023-05-30T08:43:31.000Z</time>
      </trkpt>
      <trkpt lat="46.18919" lon="-1.38519">
        <ele>57.61332</ele>
        <time>2023-05-30T08:43:32.000Z</time>
      </trkpt>
      <trkpt lat="46.18918" lon="-1.38515">
        <ele>57.54068</ele>
        <time>2023-05-30T08:43:33.000Z</time>
      </trkpt>
      <trkpt lat="46.18916" lon="-1.3851">
        <ele>57.55454</ele>
        <time>2023-05-30T08:43:34.000Z</time>
      </trkpt>
      <trkpt lat="46.18915" lon="-1.38506">
        <ele>57.5578</ele>
        <time>2023-05-30T08:43:35.000Z</time>
      </trkpt>
      <trkpt lat="46.18913" lon="-1.38502">
        <ele>57.4472</ele>
        <time>2023-05-30T08:43:36.000Z</time>
      </trkpt>
      <trkpt lat="46.18912" lon="-1.38498">
        <ele>57.30077</ele>
        <time>2023-05-30T08:43:37.000Z</time>
      </trkpt>
      <trkpt lat="46.1891" lon="-1.38493">
        <ele>57.14956</ele>
        <time>2023-05-30T08:43:38.000Z</time>
      </trkpt>
      <trkpt lat="46.18908" lon="-1.38488">
        <ele>56.99049</ele>
        <time>2023-05-30T08:43:39.000Z</time>
      </trkpt>
      <trkpt lat="46.18906" lon="-1.38484">
        <ele>56.81752</ele>
        <time>2023-05-30T08:43:40.000Z</time>
      </trkpt>
      <trkpt lat="46.18904" lon="-1.3848">
        <ele>56.64144</ele>
        <time>2023-05-30T08:43:41.000Z</time>
      </trkpt>
      <trkpt lat="46.18901" lon="-1.38476">
        <ele>56.46917</ele>
        <time>2023-05-30T08:43:42.000Z</time>
      </trkpt>
      <trkpt lat="46.18899" lon="-1.38472">
        <ele>56.28691</ele>
        <time>2023-05-30T08:43:43.000Z</time>
      </trkpt>
      <trkpt lat="46.18897" lon="-1.38468">
        <ele>56.11526</ele>
        <time>2023-05-30T08:43:44.000Z</time>
      </trkpt>
      <trkpt lat="46.18896" lon="-1.38463">
        <ele>55.91788</ele>
        <time>2023-05-30T08:43:45.000Z</time>
      </trkpt>
      <trkpt lat="46.18894" lon="-1.38459">
        <ele>55.75948</ele>
        <time>2023-05-30T08:43:46.000Z</time>
      </trkpt>
      <trkpt lat="46.18892" lon="-1.38455">
        <ele>55.62049</ele>
        <time>2023-05-30T08:43:47.000Z</time>
      </trkpt>
      <trkpt lat="46.1889" lon="-1.38451">
        <ele>55.53594</ele>
        <time>2023-05-30T08:43:48.000Z</time>
      </trkpt>
      <trkpt lat="46.18889" lon="-1.38447">
        <ele>55.498</ele>
        <time>2023-05-30T08:43:49.000Z</time>
      </trkpt>
      <trkpt lat="46.18887" lon="-1.38443">
        <ele>55.47408</ele>
        <time>2023-05-30T08:43:50.000Z</time>
      </trkpt>
      <trkpt lat="46.18885" lon="-1.38439">
        <ele>55.48887</ele>
        <time>2023-05-30T08:43:51.000Z</time>
      </trkpt>
      <trkpt lat="46.18884" lon="-1.38434">
        <ele>55.54243</ele>
        <time>2023-05-30T08:43:52.000Z</time>
      </trkpt>
      <trkpt lat="46.18882" lon="-1.3843">
        <ele>55.58054</ele>
        <time>2023-05-30T08:43:53.000Z</time>
      </trkpt>
      <trkpt lat="46.1888" lon="-1.38426">
        <ele>55.5493</ele>
        <time>2023-05-30T08:43:54.000Z</time>
      </trkpt>
      <trkpt lat="46.18878" lon="-1.38421">
        <ele>55.53293</ele>
        <time>2023-05-30T08:43:55.000Z</time>
      </trkpt>
      <trkpt lat="46.18876" lon="-1.38417">
        <ele>55.52723</ele>
        <time>2023-05-30T08:43:56.000Z</time>
      </trkpt>
      <trkpt lat="46.18874" lon="-1.38412">
        <ele>55.52835</ele>
        <time>2023-05-30T08:43:57.000Z</time>
      </trkpt>
      <trkpt lat="46.18872" lon="-1.38408">
        <ele>55.54396</ele>
        <time>2023-05-30T08:43:58.000Z</time>
      </trkpt>
      <trkpt lat="46.18871" lon="-1.38404">
        <ele>55.57248</ele>
        <time>2023-05-30T08:43:59.000Z</time>
      </trkpt>
      <trkpt lat="46.18869" lon="-1.38399">
        <ele>55.62373</ele>
        <time>2023-05-30T08:44:00.000Z</time>
      </trkpt>
      <trkpt lat="46.18867" lon="-1.38395">
        <ele>55.68731</ele>
        <time>2023-05-30T08:44:01.000Z</time>
      </trkpt>
      <trkpt lat="46.18865" lon="-1.38391">
        <ele>55.76454</ele>
        <time>2023-05-30T08:44:02.000Z</time>
      </trkpt>
      <trkpt lat="46.18863" lon="-1.38387">
        <ele>55.85912</ele>
        <time>2023-05-30T08:44:03.000Z</time>
      </trkpt>
      <trkpt lat="46.18861" lon="-1.38382">
        <ele>55.95802</ele>
        <time>2023-05-30T08:44:04.000Z</time>
      </trkpt>
      <trkpt lat="46.1886" lon="-1.38378">
        <ele>56.07713</ele>
        <time>2023-05-30T08:44:05.000Z</time>
      </trkpt>
      <trkpt lat="46.18858" lon="-1.38374">
        <ele>56.20908</ele>
        <time>2023-05-30T08:44:06.000Z</time>
      </trkpt>
      <trkpt lat="46.18856" lon="-1.3837">
        <ele>56.32586</ele>
        <time>2023-05-30T08:44:07.000Z</time>
      </trkpt>
      <trkpt lat="46.18855" lon="-1.38367">
        <ele>56.4435</ele>
        <time>2023-05-30T08:44:08.000Z</time>
      </trkpt>
      <trkpt lat="46.18854" lon="-1.38364">
        <ele>56.55399</ele>
        <time>2023-05-30T08:44:09.000Z</time>
      </trkpt>
      <trkpt lat="46.18853" lon="-1.38362">
        <ele>56.65113</ele>
        <time>2023-05-30T08:44:10.000Z</time>
      </trkpt>
      <trkpt lat="46.18851" lon="-1.38359">
        <ele>56.7533</ele>
        <time>2023-05-30T08:44:11.000Z</time>
      </trkpt>
      <trkpt lat="46.1885" lon="-1.38356">
        <ele>56.88325</ele>
        <time>2023-05-30T08:44:12.000Z</time>
      </trkpt>
      <trkpt lat="46.18849" lon="-1.38353">
        <ele>57.0478</ele>
        <time>2023-05-30T08:44:13.000Z</time>
      </trkpt>
      <trkpt lat="46.18848" lon="-1.38349">
        <ele>57.26553</ele>
        <time>2023-05-30T08:44:14.000Z</time>
      </trkpt>
      <trkpt lat="46.18847" lon="-1.38346">
        <ele>57.43369</ele>
        <time>2023-05-30T08:44:15.000Z</time>
      </trkpt>
      <trkpt lat="46.18846" lon="-1.38342">
        <ele>57.5728</ele>
        <time>2023-05-30T08:44:16.000Z</time>
      </trkpt>
      <trkpt lat="46.18844" lon="-1.3834">
        <ele>57.67442</ele>
        <time>2023-05-30T08:44:17.000Z</time>
      </trkpt>
      <trkpt lat="46.18843" lon="-1.38337">
        <ele>57.7284</ele>
        <time>2023-05-30T08:44:18.000Z</time>
      </trkpt>
      <trkpt lat="46.18844" lon="-1.38334">
        <ele>57.71858</ele>
        <time>2023-05-30T08:44:19.000Z</time>
      </trkpt>
      <trkpt lat="46.18845" lon="-1.38331">
        <ele>57.69007</ele>
        <time>2023-05-30T08:44:20.000Z</time>
      </trkpt>
      <trkpt lat="46.18847" lon="-1.38328">
        <ele>57.78762</ele>
        <time>2023-05-30T08:44:21.000Z</time>
      </trkpt>
      <trkpt lat="46.18848" lon="-1.38325">
        <ele>57.88923</ele>
        <time>2023-05-30T08:44:22.000Z</time>
      </trkpt>
      <trkpt lat="46.18849" lon="-1.38322">
        <ele>57.98542</ele>
        <time>2023-05-30T08:44:23.000Z</time>
      </trkpt>
      <trkpt lat="46.1885" lon="-1.38319">
        <ele>58.09761</ele>
        <time>2023-05-30T08:44:24.000Z</time>
      </trkpt>
      <trkpt lat="46.18852" lon="-1.38317">
        <ele>58.19094</ele>
        <time>2023-05-30T08:44:25.000Z</time>
      </trkpt>
      <trkpt lat="46.18854" lon="-1.38314">
        <ele>58.27736</ele>
        <time>2023-05-30T08:44:26.000Z</time>
      </trkpt>
      <trkpt lat="46.18856" lon="-1.38311">
        <ele>58.39763</ele>
        <time>2023-05-30T08:44:27.000Z</time>
      </trkpt>
      <trkpt lat="46.18857" lon="-1.38307">
        <ele>58.51721</ele>
        <time>2023-05-30T08:44:28.000Z</time>
      </trkpt>
      <trkpt lat="46.18859" lon="-1.38304">
        <ele>58.62897</ele>
        <time>2023-05-30T08:44:29.000Z</time>
      </trkpt>
      <trkpt lat="46.18861" lon="-1.383">
        <ele>58.74442</ele>
        <time>2023-05-30T08:44:30.000Z</time>
      </trkpt>
      <trkpt lat="46.18862" lon="-1.38295">
        <ele>58.8527</ele>
        <time>2023-05-30T08:44:31.000Z</time>
      </trkpt>
      <trkpt lat="46.18863" lon="-1.38291">
        <ele>58.91794</ele>
        <time>2023-05-30T08:44:32.000Z</time>
      </trkpt>
      <trkpt lat="46.18863" lon="-1.38286">
        <ele>58.93198</ele>
        <time>2023-05-30T08:44:33.000Z</time>
      </trkpt>
      <trkpt lat="46.18863" lon="-1.38281">
        <ele>58.90385</ele>
        <time>2023-05-30T08:44:34.000Z</time>
      </trkpt>
      <trkpt lat="46.18863" lon="-1.38277">
        <ele>58.91032</ele>
        <time>2023-05-30T08:44:35.000Z</time>
      </trkpt>
      <trkpt lat="46.18862" lon="-1.38273">
        <ele>58.93052</ele>
        <time>2023-05-30T08:44:36.000Z</time>
      </trkpt>
      <trkpt lat="46.18862" lon="-1.38269">
        <ele>58.95028</ele>
        <time>2023-05-30T08:44:37.000Z</time>
      </trkpt>
      <trkpt lat="46.18861" lon="-1.38265">
        <ele>58.9879</ele>
        <time>2023-05-30T08:44:38.000Z</time>
      </trkpt>
      <trkpt lat="46.18861" lon="-1.38261">
        <ele>59.06979</ele>
        <time>2023-05-30T08:44:39.000Z</time>
      </trkpt>
      <trkpt lat="46.18862" lon="-1.38258">
        <ele>59.10052</ele>
        <time>2023-05-30T08:44:40.000Z</time>
      </trkpt>
      <trkpt lat="46.18864" lon="-1.38256">
        <ele>58.96513</ele>
        <time>2023-05-30T08:44:41.000Z</time>
      </trkpt>
      <trkpt lat="46.18867" lon="-1.38256">
        <ele>58.79661</ele>
        <time>2023-05-30T08:44:42.000Z</time>
      </trkpt>
      <trkpt lat="46.18869" lon="-1.38256">
        <ele>58.74599</ele>
        <time>2023-05-30T08:44:43.000Z</time>
      </trkpt>
      <trkpt lat="46.18871" lon="-1.38256">
        <ele>58.65506</ele>
        <time>2023-05-30T08:44:44.000Z</time>
      </trkpt>
      <trkpt lat="46.18873" lon="-1.38256">
        <ele>58.59224</ele>
        <time>2023-05-30T08:44:45.000Z</time>
      </trkpt>
      <trkpt lat="46.18875" lon="-1.38255">
        <ele>58.5503</ele>
        <time>2023-05-30T08:44:46.000Z</time>
      </trkpt>
      <trkpt lat="46.18877" lon="-1.38255">
        <ele>58.51197</ele>
        <time>2023-05-30T08:44:47.000Z</time>
      </trkpt>
      <trkpt lat="46.1888" lon="-1.38255">
        <ele>58.48812</ele>
        <time>2023-05-30T08:44:48.000Z</time>
      </trkpt>
      <trkpt lat="46.18884" lon="-1.38255">
        <ele>58.46799</ele>
        <time>2023-05-30T08:44:49.000Z</time>
      </trkpt>
      <trkpt lat="46.18888" lon="-1.38255">
        <ele>58.43778</ele>
        <time>2023-05-30T08:44:50.000Z</time>
      </trkpt>
      <trkpt lat="46.18891" lon="-1.38255">
        <ele>58.44102</ele>
        <time>2023-05-30T08:44:51.000Z</time>
      </trkpt>
      <trkpt lat="46.18895" lon="-1.38255">
        <ele>58.4454</ele>
        <time>2023-05-30T08:44:52.000Z</time>
      </trkpt>
      <trkpt lat="46.18897" lon="-1.38255">
        <ele>58.45844</ele>
        <time>2023-05-30T08:44:53.000Z</time>
      </trkpt>
      <trkpt lat="46.18899" lon="-1.38255">
        <ele>58.39814</ele>
        <time>2023-05-30T08:44:54.000Z</time>
      </trkpt>
      <trkpt lat="46.18902" lon="-1.38254">
        <ele>58.29469</ele>
        <time>2023-05-30T08:44:55.000Z</time>
      </trkpt>
      <trkpt lat="46.18905" lon="-1.38254">
        <ele>58.19444</ele>
        <time>2023-05-30T08:44:56.000Z</time>
      </trkpt>
      <trkpt lat="46.18909" lon="-1.38254">
        <ele>58.11506</ele>
        <time>2023-05-30T08:44:57.000Z</time>
      </trkpt>
      <trkpt lat="46.18912" lon="-1.38254">
        <ele>58.21838</ele>
        <time>2023-05-30T08:44:58.000Z</time>
      </trkpt>
      <trkpt lat="46.18915" lon="-1.38253">
        <ele>58.29413</ele>
        <time>2023-05-30T08:44:59.000Z</time>
      </trkpt>
      <trkpt lat="46.18917" lon="-1.38253">
        <ele>58.44341</ele>
        <time>2023-05-30T08:45:00.000Z</time>
      </trkpt>
      <trkpt lat="46.18921" lon="-1.38254">
        <ele>58.62037</ele>
        <time>2023-05-30T08:45:01.000Z</time>
      </trkpt>
      <trkpt lat="46.18924" lon="-1.38253">
        <ele>58.8387</ele>
        <time>2023-05-30T08:45:02.000Z</time>
      </trkpt>
      <trkpt lat="46.18927" lon="-1.38253">
        <ele>58.91545</ele>
        <time>2023-05-30T08:45:03.000Z</time>
      </trkpt>
      <trkpt lat="46.1893" lon="-1.38253">
        <ele>59.00548</ele>
        <time>2023-05-30T08:45:04.000Z</time>
      </trkpt>
      <trkpt lat="46.18933" lon="-1.38252">
        <ele>59.0831</ele>
        <time>2023-05-30T08:45:05.000Z</time>
      </trkpt>
      <trkpt lat="46.18935" lon="-1.38251">
        <ele>59.1454</ele>
        <time>2023-05-30T08:45:06.000Z</time>
      </trkpt>
      <trkpt lat="46.18938" lon="-1.3825">
        <ele>59.16506</ele>
        <time>2023-05-30T08:45:07.000Z</time>
      </trkpt>
      <trkpt lat="46.18941" lon="-1.38249">
        <ele>59.16941</ele>
        <time>2023-05-30T08:45:08.000Z</time>
      </trkpt>
      <trkpt lat="46.18944" lon="-1.38247">
        <ele>59.1562</ele>
        <time>2023-05-30T08:45:09.000Z</time>
      </trkpt>
      <trkpt lat="46.18947" lon="-1.38245">
        <ele>59.17257</ele>
        <time>2023-05-30T08:45:10.000Z</time>
      </trkpt>
      <trkpt lat="46.1895" lon="-1.38243">
        <ele>59.15402</ele>
        <time>2023-05-30T08:45:11.000Z</time>
      </trkpt>
      <trkpt lat="46.18953" lon="-1.38242">
        <ele>59.14056</ele>
        <time>2023-05-30T08:45:12.000Z</time>
      </trkpt>
      <trkpt lat="46.18956" lon="-1.3824">
        <ele>59.10357</ele>
        <time>2023-05-30T08:45:13.000Z</time>
      </trkpt>
      <trkpt lat="46.18959" lon="-1.38238">
        <ele>59.13593</ele>
        <time>2023-05-30T08:45:14.000Z</time>
      </trkpt>
      <trkpt lat="46.18962" lon="-1.38236">
        <ele>59.20112</ele>
        <time>2023-05-30T08:45:15.000Z</time>
      </trkpt>
      <trkpt lat="46.18965" lon="-1.38235">
        <ele>59.29142</ele>
        <time>2023-05-30T08:45:16.000Z</time>
      </trkpt>
      <trkpt lat="46.18969" lon="-1.38233">
        <ele>59.38207</ele>
        <time>2023-05-30T08:45:17.000Z</time>
      </trkpt>
      <trkpt lat="46.18972" lon="-1.38231">
        <ele>59.29639</ele>
        <time>2023-05-30T08:45:18.000Z</time>
      </trkpt>
      <trkpt lat="46.18975" lon="-1.38229">
        <ele>59.26338</ele>
        <time>2023-05-30T08:45:19.000Z</time>
      </trkpt>
      <trkpt lat="46.18978" lon="-1.38227">
        <ele>59.22437</ele>
        <time>2023-05-30T08:45:20.000Z</time>
      </trkpt>
      <trkpt lat="46.18981" lon="-1.38225">
        <ele>59.18359</ele>
        <time>2023-05-30T08:45:21.000Z</time>
      </trkpt>
      <trkpt lat="46.18985" lon="-1.38223">
        <ele>59.12855</ele>
        <time>2023-05-30T08:45:22.000Z</time>
      </trkpt>
      <trkpt lat="46.18988" lon="-1.38221">
        <ele>59.09318</ele>
        <time>2023-05-30T08:45:23.000Z</time>
      </trkpt>
      <trkpt lat="46.18992" lon="-1.3822">
        <ele>59.0763</ele>
        <time>2023-05-30T08:45:24.000Z</time>
      </trkpt>
      <trkpt lat="46.18995" lon="-1.38219">
        <ele>59.04364</ele>
        <time>2023-05-30T08:45:25.000Z</time>
      </trkpt>
      <trkpt lat="46.18999" lon="-1.38218">
        <ele>59.03594</ele>
        <time>2023-05-30T08:45:26.000Z</time>
      </trkpt>
      <trkpt lat="46.19002" lon="-1.38218">
        <ele>59.04084</ele>
        <time>2023-05-30T08:45:27.000Z</time>
      </trkpt>
      <trkpt lat="46.19006" lon="-1.38217">
        <ele>58.9652</ele>
        <time>2023-05-30T08:45:28.000Z</time>
      </trkpt>
      <trkpt lat="46.19009" lon="-1.38217">
        <ele>58.8983</ele>
        <time>2023-05-30T08:45:29.000Z</time>
      </trkpt>
      <trkpt lat="46.19013" lon="-1.38217">
        <ele>58.78547</ele>
        <time>2023-05-30T08:45:30.000Z</time>
      </trkpt>
      <trkpt lat="46.19016" lon="-1.38216">
        <ele>58.80676</ele>
        <time>2023-05-30T08:45:31.000Z</time>
      </trkpt>
      <trkpt lat="46.1902" lon="-1.38216">
        <ele>58.78028</ele>
        <time>2023-05-30T08:45:32.000Z</time>
      </trkpt>
      <trkpt lat="46.19023" lon="-1.38215">
        <ele>58.77813</ele>
        <time>2023-05-30T08:45:33.000Z</time>
      </trkpt>
      <trkpt lat="46.19027" lon="-1.38214">
        <ele>58.78721</ele>
        <time>2023-05-30T08:45:34.000Z</time>
      </trkpt>
      <trkpt lat="46.1903" lon="-1.38212">
        <ele>58.78236</ele>
        <time>2023-05-30T08:45:35.000Z</time>
      </trkpt>
      <trkpt lat="46.19034" lon="-1.38209">
        <ele>58.74903</ele>
        <time>2023-05-30T08:45:36.000Z</time>
      </trkpt>
      <trkpt lat="46.19037" lon="-1.38206">
        <ele>58.72899</ele>
        <time>2023-05-30T08:45:37.000Z</time>
      </trkpt>
      <trkpt lat="46.19039" lon="-1.38202">
        <ele>58.71395</ele>
        <time>2023-05-30T08:45:38.000Z</time>
      </trkpt>
      <trkpt lat="46.19042" lon="-1.38198">
        <ele>58.68676</ele>
        <time>2023-05-30T08:45:39.000Z</time>
      </trkpt>
      <trkpt lat="46.19044" lon="-1.38194">
        <ele>58.60542</ele>
        <time>2023-05-30T08:45:40.000Z</time>
      </trkpt>
      <trkpt lat="46.19045" lon="-1.38191">
        <ele>58.61586</ele>
        <time>2023-05-30T08:45:41.000Z</time>
      </trkpt>
      <trkpt lat="46.19047" lon="-1.38187">
        <ele>58.63041</ele>
        <time>2023-05-30T08:45:42.000Z</time>
      </trkpt>
      <trkpt lat="46.19048" lon="-1.38182">
        <ele>58.60471</ele>
        <time>2023-05-30T08:45:43.000Z</time>
      </trkpt>
      <trkpt lat="46.1905" lon="-1.38178">
        <ele>58.60852</ele>
        <time>2023-05-30T08:45:44.000Z</time>
      </trkpt>
      <trkpt lat="46.19052" lon="-1.38173">
        <ele>58.62716</ele>
        <time>2023-05-30T08:45:45.000Z</time>
      </trkpt>
      <trkpt lat="46.19053" lon="-1.38168">
        <ele>58.64896</ele>
        <time>2023-05-30T08:45:46.000Z</time>
      </trkpt>
      <trkpt lat="46.19054" lon="-1.38163">
        <ele>58.69569</ele>
        <time>2023-05-30T08:45:47.000Z</time>
      </trkpt>
      <trkpt lat="46.19055" lon="-1.38158">
        <ele>58.83201</ele>
        <time>2023-05-30T08:45:48.000Z</time>
      </trkpt>
      <trkpt lat="46.19057" lon="-1.38153">
        <ele>58.97285</ele>
        <time>2023-05-30T08:45:49.000Z</time>
      </trkpt>
      <trkpt lat="46.19058" lon="-1.38149">
        <ele>59.13567</ele>
        <time>2023-05-30T08:45:50.000Z</time>
      </trkpt>
      <trkpt lat="46.19059" lon="-1.38145">
        <ele>59.1495</ele>
        <time>2023-05-30T08:45:51.000Z</time>
      </trkpt>
      <trkpt lat="46.19061" lon="-1.3814">
        <ele>59.19937</ele>
        <time>2023-05-30T08:45:52.000Z</time>
      </trkpt>
      <trkpt lat="46.19062" lon="-1.38136">
        <ele>59.23143</ele>
        <time>2023-05-30T08:45:53.000Z</time>
      </trkpt>
      <trkpt lat="46.19063" lon="-1.38131">
        <ele>59.24174</ele>
        <time>2023-05-30T08:45:54.000Z</time>
      </trkpt>
      <trkpt lat="46.19065" lon="-1.38126">
        <ele>59.32493</ele>
        <time>2023-05-30T08:45:55.000Z</time>
      </trkpt>
      <trkpt lat="46.19066" lon="-1.38121">
        <ele>59.41632</ele>
        <time>2023-05-30T08:45:56.000Z</time>
      </trkpt>
      <trkpt lat="46.19067" lon="-1.38117">
        <ele>59.51613</ele>
        <time>2023-05-30T08:45:57.000Z</time>
      </trkpt>
      <trkpt lat="46.19068" lon="-1.38112">
        <ele>59.60178</ele>
        <time>2023-05-30T08:45:58.000Z</time>
      </trkpt>
      <trkpt lat="46.19069" lon="-1.38108">
        <ele>59.65355</ele>
        <time>2023-05-30T08:45:59.000Z</time>
      </trkpt>
      <trkpt lat="46.1907" lon="-1.38104">
        <ele>59.74465</ele>
        <time>2023-05-30T08:46:00.000Z</time>
      </trkpt>
      <trkpt lat="46.19071" lon="-1.38099">
        <ele>59.73236</ele>
        <time>2023-05-30T08:46:01.000Z</time>
      </trkpt>
      <trkpt lat="46.19073" lon="-1.38094">
        <ele>59.68851</ele>
        <time>2023-05-30T08:46:02.000Z</time>
      </trkpt>
      <trkpt lat="46.19074" lon="-1.38089">
        <ele>59.68766</ele>
        <time>2023-05-30T08:46:03.000Z</time>
      </trkpt>
      <trkpt lat="46.19075" lon="-1.38084">
        <ele>59.62676</ele>
        <time>2023-05-30T08:46:04.000Z</time>
      </trkpt>
      <trkpt lat="46.19077" lon="-1.38079">
        <ele>59.5689</ele>
        <time>2023-05-30T08:46:05.000Z</time>
      </trkpt>
      <trkpt lat="46.19079" lon="-1.38074">
        <ele>59.494</ele>
        <time>2023-05-30T08:46:06.000Z</time>
      </trkpt>
      <trkpt lat="46.19081" lon="-1.3807">
        <ele>59.43899</ele>
        <time>2023-05-30T08:46:07.000Z</time>
      </trkpt>
      <trkpt lat="46.19083" lon="-1.38065">
        <ele>59.37681</ele>
        <time>2023-05-30T08:46:08.000Z</time>
      </trkpt>
      <trkpt lat="46.19086" lon="-1.38061">
        <ele>59.31269</ele>
        <time>2023-05-30T08:46:09.000Z</time>
      </trkpt>
      <trkpt lat="46.19088" lon="-1.38056">
        <ele>59.27067</ele>
        <time>2023-05-30T08:46:10.000Z</time>
      </trkpt>
      <trkpt lat="46.1909" lon="-1.38052">
        <ele>59.22963</ele>
        <time>2023-05-30T08:46:11.000Z</time>
      </trkpt>
      <trkpt lat="46.19092" lon="-1.38049">
        <ele>59.22252</ele>
        <time>2023-05-30T08:46:12.000Z</time>
      </trkpt>
      <trkpt lat="46.19094" lon="-1.38045">
        <ele>59.21273</ele>
        <time>2023-05-30T08:46:13.000Z</time>
      </trkpt>
      <trkpt lat="46.19096" lon="-1.38041">
        <ele>59.21517</ele>
        <time>2023-05-30T08:46:14.000Z</time>
      </trkpt>
      <trkpt lat="46.19098" lon="-1.38038">
        <ele>59.18535</ele>
        <time>2023-05-30T08:46:15.000Z</time>
      </trkpt>
      <trkpt lat="46.19099" lon="-1.38034">
        <ele>59.15007</ele>
        <time>2023-05-30T08:46:16.000Z</time>
      </trkpt>
      <trkpt lat="46.191" lon="-1.38031">
        <ele>59.1015</ele>
        <time>2023-05-30T08:46:17.000Z</time>
      </trkpt>
      <trkpt lat="46.19102" lon="-1.38028">
        <ele>59.06561</ele>
        <time>2023-05-30T08:46:19.000Z</time>
      </trkpt>
      <trkpt lat="46.19105" lon="-1.38027">
        <ele>59.0841</ele>
        <time>2023-05-30T08:46:21.000Z</time>
      </trkpt>
      <trkpt lat="46.19108" lon="-1.38027">
        <ele>59.13938</ele>
        <time>2023-05-30T08:46:23.000Z</time>
      </trkpt>
      <trkpt lat="46.19111" lon="-1.38027">
        <ele>59.20688</ele>
        <time>2023-05-30T08:46:24.000Z</time>
      </trkpt>
      <trkpt lat="46.19113" lon="-1.38028">
        <ele>59.21307</ele>
        <time>2023-05-30T08:46:25.000Z</time>
      </trkpt>
      <trkpt lat="46.19116" lon="-1.38028">
        <ele>59.21641</ele>
        <time>2023-05-30T08:46:26.000Z</time>
      </trkpt>
      <trkpt lat="46.1912" lon="-1.38028">
        <ele>59.23887</ele>
        <time>2023-05-30T08:46:27.000Z</time>
      </trkpt>
      <trkpt lat="46.19123" lon="-1.38028">
        <ele>59.22482</ele>
        <time>2023-05-30T08:46:28.000Z</time>
      </trkpt>
      <trkpt lat="46.19127" lon="-1.38029">
        <ele>59.17476</ele>
        <time>2023-05-30T08:46:29.000Z</time>
      </trkpt>
      <trkpt lat="46.1913" lon="-1.38029">
        <ele>59.21868</ele>
        <time>2023-05-30T08:46:30.000Z</time>
      </trkpt>
      <trkpt lat="46.19134" lon="-1.38029">
        <ele>59.23685</ele>
        <time>2023-05-30T08:46:31.000Z</time>
      </trkpt>
      <trkpt lat="46.19137" lon="-1.3803">
        <ele>59.24488</ele>
        <time>2023-05-30T08:46:32.000Z</time>
      </trkpt>
      <trkpt lat="46.19141" lon="-1.3803">
        <ele>59.23444</ele>
        <time>2023-05-30T08:46:33.000Z</time>
      </trkpt>
      <trkpt lat="46.19144" lon="-1.38031">
        <ele>59.24189</ele>
        <time>2023-05-30T08:46:34.000Z</time>
      </trkpt>
      <trkpt lat="46.19148" lon="-1.38031">
        <ele>59.21055</ele>
        <time>2023-05-30T08:46:35.000Z</time>
      </trkpt>
      <trkpt lat="46.19152" lon="-1.38032">
        <ele>59.20973</ele>
        <time>2023-05-30T08:46:36.000Z</time>
      </trkpt>
      <trkpt lat="46.19156" lon="-1.38032">
        <ele>59.16862</ele>
        <time>2023-05-30T08:46:37.000Z</time>
      </trkpt>
      <trkpt lat="46.19159" lon="-1.38032">
        <ele>59.11346</ele>
        <time>2023-05-30T08:46:38.000Z</time>
      </trkpt>
      <trkpt lat="46.19162" lon="-1.38032">
        <ele>59.09045</ele>
        <time>2023-05-30T08:46:39.000Z</time>
      </trkpt>
      <trkpt lat="46.19166" lon="-1.38032">
        <ele>59.07859</ele>
        <time>2023-05-30T08:46:40.000Z</time>
      </trkpt>
      <trkpt lat="46.19169" lon="-1.38032">
        <ele>59.06564</ele>
        <time>2023-05-30T08:46:41.000Z</time>
      </trkpt>
      <trkpt lat="46.19172" lon="-1.38032">
        <ele>59.04087</ele>
        <time>2023-05-30T08:46:42.000Z</time>
      </trkpt>
      <trkpt lat="46.19175" lon="-1.38031">
        <ele>58.90705</ele>
        <time>2023-05-30T08:46:43.000Z</time>
      </trkpt>
      <trkpt lat="46.19178" lon="-1.3803">
        <ele>58.73832</ele>
        <time>2023-05-30T08:46:44.000Z</time>
      </trkpt>
      <trkpt lat="46.19181" lon="-1.38027">
        <ele>58.65537</ele>
        <time>2023-05-30T08:46:45.000Z</time>
      </trkpt>
      <trkpt lat="46.19184" lon="-1.38023">
        <ele>58.54276</ele>
        <time>2023-05-30T08:46:46.000Z</time>
      </trkpt>
      <trkpt lat="46.19186" lon="-1.38019">
        <ele>58.43555</ele>
        <time>2023-05-30T08:46:47.000Z</time>
      </trkpt>
      <trkpt lat="46.19187" lon="-1.38013">
        <ele>58.50942</ele>
        <time>2023-05-30T08:46:48.000Z</time>
      </trkpt>
      <trkpt lat="46.19188" lon="-1.38008">
        <ele>58.62517</ele>
        <time>2023-05-30T08:46:49.000Z</time>
      </trkpt>
      <trkpt lat="46.19188" lon="-1.38002">
        <ele>58.57422</ele>
        <time>2023-05-30T08:46:50.000Z</time>
      </trkpt>
      <trkpt lat="46.19189" lon="-1.37997">
        <ele>58.54879</ele>
        <time>2023-05-30T08:46:51.000Z</time>
      </trkpt>
      <trkpt lat="46.19189" lon="-1.37991">
        <ele>58.54242</ele>
        <time>2023-05-30T08:46:52.000Z</time>
      </trkpt>
      <trkpt lat="46.1919" lon="-1.37986">
        <ele>58.52634</ele>
        <time>2023-05-30T08:46:53.000Z</time>
      </trkpt>
      <trkpt lat="46.19191" lon="-1.37981">
        <ele>58.49286</ele>
        <time>2023-05-30T08:46:54.000Z</time>
      </trkpt>
      <trkpt lat="46.19192" lon="-1.37976">
        <ele>58.46171</ele>
        <time>2023-05-30T08:46:55.000Z</time>
      </trkpt>
      <trkpt lat="46.19193" lon="-1.37971">
        <ele>58.41806</ele>
        <time>2023-05-30T08:46:56.000Z</time>
      </trkpt>
      <trkpt lat="46.19194" lon="-1.37965">
        <ele>58.40644</ele>
        <time>2023-05-30T08:46:57.000Z</time>
      </trkpt>
      <trkpt lat="46.19195" lon="-1.3796">
        <ele>58.39256</ele>
        <time>2023-05-30T08:46:58.000Z</time>
      </trkpt>
      <trkpt lat="46.19196" lon="-1.37955">
        <ele>58.33669</ele>
        <time>2023-05-30T08:46:59.000Z</time>
      </trkpt>
      <trkpt lat="46.19196" lon="-1.37951">
        <ele>58.22277</ele>
        <time>2023-05-30T08:47:00.000Z</time>
      </trkpt>
      <trkpt lat="46.19197" lon="-1.37946">
        <ele>58.07909</ele>
        <time>2023-05-30T08:47:01.000Z</time>
      </trkpt>
      <trkpt lat="46.19198" lon="-1.37941">
        <ele>57.9206</ele>
        <time>2023-05-30T08:47:02.000Z</time>
      </trkpt>
      <trkpt lat="46.19199" lon="-1.37936">
        <ele>57.95939</ele>
        <time>2023-05-30T08:47:03.000Z</time>
      </trkpt>
      <trkpt lat="46.19199" lon="-1.37931">
        <ele>58.00428</ele>
        <time>2023-05-30T08:47:04.000Z</time>
      </trkpt>
      <trkpt lat="46.192" lon="-1.37926">
        <ele>58.06257</ele>
        <time>2023-05-30T08:47:05.000Z</time>
      </trkpt>
      <trkpt lat="46.19201" lon="-1.37921">
        <ele>58.1628</ele>
        <time>2023-05-30T08:47:06.000Z</time>
      </trkpt>
      <trkpt lat="46.19201" lon="-1.37915">
        <ele>58.23232</ele>
        <time>2023-05-30T08:47:07.000Z</time>
      </trkpt>
      <trkpt lat="46.19202" lon="-1.3791">
        <ele>58.11857</ele>
        <time>2023-05-30T08:47:08.000Z</time>
      </trkpt>
      <trkpt lat="46.19202" lon="-1.37905">
        <ele>57.98394</ele>
        <time>2023-05-30T08:47:09.000Z</time>
      </trkpt>
      <trkpt lat="46.19203" lon="-1.379">
        <ele>57.88566</ele>
        <time>2023-05-30T08:47:10.000Z</time>
      </trkpt>
      <trkpt lat="46.19203" lon="-1.37896">
        <ele>57.7876</ele>
        <time>2023-05-30T08:47:11.000Z</time>
      </trkpt>
      <trkpt lat="46.19204" lon="-1.37891">
        <ele>57.67942</ele>
        <time>2023-05-30T08:47:12.000Z</time>
      </trkpt>
      <trkpt lat="46.19205" lon="-1.37886">
        <ele>57.58889</ele>
        <time>2023-05-30T08:47:13.000Z</time>
      </trkpt>
      <trkpt lat="46.19205" lon="-1.37881">
        <ele>57.51889</ele>
        <time>2023-05-30T08:47:14.000Z</time>
      </trkpt>
      <trkpt lat="46.19206" lon="-1.37877">
        <ele>57.45287</ele>
        <time>2023-05-30T08:47:15.000Z</time>
      </trkpt>
      <trkpt lat="46.19207" lon="-1.37872">
        <ele>57.39441</ele>
        <time>2023-05-30T08:47:16.000Z</time>
      </trkpt>
      <trkpt lat="46.19208" lon="-1.37867">
        <ele>57.36328</ele>
        <time>2023-05-30T08:47:17.000Z</time>
      </trkpt>
      <trkpt lat="46.19209" lon="-1.37862">
        <ele>57.29296</ele>
        <time>2023-05-30T08:47:18.000Z</time>
      </trkpt>
      <trkpt lat="46.19209" lon="-1.37857">
        <ele>57.24184</ele>
        <time>2023-05-30T08:47:19.000Z</time>
      </trkpt>
      <trkpt lat="46.1921" lon="-1.37852">
        <ele>57.23068</ele>
        <time>2023-05-30T08:47:20.000Z</time>
      </trkpt>
      <trkpt lat="46.19211" lon="-1.37847">
        <ele>57.26644</ele>
        <time>2023-05-30T08:47:21.000Z</time>
      </trkpt>
      <trkpt lat="46.19212" lon="-1.37842">
        <ele>57.31184</ele>
        <time>2023-05-30T08:47:22.000Z</time>
      </trkpt>
      <trkpt lat="46.19213" lon="-1.37836">
        <ele>57.25007</ele>
        <time>2023-05-30T08:47:23.000Z</time>
      </trkpt>
      <trkpt lat="46.19214" lon="-1.37831">
        <ele>57.18034</ele>
        <time>2023-05-30T08:47:24.000Z</time>
      </trkpt>
      <trkpt lat="46.19215" lon="-1.37826">
        <ele>57.1461</ele>
        <time>2023-05-30T08:47:25.000Z</time>
      </trkpt>
      <trkpt lat="46.19216" lon="-1.37821">
        <ele>57.09431</ele>
        <time>2023-05-30T08:47:26.000Z</time>
      </trkpt>
      <trkpt lat="46.19217" lon="-1.37816">
        <ele>57.18729</ele>
        <time>2023-05-30T08:47:27.000Z</time>
      </trkpt>
      <trkpt lat="46.19218" lon="-1.3781">
        <ele>57.30198</ele>
        <time>2023-05-30T08:47:28.000Z</time>
      </trkpt>
      <trkpt lat="46.19219" lon="-1.37805">
        <ele>57.42532</ele>
        <time>2023-05-30T08:47:29.000Z</time>
      </trkpt>
      <trkpt lat="46.1922" lon="-1.378">
        <ele>57.53403</ele>
        <time>2023-05-30T08:47:30.000Z</time>
      </trkpt>
      <trkpt lat="46.19222" lon="-1.37795">
        <ele>57.67068</ele>
        <time>2023-05-30T08:47:31.000Z</time>
      </trkpt>
      <trkpt lat="46.19223" lon="-1.3779">
        <ele>57.81205</ele>
        <time>2023-05-30T08:47:32.000Z</time>
      </trkpt>
      <trkpt lat="46.19224" lon="-1.37784">
        <ele>57.94281</ele>
        <time>2023-05-30T08:47:33.000Z</time>
      </trkpt>
      <trkpt lat="46.19225" lon="-1.37779">
        <ele>58.03864</ele>
        <time>2023-05-30T08:47:34.000Z</time>
      </trkpt>
      <trkpt lat="46.19226" lon="-1.37774">
        <ele>58.11056</ele>
        <time>2023-05-30T08:47:35.000Z</time>
      </trkpt>
      <trkpt lat="46.19227" lon="-1.37768">
        <ele>58.18454</ele>
        <time>2023-05-30T08:47:36.000Z</time>
      </trkpt>
      <trkpt lat="46.19228" lon="-1.37763">
        <ele>58.22404</ele>
        <time>2023-05-30T08:47:37.000Z</time>
      </trkpt>
      <trkpt lat="46.19229" lon="-1.37758">
        <ele>58.31068</ele>
        <time>2023-05-30T08:47:38.000Z</time>
      </trkpt>
      <trkpt lat="46.1923" lon="-1.37753">
        <ele>58.33053</ele>
        <time>2023-05-30T08:47:39.000Z</time>
      </trkpt>
      <trkpt lat="46.19231" lon="-1.37748">
        <ele>58.37615</ele>
        <time>2023-05-30T08:47:40.000Z</time>
      </trkpt>
      <trkpt lat="46.19232" lon="-1.37743">
        <ele>58.42175</ele>
        <time>2023-05-30T08:47:41.000Z</time>
      </trkpt>
      <trkpt lat="46.19233" lon="-1.37738">
        <ele>58.47475</ele>
        <time>2023-05-30T08:47:42.000Z</time>
      </trkpt>
      <trkpt lat="46.19234" lon="-1.37733">
        <ele>58.52869</ele>
        <time>2023-05-30T08:47:43.000Z</time>
      </trkpt>
      <trkpt lat="46.19235" lon="-1.37727">
        <ele>58.65199</ele>
        <time>2023-05-30T08:47:44.000Z</time>
      </trkpt>
      <trkpt lat="46.19235" lon="-1.37722">
        <ele>58.71949</ele>
        <time>2023-05-30T08:47:45.000Z</time>
      </trkpt>
      <trkpt lat="46.19236" lon="-1.37717">
        <ele>58.79436</ele>
        <time>2023-05-30T08:47:46.000Z</time>
      </trkpt>
      <trkpt lat="46.19237" lon="-1.37711">
        <ele>58.73694</ele>
        <time>2023-05-30T08:47:47.000Z</time>
      </trkpt>
      <trkpt lat="46.19237" lon="-1.37706">
        <ele>58.83256</ele>
        <time>2023-05-30T08:47:48.000Z</time>
      </trkpt>
      <trkpt lat="46.19238" lon="-1.377">
        <ele>58.92056</ele>
        <time>2023-05-30T08:47:49.000Z</time>
      </trkpt>
      <trkpt lat="46.19239" lon="-1.37695">
        <ele>59.02495</ele>
        <time>2023-05-30T08:47:50.000Z</time>
      </trkpt>
      <trkpt lat="46.19239" lon="-1.3769">
        <ele>59.07843</ele>
        <time>2023-05-30T08:47:51.000Z</time>
      </trkpt>
      <trkpt lat="46.1924" lon="-1.37685">
        <ele>59.1327</ele>
        <time>2023-05-30T08:47:52.000Z</time>
      </trkpt>
      <trkpt lat="46.19241" lon="-1.3768">
        <ele>59.17106</ele>
        <time>2023-05-30T08:47:53.000Z</time>
      </trkpt>
      <trkpt lat="46.19241" lon="-1.37675">
        <ele>59.21386</ele>
        <time>2023-05-30T08:47:54.000Z</time>
      </trkpt>
      <trkpt lat="46.19241" lon="-1.37669">
        <ele>59.28356</ele>
        <time>2023-05-30T08:47:55.000Z</time>
      </trkpt>
      <trkpt lat="46.19242" lon="-1.37664">
        <ele>59.34956</ele>
        <time>2023-05-30T08:47:56.000Z</time>
      </trkpt>
      <trkpt lat="46.19243" lon="-1.37659">
        <ele>59.42217</ele>
        <time>2023-05-30T08:47:57.000Z</time>
      </trkpt>
      <trkpt lat="46.19243" lon="-1.37654">
        <ele>59.53071</ele>
        <time>2023-05-30T08:47:58.000Z</time>
      </trkpt>
      <trkpt lat="46.19244" lon="-1.37649">
        <ele>59.70051</ele>
        <time>2023-05-30T08:47:59.000Z</time>
      </trkpt>
      <trkpt lat="46.19244" lon="-1.37644">
        <ele>59.87595</ele>
        <time>2023-05-30T08:48:00.000Z</time>
      </trkpt>
      <trkpt lat="46.19245" lon="-1.37639">
        <ele>60.0415</ele>
        <time>2023-05-30T08:48:01.000Z</time>
      </trkpt>
      <trkpt lat="46.19246" lon="-1.37633">
        <ele>60.19863</ele>
        <time>2023-05-30T08:48:02.000Z</time>
      </trkpt>
      <trkpt lat="46.19246" lon="-1.37628">
        <ele>60.33716</ele>
        <time>2023-05-30T08:48:03.000Z</time>
      </trkpt>
      <trkpt lat="46.19247" lon="-1.37623">
        <ele>60.45132</ele>
        <time>2023-05-30T08:48:04.000Z</time>
      </trkpt>
      <trkpt lat="46.19248" lon="-1.37618">
        <ele>60.58783</ele>
        <time>2023-05-30T08:48:05.000Z</time>
      </trkpt>
      <trkpt lat="46.19248" lon="-1.37613">
        <ele>60.74287</ele>
        <time>2023-05-30T08:48:06.000Z</time>
      </trkpt>
      <trkpt lat="46.19249" lon="-1.37608">
        <ele>60.90559</ele>
        <time>2023-05-30T08:48:07.000Z</time>
      </trkpt>
      <trkpt lat="46.1925" lon="-1.37603">
        <ele>60.90567</ele>
        <time>2023-05-30T08:48:08.000Z</time>
      </trkpt>
      <trkpt lat="46.19251" lon="-1.37598">
        <ele>60.91692</ele>
        <time>2023-05-30T08:48:09.000Z</time>
      </trkpt>
      <trkpt lat="46.19252" lon="-1.37593">
        <ele>60.92407</ele>
        <time>2023-05-30T08:48:10.000Z</time>
      </trkpt>
      <trkpt lat="46.19252" lon="-1.37587">
        <ele>60.93135</ele>
        <time>2023-05-30T08:48:11.000Z</time>
      </trkpt>
      <trkpt lat="46.19253" lon="-1.37582">
        <ele>60.93282</ele>
        <time>2023-05-30T08:48:12.000Z</time>
      </trkpt>
      <trkpt lat="46.19254" lon="-1.37577">
        <ele>60.95337</ele>
        <time>2023-05-30T08:48:13.000Z</time>
      </trkpt>
      <trkpt lat="46.19256" lon="-1.37571">
        <ele>60.98378</ele>
        <time>2023-05-30T08:48:14.000Z</time>
      </trkpt>
      <trkpt lat="46.19257" lon="-1.37565">
        <ele>61.02407</ele>
        <time>2023-05-30T08:48:15.000Z</time>
      </trkpt>
      <trkpt lat="46.19258" lon="-1.3756">
        <ele>61.06732</ele>
        <time>2023-05-30T08:48:16.000Z</time>
      </trkpt>
      <trkpt lat="46.19259" lon="-1.37555">
        <ele>61.12099</ele>
        <time>2023-05-30T08:48:17.000Z</time>
      </trkpt>
      <trkpt lat="46.1926" lon="-1.37549">
        <ele>61.13231</ele>
        <time>2023-05-30T08:48:18.000Z</time>
      </trkpt>
      <trkpt lat="46.19261" lon="-1.37543">
        <ele>61.16026</ele>
        <time>2023-05-30T08:48:19.000Z</time>
      </trkpt>
      <trkpt lat="46.19263" lon="-1.37538">
        <ele>61.17177</ele>
        <time>2023-05-30T08:48:20.000Z</time>
      </trkpt>
      <trkpt lat="46.19264" lon="-1.37533">
        <ele>61.16759</ele>
        <time>2023-05-30T08:48:21.000Z</time>
      </trkpt>
      <trkpt lat="46.19265" lon="-1.37528">
        <ele>61.15785</ele>
        <time>2023-05-30T08:48:22.000Z</time>
      </trkpt>
      <trkpt lat="46.19266" lon="-1.37522">
        <ele>61.15749</ele>
        <time>2023-05-30T08:48:23.000Z</time>
      </trkpt>
      <trkpt lat="46.19268" lon="-1.37516">
        <ele>61.12835</ele>
        <time>2023-05-30T08:48:24.000Z</time>
      </trkpt>
      <trkpt lat="46.19269" lon="-1.37511">
        <ele>61.12828</ele>
        <time>2023-05-30T08:48:25.000Z</time>
      </trkpt>
      <trkpt lat="46.19271" lon="-1.37505">
        <ele>61.11381</ele>
        <time>2023-05-30T08:48:26.000Z</time>
      </trkpt>
      <trkpt lat="46.19272" lon="-1.375">
        <ele>61.08245</ele>
        <time>2023-05-30T08:48:27.000Z</time>
      </trkpt>
      <trkpt lat="46.19273" lon="-1.37494">
        <ele>61.01056</ele>
        <time>2023-05-30T08:48:28.000Z</time>
      </trkpt>
      <trkpt lat="46.19274" lon="-1.37488">
        <ele>61.05629</ele>
        <time>2023-05-30T08:48:29.000Z</time>
      </trkpt>
      <trkpt lat="46.19276" lon="-1.37482">
        <ele>61.03109</ele>
        <time>2023-05-30T08:48:30.000Z</time>
      </trkpt>
      <trkpt lat="46.19277" lon="-1.37477">
        <ele>61.07734</ele>
        <time>2023-05-30T08:48:31.000Z</time>
      </trkpt>
      <trkpt lat="46.19278" lon="-1.37471">
        <ele>61.12025</ele>
        <time>2023-05-30T08:48:32.000Z</time>
      </trkpt>
      <trkpt lat="46.1928" lon="-1.37466">
        <ele>61.16467</ele>
        <time>2023-05-30T08:48:33.000Z</time>
      </trkpt>
      <trkpt lat="46.19281" lon="-1.3746">
        <ele>61.22001</ele>
        <time>2023-05-30T08:48:34.000Z</time>
      </trkpt>
      <trkpt lat="46.19282" lon="-1.37455">
        <ele>61.26111</ele>
        <time>2023-05-30T08:48:35.000Z</time>
      </trkpt>
      <trkpt lat="46.19283" lon="-1.3745">
        <ele>61.28401</ele>
        <time>2023-05-30T08:48:36.000Z</time>
      </trkpt>
      <trkpt lat="46.19285" lon="-1.37445">
        <ele>61.30192</ele>
        <time>2023-05-30T08:48:37.000Z</time>
      </trkpt>
      <trkpt lat="46.19286" lon="-1.37441">
        <ele>61.3203</ele>
        <time>2023-05-30T08:48:38.000Z</time>
      </trkpt>
      <trkpt lat="46.19286" lon="-1.37435">
        <ele>61.32489</ele>
        <time>2023-05-30T08:48:39.000Z</time>
      </trkpt>
      <trkpt lat="46.19287" lon="-1.37431">
        <ele>61.32645</ele>
        <time>2023-05-30T08:48:40.000Z</time>
      </trkpt>
      <trkpt lat="46.19287" lon="-1.37426">
        <ele>61.34537</ele>
        <time>2023-05-30T08:48:41.000Z</time>
      </trkpt>
      <trkpt lat="46.19287" lon="-1.37422">
        <ele>61.25847</ele>
        <time>2023-05-30T08:48:42.000Z</time>
      </trkpt>
      <trkpt lat="46.19288" lon="-1.37417">
        <ele>61.17756</ele>
        <time>2023-05-30T08:48:43.000Z</time>
      </trkpt>
      <trkpt lat="46.19288" lon="-1.37413">
        <ele>61.12218</ele>
        <time>2023-05-30T08:48:44.000Z</time>
      </trkpt>
      <trkpt lat="46.19289" lon="-1.3741">
        <ele>61.0282</ele>
        <time>2023-05-30T08:48:45.000Z</time>
      </trkpt>
      <trkpt lat="46.19289" lon="-1.37406">
        <ele>60.92382</ele>
        <time>2023-05-30T08:48:46.000Z</time>
      </trkpt>
      <trkpt lat="46.1929" lon="-1.37403">
        <ele>60.83191</ele>
        <time>2023-05-30T08:48:47.000Z</time>
      </trkpt>
      <trkpt lat="46.1929" lon="-1.37399">
        <ele>60.80742</ele>
        <time>2023-05-30T08:48:48.000Z</time>
      </trkpt>
      <trkpt lat="46.19289" lon="-1.37396">
        <ele>60.65985</ele>
        <time>2023-05-30T08:48:49.000Z</time>
      </trkpt>
      <trkpt lat="46.19289" lon="-1.37393">
        <ele>60.59336</ele>
        <time>2023-05-30T08:48:50.000Z</time>
      </trkpt>
      <trkpt lat="46.19289" lon="-1.3739">
        <ele>60.52525</ele>
        <time>2023-05-30T08:48:51.000Z</time>
      </trkpt>
      <trkpt lat="46.19292" lon="-1.37388">
        <ele>60.60104</ele>
        <time>2023-05-30T08:48:52.000Z</time>
      </trkpt>
      <trkpt lat="46.19295" lon="-1.37388">
        <ele>60.69291</ele>
        <time>2023-05-30T08:48:53.000Z</time>
      </trkpt>
      <trkpt lat="46.19298" lon="-1.37388">
        <ele>60.76559</ele>
        <time>2023-05-30T08:48:54.000Z</time>
      </trkpt>
      <trkpt lat="46.19302" lon="-1.37389">
        <ele>60.73475</ele>
        <time>2023-05-30T08:48:55.000Z</time>
      </trkpt>
      <trkpt lat="46.19305" lon="-1.3739">
        <ele>60.71552</ele>
        <time>2023-05-30T08:48:56.000Z</time>
      </trkpt>
      <trkpt lat="46.19309" lon="-1.37391">
        <ele>60.8168</ele>
        <time>2023-05-30T08:48:57.000Z</time>
      </trkpt>
      <trkpt lat="46.19312" lon="-1.37391">
        <ele>60.93276</ele>
        <time>2023-05-30T08:48:58.000Z</time>
      </trkpt>
      <trkpt lat="46.19316" lon="-1.37392">
        <ele>61.07235</ele>
        <time>2023-05-30T08:48:59.000Z</time>
      </trkpt>
      <trkpt lat="46.1932" lon="-1.37393">
        <ele>61.02122</ele>
        <time>2023-05-30T08:49:00.000Z</time>
      </trkpt>
      <trkpt lat="46.19323" lon="-1.37394">
        <ele>60.96544</ele>
        <time>2023-05-30T08:49:01.000Z</time>
      </trkpt>
      <trkpt lat="46.19327" lon="-1.37394">
        <ele>61.00545</ele>
        <time>2023-05-30T08:49:02.000Z</time>
      </trkpt>
      <trkpt lat="46.19331" lon="-1.37395">
        <ele>61.03109</ele>
        <time>2023-05-30T08:49:03.000Z</time>
      </trkpt>
      <trkpt lat="46.19336" lon="-1.37396">
        <ele>61.19297</ele>
        <time>2023-05-30T08:49:04.000Z</time>
      </trkpt>
      <trkpt lat="46.1934" lon="-1.37397">
        <ele>61.30116</ele>
        <time>2023-05-30T08:49:05.000Z</time>
      </trkpt>
      <trkpt lat="46.19344" lon="-1.37398">
        <ele>61.40279</ele>
        <time>2023-05-30T08:49:06.000Z</time>
      </trkpt>
      <trkpt lat="46.19349" lon="-1.37398">
        <ele>61.53828</ele>
        <time>2023-05-30T08:49:07.000Z</time>
      </trkpt>
      <trkpt lat="46.19353" lon="-1.37399">
        <ele>61.5342</ele>
        <time>2023-05-30T08:49:08.000Z</time>
      </trkpt>
      <trkpt lat="46.19358" lon="-1.37399">
        <ele>61.66821</ele>
        <time>2023-05-30T08:49:09.000Z</time>
      </trkpt>
      <trkpt lat="46.19362" lon="-1.374">
        <ele>61.80713</ele>
        <time>2023-05-30T08:49:10.000Z</time>
      </trkpt>
      <trkpt lat="46.19366" lon="-1.374">
        <ele>61.90061</ele>
        <time>2023-05-30T08:49:11.000Z</time>
      </trkpt>
      <trkpt lat="46.1937" lon="-1.374">
        <ele>61.85238</ele>
        <time>2023-05-30T08:49:12.000Z</time>
      </trkpt>
      <trkpt lat="46.19373" lon="-1.37401">
        <ele>61.79652</ele>
        <time>2023-05-30T08:49:13.000Z</time>
      </trkpt>
      <trkpt lat="46.19377" lon="-1.37402">
        <ele>61.77137</ele>
        <time>2023-05-30T08:49:14.000Z</time>
      </trkpt>
      <trkpt lat="46.19382" lon="-1.37402">
        <ele>61.86115</ele>
        <time>2023-05-30T08:49:15.000Z</time>
      </trkpt>
      <trkpt lat="46.19385" lon="-1.37403">
        <ele>61.92409</ele>
        <time>2023-05-30T08:49:16.000Z</time>
      </trkpt>
      <trkpt lat="46.19389" lon="-1.37403">
        <ele>61.87722</ele>
        <time>2023-05-30T08:49:17.000Z</time>
      </trkpt>
      <trkpt lat="46.19393" lon="-1.37403">
        <ele>61.8202</ele>
        <time>2023-05-30T08:49:18.000Z</time>
      </trkpt>
      <trkpt lat="46.19397" lon="-1.37404">
        <ele>61.75407</ele>
        <time>2023-05-30T08:49:19.000Z</time>
      </trkpt>
      <trkpt lat="46.19401" lon="-1.37404">
        <ele>61.86985</ele>
        <time>2023-05-30T08:49:20.000Z</time>
      </trkpt>
      <trkpt lat="46.19405" lon="-1.37405">
        <ele>61.99103</ele>
        <time>2023-05-30T08:49:21.000Z</time>
      </trkpt>
      <trkpt lat="46.19409" lon="-1.37406">
        <ele>62.12362</ele>
        <time>2023-05-30T08:49:22.000Z</time>
      </trkpt>
      <trkpt lat="46.19413" lon="-1.37406">
        <ele>62.26234</ele>
        <time>2023-05-30T08:49:23.000Z</time>
      </trkpt>
      <trkpt lat="46.19417" lon="-1.37407">
        <ele>62.26577</ele>
        <time>2023-05-30T08:49:24.000Z</time>
      </trkpt>
      <trkpt lat="46.19421" lon="-1.37407">
        <ele>62.20906</ele>
        <time>2023-05-30T08:49:25.000Z</time>
      </trkpt>
      <trkpt lat="46.19425" lon="-1.37407">
        <ele>62.13829</ele>
        <time>2023-05-30T08:49:26.000Z</time>
      </trkpt>
      <trkpt lat="46.19429" lon="-1.37407">
        <ele>62.00817</ele>
        <time>2023-05-30T08:49:27.000Z</time>
      </trkpt>
      <trkpt lat="46.19433" lon="-1.37407">
        <ele>62.14379</ele>
        <time>2023-05-30T08:49:28.000Z</time>
      </trkpt>
      <trkpt lat="46.19437" lon="-1.37407">
        <ele>62.10332</ele>
        <time>2023-05-30T08:49:29.000Z</time>
      </trkpt>
      <trkpt lat="46.19441" lon="-1.37407">
        <ele>62.04042</ele>
        <time>2023-05-30T08:49:30.000Z</time>
      </trkpt>
      <trkpt lat="46.19444" lon="-1.37408">
        <ele>61.96682</ele>
        <time>2023-05-30T08:49:31.000Z</time>
      </trkpt>
      <trkpt lat="46.19448" lon="-1.37408">
        <ele>61.90062</ele>
        <time>2023-05-30T08:49:32.000Z</time>
      </trkpt>
      <trkpt lat="46.19452" lon="-1.37408">
        <ele>61.83398</ele>
        <time>2023-05-30T08:49:33.000Z</time>
      </trkpt>
      <trkpt lat="46.19456" lon="-1.37409">
        <ele>61.73318</ele>
        <time>2023-05-30T08:49:34.000Z</time>
      </trkpt>
      <trkpt lat="46.19459" lon="-1.3741">
        <ele>61.59007</ele>
        <time>2023-05-30T08:49:35.000Z</time>
      </trkpt>
      <trkpt lat="46.19462" lon="-1.37411">
        <ele>61.46892</ele>
        <time>2023-05-30T08:49:36.000Z</time>
      </trkpt>
      <trkpt lat="46.19466" lon="-1.37413">
        <ele>61.3251</ele>
        <time>2023-05-30T08:49:37.000Z</time>
      </trkpt>
      <trkpt lat="46.1947" lon="-1.37414">
        <ele>61.16972</ele>
        <time>2023-05-30T08:49:38.000Z</time>
      </trkpt>
      <trkpt lat="46.19474" lon="-1.37415">
        <ele>60.99952</ele>
        <time>2023-05-30T08:49:39.000Z</time>
      </trkpt>
      <trkpt lat="46.19478" lon="-1.37416">
        <ele>60.83052</ele>
        <time>2023-05-30T08:49:40.000Z</time>
      </trkpt>
      <trkpt lat="46.19482" lon="-1.37417">
        <ele>60.662</ele>
        <time>2023-05-30T08:49:41.000Z</time>
      </trkpt>
      <trkpt lat="46.19486" lon="-1.37418">
        <ele>60.51418</ele>
        <time>2023-05-30T08:49:42.000Z</time>
      </trkpt>
      <trkpt lat="46.1949" lon="-1.37419">
        <ele>60.39147</ele>
        <time>2023-05-30T08:49:43.000Z</time>
      </trkpt>
      <trkpt lat="46.19494" lon="-1.3742">
        <ele>60.25712</ele>
        <time>2023-05-30T08:49:44.000Z</time>
      </trkpt>
      <trkpt lat="46.19498" lon="-1.37421">
        <ele>60.26298</ele>
        <time>2023-05-30T08:49:45.000Z</time>
      </trkpt>
      <trkpt lat="46.19501" lon="-1.37422">
        <ele>60.29612</ele>
        <time>2023-05-30T08:49:46.000Z</time>
      </trkpt>
      <trkpt lat="46.19505" lon="-1.37422">
        <ele>60.26656</ele>
        <time>2023-05-30T08:49:47.000Z</time>
      </trkpt>
      <trkpt lat="46.19509" lon="-1.37423">
        <ele>60.32307</ele>
        <time>2023-05-30T08:49:48.000Z</time>
      </trkpt>
      <trkpt lat="46.19513" lon="-1.37424">
        <ele>60.39995</ele>
        <time>2023-05-30T08:49:49.000Z</time>
      </trkpt>
      <trkpt lat="46.19516" lon="-1.37424">
        <ele>60.51845</ele>
        <time>2023-05-30T08:49:50.000Z</time>
      </trkpt>
      <trkpt lat="46.1952" lon="-1.37424">
        <ele>60.65506</ele>
        <time>2023-05-30T08:49:51.000Z</time>
      </trkpt>
      <trkpt lat="46.19524" lon="-1.37423">
        <ele>60.64783</ele>
        <time>2023-05-30T08:49:52.000Z</time>
      </trkpt>
      <trkpt lat="46.19528" lon="-1.37423">
        <ele>60.63073</ele>
        <time>2023-05-30T08:49:53.000Z</time>
      </trkpt>
      <trkpt lat="46.19532" lon="-1.37422">
        <ele>60.5498</ele>
        <time>2023-05-30T08:49:54.000Z</time>
      </trkpt>
      <trkpt lat="46.19536" lon="-1.37422">
        <ele>60.49596</ele>
        <time>2023-05-30T08:49:55.000Z</time>
      </trkpt>
      <trkpt lat="46.19541" lon="-1.37421">
        <ele>60.43099</ele>
        <time>2023-05-30T08:49:56.000Z</time>
      </trkpt>
      <trkpt lat="46.19545" lon="-1.3742">
        <ele>60.5715</ele>
        <time>2023-05-30T08:49:57.000Z</time>
      </trkpt>
      <trkpt lat="46.19549" lon="-1.3742">
        <ele>60.74804</ele>
        <time>2023-05-30T08:49:58.000Z</time>
      </trkpt>
      <trkpt lat="46.19554" lon="-1.3742">
        <ele>60.94034</ele>
        <time>2023-05-30T08:49:59.000Z</time>
      </trkpt>
      <trkpt lat="46.19558" lon="-1.3742">
        <ele>61.21089</ele>
        <time>2023-05-30T08:50:00.000Z</time>
      </trkpt>
      <trkpt lat="46.19562" lon="-1.3742">
        <ele>61.49356</ele>
        <time>2023-05-30T08:50:01.000Z</time>
      </trkpt>
      <trkpt lat="46.19567" lon="-1.3742">
        <ele>61.74949</ele>
        <time>2023-05-30T08:50:02.000Z</time>
      </trkpt>
      <trkpt lat="46.19571" lon="-1.37419">
        <ele>61.9979</ele>
        <time>2023-05-30T08:50:03.000Z</time>
      </trkpt>
      <trkpt lat="46.19576" lon="-1.3742">
        <ele>62.26497</ele>
        <time>2023-05-30T08:50:04.000Z</time>
      </trkpt>
      <trkpt lat="46.19579" lon="-1.37419">
        <ele>62.4045</ele>
        <time>2023-05-30T08:50:05.000Z</time>
      </trkpt>
      <trkpt lat="46.19583" lon="-1.3742">
        <ele>62.54929</ele>
        <time>2023-05-30T08:50:06.000Z</time>
      </trkpt>
      <trkpt lat="46.19587" lon="-1.3742">
        <ele>62.78604</ele>
        <time>2023-05-30T08:50:07.000Z</time>
      </trkpt>
      <trkpt lat="46.1959" lon="-1.3742">
        <ele>62.88725</ele>
        <time>2023-05-30T08:50:08.000Z</time>
      </trkpt>
      <trkpt lat="46.19594" lon="-1.3742">
        <ele>62.98455</ele>
        <time>2023-05-30T08:50:09.000Z</time>
      </trkpt>
      <trkpt lat="46.19599" lon="-1.37422">
        <ele>63.04946</ele>
        <time>2023-05-30T08:50:10.000Z</time>
      </trkpt>
      <trkpt lat="46.19603" lon="-1.37421">
        <ele>63.11153</ele>
        <time>2023-05-30T08:50:11.000Z</time>
      </trkpt>
      <trkpt lat="46.19608" lon="-1.37422">
        <ele>63.23903</ele>
        <time>2023-05-30T08:50:12.000Z</time>
      </trkpt>
      <trkpt lat="46.19612" lon="-1.37422">
        <ele>63.3419</ele>
        <time>2023-05-30T08:50:13.000Z</time>
      </trkpt>
      <trkpt lat="46.19617" lon="-1.37422">
        <ele>63.52021</ele>
        <time>2023-05-30T08:50:14.000Z</time>
      </trkpt>
      <trkpt lat="46.19622" lon="-1.37421">
        <ele>63.71486</ele>
        <time>2023-05-30T08:50:15.000Z</time>
      </trkpt>
      <trkpt lat="46.19626" lon="-1.37421">
        <ele>64.02572</ele>
        <time>2023-05-30T08:50:16.000Z</time>
      </trkpt>
      <trkpt lat="46.1963" lon="-1.37422">
        <ele>64.13599</ele>
        <time>2023-05-30T08:50:17.000Z</time>
      </trkpt>
      <trkpt lat="46.19635" lon="-1.37422">
        <ele>64.20466</ele>
        <time>2023-05-30T08:50:18.000Z</time>
      </trkpt>
      <trkpt lat="46.19638" lon="-1.37421">
        <ele>64.27599</ele>
        <time>2023-05-30T08:50:19.000Z</time>
      </trkpt>
      <trkpt lat="46.19643" lon="-1.37422">
        <ele>64.26997</ele>
        <time>2023-05-30T08:50:20.000Z</time>
      </trkpt>
      <trkpt lat="46.19647" lon="-1.37421">
        <ele>64.27938</ele>
        <time>2023-05-30T08:50:21.000Z</time>
      </trkpt>
      <trkpt lat="46.19651" lon="-1.37422">
        <ele>64.29814</ele>
        <time>2023-05-30T08:50:22.000Z</time>
      </trkpt>
      <trkpt lat="46.19655" lon="-1.37422">
        <ele>64.29091</ele>
        <time>2023-05-30T08:50:23.000Z</time>
      </trkpt>
      <trkpt lat="46.19659" lon="-1.37423">
        <ele>64.26372</ele>
        <time>2023-05-30T08:50:24.000Z</time>
      </trkpt>
      <trkpt lat="46.19662" lon="-1.37422">
        <ele>64.24962</ele>
        <time>2023-05-30T08:50:25.000Z</time>
      </trkpt>
      <trkpt lat="46.19666" lon="-1.37422">
        <ele>64.26678</ele>
        <time>2023-05-30T08:50:26.000Z</time>
      </trkpt>
      <trkpt lat="46.19669" lon="-1.37423">
        <ele>64.27858</ele>
        <time>2023-05-30T08:50:27.000Z</time>
      </trkpt>
      <trkpt lat="46.19672" lon="-1.37424">
        <ele>64.28042</ele>
        <time>2023-05-30T08:50:28.000Z</time>
      </trkpt>
      <trkpt lat="46.19676" lon="-1.37427">
        <ele>64.2634</ele>
        <time>2023-05-30T08:50:29.000Z</time>
      </trkpt>
      <trkpt lat="46.19678" lon="-1.37432">
        <ele>64.23006</ele>
        <time>2023-05-30T08:50:30.000Z</time>
      </trkpt>
      <trkpt lat="46.19677" lon="-1.3744">
        <ele>64.18388</ele>
        <time>2023-05-30T08:50:31.000Z</time>
      </trkpt>
      <trkpt lat="46.19677" lon="-1.37446">
        <ele>64.20039</ele>
        <time>2023-05-30T08:50:32.000Z</time>
      </trkpt>
      <trkpt lat="46.19677" lon="-1.37453">
        <ele>64.26122</ele>
        <time>2023-05-30T08:50:33.000Z</time>
      </trkpt>
      <trkpt lat="46.19677" lon="-1.37459">
        <ele>64.31699</ele>
        <time>2023-05-30T08:50:34.000Z</time>
      </trkpt>
      <trkpt lat="46.19678" lon="-1.37465">
        <ele>64.36231</ele>
        <time>2023-05-30T08:50:35.000Z</time>
      </trkpt>
      <trkpt lat="46.19677" lon="-1.37473">
        <ele>64.30205</ele>
        <time>2023-05-30T08:50:36.000Z</time>
      </trkpt>
      <trkpt lat="46.19677" lon="-1.3748">
        <ele>64.24483</ele>
        <time>2023-05-30T08:50:37.000Z</time>
      </trkpt>
      <trkpt lat="46.19678" lon="-1.37488">
        <ele>64.21031</ele>
        <time>2023-05-30T08:50:38.000Z</time>
      </trkpt>
      <trkpt lat="46.19678" lon="-1.37494">
        <ele>64.16261</ele>
        <time>2023-05-30T08:50:39.000Z</time>
      </trkpt>
      <trkpt lat="46.19677" lon="-1.37501">
        <ele>64.08781</ele>
        <time>2023-05-30T08:50:40.000Z</time>
      </trkpt>
      <trkpt lat="46.19678" lon="-1.37507">
        <ele>63.99686</ele>
        <time>2023-05-30T08:50:41.000Z</time>
      </trkpt>
      <trkpt lat="46.19678" lon="-1.37513">
        <ele>63.89474</ele>
        <time>2023-05-30T08:50:42.000Z</time>
      </trkpt>
      <trkpt lat="46.19678" lon="-1.37521">
        <ele>63.78765</ele>
        <time>2023-05-30T08:50:43.000Z</time>
      </trkpt>
      <trkpt lat="46.19678" lon="-1.37528">
        <ele>63.74632</ele>
        <time>2023-05-30T08:50:44.000Z</time>
      </trkpt>
      <trkpt lat="46.19679" lon="-1.37535">
        <ele>63.76423</ele>
        <time>2023-05-30T08:50:45.000Z</time>
      </trkpt>
      <trkpt lat="46.19681" lon="-1.37541">
        <ele>63.79493</ele>
        <time>2023-05-30T08:50:46.000Z</time>
      </trkpt>
      <trkpt lat="46.19685" lon="-1.37546">
        <ele>63.81684</ele>
        <time>2023-05-30T08:50:47.000Z</time>
      </trkpt>
      <trkpt lat="46.19691" lon="-1.37547">
        <ele>63.7869</ele>
        <time>2023-05-30T08:50:48.000Z</time>
      </trkpt>
      <trkpt lat="46.19696" lon="-1.37549">
        <ele>63.80817</ele>
        <time>2023-05-30T08:50:49.000Z</time>
      </trkpt>
      <trkpt lat="46.19701" lon="-1.37549">
        <ele>63.84984</ele>
        <time>2023-05-30T08:50:50.000Z</time>
      </trkpt>
      <trkpt lat="46.19707" lon="-1.37548">
        <ele>63.89072</ele>
        <time>2023-05-30T08:50:51.000Z</time>
      </trkpt>
      <trkpt lat="46.19713" lon="-1.37546">
        <ele>63.93539</ele>
        <time>2023-05-30T08:50:52.000Z</time>
      </trkpt>
      <trkpt lat="46.19719" lon="-1.37545">
        <ele>64.00243</ele>
        <time>2023-05-30T08:50:53.000Z</time>
      </trkpt>
      <trkpt lat="46.19725" lon="-1.37545">
        <ele>64.10215</ele>
        <time>2023-05-30T08:50:54.000Z</time>
      </trkpt>
      <trkpt lat="46.1973" lon="-1.37544">
        <ele>64.20866</ele>
        <time>2023-05-30T08:50:55.000Z</time>
      </trkpt>
      <trkpt lat="46.19735" lon="-1.37543">
        <ele>64.29514</ele>
        <time>2023-05-30T08:50:56.000Z</time>
      </trkpt>
      <trkpt lat="46.1974" lon="-1.37544">
        <ele>64.38844</ele>
        <time>2023-05-30T08:50:57.000Z</time>
      </trkpt>
      <trkpt lat="46.19745" lon="-1.37544">
        <ele>64.45154</ele>
        <time>2023-05-30T08:50:58.000Z</time>
      </trkpt>
      <trkpt lat="46.19749" lon="-1.37544">
        <ele>64.48576</ele>
        <time>2023-05-30T08:50:59.000Z</time>
      </trkpt>
      <trkpt lat="46.19753" lon="-1.37543">
        <ele>64.53412</ele>
        <time>2023-05-30T08:51:00.000Z</time>
      </trkpt>
      <trkpt lat="46.19757" lon="-1.37544">
        <ele>64.57484</ele>
        <time>2023-05-30T08:51:01.000Z</time>
      </trkpt>
      <trkpt lat="46.19761" lon="-1.37544">
        <ele>64.62883</ele>
        <time>2023-05-30T08:51:02.000Z</time>
      </trkpt>
      <trkpt lat="46.19765" lon="-1.37543">
        <ele>64.69412</ele>
        <time>2023-05-30T08:51:03.000Z</time>
      </trkpt>
      <trkpt lat="46.19769" lon="-1.37544">
        <ele>64.71199</ele>
        <time>2023-05-30T08:51:04.000Z</time>
      </trkpt>
      <trkpt lat="46.19772" lon="-1.37544">
        <ele>64.74827</ele>
        <time>2023-05-30T08:51:05.000Z</time>
      </trkpt>
      <trkpt lat="46.19777" lon="-1.37544">
        <ele>64.74632</ele>
        <time>2023-05-30T08:51:06.000Z</time>
      </trkpt>
      <trkpt lat="46.19781" lon="-1.37544">
        <ele>64.77425</ele>
        <time>2023-05-30T08:51:07.000Z</time>
      </trkpt>
      <trkpt lat="46.19784" lon="-1.37544">
        <ele>64.76299</ele>
        <time>2023-05-30T08:51:08.000Z</time>
      </trkpt>
      <trkpt lat="46.19788" lon="-1.37544">
        <ele>64.73154</ele>
        <time>2023-05-30T08:51:09.000Z</time>
      </trkpt>
      <trkpt lat="46.19792" lon="-1.37544">
        <ele>64.68346</ele>
        <time>2023-05-30T08:51:10.000Z</time>
      </trkpt>
      <trkpt lat="46.19795" lon="-1.37545">
        <ele>64.64732</ele>
        <time>2023-05-30T08:51:11.000Z</time>
      </trkpt>
      <trkpt lat="46.19798" lon="-1.37545">
        <ele>64.6413</ele>
        <time>2023-05-30T08:51:12.000Z</time>
      </trkpt>
      <trkpt lat="46.19802" lon="-1.37545">
        <ele>64.59929</ele>
        <time>2023-05-30T08:51:13.000Z</time>
      </trkpt>
      <trkpt lat="46.19805" lon="-1.37545">
        <ele>64.47231</ele>
        <time>2023-05-30T08:51:14.000Z</time>
      </trkpt>
      <trkpt lat="46.19809" lon="-1.37545">
        <ele>64.33195</ele>
        <time>2023-05-30T08:51:15.000Z</time>
      </trkpt>
      <trkpt lat="46.19813" lon="-1.37545">
        <ele>64.21288</ele>
        <time>2023-05-30T08:51:16.000Z</time>
      </trkpt>
      <trkpt lat="46.19816" lon="-1.37545">
        <ele>64.1159</ele>
        <time>2023-05-30T08:51:17.000Z</time>
      </trkpt>
      <trkpt lat="46.1982" lon="-1.37545">
        <ele>64.10452</ele>
        <time>2023-05-30T08:51:18.000Z</time>
      </trkpt>
      <trkpt lat="46.19824" lon="-1.37545">
        <ele>64.11322</ele>
        <time>2023-05-30T08:51:19.000Z</time>
      </trkpt>
      <trkpt lat="46.19828" lon="-1.37545">
        <ele>64.14677</ele>
        <time>2023-05-30T08:51:20.000Z</time>
      </trkpt>
      <trkpt lat="46.19832" lon="-1.37544">
        <ele>64.18611</ele>
        <time>2023-05-30T08:51:21.000Z</time>
      </trkpt>
      <trkpt lat="46.19836" lon="-1.37544">
        <ele>64.21247</ele>
        <time>2023-05-30T08:51:22.000Z</time>
      </trkpt>
      <trkpt lat="46.19839" lon="-1.37545">
        <ele>64.24387</ele>
        <time>2023-05-30T08:51:23.000Z</time>
      </trkpt>
      <trkpt lat="46.19843" lon="-1.37544">
        <ele>64.25498</ele>
        <time>2023-05-30T08:51:24.000Z</time>
      </trkpt>
      <trkpt lat="46.19847" lon="-1.37544">
        <ele>64.28918</ele>
        <time>2023-05-30T08:51:25.000Z</time>
      </trkpt>
      <trkpt lat="46.19851" lon="-1.37544">
        <ele>64.30733</ele>
        <time>2023-05-30T08:51:26.000Z</time>
      </trkpt>
      <trkpt lat="46.19855" lon="-1.37544">
        <ele>64.30405</ele>
        <time>2023-05-30T08:51:27.000Z</time>
      </trkpt>
      <trkpt lat="46.19859" lon="-1.37544">
        <ele>64.30886</ele>
        <time>2023-05-30T08:51:28.000Z</time>
      </trkpt>
      <trkpt lat="46.19863" lon="-1.37544">
        <ele>64.29008</ele>
        <time>2023-05-30T08:51:29.000Z</time>
      </trkpt>
      <trkpt lat="46.19866" lon="-1.37544">
        <ele>64.25589</ele>
        <time>2023-05-30T08:51:30.000Z</time>
      </trkpt>
      <trkpt lat="46.1987" lon="-1.37544">
        <ele>64.32774</ele>
        <time>2023-05-30T08:51:31.000Z</time>
      </trkpt>
      <trkpt lat="46.19874" lon="-1.37543">
        <ele>64.35875</ele>
        <time>2023-05-30T08:51:32.000Z</time>
      </trkpt>
      <trkpt lat="46.19877" lon="-1.37543">
        <ele>64.39338</ele>
        <time>2023-05-30T08:51:33.000Z</time>
      </trkpt>
      <trkpt lat="46.19881" lon="-1.37543">
        <ele>64.4902</ele>
        <time>2023-05-30T08:51:34.000Z</time>
      </trkpt>
      <trkpt lat="46.19885" lon="-1.37543">
        <ele>64.59972</ele>
        <time>2023-05-30T08:51:35.000Z</time>
      </trkpt>
      <trkpt lat="46.19889" lon="-1.37543">
        <ele>64.70206</ele>
        <time>2023-05-30T08:51:36.000Z</time>
      </trkpt>
      <trkpt lat="46.19892" lon="-1.37543">
        <ele>64.75801</ele>
        <time>2023-05-30T08:51:37.000Z</time>
      </trkpt>
      <trkpt lat="46.19896" lon="-1.37543">
        <ele>64.74591</ele>
        <time>2023-05-30T08:51:38.000Z</time>
      </trkpt>
      <trkpt lat="46.199" lon="-1.37543">
        <ele>64.73161</ele>
        <time>2023-05-30T08:51:39.000Z</time>
      </trkpt>
      <trkpt lat="46.19904" lon="-1.37543">
        <ele>64.71629</ele>
        <time>2023-05-30T08:51:40.000Z</time>
      </trkpt>
      <trkpt lat="46.19908" lon="-1.37543">
        <ele>64.70869</ele>
        <time>2023-05-30T08:51:41.000Z</time>
      </trkpt>
      <trkpt lat="46.19912" lon="-1.37543">
        <ele>64.70879</ele>
        <time>2023-05-30T08:51:42.000Z</time>
      </trkpt>
      <trkpt lat="46.19916" lon="-1.37543">
        <ele>64.72523</ele>
        <time>2023-05-30T08:51:43.000Z</time>
      </trkpt>
      <trkpt lat="46.1992" lon="-1.37543">
        <ele>64.70369</ele>
        <time>2023-05-30T08:51:44.000Z</time>
      </trkpt>
      <trkpt lat="46.19925" lon="-1.37543">
        <ele>64.66791</ele>
        <time>2023-05-30T08:51:45.000Z</time>
      </trkpt>
      <trkpt lat="46.19929" lon="-1.37543">
        <ele>64.6256</ele>
        <time>2023-05-30T08:51:46.000Z</time>
      </trkpt>
      <trkpt lat="46.19933" lon="-1.37543">
        <ele>64.52665</ele>
        <time>2023-05-30T08:51:47.000Z</time>
      </trkpt>
      <trkpt lat="46.19937" lon="-1.37543">
        <ele>64.41704</ele>
        <time>2023-05-30T08:51:48.000Z</time>
      </trkpt>
      <trkpt lat="46.19941" lon="-1.37543">
        <ele>64.322</ele>
        <time>2023-05-30T08:51:49.000Z</time>
      </trkpt>
      <trkpt lat="46.19945" lon="-1.37543">
        <ele>64.34398</ele>
        <time>2023-05-30T08:51:50.000Z</time>
      </trkpt>
      <trkpt lat="46.19949" lon="-1.37543">
        <ele>64.25368</ele>
        <time>2023-05-30T08:51:51.000Z</time>
      </trkpt>
      <trkpt lat="46.19953" lon="-1.37543">
        <ele>64.18902</ele>
        <time>2023-05-30T08:51:52.000Z</time>
      </trkpt>
      <trkpt lat="46.19957" lon="-1.37543">
        <ele>64.12309</ele>
        <time>2023-05-30T08:51:53.000Z</time>
      </trkpt>
      <trkpt lat="46.19961" lon="-1.37543">
        <ele>64.06798</ele>
        <time>2023-05-30T08:51:54.000Z</time>
      </trkpt>
      <trkpt lat="46.19965" lon="-1.37543">
        <ele>64.00759</ele>
        <time>2023-05-30T08:51:55.000Z</time>
      </trkpt>
      <trkpt lat="46.19969" lon="-1.37544">
        <ele>63.9608</ele>
        <time>2023-05-30T08:51:56.000Z</time>
      </trkpt>
      <trkpt lat="46.19973" lon="-1.37544">
        <ele>63.97002</ele>
        <time>2023-05-30T08:51:57.000Z</time>
      </trkpt>
      <trkpt lat="46.19977" lon="-1.37543">
        <ele>63.97086</ele>
        <time>2023-05-30T08:51:58.000Z</time>
      </trkpt>
      <trkpt lat="46.1998" lon="-1.37542">
        <ele>64.00818</ele>
        <time>2023-05-30T08:51:59.000Z</time>
      </trkpt>
      <trkpt lat="46.19984" lon="-1.37542">
        <ele>64.01641</ele>
        <time>2023-05-30T08:52:00.000Z</time>
      </trkpt>
      <trkpt lat="46.19987" lon="-1.37542">
        <ele>63.9804</ele>
        <time>2023-05-30T08:52:01.000Z</time>
      </trkpt>
      <trkpt lat="46.1999" lon="-1.37542">
        <ele>63.96418</ele>
        <time>2023-05-30T08:52:02.000Z</time>
      </trkpt>
      <trkpt lat="46.19994" lon="-1.37542">
        <ele>63.94414</ele>
        <time>2023-05-30T08:52:03.000Z</time>
      </trkpt>
      <trkpt lat="46.19997" lon="-1.37542">
        <ele>63.95921</ele>
        <time>2023-05-30T08:52:04.000Z</time>
      </trkpt>
      <trkpt lat="46.20001" lon="-1.37542">
        <ele>63.94051</ele>
        <time>2023-05-30T08:52:05.000Z</time>
      </trkpt>
      <trkpt lat="46.20004" lon="-1.37542">
        <ele>63.93093</ele>
        <time>2023-05-30T08:52:06.000Z</time>
      </trkpt>
      <trkpt lat="46.20007" lon="-1.37543">
        <ele>63.96368</ele>
        <time>2023-05-30T08:52:07.000Z</time>
      </trkpt>
      <trkpt lat="46.20011" lon="-1.37542">
        <ele>64.0088</ele>
        <time>2023-05-30T08:52:08.000Z</time>
      </trkpt>
      <trkpt lat="46.20014" lon="-1.37542">
        <ele>64.058</ele>
        <time>2023-05-30T08:52:09.000Z</time>
      </trkpt>
      <trkpt lat="46.20018" lon="-1.37541">
        <ele>64.04113</ele>
        <time>2023-05-30T08:52:10.000Z</time>
      </trkpt>
      <trkpt lat="46.20021" lon="-1.37541">
        <ele>64.02549</ele>
        <time>2023-05-30T08:52:11.000Z</time>
      </trkpt>
      <trkpt lat="46.20024" lon="-1.37541">
        <ele>64.02377</ele>
        <time>2023-05-30T08:52:12.000Z</time>
      </trkpt>
      <trkpt lat="46.20027" lon="-1.3754">
        <ele>64.02727</ele>
        <time>2023-05-30T08:52:13.000Z</time>
      </trkpt>
      <trkpt lat="46.2003" lon="-1.37537">
        <ele>64.03697</ele>
        <time>2023-05-30T08:52:14.000Z</time>
      </trkpt>
      <trkpt lat="46.20032" lon="-1.37532">
        <ele>64.00423</ele>
        <time>2023-05-30T08:52:15.000Z</time>
      </trkpt>
      <trkpt lat="46.20032" lon="-1.37527">
        <ele>63.96055</ele>
        <time>2023-05-30T08:52:16.000Z</time>
      </trkpt>
      <trkpt lat="46.20032" lon="-1.37522">
        <ele>63.87089</ele>
        <time>2023-05-30T08:52:17.000Z</time>
      </trkpt>
      <trkpt lat="46.20033" lon="-1.37518">
        <ele>63.77859</ele>
        <time>2023-05-30T08:52:18.000Z</time>
      </trkpt>
      <trkpt lat="46.20034" lon="-1.37514">
        <ele>63.67249</ele>
        <time>2023-05-30T08:52:19.000Z</time>
      </trkpt>
      <trkpt lat="46.20036" lon="-1.37511">
        <ele>63.57182</ele>
        <time>2023-05-30T08:52:20.000Z</time>
      </trkpt>
      <trkpt lat="46.20039" lon="-1.37508">
        <ele>63.57288</ele>
        <time>2023-05-30T08:52:21.000Z</time>
      </trkpt>
      <trkpt lat="46.20041" lon="-1.37506">
        <ele>63.57172</ele>
        <time>2023-05-30T08:52:22.000Z</time>
      </trkpt>
      <trkpt lat="46.20044" lon="-1.37505">
        <ele>63.50205</ele>
        <time>2023-05-30T08:52:23.000Z</time>
      </trkpt>
      <trkpt lat="46.20047" lon="-1.37504">
        <ele>63.51261</ele>
        <time>2023-05-30T08:52:24.000Z</time>
      </trkpt>
      <trkpt lat="46.2005" lon="-1.37504">
        <ele>63.55545</ele>
        <time>2023-05-30T08:52:25.000Z</time>
      </trkpt>
      <trkpt lat="46.20053" lon="-1.37505">
        <ele>63.60581</ele>
        <time>2023-05-30T08:52:26.000Z</time>
      </trkpt>
      <trkpt lat="46.20054" lon="-1.37507">
        <ele>63.60526</ele>
        <time>2023-05-30T08:52:36.000Z</time>
      </trkpt>
      <trkpt lat="46.20054" lon="-1.37511">
        <ele>63.67759</ele>
        <time>2023-05-30T08:54:29.000Z</time>
      </trkpt>
      <trkpt lat="46.20056" lon="-1.37513">
        <ele>63.77737</ele>
        <time>2023-05-30T08:54:30.000Z</time>
      </trkpt>
      <trkpt lat="46.20059" lon="-1.37514">
        <ele>63.94592</ele>
        <time>2023-05-30T08:54:31.000Z</time>
      </trkpt>
      <trkpt lat="46.20062" lon="-1.37514">
        <ele>63.95681</ele>
        <time>2023-05-30T08:54:32.000Z</time>
      </trkpt>
      <trkpt lat="46.20065" lon="-1.37515">
        <ele>63.93556</ele>
        <time>2023-05-30T08:54:33.000Z</time>
      </trkpt>
      <trkpt lat="46.20068" lon="-1.37517">
        <ele>63.89788</ele>
        <time>2023-05-30T08:54:34.000Z</time>
      </trkpt>
      <trkpt lat="46.20071" lon="-1.37519">
        <ele>63.9733</ele>
        <time>2023-05-30T08:54:35.000Z</time>
      </trkpt>
      <trkpt lat="46.20074" lon="-1.3752">
        <ele>64.01973</ele>
        <time>2023-05-30T08:54:36.000Z</time>
      </trkpt>
      <trkpt lat="46.20076" lon="-1.37521">
        <ele>64.24397</ele>
        <time>2023-05-30T08:54:37.000Z</time>
      </trkpt>
      <trkpt lat="46.20079" lon="-1.37522">
        <ele>64.47701</ele>
        <time>2023-05-30T08:54:38.000Z</time>
      </trkpt>
      <trkpt lat="46.20081" lon="-1.37522">
        <ele>64.73042</ele>
        <time>2023-05-30T08:54:39.000Z</time>
      </trkpt>
      <trkpt lat="46.20084" lon="-1.37522">
        <ele>64.86143</ele>
        <time>2023-05-30T08:54:40.000Z</time>
      </trkpt>
      <trkpt lat="46.20087" lon="-1.37521">
        <ele>65.01709</ele>
        <time>2023-05-30T08:54:41.000Z</time>
      </trkpt>
      <trkpt lat="46.2009" lon="-1.3752">
        <ele>65.09216</ele>
        <time>2023-05-30T08:54:42.000Z</time>
      </trkpt>
      <trkpt lat="46.20093" lon="-1.37518">
        <ele>65.14862</ele>
        <time>2023-05-30T08:54:43.000Z</time>
      </trkpt>
      <trkpt lat="46.20095" lon="-1.37515">
        <ele>65.28325</ele>
        <time>2023-05-30T08:54:44.000Z</time>
      </trkpt>
      <trkpt lat="46.20097" lon="-1.37512">
        <ele>65.35552</ele>
        <time>2023-05-30T08:54:45.000Z</time>
      </trkpt>
      <trkpt lat="46.20099" lon="-1.37509">
        <ele>65.43085</ele>
        <time>2023-05-30T08:54:46.000Z</time>
      </trkpt>
      <trkpt lat="46.20101" lon="-1.37505">
        <ele>65.48869</ele>
        <time>2023-05-30T08:54:47.000Z</time>
      </trkpt>
      <trkpt lat="46.20102" lon="-1.37503">
        <ele>65.6166</ele>
        <time>2023-05-30T08:54:48.000Z</time>
      </trkpt>
      <trkpt lat="46.20106" lon="-1.37502">
        <ele>65.70194</ele>
        <time>2023-05-30T08:54:50.000Z</time>
      </trkpt>
      <trkpt lat="46.20108" lon="-1.37503">
        <ele>65.70467</ele>
        <time>2023-05-30T08:54:51.000Z</time>
      </trkpt>
      <trkpt lat="46.2011" lon="-1.37503">
        <ele>65.59949</ele>
        <time>2023-05-30T08:54:52.000Z</time>
      </trkpt>
      <trkpt lat="46.20112" lon="-1.37504">
        <ele>65.67094</ele>
        <time>2023-05-30T08:54:53.000Z</time>
      </trkpt>
      <trkpt lat="46.20114" lon="-1.37505">
        <ele>65.77235</ele>
        <time>2023-05-30T08:54:54.000Z</time>
      </trkpt>
      <trkpt lat="46.20116" lon="-1.37505">
        <ele>65.87946</ele>
        <time>2023-05-30T08:54:55.000Z</time>
      </trkpt>
      <trkpt lat="46.20119" lon="-1.37505">
        <ele>65.97543</ele>
        <time>2023-05-30T08:54:56.000Z</time>
      </trkpt>
      <trkpt lat="46.20122" lon="-1.37506">
        <ele>66.01243</ele>
        <time>2023-05-30T08:54:57.000Z</time>
      </trkpt>
      <trkpt lat="46.20124" lon="-1.37509">
        <ele>65.97841</ele>
        <time>2023-05-30T08:54:58.000Z</time>
      </trkpt>
      <trkpt lat="46.20126" lon="-1.37514">
        <ele>65.90712</ele>
        <time>2023-05-30T08:54:59.000Z</time>
      </trkpt>
      <trkpt lat="46.20128" lon="-1.37518">
        <ele>65.81553</ele>
        <time>2023-05-30T08:55:00.000Z</time>
      </trkpt>
      <trkpt lat="46.20129" lon="-1.37523">
        <ele>65.83022</ele>
        <time>2023-05-30T08:55:01.000Z</time>
      </trkpt>
      <trkpt lat="46.2013" lon="-1.37527">
        <ele>65.84159</ele>
        <time>2023-05-30T08:55:02.000Z</time>
      </trkpt>
      <trkpt lat="46.20132" lon="-1.37531">
        <ele>65.89433</ele>
        <time>2023-05-30T08:55:03.000Z</time>
      </trkpt>
      <trkpt lat="46.20133" lon="-1.37535">
        <ele>65.97459</ele>
        <time>2023-05-30T08:55:04.000Z</time>
      </trkpt>
      <trkpt lat="46.20134" lon="-1.37539">
        <ele>66.01427</ele>
        <time>2023-05-30T08:55:05.000Z</time>
      </trkpt>
      <trkpt lat="46.20135" lon="-1.37542">
        <ele>66.03402</ele>
        <time>2023-05-30T08:55:06.000Z</time>
      </trkpt>
      <trkpt lat="46.20137" lon="-1.37544">
        <ele>66.05449</ele>
        <time>2023-05-30T08:55:07.000Z</time>
      </trkpt>
      <trkpt lat="46.2014" lon="-1.37545">
        <ele>66.07133</ele>
        <time>2023-05-30T08:55:08.000Z</time>
      </trkpt>
      <trkpt lat="46.20143" lon="-1.37546">
        <ele>66.10931</ele>
        <time>2023-05-30T08:55:09.000Z</time>
      </trkpt>
      <trkpt lat="46.20146" lon="-1.37547">
        <ele>66.13298</ele>
        <time>2023-05-30T08:55:10.000Z</time>
      </trkpt>
      <trkpt lat="46.20149" lon="-1.37547">
        <ele>66.216</ele>
        <time>2023-05-30T08:55:11.000Z</time>
      </trkpt>
      <trkpt lat="46.20152" lon="-1.37548">
        <ele>66.32568</ele>
        <time>2023-05-30T08:55:12.000Z</time>
      </trkpt>
      <trkpt lat="46.20155" lon="-1.37549">
        <ele>66.40465</ele>
        <time>2023-05-30T08:55:13.000Z</time>
      </trkpt>
      <trkpt lat="46.20158" lon="-1.3755">
        <ele>66.45701</ele>
        <time>2023-05-30T08:55:14.000Z</time>
      </trkpt>
      <trkpt lat="46.20162" lon="-1.37551">
        <ele>66.51391</ele>
        <time>2023-05-30T08:55:15.000Z</time>
      </trkpt>
      <trkpt lat="46.20165" lon="-1.37552">
        <ele>66.45139</ele>
        <time>2023-05-30T08:55:16.000Z</time>
      </trkpt>
      <trkpt lat="46.20168" lon="-1.37553">
        <ele>66.52714</ele>
        <time>2023-05-30T08:55:17.000Z</time>
      </trkpt>
      <trkpt lat="46.20172" lon="-1.37554">
        <ele>66.47953</ele>
        <time>2023-05-30T08:55:18.000Z</time>
      </trkpt>
      <trkpt lat="46.20175" lon="-1.37554">
        <ele>66.48572</ele>
        <time>2023-05-30T08:55:19.000Z</time>
      </trkpt>
      <trkpt lat="46.20178" lon="-1.37554">
        <ele>66.43915</ele>
        <time>2023-05-30T08:55:20.000Z</time>
      </trkpt>
      <trkpt lat="46.20181" lon="-1.37555">
        <ele>66.40597</ele>
        <time>2023-05-30T08:55:21.000Z</time>
      </trkpt>
      <trkpt lat="46.20184" lon="-1.37555">
        <ele>66.37685</ele>
        <time>2023-05-30T08:55:22.000Z</time>
      </trkpt>
      <trkpt lat="46.20187" lon="-1.37555">
        <ele>66.31093</ele>
        <time>2023-05-30T08:55:23.000Z</time>
      </trkpt>
      <trkpt lat="46.2019" lon="-1.37555">
        <ele>66.19743</ele>
        <time>2023-05-30T08:55:24.000Z</time>
      </trkpt>
      <trkpt lat="46.20193" lon="-1.37554">
        <ele>66.10271</ele>
        <time>2023-05-30T08:55:25.000Z</time>
      </trkpt>
      <trkpt lat="46.20197" lon="-1.37554">
        <ele>66.03796</ele>
        <time>2023-05-30T08:55:26.000Z</time>
      </trkpt>
      <trkpt lat="46.202" lon="-1.37554">
        <ele>65.96363</ele>
        <time>2023-05-30T08:55:27.000Z</time>
      </trkpt>
      <trkpt lat="46.20204" lon="-1.37555">
        <ele>65.91005</ele>
        <time>2023-05-30T08:55:28.000Z</time>
      </trkpt>
      <trkpt lat="46.20207" lon="-1.37556">
        <ele>65.82273</ele>
        <time>2023-05-30T08:55:29.000Z</time>
      </trkpt>
      <trkpt lat="46.20211" lon="-1.37557">
        <ele>65.84263</ele>
        <time>2023-05-30T08:55:30.000Z</time>
      </trkpt>
      <trkpt lat="46.20214" lon="-1.37558">
        <ele>65.84043</ele>
        <time>2023-05-30T08:55:31.000Z</time>
      </trkpt>
      <trkpt lat="46.20218" lon="-1.37558">
        <ele>65.82997</ele>
        <time>2023-05-30T08:55:32.000Z</time>
      </trkpt>
      <trkpt lat="46.20221" lon="-1.37558">
        <ele>65.82085</ele>
        <time>2023-05-30T08:55:33.000Z</time>
      </trkpt>
      <trkpt lat="46.20224" lon="-1.37558">
        <ele>65.8292</ele>
        <time>2023-05-30T08:55:34.000Z</time>
      </trkpt>
      <trkpt lat="46.20228" lon="-1.37558">
        <ele>65.83324</ele>
        <time>2023-05-30T08:55:35.000Z</time>
      </trkpt>
      <trkpt lat="46.20231" lon="-1.37558">
        <ele>65.81255</ele>
        <time>2023-05-30T08:55:36.000Z</time>
      </trkpt>
      <trkpt lat="46.20235" lon="-1.37559">
        <ele>65.77915</ele>
        <time>2023-05-30T08:55:37.000Z</time>
      </trkpt>
      <trkpt lat="46.20238" lon="-1.37559">
        <ele>65.74541</ele>
        <time>2023-05-30T08:55:38.000Z</time>
      </trkpt>
      <trkpt lat="46.20242" lon="-1.3756">
        <ele>65.70337</ele>
        <time>2023-05-30T08:55:39.000Z</time>
      </trkpt>
      <trkpt lat="46.20245" lon="-1.3756">
        <ele>65.71804</ele>
        <time>2023-05-30T08:55:40.000Z</time>
      </trkpt>
      <trkpt lat="46.20249" lon="-1.37559">
        <ele>65.76343</ele>
        <time>2023-05-30T08:55:41.000Z</time>
      </trkpt>
      <trkpt lat="46.20252" lon="-1.37559">
        <ele>65.77087</ele>
        <time>2023-05-30T08:55:42.000Z</time>
      </trkpt>
      <trkpt lat="46.20254" lon="-1.37558">
        <ele>65.7832</ele>
        <time>2023-05-30T08:55:43.000Z</time>
      </trkpt>
      <trkpt lat="46.20258" lon="-1.37557">
        <ele>65.79623</ele>
        <time>2023-05-30T08:55:44.000Z</time>
      </trkpt>
      <trkpt lat="46.20261" lon="-1.37557">
        <ele>65.79628</ele>
        <time>2023-05-30T08:55:45.000Z</time>
      </trkpt>
      <trkpt lat="46.20265" lon="-1.37557">
        <ele>65.75567</ele>
        <time>2023-05-30T08:55:46.000Z</time>
      </trkpt>
      <trkpt lat="46.20268" lon="-1.37558">
        <ele>65.6703</ele>
        <time>2023-05-30T08:55:47.000Z</time>
      </trkpt>
      <trkpt lat="46.20271" lon="-1.37558">
        <ele>65.54151</ele>
        <time>2023-05-30T08:55:48.000Z</time>
      </trkpt>
      <trkpt lat="46.20274" lon="-1.37558">
        <ele>65.49947</ele>
        <time>2023-05-30T08:55:49.000Z</time>
      </trkpt>
      <trkpt lat="46.20278" lon="-1.37559">
        <ele>65.32182</ele>
        <time>2023-05-30T08:55:50.000Z</time>
      </trkpt>
      <trkpt lat="46.20282" lon="-1.37559">
        <ele>65.16275</ele>
        <time>2023-05-30T08:55:51.000Z</time>
      </trkpt>
      <trkpt lat="46.20286" lon="-1.37559">
        <ele>64.99477</ele>
        <time>2023-05-30T08:55:52.000Z</time>
      </trkpt>
      <trkpt lat="46.2029" lon="-1.3756">
        <ele>64.83952</ele>
        <time>2023-05-30T08:55:53.000Z</time>
      </trkpt>
      <trkpt lat="46.20294" lon="-1.37562">
        <ele>64.53391</ele>
        <time>2023-05-30T08:55:54.000Z</time>
      </trkpt>
      <trkpt lat="46.20297" lon="-1.37564">
        <ele>64.23586</ele>
        <time>2023-05-30T08:55:55.000Z</time>
      </trkpt>
      <trkpt lat="46.20301" lon="-1.37565">
        <ele>63.95185</ele>
        <time>2023-05-30T08:55:56.000Z</time>
      </trkpt>
      <trkpt lat="46.20304" lon="-1.37566">
        <ele>63.64368</ele>
        <time>2023-05-30T08:55:57.000Z</time>
      </trkpt>
      <trkpt lat="46.20308" lon="-1.37567">
        <ele>63.34003</ele>
        <time>2023-05-30T08:55:58.000Z</time>
      </trkpt>
      <trkpt lat="46.20311" lon="-1.37568">
        <ele>63.2157</ele>
        <time>2023-05-30T08:55:59.000Z</time>
      </trkpt>
      <trkpt lat="46.20314" lon="-1.3757">
        <ele>63.1021</ele>
        <time>2023-05-30T08:56:00.000Z</time>
      </trkpt>
      <trkpt lat="46.20318" lon="-1.3757">
        <ele>62.94876</ele>
        <time>2023-05-30T08:56:01.000Z</time>
      </trkpt>
      <trkpt lat="46.20321" lon="-1.37571">
        <ele>62.86001</ele>
        <time>2023-05-30T08:56:02.000Z</time>
      </trkpt>
      <trkpt lat="46.20325" lon="-1.37572">
        <ele>62.7973</ele>
        <time>2023-05-30T08:56:03.000Z</time>
      </trkpt>
      <trkpt lat="46.20329" lon="-1.37573">
        <ele>62.77749</ele>
        <time>2023-05-30T08:56:04.000Z</time>
      </trkpt>
      <trkpt lat="46.20332" lon="-1.37574">
        <ele>62.76534</ele>
        <time>2023-05-30T08:56:05.000Z</time>
      </trkpt>
      <trkpt lat="46.20336" lon="-1.37575">
        <ele>62.78765</ele>
        <time>2023-05-30T08:56:06.000Z</time>
      </trkpt>
      <trkpt lat="46.2034" lon="-1.37576">
        <ele>62.85796</ele>
        <time>2023-05-30T08:56:07.000Z</time>
      </trkpt>
      <trkpt lat="46.20343" lon="-1.37577">
        <ele>62.9473</ele>
        <time>2023-05-30T08:56:08.000Z</time>
      </trkpt>
      <trkpt lat="46.20346" lon="-1.37579">
        <ele>62.98918</ele>
        <time>2023-05-30T08:56:09.000Z</time>
      </trkpt>
      <trkpt lat="46.20349" lon="-1.37581">
        <ele>63.05187</ele>
        <time>2023-05-30T08:56:10.000Z</time>
      </trkpt>
      <trkpt lat="46.20352" lon="-1.37582">
        <ele>63.12153</ele>
        <time>2023-05-30T08:56:11.000Z</time>
      </trkpt>
      <trkpt lat="46.20355" lon="-1.37583">
        <ele>63.21819</ele>
        <time>2023-05-30T08:56:12.000Z</time>
      </trkpt>
      <trkpt lat="46.20359" lon="-1.37584">
        <ele>63.31763</ele>
        <time>2023-05-30T08:56:13.000Z</time>
      </trkpt>
      <trkpt lat="46.20362" lon="-1.37586">
        <ele>63.53977</ele>
        <time>2023-05-30T08:56:14.000Z</time>
      </trkpt>
      <trkpt lat="46.20365" lon="-1.37587">
        <ele>63.78165</ele>
        <time>2023-05-30T08:56:15.000Z</time>
      </trkpt>
      <trkpt lat="46.20369" lon="-1.37589">
        <ele>64.04816</ele>
        <time>2023-05-30T08:56:16.000Z</time>
      </trkpt>
      <trkpt lat="46.20372" lon="-1.3759">
        <ele>64.32285</ele>
        <time>2023-05-30T08:56:17.000Z</time>
      </trkpt>
      <trkpt lat="46.20375" lon="-1.37591">
        <ele>64.58238</ele>
        <time>2023-05-30T08:56:18.000Z</time>
      </trkpt>
      <trkpt lat="46.20378" lon="-1.37593">
        <ele>64.67168</ele>
        <time>2023-05-30T08:56:19.000Z</time>
      </trkpt>
      <trkpt lat="46.20382" lon="-1.37596">
        <ele>64.78844</ele>
        <time>2023-05-30T08:56:20.000Z</time>
      </trkpt>
      <trkpt lat="46.20385" lon="-1.37598">
        <ele>64.89883</ele>
        <time>2023-05-30T08:56:21.000Z</time>
      </trkpt>
      <trkpt lat="46.20388" lon="-1.376">
        <ele>64.97794</ele>
        <time>2023-05-30T08:56:22.000Z</time>
      </trkpt>
      <trkpt lat="46.20391" lon="-1.37603">
        <ele>65.00619</ele>
        <time>2023-05-30T08:56:23.000Z</time>
      </trkpt>
      <trkpt lat="46.20394" lon="-1.37605">
        <ele>64.9967</ele>
        <time>2023-05-30T08:56:24.000Z</time>
      </trkpt>
      <trkpt lat="46.20397" lon="-1.37608">
        <ele>64.9803</ele>
        <time>2023-05-30T08:56:25.000Z</time>
      </trkpt>
      <trkpt lat="46.204" lon="-1.37611">
        <ele>64.95129</ele>
        <time>2023-05-30T08:56:26.000Z</time>
      </trkpt>
      <trkpt lat="46.20403" lon="-1.37613">
        <ele>64.93907</ele>
        <time>2023-05-30T08:56:27.000Z</time>
      </trkpt>
      <trkpt lat="46.20406" lon="-1.37615">
        <ele>64.9422</ele>
        <time>2023-05-30T08:56:28.000Z</time>
      </trkpt>
      <trkpt lat="46.20409" lon="-1.37618">
        <ele>64.91346</ele>
        <time>2023-05-30T08:56:29.000Z</time>
      </trkpt>
      <trkpt lat="46.20412" lon="-1.37621">
        <ele>64.89098</ele>
        <time>2023-05-30T08:56:30.000Z</time>
      </trkpt>
      <trkpt lat="46.20415" lon="-1.37624">
        <ele>64.85474</ele>
        <time>2023-05-30T08:56:31.000Z</time>
      </trkpt>
      <trkpt lat="46.20418" lon="-1.37627">
        <ele>64.79107</ele>
        <time>2023-05-30T08:56:32.000Z</time>
      </trkpt>
      <trkpt lat="46.20421" lon="-1.3763">
        <ele>64.77885</ele>
        <time>2023-05-30T08:56:33.000Z</time>
      </trkpt>
      <trkpt lat="46.20425" lon="-1.37634">
        <ele>64.77336</ele>
        <time>2023-05-30T08:56:34.000Z</time>
      </trkpt>
      <trkpt lat="46.20428" lon="-1.37637">
        <ele>64.72427</ele>
        <time>2023-05-30T08:56:35.000Z</time>
      </trkpt>
      <trkpt lat="46.20431" lon="-1.3764">
        <ele>64.58599</ele>
        <time>2023-05-30T08:56:36.000Z</time>
      </trkpt>
      <trkpt lat="46.20434" lon="-1.37643">
        <ele>64.45792</ele>
        <time>2023-05-30T08:56:37.000Z</time>
      </trkpt>
      <trkpt lat="46.20436" lon="-1.37646">
        <ele>64.36893</ele>
        <time>2023-05-30T08:56:38.000Z</time>
      </trkpt>
      <trkpt lat="46.20439" lon="-1.37649">
        <ele>64.25903</ele>
        <time>2023-05-30T08:56:39.000Z</time>
      </trkpt>
      <trkpt lat="46.20441" lon="-1.37652">
        <ele>64.12765</ele>
        <time>2023-05-30T08:56:40.000Z</time>
      </trkpt>
      <trkpt lat="46.20444" lon="-1.37655">
        <ele>64.00224</ele>
        <time>2023-05-30T08:56:41.000Z</time>
      </trkpt>
      <trkpt lat="46.20446" lon="-1.37659">
        <ele>63.8737</ele>
        <time>2023-05-30T08:56:42.000Z</time>
      </trkpt>
      <trkpt lat="46.20449" lon="-1.37662">
        <ele>63.77986</ele>
        <time>2023-05-30T08:56:43.000Z</time>
      </trkpt>
      <trkpt lat="46.20451" lon="-1.37667">
        <ele>63.69572</ele>
        <time>2023-05-30T08:56:44.000Z</time>
      </trkpt>
      <trkpt lat="46.20453" lon="-1.37671">
        <ele>63.62304</ele>
        <time>2023-05-30T08:56:45.000Z</time>
      </trkpt>
      <trkpt lat="46.20454" lon="-1.37677">
        <ele>63.47942</ele>
        <time>2023-05-30T08:56:46.000Z</time>
      </trkpt>
      <trkpt lat="46.20454" lon="-1.37682">
        <ele>63.33689</ele>
        <time>2023-05-30T08:56:47.000Z</time>
      </trkpt>
      <trkpt lat="46.20454" lon="-1.37686">
        <ele>63.30775</ele>
        <time>2023-05-30T08:56:48.000Z</time>
      </trkpt>
      <trkpt lat="46.20454" lon="-1.37691">
        <ele>63.29234</ele>
        <time>2023-05-30T08:56:49.000Z</time>
      </trkpt>
      <trkpt lat="46.20454" lon="-1.37696">
        <ele>63.28146</ele>
        <time>2023-05-30T08:56:50.000Z</time>
      </trkpt>
      <trkpt lat="46.20455" lon="-1.377">
        <ele>63.28918</ele>
        <time>2023-05-30T08:56:51.000Z</time>
      </trkpt>
      <trkpt lat="46.20455" lon="-1.37705">
        <ele>63.2851</ele>
        <time>2023-05-30T08:56:52.000Z</time>
      </trkpt>
      <trkpt lat="46.20455" lon="-1.3771">
        <ele>62.96202</ele>
        <time>2023-05-30T08:56:53.000Z</time>
      </trkpt>
      <trkpt lat="46.20455" lon="-1.37715">
        <ele>62.76962</ele>
        <time>2023-05-30T08:56:54.000Z</time>
      </trkpt>
      <trkpt lat="46.20456" lon="-1.3772">
        <ele>62.59678</ele>
        <time>2023-05-30T08:56:55.000Z</time>
      </trkpt>
      <trkpt lat="46.20456" lon="-1.37725">
        <ele>62.48835</ele>
        <time>2023-05-30T08:56:56.000Z</time>
      </trkpt>
      <trkpt lat="46.20456" lon="-1.37731">
        <ele>62.3905</ele>
        <time>2023-05-30T08:56:57.000Z</time>
      </trkpt>
      <trkpt lat="46.20457" lon="-1.37736">
        <ele>62.27821</ele>
        <time>2023-05-30T08:56:58.000Z</time>
      </trkpt>
      <trkpt lat="46.20457" lon="-1.37741">
        <ele>62.16912</ele>
        <time>2023-05-30T08:56:59.000Z</time>
      </trkpt>
      <trkpt lat="46.20458" lon="-1.37747">
        <ele>62.07347</ele>
        <time>2023-05-30T08:57:00.000Z</time>
      </trkpt>
      <trkpt lat="46.20458" lon="-1.37752">
        <ele>61.97684</ele>
        <time>2023-05-30T08:57:01.000Z</time>
      </trkpt>
      <trkpt lat="46.20459" lon="-1.37758">
        <ele>61.86464</ele>
        <time>2023-05-30T08:57:02.000Z</time>
      </trkpt>
      <trkpt lat="46.20459" lon="-1.37763">
        <ele>61.72161</ele>
        <time>2023-05-30T08:57:03.000Z</time>
      </trkpt>
      <trkpt lat="46.2046" lon="-1.37767">
        <ele>61.58137</ele>
        <time>2023-05-30T08:57:04.000Z</time>
      </trkpt>
      <trkpt lat="46.2046" lon="-1.37773">
        <ele>61.43138</ele>
        <time>2023-05-30T08:57:05.000Z</time>
      </trkpt>
      <trkpt lat="46.20461" lon="-1.37778">
        <ele>61.28974</ele>
        <time>2023-05-30T08:57:06.000Z</time>
      </trkpt>
      <trkpt lat="46.20461" lon="-1.37784">
        <ele>61.198</ele>
        <time>2023-05-30T08:57:07.000Z</time>
      </trkpt>
      <trkpt lat="46.20461" lon="-1.3779">
        <ele>61.00623</ele>
        <time>2023-05-30T08:57:08.000Z</time>
      </trkpt>
      <trkpt lat="46.2046" lon="-1.37795">
        <ele>60.80254</ele>
        <time>2023-05-30T08:57:09.000Z</time>
      </trkpt>
      <trkpt lat="46.2046" lon="-1.37801">
        <ele>60.57164</ele>
        <time>2023-05-30T08:57:10.000Z</time>
      </trkpt>
      <trkpt lat="46.20459" lon="-1.37807">
        <ele>60.34475</ele>
        <time>2023-05-30T08:57:11.000Z</time>
      </trkpt>
      <trkpt lat="46.20458" lon="-1.37813">
        <ele>60.14242</ele>
        <time>2023-05-30T08:57:12.000Z</time>
      </trkpt>
      <trkpt lat="46.20457" lon="-1.3782">
        <ele>60.20589</ele>
        <time>2023-05-30T08:57:13.000Z</time>
      </trkpt>
      <trkpt lat="46.20456" lon="-1.37825">
        <ele>60.13423</ele>
        <time>2023-05-30T08:57:14.000Z</time>
      </trkpt>
      <trkpt lat="46.20455" lon="-1.37832">
        <ele>60.06227</ele>
        <time>2023-05-30T08:57:15.000Z</time>
      </trkpt>
      <trkpt lat="46.20454" lon="-1.37838">
        <ele>59.99481</ele>
        <time>2023-05-30T08:57:16.000Z</time>
      </trkpt>
      <trkpt lat="46.20453" lon="-1.37844">
        <ele>59.93996</ele>
        <time>2023-05-30T08:57:17.000Z</time>
      </trkpt>
      <trkpt lat="46.20452" lon="-1.3785">
        <ele>59.89667</ele>
        <time>2023-05-30T08:57:18.000Z</time>
      </trkpt>
      <trkpt lat="46.20451" lon="-1.37855">
        <ele>59.85371</ele>
        <time>2023-05-30T08:57:19.000Z</time>
      </trkpt>
      <trkpt lat="46.2045" lon="-1.37861">
        <ele>59.79356</ele>
        <time>2023-05-30T08:57:20.000Z</time>
      </trkpt>
      <trkpt lat="46.20449" lon="-1.37867">
        <ele>59.73043</ele>
        <time>2023-05-30T08:57:21.000Z</time>
      </trkpt>
      <trkpt lat="46.20448" lon="-1.37873">
        <ele>59.68108</ele>
        <time>2023-05-30T08:57:22.000Z</time>
      </trkpt>
      <trkpt lat="46.20448" lon="-1.37878">
        <ele>59.6581</ele>
        <time>2023-05-30T08:57:23.000Z</time>
      </trkpt>
      <trkpt lat="46.20447" lon="-1.37883">
        <ele>59.60595</ele>
        <time>2023-05-30T08:57:24.000Z</time>
      </trkpt>
      <trkpt lat="46.20447" lon="-1.37888">
        <ele>59.56966</ele>
        <time>2023-05-30T08:57:25.000Z</time>
      </trkpt>
      <trkpt lat="46.20446" lon="-1.37892">
        <ele>59.59695</ele>
        <time>2023-05-30T08:57:26.000Z</time>
      </trkpt>
      <trkpt lat="46.20446" lon="-1.37897">
        <ele>59.555</ele>
        <time>2023-05-30T08:57:27.000Z</time>
      </trkpt>
      <trkpt lat="46.20446" lon="-1.37901">
        <ele>59.49421</ele>
        <time>2023-05-30T08:57:28.000Z</time>
      </trkpt>
      <trkpt lat="46.20445" lon="-1.37906">
        <ele>59.43885</ele>
        <time>2023-05-30T08:57:29.000Z</time>
      </trkpt>
      <trkpt lat="46.20445" lon="-1.37911">
        <ele>59.43395</ele>
        <time>2023-05-30T08:57:30.000Z</time>
      </trkpt>
      <trkpt lat="46.20445" lon="-1.37915">
        <ele>59.41774</ele>
        <time>2023-05-30T08:57:31.000Z</time>
      </trkpt>
      <trkpt lat="46.20445" lon="-1.3792">
        <ele>59.41167</ele>
        <time>2023-05-30T08:57:32.000Z</time>
      </trkpt>
      <trkpt lat="46.20445" lon="-1.37924">
        <ele>59.40371</ele>
        <time>2023-05-30T08:57:33.000Z</time>
      </trkpt>
      <trkpt lat="46.20446" lon="-1.37928">
        <ele>59.42493</ele>
        <time>2023-05-30T08:57:34.000Z</time>
      </trkpt>
      <trkpt lat="46.20446" lon="-1.37933">
        <ele>59.44164</ele>
        <time>2023-05-30T08:57:35.000Z</time>
      </trkpt>
      <trkpt lat="46.20447" lon="-1.37937">
        <ele>59.44652</ele>
        <time>2023-05-30T08:57:36.000Z</time>
      </trkpt>
      <trkpt lat="46.20447" lon="-1.37942">
        <ele>59.43475</ele>
        <time>2023-05-30T08:57:37.000Z</time>
      </trkpt>
      <trkpt lat="46.20448" lon="-1.37946">
        <ele>59.41673</ele>
        <time>2023-05-30T08:57:38.000Z</time>
      </trkpt>
      <trkpt lat="46.20449" lon="-1.37951">
        <ele>59.40165</ele>
        <time>2023-05-30T08:57:39.000Z</time>
      </trkpt>
      <trkpt lat="46.2045" lon="-1.37956">
        <ele>59.38025</ele>
        <time>2023-05-30T08:57:40.000Z</time>
      </trkpt>
      <trkpt lat="46.20451" lon="-1.37963">
        <ele>59.36052</ele>
        <time>2023-05-30T08:57:41.000Z</time>
      </trkpt>
      <trkpt lat="46.20453" lon="-1.3797">
        <ele>59.33899</ele>
        <time>2023-05-30T08:57:42.000Z</time>
      </trkpt>
      <trkpt lat="46.20454" lon="-1.37977">
        <ele>59.29121</ele>
        <time>2023-05-30T08:57:43.000Z</time>
      </trkpt>
      <trkpt lat="46.20456" lon="-1.37984">
        <ele>59.29631</ele>
        <time>2023-05-30T08:57:44.000Z</time>
      </trkpt>
      <trkpt lat="46.20458" lon="-1.3799">
        <ele>59.29768</ele>
        <time>2023-05-30T08:57:45.000Z</time>
      </trkpt>
      <trkpt lat="46.20458" lon="-1.37997">
        <ele>59.29469</ele>
        <time>2023-05-30T08:57:46.000Z</time>
      </trkpt>
      <trkpt lat="46.20459" lon="-1.38003">
        <ele>59.28802</ele>
        <time>2023-05-30T08:57:47.000Z</time>
      </trkpt>
      <trkpt lat="46.2046" lon="-1.38009">
        <ele>59.28649</ele>
        <time>2023-05-30T08:57:48.000Z</time>
      </trkpt>
      <trkpt lat="46.20461" lon="-1.38016">
        <ele>59.30803</ele>
        <time>2023-05-30T08:57:49.000Z</time>
      </trkpt>
      <trkpt lat="46.20462" lon="-1.38023">
        <ele>59.29352</ele>
        <time>2023-05-30T08:57:50.000Z</time>
      </trkpt>
      <trkpt lat="46.20463" lon="-1.38031">
        <ele>59.23542</ele>
        <time>2023-05-30T08:57:51.000Z</time>
      </trkpt>
      <trkpt lat="46.20464" lon="-1.38038">
        <ele>59.16592</ele>
        <time>2023-05-30T08:57:52.000Z</time>
      </trkpt>
      <trkpt lat="46.20464" lon="-1.38047">
        <ele>59.07551</ele>
        <time>2023-05-30T08:57:53.000Z</time>
      </trkpt>
      <trkpt lat="46.20464" lon="-1.38055">
        <ele>58.95374</ele>
        <time>2023-05-30T08:57:54.000Z</time>
      </trkpt>
      <trkpt lat="46.20463" lon="-1.38062">
        <ele>58.93162</ele>
        <time>2023-05-30T08:57:55.000Z</time>
      </trkpt>
      <trkpt lat="46.20463" lon="-1.38069">
        <ele>58.91758</ele>
        <time>2023-05-30T08:57:56.000Z</time>
      </trkpt>
      <trkpt lat="46.20463" lon="-1.38075">
        <ele>58.91664</ele>
        <time>2023-05-30T08:57:57.000Z</time>
      </trkpt>
      <trkpt lat="46.20464" lon="-1.3808">
        <ele>58.89339</ele>
        <time>2023-05-30T08:57:58.000Z</time>
      </trkpt>
      <trkpt lat="46.20464" lon="-1.38086">
        <ele>58.88552</ele>
        <time>2023-05-30T08:57:59.000Z</time>
      </trkpt>
      <trkpt lat="46.20464" lon="-1.38092">
        <ele>58.89494</ele>
        <time>2023-05-30T08:58:00.000Z</time>
      </trkpt>
      <trkpt lat="46.20465" lon="-1.38098">
        <ele>58.88092</ele>
        <time>2023-05-30T08:58:01.000Z</time>
      </trkpt>
      <trkpt lat="46.20465" lon="-1.38104">
        <ele>58.86377</ele>
        <time>2023-05-30T08:58:02.000Z</time>
      </trkpt>
      <trkpt lat="46.20464" lon="-1.3811">
        <ele>58.8405</ele>
        <time>2023-05-30T08:58:03.000Z</time>
      </trkpt>
      <trkpt lat="46.20463" lon="-1.38116">
        <ele>58.77261</ele>
        <time>2023-05-30T08:58:04.000Z</time>
      </trkpt>
      <trkpt lat="46.20461" lon="-1.38123">
        <ele>58.70805</ele>
        <time>2023-05-30T08:58:05.000Z</time>
      </trkpt>
      <trkpt lat="46.2046" lon="-1.38129">
        <ele>58.64935</ele>
        <time>2023-05-30T08:58:06.000Z</time>
      </trkpt>
      <trkpt lat="46.20459" lon="-1.38135">
        <ele>58.58244</ele>
        <time>2023-05-30T08:58:07.000Z</time>
      </trkpt>
      <trkpt lat="46.20458" lon="-1.3814">
        <ele>58.50994</ele>
        <time>2023-05-30T08:58:08.000Z</time>
      </trkpt>
      <trkpt lat="46.20457" lon="-1.38145">
        <ele>58.41732</ele>
        <time>2023-05-30T08:58:09.000Z</time>
      </trkpt>
      <trkpt lat="46.20457" lon="-1.3815">
        <ele>58.32529</ele>
        <time>2023-05-30T08:58:10.000Z</time>
      </trkpt>
      <trkpt lat="46.20457" lon="-1.38154">
        <ele>58.27816</ele>
        <time>2023-05-30T08:58:11.000Z</time>
      </trkpt>
      <trkpt lat="46.20456" lon="-1.38157">
        <ele>58.24395</ele>
        <time>2023-05-30T08:58:12.000Z</time>
      </trkpt>
      <trkpt lat="46.20456" lon="-1.38161">
        <ele>58.22208</ele>
        <time>2023-05-30T08:58:13.000Z</time>
      </trkpt>
      <trkpt lat="46.20456" lon="-1.38166">
        <ele>58.22469</ele>
        <time>2023-05-30T08:58:14.000Z</time>
      </trkpt>
      <trkpt lat="46.20457" lon="-1.3817">
        <ele>58.11803</ele>
        <time>2023-05-30T08:58:15.000Z</time>
      </trkpt>
      <trkpt lat="46.20457" lon="-1.38175">
        <ele>58.03652</ele>
        <time>2023-05-30T08:58:16.000Z</time>
      </trkpt>
      <trkpt lat="46.20457" lon="-1.3818">
        <ele>57.96367</ele>
        <time>2023-05-30T08:58:17.000Z</time>
      </trkpt>
      <trkpt lat="46.20457" lon="-1.38184">
        <ele>57.91041</ele>
        <time>2023-05-30T08:58:18.000Z</time>
      </trkpt>
      <trkpt lat="46.20457" lon="-1.38188">
        <ele>57.83517</ele>
        <time>2023-05-30T08:58:19.000Z</time>
      </trkpt>
      <trkpt lat="46.20457" lon="-1.38192">
        <ele>57.78306</ele>
        <time>2023-05-30T08:58:20.000Z</time>
      </trkpt>
      <trkpt lat="46.20458" lon="-1.38196">
        <ele>57.74715</ele>
        <time>2023-05-30T08:58:21.000Z</time>
      </trkpt>
      <trkpt lat="46.20458" lon="-1.38198">
        <ele>57.69976</ele>
        <time>2023-05-30T08:58:22.000Z</time>
      </trkpt>
      <trkpt lat="46.20458" lon="-1.38203">
        <ele>57.69012</ele>
        <time>2023-05-30T08:58:24.000Z</time>
      </trkpt>
      <trkpt lat="46.20458" lon="-1.38206">
        <ele>57.7063</ele>
        <time>2023-05-30T08:58:25.000Z</time>
      </trkpt>
      <trkpt lat="46.20458" lon="-1.38209">
        <ele>57.70882</ele>
        <time>2023-05-30T08:58:26.000Z</time>
      </trkpt>
      <trkpt lat="46.20458" lon="-1.38212">
        <ele>57.71601</ele>
        <time>2023-05-30T08:58:27.000Z</time>
      </trkpt>
      <trkpt lat="46.20459" lon="-1.38215">
        <ele>57.75844</ele>
        <time>2023-05-30T08:58:28.000Z</time>
      </trkpt>
      <trkpt lat="46.20459" lon="-1.38218">
        <ele>57.7553</ele>
        <time>2023-05-30T08:58:29.000Z</time>
      </trkpt>
      <trkpt lat="46.20459" lon="-1.38222">
        <ele>57.74418</ele>
        <time>2023-05-30T08:58:30.000Z</time>
      </trkpt>
      <trkpt lat="46.20459" lon="-1.38225">
        <ele>57.70638</ele>
        <time>2023-05-30T08:58:31.000Z</time>
      </trkpt>
      <trkpt lat="46.2046" lon="-1.38228">
        <ele>57.73887</ele>
        <time>2023-05-30T08:58:32.000Z</time>
      </trkpt>
      <trkpt lat="46.20461" lon="-1.38231">
        <ele>57.75137</ele>
        <time>2023-05-30T08:58:33.000Z</time>
      </trkpt>
      <trkpt lat="46.20461" lon="-1.38233">
        <ele>57.76725</ele>
        <time>2023-05-30T08:58:34.000Z</time>
      </trkpt>
      <trkpt lat="46.20461" lon="-1.38236">
        <ele>57.75497</ele>
        <time>2023-05-30T08:58:35.000Z</time>
      </trkpt>
      <trkpt lat="46.20462" lon="-1.38239">
        <ele>57.74138</ele>
        <time>2023-05-30T08:58:36.000Z</time>
      </trkpt>
      <trkpt lat="46.20462" lon="-1.38243">
        <ele>57.70779</ele>
        <time>2023-05-30T08:58:37.000Z</time>
      </trkpt>
      <trkpt lat="46.20463" lon="-1.38246">
        <ele>57.67139</ele>
        <time>2023-05-30T08:58:38.000Z</time>
      </trkpt>
      <trkpt lat="46.20463" lon="-1.3825">
        <ele>57.64393</ele>
        <time>2023-05-30T08:58:39.000Z</time>
      </trkpt>
      <trkpt lat="46.20462" lon="-1.38254">
        <ele>57.62068</ele>
        <time>2023-05-30T08:58:40.000Z</time>
      </trkpt>
      <trkpt lat="46.20462" lon="-1.38258">
        <ele>57.56112</ele>
        <time>2023-05-30T08:58:41.000Z</time>
      </trkpt>
      <trkpt lat="46.20463" lon="-1.38262">
        <ele>57.50573</ele>
        <time>2023-05-30T08:58:42.000Z</time>
      </trkpt>
      <trkpt lat="46.20463" lon="-1.38266">
        <ele>57.46503</ele>
        <time>2023-05-30T08:58:43.000Z</time>
      </trkpt>
      <trkpt lat="46.20463" lon="-1.3827">
        <ele>57.4185</ele>
        <time>2023-05-30T08:58:44.000Z</time>
      </trkpt>
      <trkpt lat="46.20464" lon="-1.38274">
        <ele>57.36971</ele>
        <time>2023-05-30T08:58:45.000Z</time>
      </trkpt>
      <trkpt lat="46.20465" lon="-1.38278">
        <ele>57.31373</ele>
        <time>2023-05-30T08:58:46.000Z</time>
      </trkpt>
      <trkpt lat="46.20465" lon="-1.38282">
        <ele>57.25126</ele>
        <time>2023-05-30T08:58:47.000Z</time>
      </trkpt>
      <trkpt lat="46.20466" lon="-1.38286">
        <ele>57.18848</ele>
        <time>2023-05-30T08:58:48.000Z</time>
      </trkpt>
      <trkpt lat="46.20467" lon="-1.3829">
        <ele>57.12793</ele>
        <time>2023-05-30T08:58:49.000Z</time>
      </trkpt>
      <trkpt lat="46.20467" lon="-1.38293">
        <ele>57.07028</ele>
        <time>2023-05-30T08:58:50.000Z</time>
      </trkpt>
      <trkpt lat="46.20468" lon="-1.38298">
        <ele>57.01721</ele>
        <time>2023-05-30T08:58:51.000Z</time>
      </trkpt>
      <trkpt lat="46.20468" lon="-1.38301">
        <ele>56.90594</ele>
        <time>2023-05-30T08:58:52.000Z</time>
      </trkpt>
      <trkpt lat="46.20468" lon="-1.38305">
        <ele>56.89693</ele>
        <time>2023-05-30T08:58:53.000Z</time>
      </trkpt>
      <trkpt lat="46.20467" lon="-1.38309">
        <ele>56.87962</ele>
        <time>2023-05-30T08:58:54.000Z</time>
      </trkpt>
      <trkpt lat="46.20467" lon="-1.38314">
        <ele>56.88182</ele>
        <time>2023-05-30T08:58:55.000Z</time>
      </trkpt>
      <trkpt lat="46.20466" lon="-1.38318">
        <ele>56.88418</ele>
        <time>2023-05-30T08:58:56.000Z</time>
      </trkpt>
      <trkpt lat="46.20465" lon="-1.38323">
        <ele>56.93121</ele>
        <time>2023-05-30T08:58:57.000Z</time>
      </trkpt>
      <trkpt lat="46.20464" lon="-1.38327">
        <ele>56.93937</ele>
        <time>2023-05-30T08:58:58.000Z</time>
      </trkpt>
      <trkpt lat="46.20463" lon="-1.38332">
        <ele>56.94432</ele>
        <time>2023-05-30T08:58:59.000Z</time>
      </trkpt>
      <trkpt lat="46.20462" lon="-1.38336">
        <ele>56.97883</ele>
        <time>2023-05-30T08:59:00.000Z</time>
      </trkpt>
      <trkpt lat="46.20461" lon="-1.38341">
        <ele>56.99497</ele>
        <time>2023-05-30T08:59:01.000Z</time>
      </trkpt>
      <trkpt lat="46.2046" lon="-1.38347">
        <ele>57.01143</ele>
        <time>2023-05-30T08:59:02.000Z</time>
      </trkpt>
      <trkpt lat="46.20459" lon="-1.38352">
        <ele>57.03022</ele>
        <time>2023-05-30T08:59:03.000Z</time>
      </trkpt>
      <trkpt lat="46.20458" lon="-1.38356">
        <ele>57.04961</ele>
        <time>2023-05-30T08:59:04.000Z</time>
      </trkpt>
      <trkpt lat="46.20456" lon="-1.38361">
        <ele>57.06883</ele>
        <time>2023-05-30T08:59:05.000Z</time>
      </trkpt>
      <trkpt lat="46.20455" lon="-1.38366">
        <ele>57.1199</ele>
        <time>2023-05-30T08:59:06.000Z</time>
      </trkpt>
      <trkpt lat="46.20454" lon="-1.38371">
        <ele>57.14567</ele>
        <time>2023-05-30T08:59:07.000Z</time>
      </trkpt>
      <trkpt lat="46.20453" lon="-1.38376">
        <ele>57.13832</ele>
        <time>2023-05-30T08:59:08.000Z</time>
      </trkpt>
      <trkpt lat="46.20452" lon="-1.38381">
        <ele>57.17517</ele>
        <time>2023-05-30T08:59:09.000Z</time>
      </trkpt>
      <trkpt lat="46.20451" lon="-1.38386">
        <ele>57.21993</ele>
        <time>2023-05-30T08:59:10.000Z</time>
      </trkpt>
      <trkpt lat="46.2045" lon="-1.38391">
        <ele>57.28721</ele>
        <time>2023-05-30T08:59:11.000Z</time>
      </trkpt>
      <trkpt lat="46.2045" lon="-1.38396">
        <ele>57.32961</ele>
        <time>2023-05-30T08:59:12.000Z</time>
      </trkpt>
      <trkpt lat="46.20449" lon="-1.38402">
        <ele>57.34782</ele>
        <time>2023-05-30T08:59:13.000Z</time>
      </trkpt>
      <trkpt lat="46.20448" lon="-1.38407">
        <ele>57.36732</ele>
        <time>2023-05-30T08:59:14.000Z</time>
      </trkpt>
      <trkpt lat="46.20447" lon="-1.38413">
        <ele>57.39464</ele>
        <time>2023-05-30T08:59:15.000Z</time>
      </trkpt>
      <trkpt lat="46.20446" lon="-1.38419">
        <ele>57.46212</ele>
        <time>2023-05-30T08:59:16.000Z</time>
      </trkpt>
      <trkpt lat="46.20444" lon="-1.38424">
        <ele>57.52206</ele>
        <time>2023-05-30T08:59:17.000Z</time>
      </trkpt>
      <trkpt lat="46.20443" lon="-1.3843">
        <ele>57.63654</ele>
        <time>2023-05-30T08:59:18.000Z</time>
      </trkpt>
      <trkpt lat="46.20441" lon="-1.38436">
        <ele>57.73785</ele>
        <time>2023-05-30T08:59:19.000Z</time>
      </trkpt>
      <trkpt lat="46.2044" lon="-1.38442">
        <ele>57.78728</ele>
        <time>2023-05-30T08:59:20.000Z</time>
      </trkpt>
      <trkpt lat="46.20439" lon="-1.38447">
        <ele>57.84205</ele>
        <time>2023-05-30T08:59:21.000Z</time>
      </trkpt>
      <trkpt lat="46.20439" lon="-1.38454">
        <ele>57.92207</ele>
        <time>2023-05-30T08:59:22.000Z</time>
      </trkpt>
      <trkpt lat="46.20438" lon="-1.3846">
        <ele>57.97806</ele>
        <time>2023-05-30T08:59:23.000Z</time>
      </trkpt>
      <trkpt lat="46.20438" lon="-1.38466">
        <ele>58.03176</ele>
        <time>2023-05-30T08:59:24.000Z</time>
      </trkpt>
      <trkpt lat="46.20436" lon="-1.38473">
        <ele>58.11196</ele>
        <time>2023-05-30T08:59:25.000Z</time>
      </trkpt>
      <trkpt lat="46.20435" lon="-1.3848">
        <ele>58.15574</ele>
        <time>2023-05-30T08:59:26.000Z</time>
      </trkpt>
      <trkpt lat="46.20434" lon="-1.38487">
        <ele>58.21986</ele>
        <time>2023-05-30T08:59:27.000Z</time>
      </trkpt>
      <trkpt lat="46.20433" lon="-1.38495">
        <ele>58.27566</ele>
        <time>2023-05-30T08:59:28.000Z</time>
      </trkpt>
      <trkpt lat="46.20432" lon="-1.38502">
        <ele>58.27179</ele>
        <time>2023-05-30T08:59:29.000Z</time>
      </trkpt>
      <trkpt lat="46.20432" lon="-1.38508">
        <ele>58.26762</ele>
        <time>2023-05-30T08:59:30.000Z</time>
      </trkpt>
      <trkpt lat="46.20431" lon="-1.38516">
        <ele>58.25618</ele>
        <time>2023-05-30T08:59:31.000Z</time>
      </trkpt>
      <trkpt lat="46.2043" lon="-1.38523">
        <ele>58.31829</ele>
        <time>2023-05-30T08:59:32.000Z</time>
      </trkpt>
      <trkpt lat="46.20429" lon="-1.3853">
        <ele>58.28823</ele>
        <time>2023-05-30T08:59:33.000Z</time>
      </trkpt>
      <trkpt lat="46.20428" lon="-1.38537">
        <ele>58.25381</ele>
        <time>2023-05-30T08:59:34.000Z</time>
      </trkpt>
      <trkpt lat="46.20426" lon="-1.38545">
        <ele>58.24101</ele>
        <time>2023-05-30T08:59:35.000Z</time>
      </trkpt>
      <trkpt lat="46.20426" lon="-1.38551">
        <ele>58.21801</ele>
        <time>2023-05-30T08:59:36.000Z</time>
      </trkpt>
      <trkpt lat="46.20426" lon="-1.38558">
        <ele>58.12943</ele>
        <time>2023-05-30T08:59:37.000Z</time>
      </trkpt>
      <trkpt lat="46.20424" lon="-1.38565">
        <ele>57.99387</ele>
        <time>2023-05-30T08:59:38.000Z</time>
      </trkpt>
      <trkpt lat="46.20423" lon="-1.38572">
        <ele>57.86351</ele>
        <time>2023-05-30T08:59:39.000Z</time>
      </trkpt>
      <trkpt lat="46.20424" lon="-1.38581">
        <ele>57.71321</ele>
        <time>2023-05-30T08:59:40.000Z</time>
      </trkpt>
      <trkpt lat="46.20423" lon="-1.38587">
        <ele>57.59796</ele>
        <time>2023-05-30T08:59:41.000Z</time>
      </trkpt>
      <trkpt lat="46.20423" lon="-1.38594">
        <ele>57.48223</ele>
        <time>2023-05-30T08:59:42.000Z</time>
      </trkpt>
      <trkpt lat="46.20422" lon="-1.38602">
        <ele>57.31979</ele>
        <time>2023-05-30T08:59:43.000Z</time>
      </trkpt>
      <trkpt lat="46.20421" lon="-1.38609">
        <ele>57.15298</ele>
        <time>2023-05-30T08:59:44.000Z</time>
      </trkpt>
      <trkpt lat="46.2042" lon="-1.38615">
        <ele>56.95201</ele>
        <time>2023-05-30T08:59:45.000Z</time>
      </trkpt>
      <trkpt lat="46.2042" lon="-1.38622">
        <ele>56.78143</ele>
        <time>2023-05-30T08:59:46.000Z</time>
      </trkpt>
      <trkpt lat="46.20419" lon="-1.38628">
        <ele>56.66685</ele>
        <time>2023-05-30T08:59:47.000Z</time>
      </trkpt>
      <trkpt lat="46.20418" lon="-1.38635">
        <ele>56.56981</ele>
        <time>2023-05-30T08:59:48.000Z</time>
      </trkpt>
      <trkpt lat="46.20417" lon="-1.38641">
        <ele>56.53234</ele>
        <time>2023-05-30T08:59:49.000Z</time>
      </trkpt>
      <trkpt lat="46.20416" lon="-1.38647">
        <ele>56.51079</ele>
        <time>2023-05-30T08:59:50.000Z</time>
      </trkpt>
      <trkpt lat="46.20416" lon="-1.38653">
        <ele>56.55299</ele>
        <time>2023-05-30T08:59:51.000Z</time>
      </trkpt>
      <trkpt lat="46.20415" lon="-1.38659">
        <ele>56.5417</ele>
        <time>2023-05-30T08:59:52.000Z</time>
      </trkpt>
      <trkpt lat="46.20414" lon="-1.38664">
        <ele>56.53238</ele>
        <time>2023-05-30T08:59:53.000Z</time>
      </trkpt>
      <trkpt lat="46.20413" lon="-1.38665">
        <ele>56.54193</ele>
        <time>2023-05-30T08:59:54.000Z</time>
      </trkpt>
      <trkpt lat="46.2041" lon="-1.38665">
        <ele>56.52731</ele>
        <time>2023-05-30T08:59:55.000Z</time>
      </trkpt>
      <trkpt lat="46.20407" lon="-1.38666">
        <ele>56.48732</ele>
        <time>2023-05-30T08:59:56.000Z</time>
      </trkpt>
      <trkpt lat="46.20403" lon="-1.38665">
        <ele>56.47987</ele>
        <time>2023-05-30T08:59:57.000Z</time>
      </trkpt>
      <trkpt lat="46.20399" lon="-1.38663">
        <ele>56.50655</ele>
        <time>2023-05-30T08:59:58.000Z</time>
      </trkpt>
      <trkpt lat="46.20395" lon="-1.38663">
        <ele>56.5679</ele>
        <time>2023-05-30T08:59:59.000Z</time>
      </trkpt>
      <trkpt lat="46.20392" lon="-1.38662">
        <ele>56.66656</ele>
        <time>2023-05-30T09:00:00.000Z</time>
      </trkpt>
      <trkpt lat="46.20388" lon="-1.38662">
        <ele>56.68121</ele>
        <time>2023-05-30T09:00:01.000Z</time>
      </trkpt>
      <trkpt lat="46.20384" lon="-1.38661">
        <ele>56.69157</ele>
        <time>2023-05-30T09:00:02.000Z</time>
      </trkpt>
      <trkpt lat="46.2038" lon="-1.3866">
        <ele>56.75965</ele>
        <time>2023-05-30T09:00:03.000Z</time>
      </trkpt>
      <trkpt lat="46.20376" lon="-1.38659">
        <ele>56.83105</ele>
        <time>2023-05-30T09:00:04.000Z</time>
      </trkpt>
      <trkpt lat="46.20372" lon="-1.38659">
        <ele>56.94297</ele>
        <time>2023-05-30T09:00:05.000Z</time>
      </trkpt>
      <trkpt lat="46.20368" lon="-1.38658">
        <ele>57.04343</ele>
        <time>2023-05-30T09:00:06.000Z</time>
      </trkpt>
      <trkpt lat="46.20364" lon="-1.38658">
        <ele>57.02924</ele>
        <time>2023-05-30T09:00:07.000Z</time>
      </trkpt>
      <trkpt lat="46.2036" lon="-1.3866">
        <ele>57.07186</ele>
        <time>2023-05-30T09:00:08.000Z</time>
      </trkpt>
      <trkpt lat="46.20358" lon="-1.38665">
        <ele>57.1242</ele>
        <time>2023-05-30T09:00:09.000Z</time>
      </trkpt>
      <trkpt lat="46.20358" lon="-1.38671">
        <ele>57.15861</ele>
        <time>2023-05-30T09:00:10.000Z</time>
      </trkpt>
      <trkpt lat="46.20358" lon="-1.38677">
        <ele>57.13506</ele>
        <time>2023-05-30T09:00:11.000Z</time>
      </trkpt>
      <trkpt lat="46.20358" lon="-1.38683">
        <ele>57.11732</ele>
        <time>2023-05-30T09:00:12.000Z</time>
      </trkpt>
      <trkpt lat="46.20358" lon="-1.38689">
        <ele>57.11901</ele>
        <time>2023-05-30T09:00:13.000Z</time>
      </trkpt>
      <trkpt lat="46.20359" lon="-1.38695">
        <ele>57.10909</ele>
        <time>2023-05-30T09:00:14.000Z</time>
      </trkpt>
      <trkpt lat="46.20359" lon="-1.38701">
        <ele>57.10553</ele>
        <time>2023-05-30T09:00:15.000Z</time>
      </trkpt>
      <trkpt lat="46.20359" lon="-1.38707">
        <ele>57.11934</ele>
        <time>2023-05-30T09:00:16.000Z</time>
      </trkpt>
      <trkpt lat="46.20359" lon="-1.38712">
        <ele>57.14215</ele>
        <time>2023-05-30T09:00:17.000Z</time>
      </trkpt>
      <trkpt lat="46.20359" lon="-1.38718">
        <ele>57.1625</ele>
        <time>2023-05-30T09:00:18.000Z</time>
      </trkpt>
      <trkpt lat="46.20359" lon="-1.38724">
        <ele>57.16325</ele>
        <time>2023-05-30T09:00:19.000Z</time>
      </trkpt>
      <trkpt lat="46.20359" lon="-1.3873">
        <ele>57.18498</ele>
        <time>2023-05-30T09:00:20.000Z</time>
      </trkpt>
      <trkpt lat="46.20359" lon="-1.38735">
        <ele>57.2595</ele>
        <time>2023-05-30T09:00:21.000Z</time>
      </trkpt>
      <trkpt lat="46.20359" lon="-1.38741">
        <ele>57.31749</ele>
        <time>2023-05-30T09:00:22.000Z</time>
      </trkpt>
      <trkpt lat="46.20359" lon="-1.38747">
        <ele>57.37908</ele>
        <time>2023-05-30T09:00:23.000Z</time>
      </trkpt>
      <trkpt lat="46.20358" lon="-1.38753">
        <ele>57.40942</ele>
        <time>2023-05-30T09:00:24.000Z</time>
      </trkpt>
      <trkpt lat="46.20358" lon="-1.38759">
        <ele>57.42133</ele>
        <time>2023-05-30T09:00:25.000Z</time>
      </trkpt>
      <trkpt lat="46.20357" lon="-1.38765">
        <ele>57.43872</ele>
        <time>2023-05-30T09:00:26.000Z</time>
      </trkpt>
      <trkpt lat="46.20357" lon="-1.3877">
        <ele>57.52596</ele>
        <time>2023-05-30T09:00:27.000Z</time>
      </trkpt>
      <trkpt lat="46.20356" lon="-1.38776">
        <ele>57.58633</ele>
        <time>2023-05-30T09:00:28.000Z</time>
      </trkpt>
      <trkpt lat="46.20356" lon="-1.38782">
        <ele>57.63874</ele>
        <time>2023-05-30T09:00:29.000Z</time>
      </trkpt>
      <trkpt lat="46.20356" lon="-1.38789">
        <ele>57.64329</ele>
        <time>2023-05-30T09:00:30.000Z</time>
      </trkpt>
      <trkpt lat="46.20355" lon="-1.38795">
        <ele>57.64717</ele>
        <time>2023-05-30T09:00:31.000Z</time>
      </trkpt>
      <trkpt lat="46.20354" lon="-1.38802">
        <ele>57.64971</ele>
        <time>2023-05-30T09:00:32.000Z</time>
      </trkpt>
      <trkpt lat="46.20354" lon="-1.38808">
        <ele>57.6568</ele>
        <time>2023-05-30T09:00:33.000Z</time>
      </trkpt>
      <trkpt lat="46.20353" lon="-1.38814">
        <ele>57.67568</ele>
        <time>2023-05-30T09:00:34.000Z</time>
      </trkpt>
      <trkpt lat="46.20353" lon="-1.3882">
        <ele>57.69276</ele>
        <time>2023-05-30T09:00:35.000Z</time>
      </trkpt>
      <trkpt lat="46.20353" lon="-1.38825">
        <ele>57.69308</ele>
        <time>2023-05-30T09:00:36.000Z</time>
      </trkpt>
      <trkpt lat="46.20354" lon="-1.38832">
        <ele>57.69076</ele>
        <time>2023-05-30T09:00:37.000Z</time>
      </trkpt>
      <trkpt lat="46.20354" lon="-1.38837">
        <ele>57.66811</ele>
        <time>2023-05-30T09:00:38.000Z</time>
      </trkpt>
      <trkpt lat="46.20353" lon="-1.38843">
        <ele>57.67662</ele>
        <time>2023-05-30T09:00:39.000Z</time>
      </trkpt>
      <trkpt lat="46.20354" lon="-1.38847">
        <ele>57.66045</ele>
        <time>2023-05-30T09:00:40.000Z</time>
      </trkpt>
      <trkpt lat="46.20354" lon="-1.38851">
        <ele>57.66502</ele>
        <time>2023-05-30T09:00:41.000Z</time>
      </trkpt>
      <trkpt lat="46.20355" lon="-1.38853">
        <ele>57.68873</ele>
        <time>2023-05-30T09:00:42.000Z</time>
      </trkpt>
      <trkpt lat="46.20356" lon="-1.38857">
        <ele>57.70826</ele>
        <time>2023-05-30T09:00:44.000Z</time>
      </trkpt>
      <trkpt lat="46.20359" lon="-1.38859">
        <ele>57.74857</ele>
        <time>2023-05-30T09:00:46.000Z</time>
      </trkpt>
      <trkpt lat="46.20362" lon="-1.38859">
        <ele>57.77387</ele>
        <time>2023-05-30T09:00:48.000Z</time>
      </trkpt>
      <trkpt lat="46.20364" lon="-1.38859">
        <ele>57.81138</ele>
        <time>2023-05-30T09:00:49.000Z</time>
      </trkpt>
      <trkpt lat="46.20366" lon="-1.38858">
        <ele>57.84083</ele>
        <time>2023-05-30T09:00:50.000Z</time>
      </trkpt>
      <trkpt lat="46.20368" lon="-1.38858">
        <ele>57.85191</ele>
        <time>2023-05-30T09:00:51.000Z</time>
      </trkpt>
      <trkpt lat="46.2037" lon="-1.38858">
        <ele>57.86265</ele>
        <time>2023-05-30T09:00:52.000Z</time>
      </trkpt>
      <trkpt lat="46.20372" lon="-1.38858">
        <ele>57.90963</ele>
        <time>2023-05-30T09:00:53.000Z</time>
      </trkpt>
      <trkpt lat="46.20374" lon="-1.38858">
        <ele>57.95199</ele>
        <time>2023-05-30T09:00:54.000Z</time>
      </trkpt>
      <trkpt lat="46.20376" lon="-1.38858">
        <ele>58.00961</ele>
        <time>2023-05-30T09:00:55.000Z</time>
      </trkpt>
      <trkpt lat="46.20378" lon="-1.38859">
        <ele>58.06373</ele>
        <time>2023-05-30T09:00:56.000Z</time>
      </trkpt>
      <trkpt lat="46.2038" lon="-1.38859">
        <ele>58.11928</ele>
        <time>2023-05-30T09:00:57.000Z</time>
      </trkpt>
      <trkpt lat="46.20382" lon="-1.38859">
        <ele>58.1333</ele>
        <time>2023-05-30T09:00:58.000Z</time>
      </trkpt>
      <trkpt lat="46.20384" lon="-1.3886">
        <ele>58.145</ele>
        <time>2023-05-30T09:00:59.000Z</time>
      </trkpt>
      <trkpt lat="46.20387" lon="-1.38861">
        <ele>58.18242</ele>
        <time>2023-05-30T09:01:00.000Z</time>
      </trkpt>
      <trkpt lat="46.20389" lon="-1.38864">
        <ele>58.25088</ele>
        <time>2023-05-30T09:01:01.000Z</time>
      </trkpt>
      <trkpt lat="46.20391" lon="-1.38868">
        <ele>58.28876</ele>
        <time>2023-05-30T09:01:02.000Z</time>
      </trkpt>
      <trkpt lat="46.20392" lon="-1.38872">
        <ele>58.34225</ele>
        <time>2023-05-30T09:01:03.000Z</time>
      </trkpt>
      <trkpt lat="46.20391" lon="-1.38877">
        <ele>58.37867</ele>
        <time>2023-05-30T09:01:04.000Z</time>
      </trkpt>
      <trkpt lat="46.2039" lon="-1.38883">
        <ele>58.3995</ele>
        <time>2023-05-30T09:01:05.000Z</time>
      </trkpt>
      <trkpt lat="46.20389" lon="-1.38888">
        <ele>58.43407</ele>
        <time>2023-05-30T09:01:06.000Z</time>
      </trkpt>
      <trkpt lat="46.20387" lon="-1.38893">
        <ele>58.47707</ele>
        <time>2023-05-30T09:01:07.000Z</time>
      </trkpt>
      <trkpt lat="46.20386" lon="-1.38898">
        <ele>58.52402</ele>
        <time>2023-05-30T09:01:08.000Z</time>
      </trkpt>
      <trkpt lat="46.20385" lon="-1.38903">
        <ele>58.55724</ele>
        <time>2023-05-30T09:01:09.000Z</time>
      </trkpt>
      <trkpt lat="46.20383" lon="-1.38909">
        <ele>58.59254</ele>
        <time>2023-05-30T09:01:10.000Z</time>
      </trkpt>
      <trkpt lat="46.20382" lon="-1.38914">
        <ele>58.6105</ele>
        <time>2023-05-30T09:01:11.000Z</time>
      </trkpt>
      <trkpt lat="46.20381" lon="-1.3892">
        <ele>58.64396</ele>
        <time>2023-05-30T09:01:12.000Z</time>
      </trkpt>
      <trkpt lat="46.2038" lon="-1.38926">
        <ele>58.6923</ele>
        <time>2023-05-30T09:01:13.000Z</time>
      </trkpt>
      <trkpt lat="46.20378" lon="-1.38932">
        <ele>58.74418</ele>
        <time>2023-05-30T09:01:14.000Z</time>
      </trkpt>
      <trkpt lat="46.20377" lon="-1.38938">
        <ele>58.77511</ele>
        <time>2023-05-30T09:01:15.000Z</time>
      </trkpt>
      <trkpt lat="46.20376" lon="-1.38944">
        <ele>58.82162</ele>
        <time>2023-05-30T09:01:16.000Z</time>
      </trkpt>
      <trkpt lat="46.20375" lon="-1.3895">
        <ele>58.86375</ele>
        <time>2023-05-30T09:01:17.000Z</time>
      </trkpt>
      <trkpt lat="46.20374" lon="-1.38956">
        <ele>58.92995</ele>
        <time>2023-05-30T09:01:18.000Z</time>
      </trkpt>
      <trkpt lat="46.20372" lon="-1.38963">
        <ele>59.00175</ele>
        <time>2023-05-30T09:01:19.000Z</time>
      </trkpt>
      <trkpt lat="46.20371" lon="-1.38969">
        <ele>59.05049</ele>
        <time>2023-05-30T09:01:20.000Z</time>
      </trkpt>
      <trkpt lat="46.2037" lon="-1.38976">
        <ele>59.05965</ele>
        <time>2023-05-30T09:01:21.000Z</time>
      </trkpt>
      <trkpt lat="46.20369" lon="-1.38983">
        <ele>59.03301</ele>
        <time>2023-05-30T09:01:22.000Z</time>
      </trkpt>
      <trkpt lat="46.20367" lon="-1.38989">
        <ele>58.99013</ele>
        <time>2023-05-30T09:01:23.000Z</time>
      </trkpt>
      <trkpt lat="46.20366" lon="-1.38996">
        <ele>58.9587</ele>
        <time>2023-05-30T09:01:24.000Z</time>
      </trkpt>
      <trkpt lat="46.20365" lon="-1.39003">
        <ele>58.92822</ele>
        <time>2023-05-30T09:01:25.000Z</time>
      </trkpt>
      <trkpt lat="46.20365" lon="-1.39009">
        <ele>58.88129</ele>
        <time>2023-05-30T09:01:26.000Z</time>
      </trkpt>
      <trkpt lat="46.20365" lon="-1.39015">
        <ele>58.85279</ele>
        <time>2023-05-30T09:01:27.000Z</time>
      </trkpt>
      <trkpt lat="46.20364" lon="-1.39022">
        <ele>58.85051</ele>
        <time>2023-05-30T09:01:28.000Z</time>
      </trkpt>
      <trkpt lat="46.20363" lon="-1.39029">
        <ele>58.84242</ele>
        <time>2023-05-30T09:01:29.000Z</time>
      </trkpt>
      <trkpt lat="46.20363" lon="-1.39035">
        <ele>58.8451</ele>
        <time>2023-05-30T09:01:30.000Z</time>
      </trkpt>
      <trkpt lat="46.20361" lon="-1.39042">
        <ele>58.84796</ele>
        <time>2023-05-30T09:01:31.000Z</time>
      </trkpt>
      <trkpt lat="46.20361" lon="-1.39048">
        <ele>58.84355</ele>
        <time>2023-05-30T09:01:32.000Z</time>
      </trkpt>
      <trkpt lat="46.2036" lon="-1.39054">
        <ele>58.81066</ele>
        <time>2023-05-30T09:01:33.000Z</time>
      </trkpt>
      <trkpt lat="46.20359" lon="-1.3906">
        <ele>58.77071</ele>
        <time>2023-05-30T09:01:34.000Z</time>
      </trkpt>
      <trkpt lat="46.20358" lon="-1.39067">
        <ele>58.7228</ele>
        <time>2023-05-30T09:01:35.000Z</time>
      </trkpt>
      <trkpt lat="46.20358" lon="-1.39073">
        <ele>58.70752</ele>
        <time>2023-05-30T09:01:36.000Z</time>
      </trkpt>
      <trkpt lat="46.20358" lon="-1.39079">
        <ele>58.67748</ele>
        <time>2023-05-30T09:01:37.000Z</time>
      </trkpt>
      <trkpt lat="46.20357" lon="-1.39084">
        <ele>58.64935</ele>
        <time>2023-05-30T09:01:38.000Z</time>
      </trkpt>
      <trkpt lat="46.20355" lon="-1.39089">
        <ele>58.61031</ele>
        <time>2023-05-30T09:01:39.000Z</time>
      </trkpt>
      <trkpt lat="46.20355" lon="-1.39094">
        <ele>58.56986</ele>
        <time>2023-05-30T09:01:40.000Z</time>
      </trkpt>
      <trkpt lat="46.20354" lon="-1.39099">
        <ele>58.53902</ele>
        <time>2023-05-30T09:01:41.000Z</time>
      </trkpt>
      <trkpt lat="46.20355" lon="-1.39105">
        <ele>58.4968</ele>
        <time>2023-05-30T09:01:42.000Z</time>
      </trkpt>
      <trkpt lat="46.20354" lon="-1.3911">
        <ele>58.43364</ele>
        <time>2023-05-30T09:01:43.000Z</time>
      </trkpt>
      <trkpt lat="46.20354" lon="-1.39116">
        <ele>58.43703</ele>
        <time>2023-05-30T09:01:44.000Z</time>
      </trkpt>
      <trkpt lat="46.20353" lon="-1.39121">
        <ele>58.4368</ele>
        <time>2023-05-30T09:01:45.000Z</time>
      </trkpt>
      <trkpt lat="46.20352" lon="-1.39127">
        <ele>58.46856</ele>
        <time>2023-05-30T09:01:46.000Z</time>
      </trkpt>
      <trkpt lat="46.20352" lon="-1.39133">
        <ele>58.49593</ele>
        <time>2023-05-30T09:01:47.000Z</time>
      </trkpt>
      <trkpt lat="46.20351" lon="-1.39139">
        <ele>58.48897</ele>
        <time>2023-05-30T09:01:48.000Z</time>
      </trkpt>
      <trkpt lat="46.2035" lon="-1.39144">
        <ele>58.51158</ele>
        <time>2023-05-30T09:01:49.000Z</time>
      </trkpt>
      <trkpt lat="46.2035" lon="-1.3915">
        <ele>58.53014</ele>
        <time>2023-05-30T09:01:50.000Z</time>
      </trkpt>
      <trkpt lat="46.20349" lon="-1.39156">
        <ele>58.56591</ele>
        <time>2023-05-30T09:01:51.000Z</time>
      </trkpt>
      <trkpt lat="46.20349" lon="-1.39161">
        <ele>58.58869</ele>
        <time>2023-05-30T09:01:52.000Z</time>
      </trkpt>
      <trkpt lat="46.20349" lon="-1.39167">
        <ele>58.6244</ele>
        <time>2023-05-30T09:01:53.000Z</time>
      </trkpt>
      <trkpt lat="46.20348" lon="-1.39172">
        <ele>58.68294</ele>
        <time>2023-05-30T09:01:54.000Z</time>
      </trkpt>
      <trkpt lat="46.20348" lon="-1.39178">
        <ele>58.73826</ele>
        <time>2023-05-30T09:01:55.000Z</time>
      </trkpt>
      <trkpt lat="46.20347" lon="-1.39184">
        <ele>58.75387</ele>
        <time>2023-05-30T09:01:56.000Z</time>
      </trkpt>
      <trkpt lat="46.20346" lon="-1.39189">
        <ele>58.71563</ele>
        <time>2023-05-30T09:01:57.000Z</time>
      </trkpt>
      <trkpt lat="46.20346" lon="-1.39195">
        <ele>58.68933</ele>
        <time>2023-05-30T09:01:58.000Z</time>
      </trkpt>
      <trkpt lat="46.20345" lon="-1.392">
        <ele>58.67028</ele>
        <time>2023-05-30T09:01:59.000Z</time>
      </trkpt>
      <trkpt lat="46.20344" lon="-1.39205">
        <ele>58.70936</ele>
        <time>2023-05-30T09:02:00.000Z</time>
      </trkpt>
      <trkpt lat="46.20344" lon="-1.3921">
        <ele>58.74894</ele>
        <time>2023-05-30T09:02:01.000Z</time>
      </trkpt>
      <trkpt lat="46.20344" lon="-1.39214">
        <ele>58.80891</ele>
        <time>2023-05-30T09:02:02.000Z</time>
      </trkpt>
      <trkpt lat="46.20344" lon="-1.39218">
        <ele>58.93783</ele>
        <time>2023-05-30T09:02:03.000Z</time>
      </trkpt>
      <trkpt lat="46.20343" lon="-1.39222">
        <ele>59.00451</ele>
        <time>2023-05-30T09:02:04.000Z</time>
      </trkpt>
      <trkpt lat="46.20343" lon="-1.39226">
        <ele>59.06007</ele>
        <time>2023-05-30T09:02:05.000Z</time>
      </trkpt>
      <trkpt lat="46.20343" lon="-1.39229">
        <ele>59.09756</ele>
        <time>2023-05-30T09:02:06.000Z</time>
      </trkpt>
      <trkpt lat="46.20342" lon="-1.39233">
        <ele>59.1223</ele>
        <time>2023-05-30T09:02:07.000Z</time>
      </trkpt>
      <trkpt lat="46.20339" lon="-1.39235">
        <ele>59.15568</ele>
        <time>2023-05-30T09:02:08.000Z</time>
      </trkpt>
      <trkpt lat="46.20335" lon="-1.39235">
        <ele>59.18539</ele>
        <time>2023-05-30T09:02:09.000Z</time>
      </trkpt>
      <trkpt lat="46.20331" lon="-1.39234">
        <ele>59.21889</ele>
        <time>2023-05-30T09:02:10.000Z</time>
      </trkpt>
      <trkpt lat="46.20328" lon="-1.39233">
        <ele>59.17923</ele>
        <time>2023-05-30T09:02:11.000Z</time>
      </trkpt>
      <trkpt lat="46.20324" lon="-1.39232">
        <ele>59.14738</ele>
        <time>2023-05-30T09:02:12.000Z</time>
      </trkpt>
      <trkpt lat="46.2032" lon="-1.39232">
        <ele>59.10232</ele>
        <time>2023-05-30T09:02:13.000Z</time>
      </trkpt>
      <trkpt lat="46.20317" lon="-1.39232">
        <ele>59.12504</ele>
        <time>2023-05-30T09:02:14.000Z</time>
      </trkpt>
      <trkpt lat="46.20314" lon="-1.39233">
        <ele>59.15167</ele>
        <time>2023-05-30T09:02:15.000Z</time>
      </trkpt>
      <trkpt lat="46.20311" lon="-1.39234">
        <ele>59.15258</ele>
        <time>2023-05-30T09:02:16.000Z</time>
      </trkpt>
      <trkpt lat="46.20308" lon="-1.39236">
        <ele>59.20253</ele>
        <time>2023-05-30T09:02:17.000Z</time>
      </trkpt>
      <trkpt lat="46.20306" lon="-1.39238">
        <ele>59.23333</ele>
        <time>2023-05-30T09:02:18.000Z</time>
      </trkpt>
      <trkpt lat="46.20304" lon="-1.39242">
        <ele>59.26493</ele>
        <time>2023-05-30T09:02:19.000Z</time>
      </trkpt>
      <trkpt lat="46.20304" lon="-1.39246">
        <ele>59.23229</ele>
        <time>2023-05-30T09:02:20.000Z</time>
      </trkpt>
      <trkpt lat="46.20304" lon="-1.39251">
        <ele>59.20583</ele>
        <time>2023-05-30T09:02:21.000Z</time>
      </trkpt>
      <trkpt lat="46.20303" lon="-1.39256">
        <ele>59.19139</ele>
        <time>2023-05-30T09:02:22.000Z</time>
      </trkpt>
      <trkpt lat="46.20303" lon="-1.39261">
        <ele>59.131</ele>
        <time>2023-05-30T09:02:23.000Z</time>
      </trkpt>
      <trkpt lat="46.20302" lon="-1.39266">
        <ele>59.05441</ele>
        <time>2023-05-30T09:02:24.000Z</time>
      </trkpt>
      <trkpt lat="46.20302" lon="-1.39271">
        <ele>58.97483</ele>
        <time>2023-05-30T09:02:25.000Z</time>
      </trkpt>
      <trkpt lat="46.20302" lon="-1.39276">
        <ele>58.88636</ele>
        <time>2023-05-30T09:02:26.000Z</time>
      </trkpt>
      <trkpt lat="46.20302" lon="-1.39282">
        <ele>58.81218</ele>
        <time>2023-05-30T09:02:27.000Z</time>
      </trkpt>
      <trkpt lat="46.20302" lon="-1.39287">
        <ele>58.72256</ele>
        <time>2023-05-30T09:02:28.000Z</time>
      </trkpt>
      <trkpt lat="46.20301" lon="-1.39292">
        <ele>58.57074</ele>
        <time>2023-05-30T09:02:29.000Z</time>
      </trkpt>
      <trkpt lat="46.203" lon="-1.39297">
        <ele>58.40411</ele>
        <time>2023-05-30T09:02:30.000Z</time>
      </trkpt>
      <trkpt lat="46.203" lon="-1.39303">
        <ele>58.28748</ele>
        <time>2023-05-30T09:02:31.000Z</time>
      </trkpt>
      <trkpt lat="46.20299" lon="-1.39308">
        <ele>58.18917</ele>
        <time>2023-05-30T09:02:32.000Z</time>
      </trkpt>
      <trkpt lat="46.20299" lon="-1.39313">
        <ele>58.17596</ele>
        <time>2023-05-30T09:02:33.000Z</time>
      </trkpt>
      <trkpt lat="46.20298" lon="-1.39318">
        <ele>58.0668</ele>
        <time>2023-05-30T09:02:34.000Z</time>
      </trkpt>
      <trkpt lat="46.20298" lon="-1.39324">
        <ele>57.9704</ele>
        <time>2023-05-30T09:02:35.000Z</time>
      </trkpt>
      <trkpt lat="46.20297" lon="-1.39329">
        <ele>57.90106</ele>
        <time>2023-05-30T09:02:36.000Z</time>
      </trkpt>
      <trkpt lat="46.20297" lon="-1.39334">
        <ele>57.84159</ele>
        <time>2023-05-30T09:02:37.000Z</time>
      </trkpt>
      <trkpt lat="46.20296" lon="-1.39339">
        <ele>57.80955</ele>
        <time>2023-05-30T09:02:38.000Z</time>
      </trkpt>
      <trkpt lat="46.20296" lon="-1.39344">
        <ele>57.78373</ele>
        <time>2023-05-30T09:02:39.000Z</time>
      </trkpt>
      <trkpt lat="46.20296" lon="-1.39348">
        <ele>57.77412</ele>
        <time>2023-05-30T09:02:40.000Z</time>
      </trkpt>
      <trkpt lat="46.20295" lon="-1.39352">
        <ele>57.75046</ele>
        <time>2023-05-30T09:02:41.000Z</time>
      </trkpt>
      <trkpt lat="46.20295" lon="-1.39356">
        <ele>57.68538</ele>
        <time>2023-05-30T09:02:42.000Z</time>
      </trkpt>
      <trkpt lat="46.20294" lon="-1.39359">
        <ele>57.62917</ele>
        <time>2023-05-30T09:02:43.000Z</time>
      </trkpt>
      <trkpt lat="46.20294" lon="-1.39363">
        <ele>57.55361</ele>
        <time>2023-05-30T09:02:44.000Z</time>
      </trkpt>
      <trkpt lat="46.20294" lon="-1.39366">
        <ele>57.55386</ele>
        <time>2023-05-30T09:02:46.000Z</time>
      </trkpt>
      <trkpt lat="46.20293" lon="-1.39367">
        <ele>57.64339</ele>
        <time>2023-05-30T09:02:57.000Z</time>
      </trkpt>
      <trkpt lat="46.20291" lon="-1.3937">
        <ele>57.68414</ele>
        <time>2023-05-30T09:02:59.000Z</time>
      </trkpt>
      <trkpt lat="46.2029" lon="-1.39373">
        <ele>57.74694</ele>
        <time>2023-05-30T09:03:00.000Z</time>
      </trkpt>
      <trkpt lat="46.20289" lon="-1.39376">
        <ele>57.85809</ele>
        <time>2023-05-30T09:03:01.000Z</time>
      </trkpt>
      <trkpt lat="46.20289" lon="-1.39381">
        <ele>57.96611</ele>
        <time>2023-05-30T09:03:02.000Z</time>
      </trkpt>
      <trkpt lat="46.20289" lon="-1.39385">
        <ele>58.13183</ele>
        <time>2023-05-30T09:03:03.000Z</time>
      </trkpt>
      <trkpt lat="46.20289" lon="-1.39389">
        <ele>58.27173</ele>
        <time>2023-05-30T09:03:04.000Z</time>
      </trkpt>
      <trkpt lat="46.20288" lon="-1.39393">
        <ele>58.35685</ele>
        <time>2023-05-30T09:03:05.000Z</time>
      </trkpt>
      <trkpt lat="46.20288" lon="-1.39398">
        <ele>58.45481</ele>
        <time>2023-05-30T09:03:06.000Z</time>
      </trkpt>
      <trkpt lat="46.20288" lon="-1.39403">
        <ele>58.56276</ele>
        <time>2023-05-30T09:03:07.000Z</time>
      </trkpt>
      <trkpt lat="46.20288" lon="-1.39408">
        <ele>58.67789</ele>
        <time>2023-05-30T09:03:08.000Z</time>
      </trkpt>
      <trkpt lat="46.20288" lon="-1.39413">
        <ele>58.80272</ele>
        <time>2023-05-30T09:03:09.000Z</time>
      </trkpt>
      <trkpt lat="46.20287" lon="-1.39417">
        <ele>58.93363</ele>
        <time>2023-05-30T09:03:10.000Z</time>
      </trkpt>
      <trkpt lat="46.20287" lon="-1.39421">
        <ele>59.06395</ele>
        <time>2023-05-30T09:03:11.000Z</time>
      </trkpt>
      <trkpt lat="46.20287" lon="-1.39425">
        <ele>59.18243</ele>
        <time>2023-05-30T09:03:12.000Z</time>
      </trkpt>
      <trkpt lat="46.20287" lon="-1.39429">
        <ele>59.31306</ele>
        <time>2023-05-30T09:03:13.000Z</time>
      </trkpt>
      <trkpt lat="46.20287" lon="-1.39432">
        <ele>59.50591</ele>
        <time>2023-05-30T09:03:14.000Z</time>
      </trkpt>
      <trkpt lat="46.20286" lon="-1.39435">
        <ele>59.70107</ele>
        <time>2023-05-30T09:03:15.000Z</time>
      </trkpt>
      <trkpt lat="46.20287" lon="-1.39438">
        <ele>59.78035</ele>
        <time>2023-05-30T09:03:16.000Z</time>
      </trkpt>
      <trkpt lat="46.20288" lon="-1.39441">
        <ele>59.82238</ele>
        <time>2023-05-30T09:03:17.000Z</time>
      </trkpt>
      <trkpt lat="46.20291" lon="-1.39442">
        <ele>59.76516</ele>
        <time>2023-05-30T09:03:18.000Z</time>
      </trkpt>
      <trkpt lat="46.20294" lon="-1.39442">
        <ele>59.71459</ele>
        <time>2023-05-30T09:03:19.000Z</time>
      </trkpt>
      <trkpt lat="46.20297" lon="-1.39441">
        <ele>59.66088</ele>
        <time>2023-05-30T09:03:20.000Z</time>
      </trkpt>
      <trkpt lat="46.20301" lon="-1.39441">
        <ele>59.5993</ele>
        <time>2023-05-30T09:03:21.000Z</time>
      </trkpt>
      <trkpt lat="46.20304" lon="-1.3944">
        <ele>59.56149</ele>
        <time>2023-05-30T09:03:22.000Z</time>
      </trkpt>
      <trkpt lat="46.20307" lon="-1.3944">
        <ele>59.46474</ele>
        <time>2023-05-30T09:03:23.000Z</time>
      </trkpt>
      <trkpt lat="46.20311" lon="-1.39439">
        <ele>59.46554</ele>
        <time>2023-05-30T09:03:24.000Z</time>
      </trkpt>
      <trkpt lat="46.20314" lon="-1.39438">
        <ele>59.44889</ele>
        <time>2023-05-30T09:03:25.000Z</time>
      </trkpt>
      <trkpt lat="46.20317" lon="-1.39439">
        <ele>59.4564</ele>
        <time>2023-05-30T09:03:26.000Z</time>
      </trkpt>
      <trkpt lat="46.20319" lon="-1.39441">
        <ele>59.45278</ele>
        <time>2023-05-30T09:03:27.000Z</time>
      </trkpt>
      <trkpt lat="46.20321" lon="-1.39445">
        <ele>59.42986</ele>
        <time>2023-05-30T09:03:28.000Z</time>
      </trkpt>
      <trkpt lat="46.20321" lon="-1.39449">
        <ele>59.36751</ele>
        <time>2023-05-30T09:03:29.000Z</time>
      </trkpt>
      <trkpt lat="46.20322" lon="-1.39454">
        <ele>59.29617</ele>
        <time>2023-05-30T09:03:30.000Z</time>
      </trkpt>
      <trkpt lat="46.20321" lon="-1.39459">
        <ele>59.19231</ele>
        <time>2023-05-30T09:03:31.000Z</time>
      </trkpt>
      <trkpt lat="46.20321" lon="-1.39464">
        <ele>59.08002</ele>
        <time>2023-05-30T09:03:32.000Z</time>
      </trkpt>
      <trkpt lat="46.20321" lon="-1.39469">
        <ele>59.05338</ele>
        <time>2023-05-30T09:03:33.000Z</time>
      </trkpt>
      <trkpt lat="46.2032" lon="-1.39474">
        <ele>58.97355</ele>
        <time>2023-05-30T09:03:34.000Z</time>
      </trkpt>
      <trkpt lat="46.20321" lon="-1.39479">
        <ele>58.90696</ele>
        <time>2023-05-30T09:03:35.000Z</time>
      </trkpt>
      <trkpt lat="46.20321" lon="-1.39484">
        <ele>58.97186</ele>
        <time>2023-05-30T09:03:36.000Z</time>
      </trkpt>
      <trkpt lat="46.20321" lon="-1.39489">
        <ele>59.03163</ele>
        <time>2023-05-30T09:03:37.000Z</time>
      </trkpt>
      <trkpt lat="46.20322" lon="-1.39494">
        <ele>59.08116</ele>
        <time>2023-05-30T09:03:38.000Z</time>
      </trkpt>
      <trkpt lat="46.20323" lon="-1.39499">
        <ele>59.10501</ele>
        <time>2023-05-30T09:03:39.000Z</time>
      </trkpt>
      <trkpt lat="46.20323" lon="-1.39504">
        <ele>59.11092</ele>
        <time>2023-05-30T09:03:40.000Z</time>
      </trkpt>
      <trkpt lat="46.20324" lon="-1.39509">
        <ele>59.21484</ele>
        <time>2023-05-30T09:03:41.000Z</time>
      </trkpt>
      <trkpt lat="46.20324" lon="-1.39514">
        <ele>59.29729</ele>
        <time>2023-05-30T09:03:42.000Z</time>
      </trkpt>
      <trkpt lat="46.20325" lon="-1.39519">
        <ele>59.40427</ele>
        <time>2023-05-30T09:03:43.000Z</time>
      </trkpt>
      <trkpt lat="46.20325" lon="-1.39524">
        <ele>59.40055</ele>
        <time>2023-05-30T09:03:44.000Z</time>
      </trkpt>
      <trkpt lat="46.20326" lon="-1.3953">
        <ele>59.4086</ele>
        <time>2023-05-30T09:03:45.000Z</time>
      </trkpt>
      <trkpt lat="46.20326" lon="-1.39535">
        <ele>59.3988</ele>
        <time>2023-05-30T09:03:46.000Z</time>
      </trkpt>
      <trkpt lat="46.20327" lon="-1.39541">
        <ele>59.38251</ele>
        <time>2023-05-30T09:03:47.000Z</time>
      </trkpt>
      <trkpt lat="46.20327" lon="-1.39546">
        <ele>59.37342</ele>
        <time>2023-05-30T09:03:48.000Z</time>
      </trkpt>
      <trkpt lat="46.20328" lon="-1.39552">
        <ele>59.3906</ele>
        <time>2023-05-30T09:03:49.000Z</time>
      </trkpt>
      <trkpt lat="46.20329" lon="-1.39558">
        <ele>59.38172</ele>
        <time>2023-05-30T09:03:50.000Z</time>
      </trkpt>
      <trkpt lat="46.20329" lon="-1.39563">
        <ele>59.40044</ele>
        <time>2023-05-30T09:03:51.000Z</time>
      </trkpt>
      <trkpt lat="46.2033" lon="-1.39569">
        <ele>59.42881</ele>
        <time>2023-05-30T09:03:52.000Z</time>
      </trkpt>
      <trkpt lat="46.2033" lon="-1.39575">
        <ele>59.35038</ele>
        <time>2023-05-30T09:03:53.000Z</time>
      </trkpt>
      <trkpt lat="46.20331" lon="-1.3958">
        <ele>59.32502</ele>
        <time>2023-05-30T09:03:54.000Z</time>
      </trkpt>
      <trkpt lat="46.20331" lon="-1.39586">
        <ele>59.23722</ele>
        <time>2023-05-30T09:03:55.000Z</time>
      </trkpt>
      <trkpt lat="46.20331" lon="-1.39592">
        <ele>59.14754</ele>
        <time>2023-05-30T09:03:56.000Z</time>
      </trkpt>
      <trkpt lat="46.20332" lon="-1.39598">
        <ele>59.02674</ele>
        <time>2023-05-30T09:03:57.000Z</time>
      </trkpt>
      <trkpt lat="46.20333" lon="-1.39604">
        <ele>59.02708</ele>
        <time>2023-05-30T09:03:58.000Z</time>
      </trkpt>
      <trkpt lat="46.20334" lon="-1.3961">
        <ele>59.05986</ele>
        <time>2023-05-30T09:03:59.000Z</time>
      </trkpt>
      <trkpt lat="46.20334" lon="-1.39617">
        <ele>59.09022</ele>
        <time>2023-05-30T09:04:00.000Z</time>
      </trkpt>
      <trkpt lat="46.20335" lon="-1.39623">
        <ele>59.02532</ele>
        <time>2023-05-30T09:04:01.000Z</time>
      </trkpt>
      <trkpt lat="46.20335" lon="-1.39629">
        <ele>58.97185</ele>
        <time>2023-05-30T09:04:02.000Z</time>
      </trkpt>
      <trkpt lat="46.20336" lon="-1.39635">
        <ele>58.92653</ele>
        <time>2023-05-30T09:04:03.000Z</time>
      </trkpt>
      <trkpt lat="46.20336" lon="-1.39641">
        <ele>58.92146</ele>
        <time>2023-05-30T09:04:04.000Z</time>
      </trkpt>
      <trkpt lat="46.20337" lon="-1.39647">
        <ele>58.93287</ele>
        <time>2023-05-30T09:04:05.000Z</time>
      </trkpt>
      <trkpt lat="46.20337" lon="-1.39653">
        <ele>58.947</ele>
        <time>2023-05-30T09:04:06.000Z</time>
      </trkpt>
      <trkpt lat="46.20338" lon="-1.39659">
        <ele>58.96423</ele>
        <time>2023-05-30T09:04:07.000Z</time>
      </trkpt>
      <trkpt lat="46.20338" lon="-1.39666">
        <ele>58.98018</ele>
        <time>2023-05-30T09:04:08.000Z</time>
      </trkpt>
      <trkpt lat="46.20339" lon="-1.39673">
        <ele>58.99279</ele>
        <time>2023-05-30T09:04:09.000Z</time>
      </trkpt>
      <trkpt lat="46.20339" lon="-1.3968">
        <ele>59.00446</ele>
        <time>2023-05-30T09:04:10.000Z</time>
      </trkpt>
      <trkpt lat="46.2034" lon="-1.39686">
        <ele>58.99929</ele>
        <time>2023-05-30T09:04:11.000Z</time>
      </trkpt>
      <trkpt lat="46.2034" lon="-1.39693">
        <ele>58.9839</ele>
        <time>2023-05-30T09:04:12.000Z</time>
      </trkpt>
      <trkpt lat="46.2034" lon="-1.39698">
        <ele>58.99876</ele>
        <time>2023-05-30T09:04:13.000Z</time>
      </trkpt>
      <trkpt lat="46.2034" lon="-1.39705">
        <ele>58.95597</ele>
        <time>2023-05-30T09:04:14.000Z</time>
      </trkpt>
      <trkpt lat="46.20341" lon="-1.39711">
        <ele>58.951</ele>
        <time>2023-05-30T09:04:15.000Z</time>
      </trkpt>
      <trkpt lat="46.20341" lon="-1.39717">
        <ele>58.94395</ele>
        <time>2023-05-30T09:04:16.000Z</time>
      </trkpt>
      <trkpt lat="46.20342" lon="-1.39724">
        <ele>58.9328</ele>
        <time>2023-05-30T09:04:17.000Z</time>
      </trkpt>
      <trkpt lat="46.20342" lon="-1.3973">
        <ele>58.9164</ele>
        <time>2023-05-30T09:04:18.000Z</time>
      </trkpt>
      <trkpt lat="46.20342" lon="-1.39737">
        <ele>58.91023</ele>
        <time>2023-05-30T09:04:19.000Z</time>
      </trkpt>
      <trkpt lat="46.20342" lon="-1.39744">
        <ele>58.89961</ele>
        <time>2023-05-30T09:04:20.000Z</time>
      </trkpt>
      <trkpt lat="46.20342" lon="-1.39751">
        <ele>58.877</ele>
        <time>2023-05-30T09:04:21.000Z</time>
      </trkpt>
      <trkpt lat="46.20341" lon="-1.39757">
        <ele>58.84468</ele>
        <time>2023-05-30T09:04:22.000Z</time>
      </trkpt>
      <trkpt lat="46.2034" lon="-1.39763">
        <ele>58.80633</ele>
        <time>2023-05-30T09:04:23.000Z</time>
      </trkpt>
      <trkpt lat="46.20339" lon="-1.39769">
        <ele>58.75017</ele>
        <time>2023-05-30T09:04:24.000Z</time>
      </trkpt>
      <trkpt lat="46.20338" lon="-1.39775">
        <ele>58.68123</ele>
        <time>2023-05-30T09:04:25.000Z</time>
      </trkpt>
      <trkpt lat="46.20338" lon="-1.39781">
        <ele>58.5763</ele>
        <time>2023-05-30T09:04:26.000Z</time>
      </trkpt>
      <trkpt lat="46.20337" lon="-1.39786">
        <ele>58.46841</ele>
        <time>2023-05-30T09:04:27.000Z</time>
      </trkpt>
      <trkpt lat="46.20336" lon="-1.39792">
        <ele>58.36299</ele>
        <time>2023-05-30T09:04:28.000Z</time>
      </trkpt>
      <trkpt lat="46.20335" lon="-1.39797">
        <ele>58.26566</ele>
        <time>2023-05-30T09:04:29.000Z</time>
      </trkpt>
      <trkpt lat="46.20334" lon="-1.39802">
        <ele>58.189</ele>
        <time>2023-05-30T09:04:30.000Z</time>
      </trkpt>
      <trkpt lat="46.20333" lon="-1.39809">
        <ele>58.0837</ele>
        <time>2023-05-30T09:04:31.000Z</time>
      </trkpt>
      <trkpt lat="46.20333" lon="-1.39814">
        <ele>57.97743</ele>
        <time>2023-05-30T09:04:32.000Z</time>
      </trkpt>
      <trkpt lat="46.20332" lon="-1.3982">
        <ele>57.93719</ele>
        <time>2023-05-30T09:04:33.000Z</time>
      </trkpt>
      <trkpt lat="46.20331" lon="-1.39826">
        <ele>57.93533</ele>
        <time>2023-05-30T09:04:34.000Z</time>
      </trkpt>
      <trkpt lat="46.2033" lon="-1.39832">
        <ele>57.92387</ele>
        <time>2023-05-30T09:04:35.000Z</time>
      </trkpt>
      <trkpt lat="46.20329" lon="-1.39838">
        <ele>57.92153</ele>
        <time>2023-05-30T09:04:36.000Z</time>
      </trkpt>
      <trkpt lat="46.20328" lon="-1.39844">
        <ele>57.95154</ele>
        <time>2023-05-30T09:04:37.000Z</time>
      </trkpt>
      <trkpt lat="46.20327" lon="-1.3985">
        <ele>57.88353</ele>
        <time>2023-05-30T09:04:38.000Z</time>
      </trkpt>
      <trkpt lat="46.20326" lon="-1.39856">
        <ele>57.81456</ele>
        <time>2023-05-30T09:04:39.000Z</time>
      </trkpt>
      <trkpt lat="46.20325" lon="-1.39862">
        <ele>57.78573</ele>
        <time>2023-05-30T09:04:40.000Z</time>
      </trkpt>
      <trkpt lat="46.20324" lon="-1.39868">
        <ele>57.76838</ele>
        <time>2023-05-30T09:04:41.000Z</time>
      </trkpt>
      <trkpt lat="46.20324" lon="-1.39874">
        <ele>57.76074</ele>
        <time>2023-05-30T09:04:42.000Z</time>
      </trkpt>
      <trkpt lat="46.20323" lon="-1.3988">
        <ele>57.74186</ele>
        <time>2023-05-30T09:04:43.000Z</time>
      </trkpt>
      <trkpt lat="46.20323" lon="-1.39887">
        <ele>57.71577</ele>
        <time>2023-05-30T09:04:44.000Z</time>
      </trkpt>
      <trkpt lat="46.20323" lon="-1.39893">
        <ele>57.65809</ele>
        <time>2023-05-30T09:04:45.000Z</time>
      </trkpt>
      <trkpt lat="46.20322" lon="-1.39899">
        <ele>57.61687</ele>
        <time>2023-05-30T09:04:46.000Z</time>
      </trkpt>
      <trkpt lat="46.20321" lon="-1.39906">
        <ele>57.57085</ele>
        <time>2023-05-30T09:04:47.000Z</time>
      </trkpt>
      <trkpt lat="46.20321" lon="-1.39912">
        <ele>57.51055</ele>
        <time>2023-05-30T09:04:48.000Z</time>
      </trkpt>
      <trkpt lat="46.2032" lon="-1.39919">
        <ele>57.45922</ele>
        <time>2023-05-30T09:04:49.000Z</time>
      </trkpt>
      <trkpt lat="46.20321" lon="-1.39924">
        <ele>57.4112</ele>
        <time>2023-05-30T09:04:50.000Z</time>
      </trkpt>
      <trkpt lat="46.2032" lon="-1.39931">
        <ele>57.48457</ele>
        <time>2023-05-30T09:04:51.000Z</time>
      </trkpt>
      <trkpt lat="46.20321" lon="-1.39937">
        <ele>57.53264</ele>
        <time>2023-05-30T09:04:52.000Z</time>
      </trkpt>
      <trkpt lat="46.2032" lon="-1.39944">
        <ele>57.50596</ele>
        <time>2023-05-30T09:04:53.000Z</time>
      </trkpt>
      <trkpt lat="46.2032" lon="-1.3995">
        <ele>57.51588</ele>
        <time>2023-05-30T09:04:54.000Z</time>
      </trkpt>
      <trkpt lat="46.2032" lon="-1.39957">
        <ele>57.54027</ele>
        <time>2023-05-30T09:04:55.000Z</time>
      </trkpt>
      <trkpt lat="46.20321" lon="-1.39964">
        <ele>57.55947</ele>
        <time>2023-05-30T09:04:56.000Z</time>
      </trkpt>
      <trkpt lat="46.20321" lon="-1.3997">
        <ele>57.53633</ele>
        <time>2023-05-30T09:04:57.000Z</time>
      </trkpt>
      <trkpt lat="46.20321" lon="-1.39976">
        <ele>57.5057</ele>
        <time>2023-05-30T09:04:58.000Z</time>
      </trkpt>
      <trkpt lat="46.20321" lon="-1.39983">
        <ele>57.52237</ele>
        <time>2023-05-30T09:04:59.000Z</time>
      </trkpt>
      <trkpt lat="46.2032" lon="-1.39988">
        <ele>57.49225</ele>
        <time>2023-05-30T09:05:00.000Z</time>
      </trkpt>
      <trkpt lat="46.2032" lon="-1.39994">
        <ele>57.46092</ele>
        <time>2023-05-30T09:05:01.000Z</time>
      </trkpt>
      <trkpt lat="46.2032" lon="-1.4">
        <ele>57.42173</ele>
        <time>2023-05-30T09:05:02.000Z</time>
      </trkpt>
      <trkpt lat="46.2032" lon="-1.40006">
        <ele>57.36873</ele>
        <time>2023-05-30T09:05:03.000Z</time>
      </trkpt>
      <trkpt lat="46.20319" lon="-1.40012">
        <ele>57.31658</ele>
        <time>2023-05-30T09:05:04.000Z</time>
      </trkpt>
      <trkpt lat="46.20319" lon="-1.40017">
        <ele>57.29852</ele>
        <time>2023-05-30T09:05:05.000Z</time>
      </trkpt>
      <trkpt lat="46.20318" lon="-1.40023">
        <ele>57.28054</ele>
        <time>2023-05-30T09:05:06.000Z</time>
      </trkpt>
      <trkpt lat="46.20317" lon="-1.40028">
        <ele>57.2572</ele>
        <time>2023-05-30T09:05:07.000Z</time>
      </trkpt>
      <trkpt lat="46.20317" lon="-1.40034">
        <ele>57.23119</ele>
        <time>2023-05-30T09:05:08.000Z</time>
      </trkpt>
      <trkpt lat="46.20316" lon="-1.40039">
        <ele>57.19794</ele>
        <time>2023-05-30T09:05:09.000Z</time>
      </trkpt>
      <trkpt lat="46.20316" lon="-1.40044">
        <ele>57.14664</ele>
        <time>2023-05-30T09:05:10.000Z</time>
      </trkpt>
      <trkpt lat="46.20315" lon="-1.4005">
        <ele>57.03031</ele>
        <time>2023-05-30T09:05:11.000Z</time>
      </trkpt>
      <trkpt lat="46.20314" lon="-1.40056">
        <ele>56.95083</ele>
        <time>2023-05-30T09:05:12.000Z</time>
      </trkpt>
      <trkpt lat="46.20313" lon="-1.40062">
        <ele>56.87975</ele>
        <time>2023-05-30T09:05:13.000Z</time>
      </trkpt>
      <trkpt lat="46.20311" lon="-1.40067">
        <ele>56.7713</ele>
        <time>2023-05-30T09:05:14.000Z</time>
      </trkpt>
      <trkpt lat="46.2031" lon="-1.40072">
        <ele>56.6698</ele>
        <time>2023-05-30T09:05:15.000Z</time>
      </trkpt>
      <trkpt lat="46.20309" lon="-1.40078">
        <ele>56.58873</ele>
        <time>2023-05-30T09:05:16.000Z</time>
      </trkpt>
      <trkpt lat="46.20308" lon="-1.40083">
        <ele>56.48254</ele>
        <time>2023-05-30T09:05:17.000Z</time>
      </trkpt>
      <trkpt lat="46.20308" lon="-1.40089">
        <ele>56.39318</ele>
        <time>2023-05-30T09:05:18.000Z</time>
      </trkpt>
      <trkpt lat="46.20307" lon="-1.40096">
        <ele>56.28003</ele>
        <time>2023-05-30T09:05:19.000Z</time>
      </trkpt>
      <trkpt lat="46.20305" lon="-1.40103">
        <ele>56.18251</ele>
        <time>2023-05-30T09:05:20.000Z</time>
      </trkpt>
      <trkpt lat="46.20305" lon="-1.40109">
        <ele>56.07265</ele>
        <time>2023-05-30T09:05:21.000Z</time>
      </trkpt>
      <trkpt lat="46.20304" lon="-1.40114">
        <ele>55.99929</ele>
        <time>2023-05-30T09:05:22.000Z</time>
      </trkpt>
      <trkpt lat="46.20303" lon="-1.4012">
        <ele>55.94722</ele>
        <time>2023-05-30T09:05:23.000Z</time>
      </trkpt>
      <trkpt lat="46.20302" lon="-1.40125">
        <ele>55.90401</ele>
        <time>2023-05-30T09:05:24.000Z</time>
      </trkpt>
      <trkpt lat="46.20302" lon="-1.40131">
        <ele>55.83986</ele>
        <time>2023-05-30T09:05:25.000Z</time>
      </trkpt>
      <trkpt lat="46.20301" lon="-1.40138">
        <ele>55.76428</ele>
        <time>2023-05-30T09:05:26.000Z</time>
      </trkpt>
      <trkpt lat="46.203" lon="-1.40145">
        <ele>55.7023</ele>
        <time>2023-05-30T09:05:27.000Z</time>
      </trkpt>
      <trkpt lat="46.203" lon="-1.40152">
        <ele>55.64904</ele>
        <time>2023-05-30T09:05:28.000Z</time>
      </trkpt>
      <trkpt lat="46.203" lon="-1.40159">
        <ele>55.60912</ele>
        <time>2023-05-30T09:05:29.000Z</time>
      </trkpt>
      <trkpt lat="46.203" lon="-1.40166">
        <ele>55.56168</ele>
        <time>2023-05-30T09:05:30.000Z</time>
      </trkpt>
      <trkpt lat="46.20299" lon="-1.40173">
        <ele>55.50109</ele>
        <time>2023-05-30T09:05:31.000Z</time>
      </trkpt>
      <trkpt lat="46.20299" lon="-1.4018">
        <ele>55.42667</ele>
        <time>2023-05-30T09:05:32.000Z</time>
      </trkpt>
      <trkpt lat="46.20299" lon="-1.40186">
        <ele>55.35416</ele>
        <time>2023-05-30T09:05:33.000Z</time>
      </trkpt>
      <trkpt lat="46.20299" lon="-1.40193">
        <ele>55.26345</ele>
        <time>2023-05-30T09:05:34.000Z</time>
      </trkpt>
      <trkpt lat="46.20298" lon="-1.402">
        <ele>55.16333</ele>
        <time>2023-05-30T09:05:35.000Z</time>
      </trkpt>
      <trkpt lat="46.20298" lon="-1.40207">
        <ele>55.07506</ele>
        <time>2023-05-30T09:05:36.000Z</time>
      </trkpt>
      <trkpt lat="46.20298" lon="-1.40214">
        <ele>55.03522</ele>
        <time>2023-05-30T09:05:37.000Z</time>
      </trkpt>
      <trkpt lat="46.20298" lon="-1.4022">
        <ele>54.98995</ele>
        <time>2023-05-30T09:05:38.000Z</time>
      </trkpt>
      <trkpt lat="46.20298" lon="-1.40227">
        <ele>54.94178</ele>
        <time>2023-05-30T09:05:39.000Z</time>
      </trkpt>
      <trkpt lat="46.20298" lon="-1.40233">
        <ele>54.94181</ele>
        <time>2023-05-30T09:05:40.000Z</time>
      </trkpt>
      <trkpt lat="46.20299" lon="-1.4024">
        <ele>54.96646</ele>
        <time>2023-05-30T09:05:41.000Z</time>
      </trkpt>
      <trkpt lat="46.20299" lon="-1.40247">
        <ele>54.97929</ele>
        <time>2023-05-30T09:05:42.000Z</time>
      </trkpt>
      <trkpt lat="46.20299" lon="-1.40253">
        <ele>54.98351</ele>
        <time>2023-05-30T09:05:43.000Z</time>
      </trkpt>
      <trkpt lat="46.20299" lon="-1.4026">
        <ele>54.97269</ele>
        <time>2023-05-30T09:05:44.000Z</time>
      </trkpt>
      <trkpt lat="46.20299" lon="-1.40266">
        <ele>54.9786</ele>
        <time>2023-05-30T09:05:45.000Z</time>
      </trkpt>
      <trkpt lat="46.203" lon="-1.40272">
        <ele>55.01069</ele>
        <time>2023-05-30T09:05:46.000Z</time>
      </trkpt>
      <trkpt lat="46.20301" lon="-1.40278">
        <ele>55.05001</ele>
        <time>2023-05-30T09:05:47.000Z</time>
      </trkpt>
      <trkpt lat="46.20302" lon="-1.40284">
        <ele>55.08663</ele>
        <time>2023-05-30T09:05:48.000Z</time>
      </trkpt>
      <trkpt lat="46.20302" lon="-1.4029">
        <ele>55.12238</ele>
        <time>2023-05-30T09:05:49.000Z</time>
      </trkpt>
      <trkpt lat="46.20302" lon="-1.40297">
        <ele>55.17104</ele>
        <time>2023-05-30T09:05:50.000Z</time>
      </trkpt>
      <trkpt lat="46.20302" lon="-1.40302">
        <ele>55.22916</ele>
        <time>2023-05-30T09:05:51.000Z</time>
      </trkpt>
      <trkpt lat="46.20302" lon="-1.40308">
        <ele>55.29218</ele>
        <time>2023-05-30T09:05:52.000Z</time>
      </trkpt>
      <trkpt lat="46.20302" lon="-1.40313">
        <ele>55.35294</ele>
        <time>2023-05-30T09:05:53.000Z</time>
      </trkpt>
      <trkpt lat="46.20302" lon="-1.40319">
        <ele>55.43004</ele>
        <time>2023-05-30T09:05:54.000Z</time>
      </trkpt>
      <trkpt lat="46.20302" lon="-1.40324">
        <ele>55.49901</ele>
        <time>2023-05-30T09:05:55.000Z</time>
      </trkpt>
      <trkpt lat="46.20302" lon="-1.40329">
        <ele>55.5474</ele>
        <time>2023-05-30T09:05:56.000Z</time>
      </trkpt>
      <trkpt lat="46.20302" lon="-1.40334">
        <ele>55.59072</ele>
        <time>2023-05-30T09:05:57.000Z</time>
      </trkpt>
      <trkpt lat="46.20302" lon="-1.4034">
        <ele>55.68142</ele>
        <time>2023-05-30T09:05:58.000Z</time>
      </trkpt>
      <trkpt lat="46.20302" lon="-1.40345">
        <ele>55.76147</ele>
        <time>2023-05-30T09:05:59.000Z</time>
      </trkpt>
      <trkpt lat="46.20302" lon="-1.40351">
        <ele>55.79023</ele>
        <time>2023-05-30T09:06:00.000Z</time>
      </trkpt>
      <trkpt lat="46.20302" lon="-1.40356">
        <ele>55.81304</ele>
        <time>2023-05-30T09:06:01.000Z</time>
      </trkpt>
      <trkpt lat="46.20301" lon="-1.40362">
        <ele>55.82485</ele>
        <time>2023-05-30T09:06:02.000Z</time>
      </trkpt>
      <trkpt lat="46.20301" lon="-1.40369">
        <ele>55.83909</ele>
        <time>2023-05-30T09:06:03.000Z</time>
      </trkpt>
      <trkpt lat="46.203" lon="-1.40374">
        <ele>55.8487</ele>
        <time>2023-05-30T09:06:04.000Z</time>
      </trkpt>
      <trkpt lat="46.20299" lon="-1.40381">
        <ele>55.86006</ele>
        <time>2023-05-30T09:06:05.000Z</time>
      </trkpt>
      <trkpt lat="46.20299" lon="-1.40387">
        <ele>55.86862</ele>
        <time>2023-05-30T09:06:06.000Z</time>
      </trkpt>
      <trkpt lat="46.20298" lon="-1.40393">
        <ele>55.8663</ele>
        <time>2023-05-30T09:06:07.000Z</time>
      </trkpt>
      <trkpt lat="46.20298" lon="-1.40399">
        <ele>55.86648</ele>
        <time>2023-05-30T09:06:08.000Z</time>
      </trkpt>
      <trkpt lat="46.20297" lon="-1.40405">
        <ele>55.86555</ele>
        <time>2023-05-30T09:06:09.000Z</time>
      </trkpt>
      <trkpt lat="46.20297" lon="-1.4041">
        <ele>55.89152</ele>
        <time>2023-05-30T09:06:10.000Z</time>
      </trkpt>
      <trkpt lat="46.20296" lon="-1.40416">
        <ele>55.88203</ele>
        <time>2023-05-30T09:06:11.000Z</time>
      </trkpt>
      <trkpt lat="46.20296" lon="-1.40422">
        <ele>55.86785</ele>
        <time>2023-05-30T09:06:12.000Z</time>
      </trkpt>
      <trkpt lat="46.20295" lon="-1.40429">
        <ele>55.87982</ele>
        <time>2023-05-30T09:06:13.000Z</time>
      </trkpt>
      <trkpt lat="46.20295" lon="-1.40435">
        <ele>55.90337</ele>
        <time>2023-05-30T09:06:14.000Z</time>
      </trkpt>
      <trkpt lat="46.20294" lon="-1.40441">
        <ele>55.97257</ele>
        <time>2023-05-30T09:06:15.000Z</time>
      </trkpt>
      <trkpt lat="46.20294" lon="-1.40447">
        <ele>56.0265</ele>
        <time>2023-05-30T09:06:16.000Z</time>
      </trkpt>
      <trkpt lat="46.20293" lon="-1.40454">
        <ele>56.09044</ele>
        <time>2023-05-30T09:06:17.000Z</time>
      </trkpt>
      <trkpt lat="46.20293" lon="-1.4046">
        <ele>56.09137</ele>
        <time>2023-05-30T09:06:18.000Z</time>
      </trkpt>
      <trkpt lat="46.20294" lon="-1.40466">
        <ele>56.09013</ele>
        <time>2023-05-30T09:06:19.000Z</time>
      </trkpt>
      <trkpt lat="46.20294" lon="-1.40473">
        <ele>56.0904</ele>
        <time>2023-05-30T09:06:20.000Z</time>
      </trkpt>
      <trkpt lat="46.20294" lon="-1.40479">
        <ele>56.18105</ele>
        <time>2023-05-30T09:06:21.000Z</time>
      </trkpt>
      <trkpt lat="46.20294" lon="-1.40485">
        <ele>56.25648</ele>
        <time>2023-05-30T09:06:22.000Z</time>
      </trkpt>
      <trkpt lat="46.20294" lon="-1.40491">
        <ele>56.3424</ele>
        <time>2023-05-30T09:06:23.000Z</time>
      </trkpt>
      <trkpt lat="46.20294" lon="-1.40497">
        <ele>56.43394</ele>
        <time>2023-05-30T09:06:24.000Z</time>
      </trkpt>
      <trkpt lat="46.20295" lon="-1.40503">
        <ele>56.51952</ele>
        <time>2023-05-30T09:06:25.000Z</time>
      </trkpt>
      <trkpt lat="46.20295" lon="-1.4051">
        <ele>56.62426</ele>
        <time>2023-05-30T09:06:26.000Z</time>
      </trkpt>
      <trkpt lat="46.20296" lon="-1.40516">
        <ele>56.74332</ele>
        <time>2023-05-30T09:06:27.000Z</time>
      </trkpt>
      <trkpt lat="46.20296" lon="-1.40522">
        <ele>56.85156</ele>
        <time>2023-05-30T09:06:28.000Z</time>
      </trkpt>
      <trkpt lat="46.20297" lon="-1.40528">
        <ele>56.95205</ele>
        <time>2023-05-30T09:06:29.000Z</time>
      </trkpt>
      <trkpt lat="46.20298" lon="-1.40534">
        <ele>57.03214</ele>
        <time>2023-05-30T09:06:30.000Z</time>
      </trkpt>
      <trkpt lat="46.20299" lon="-1.4054">
        <ele>57.1486</ele>
        <time>2023-05-30T09:06:31.000Z</time>
      </trkpt>
      <trkpt lat="46.20299" lon="-1.40547">
        <ele>57.2887</ele>
        <time>2023-05-30T09:06:32.000Z</time>
      </trkpt>
      <trkpt lat="46.203" lon="-1.40553">
        <ele>57.38549</ele>
        <time>2023-05-30T09:06:33.000Z</time>
      </trkpt>
      <trkpt lat="46.203" lon="-1.40559">
        <ele>57.47298</ele>
        <time>2023-05-30T09:06:34.000Z</time>
      </trkpt>
      <trkpt lat="46.20301" lon="-1.40566">
        <ele>57.53916</ele>
        <time>2023-05-30T09:06:35.000Z</time>
      </trkpt>
      <trkpt lat="46.20302" lon="-1.40573">
        <ele>57.62911</ele>
        <time>2023-05-30T09:06:36.000Z</time>
      </trkpt>
      <trkpt lat="46.20303" lon="-1.4058">
        <ele>57.72351</ele>
        <time>2023-05-30T09:06:37.000Z</time>
      </trkpt>
      <trkpt lat="46.20305" lon="-1.40587">
        <ele>57.82819</ele>
        <time>2023-05-30T09:06:38.000Z</time>
      </trkpt>
      <trkpt lat="46.20307" lon="-1.40594">
        <ele>57.9113</ele>
        <time>2023-05-30T09:06:39.000Z</time>
      </trkpt>
      <trkpt lat="46.20309" lon="-1.406">
        <ele>58.01617</ele>
        <time>2023-05-30T09:06:40.000Z</time>
      </trkpt>
      <trkpt lat="46.2031" lon="-1.40607">
        <ele>57.96017</ele>
        <time>2023-05-30T09:06:41.000Z</time>
      </trkpt>
      <trkpt lat="46.20312" lon="-1.40615">
        <ele>57.898</ele>
        <time>2023-05-30T09:06:42.000Z</time>
      </trkpt>
      <trkpt lat="46.20313" lon="-1.40622">
        <ele>57.81734</ele>
        <time>2023-05-30T09:06:43.000Z</time>
      </trkpt>
      <trkpt lat="46.20315" lon="-1.40629">
        <ele>57.75038</ele>
        <time>2023-05-30T09:06:44.000Z</time>
      </trkpt>
      <trkpt lat="46.20316" lon="-1.40637">
        <ele>57.67715</ele>
        <time>2023-05-30T09:06:45.000Z</time>
      </trkpt>
      <trkpt lat="46.20317" lon="-1.40645">
        <ele>57.58736</ele>
        <time>2023-05-30T09:06:46.000Z</time>
      </trkpt>
      <trkpt lat="46.20319" lon="-1.40652">
        <ele>57.47435</ele>
        <time>2023-05-30T09:06:47.000Z</time>
      </trkpt>
      <trkpt lat="46.20319" lon="-1.4066">
        <ele>57.41669</ele>
        <time>2023-05-30T09:06:48.000Z</time>
      </trkpt>
      <trkpt lat="46.2032" lon="-1.40667">
        <ele>57.34199</ele>
        <time>2023-05-30T09:06:49.000Z</time>
      </trkpt>
      <trkpt lat="46.20321" lon="-1.40674">
        <ele>57.27665</ele>
        <time>2023-05-30T09:06:50.000Z</time>
      </trkpt>
      <trkpt lat="46.20321" lon="-1.40682">
        <ele>57.19935</ele>
        <time>2023-05-30T09:06:51.000Z</time>
      </trkpt>
      <trkpt lat="46.2032" lon="-1.40689">
        <ele>57.08793</ele>
        <time>2023-05-30T09:06:52.000Z</time>
      </trkpt>
      <trkpt lat="46.2032" lon="-1.40696">
        <ele>56.98474</ele>
        <time>2023-05-30T09:06:53.000Z</time>
      </trkpt>
      <trkpt lat="46.2032" lon="-1.40703">
        <ele>56.8647</ele>
        <time>2023-05-30T09:06:54.000Z</time>
      </trkpt>
      <trkpt lat="46.20319" lon="-1.4071">
        <ele>56.73732</ele>
        <time>2023-05-30T09:06:55.000Z</time>
      </trkpt>
      <trkpt lat="46.20319" lon="-1.40717">
        <ele>56.58616</ele>
        <time>2023-05-30T09:06:56.000Z</time>
      </trkpt>
      <trkpt lat="46.20318" lon="-1.40724">
        <ele>56.4203</ele>
        <time>2023-05-30T09:06:57.000Z</time>
      </trkpt>
      <trkpt lat="46.20318" lon="-1.40731">
        <ele>56.25132</ele>
        <time>2023-05-30T09:06:58.000Z</time>
      </trkpt>
      <trkpt lat="46.20319" lon="-1.40737">
        <ele>56.10261</ele>
        <time>2023-05-30T09:06:59.000Z</time>
      </trkpt>
      <trkpt lat="46.20319" lon="-1.40743">
        <ele>55.93197</ele>
        <time>2023-05-30T09:07:00.000Z</time>
      </trkpt>
      <trkpt lat="46.20319" lon="-1.40751">
        <ele>55.83143</ele>
        <time>2023-05-30T09:07:01.000Z</time>
      </trkpt>
      <trkpt lat="46.20319" lon="-1.40757">
        <ele>55.77209</ele>
        <time>2023-05-30T09:07:02.000Z</time>
      </trkpt>
      <trkpt lat="46.2032" lon="-1.40763">
        <ele>55.72994</ele>
        <time>2023-05-30T09:07:03.000Z</time>
      </trkpt>
      <trkpt lat="46.2032" lon="-1.40769">
        <ele>55.66591</ele>
        <time>2023-05-30T09:07:04.000Z</time>
      </trkpt>
      <trkpt lat="46.2032" lon="-1.40776">
        <ele>55.61949</ele>
        <time>2023-05-30T09:07:05.000Z</time>
      </trkpt>
      <trkpt lat="46.2032" lon="-1.40782">
        <ele>55.58138</ele>
        <time>2023-05-30T09:07:06.000Z</time>
      </trkpt>
      <trkpt lat="46.2032" lon="-1.4079">
        <ele>55.56834</ele>
        <time>2023-05-30T09:07:07.000Z</time>
      </trkpt>
      <trkpt lat="46.2032" lon="-1.40796">
        <ele>55.53901</ele>
        <time>2023-05-30T09:07:08.000Z</time>
      </trkpt>
      <trkpt lat="46.2032" lon="-1.40803">
        <ele>55.50863</ele>
        <time>2023-05-30T09:07:09.000Z</time>
      </trkpt>
      <trkpt lat="46.20322" lon="-1.40809">
        <ele>55.45827</ele>
        <time>2023-05-30T09:07:10.000Z</time>
      </trkpt>
      <trkpt lat="46.20322" lon="-1.40815">
        <ele>55.41222</ele>
        <time>2023-05-30T09:07:11.000Z</time>
      </trkpt>
      <trkpt lat="46.20323" lon="-1.4082">
        <ele>55.38099</ele>
        <time>2023-05-30T09:07:12.000Z</time>
      </trkpt>
      <trkpt lat="46.20323" lon="-1.40825">
        <ele>55.34977</ele>
        <time>2023-05-30T09:07:13.000Z</time>
      </trkpt>
      <trkpt lat="46.20323" lon="-1.40828">
        <ele>55.3575</ele>
        <time>2023-05-30T09:07:14.000Z</time>
      </trkpt>
      <trkpt lat="46.20322" lon="-1.40831">
        <ele>55.36422</ele>
        <time>2023-05-30T09:07:15.000Z</time>
      </trkpt>
      <trkpt lat="46.2032" lon="-1.40833">
        <ele>55.37091</ele>
        <time>2023-05-30T09:07:16.000Z</time>
      </trkpt>
      <trkpt lat="46.20318" lon="-1.40834">
        <ele>55.38998</ele>
        <time>2023-05-30T09:07:17.000Z</time>
      </trkpt>
      <trkpt lat="46.20315" lon="-1.40835">
        <ele>55.41287</ele>
        <time>2023-05-30T09:07:18.000Z</time>
      </trkpt>
      <trkpt lat="46.20312" lon="-1.40837">
        <ele>55.43271</ele>
        <time>2023-05-30T09:07:19.000Z</time>
      </trkpt>
      <trkpt lat="46.20309" lon="-1.40838">
        <ele>55.47496</ele>
        <time>2023-05-30T09:07:20.000Z</time>
      </trkpt>
      <trkpt lat="46.20306" lon="-1.40841">
        <ele>55.48851</ele>
        <time>2023-05-30T09:07:21.000Z</time>
      </trkpt>
      <trkpt lat="46.20305" lon="-1.40843">
        <ele>55.44484</ele>
        <time>2023-05-30T09:07:22.000Z</time>
      </trkpt>
      <trkpt lat="46.20303" lon="-1.40847">
        <ele>55.36317</ele>
        <time>2023-05-30T09:07:24.000Z</time>
      </trkpt>
      <trkpt lat="46.20301" lon="-1.4085">
        <ele>55.29684</ele>
        <time>2023-05-30T09:07:26.000Z</time>
      </trkpt>
      <trkpt lat="46.20298" lon="-1.40851">
        <ele>55.2284</ele>
        <time>2023-05-30T09:07:28.000Z</time>
      </trkpt>
      <trkpt lat="46.20297" lon="-1.40846">
        <ele>55.14677</ele>
        <time>2023-05-30T09:07:30.000Z</time>
      </trkpt>
      <trkpt lat="46.20299" lon="-1.40843">
        <ele>55.04376</ele>
        <time>2023-05-30T09:07:32.000Z</time>
      </trkpt>
      <trkpt lat="46.203" lon="-1.40842">
        <ele>54.81616</ele>
        <time>2023-05-30T09:08:13.000Z</time>
      </trkpt>
      <trkpt lat="46.20302" lon="-1.40842">
        <ele>54.70016</ele>
        <time>2023-05-30T09:09:12.000Z</time>
      </trkpt>
      <trkpt lat="46.203" lon="-1.40842">
        <ele>54.51017</ele>
        <time>2023-05-30T09:10:20.000Z</time>
      </trkpt>
      <trkpt lat="46.20301" lon="-1.40845">
        <ele>54.31804</ele>
        <time>2023-05-30T09:10:31.000Z</time>
      </trkpt>
      <trkpt lat="46.20302" lon="-1.40843">
        <ele>54.21171</ele>
        <time>2023-05-30T09:11:17.000Z</time>
      </trkpt>
      <trkpt lat="46.20301" lon="-1.40842">
        <ele>54.11517</ele>
        <time>2023-05-30T09:11:27.000Z</time>
      </trkpt>
      <trkpt lat="46.20301" lon="-1.40839">
        <ele>53.88163</ele>
        <time>2023-05-30T09:11:31.000Z</time>
      </trkpt>
      <trkpt lat="46.20302" lon="-1.40842">
        <ele>53.87406</ele>
        <time>2023-05-30T09:12:49.000Z</time>
      </trkpt>
      <trkpt lat="46.20302" lon="-1.40847">
        <ele>53.84698</ele>
        <time>2023-05-30T09:12:51.000Z</time>
      </trkpt>
      <trkpt lat="46.203" lon="-1.40851">
        <ele>53.82904</ele>
        <time>2023-05-30T09:12:53.000Z</time>
      </trkpt>
      <trkpt lat="46.20298" lon="-1.40851">
        <ele>53.81998</ele>
        <time>2023-05-30T09:12:54.000Z</time>
      </trkpt>
      <trkpt lat="46.20297" lon="-1.40848">
        <ele>53.8003</ele>
        <time>2023-05-30T09:12:55.000Z</time>
      </trkpt>
      <trkpt lat="46.20297" lon="-1.40844">
        <ele>53.74829</ele>
        <time>2023-05-30T09:12:56.000Z</time>
      </trkpt>
      <trkpt lat="46.20299" lon="-1.40841">
        <ele>53.71572</ele>
        <time>2023-05-30T09:12:57.000Z</time>
      </trkpt>
      <trkpt lat="46.20302" lon="-1.4084">
        <ele>53.70851</ele>
        <time>2023-05-30T09:12:58.000Z</time>
      </trkpt>
      <trkpt lat="46.20307" lon="-1.40838">
        <ele>53.83633</ele>
        <time>2023-05-30T09:12:59.000Z</time>
      </trkpt>
      <trkpt lat="46.2031" lon="-1.40836">
        <ele>54.01305</ele>
        <time>2023-05-30T09:13:00.000Z</time>
      </trkpt>
      <trkpt lat="46.20313" lon="-1.40835">
        <ele>54.05954</ele>
        <time>2023-05-30T09:13:01.000Z</time>
      </trkpt>
      <trkpt lat="46.20317" lon="-1.40835">
        <ele>54.13213</ele>
        <time>2023-05-30T09:13:02.000Z</time>
      </trkpt>
      <trkpt lat="46.2032" lon="-1.40832">
        <ele>54.30952</ele>
        <time>2023-05-30T09:13:03.000Z</time>
      </trkpt>
      <trkpt lat="46.20322" lon="-1.4083">
        <ele>54.57943</ele>
        <time>2023-05-30T09:13:04.000Z</time>
      </trkpt>
      <trkpt lat="46.20323" lon="-1.40825">
        <ele>54.74659</ele>
        <time>2023-05-30T09:13:05.000Z</time>
      </trkpt>
      <trkpt lat="46.20324" lon="-1.40822">
        <ele>54.94707</ele>
        <time>2023-05-30T09:13:06.000Z</time>
      </trkpt>
      <trkpt lat="46.20324" lon="-1.40818">
        <ele>55.12777</ele>
        <time>2023-05-30T09:13:07.000Z</time>
      </trkpt>
      <trkpt lat="46.20322" lon="-1.40815">
        <ele>55.20972</ele>
        <time>2023-05-30T09:13:08.000Z</time>
      </trkpt>
      <trkpt lat="46.20322" lon="-1.4081">
        <ele>55.26991</ele>
        <time>2023-05-30T09:13:09.000Z</time>
      </trkpt>
      <trkpt lat="46.20321" lon="-1.40805">
        <ele>55.42927</ele>
        <time>2023-05-30T09:13:10.000Z</time>
      </trkpt>
      <trkpt lat="46.20321" lon="-1.408">
        <ele>55.29713</ele>
        <time>2023-05-30T09:13:11.000Z</time>
      </trkpt>
      <trkpt lat="46.2032" lon="-1.40795">
        <ele>55.21276</ele>
        <time>2023-05-30T09:13:12.000Z</time>
      </trkpt>
      <trkpt lat="46.2032" lon="-1.4079">
        <ele>55.12891</ele>
        <time>2023-05-30T09:13:13.000Z</time>
      </trkpt>
      <trkpt lat="46.2032" lon="-1.40785">
        <ele>55.04142</ele>
        <time>2023-05-30T09:13:14.000Z</time>
      </trkpt>
      <trkpt lat="46.2032" lon="-1.4078">
        <ele>54.953</ele>
        <time>2023-05-30T09:13:15.000Z</time>
      </trkpt>
      <trkpt lat="46.20319" lon="-1.40775">
        <ele>55.00711</ele>
        <time>2023-05-30T09:13:16.000Z</time>
      </trkpt>
      <trkpt lat="46.20319" lon="-1.4077">
        <ele>55.02604</ele>
        <time>2023-05-30T09:13:17.000Z</time>
      </trkpt>
      <trkpt lat="46.20319" lon="-1.40765">
        <ele>55.0258</ele>
        <time>2023-05-30T09:13:18.000Z</time>
      </trkpt>
      <trkpt lat="46.20318" lon="-1.40759">
        <ele>54.91847</ele>
        <time>2023-05-30T09:13:19.000Z</time>
      </trkpt>
      <trkpt lat="46.20318" lon="-1.40754">
        <ele>54.80782</ele>
        <time>2023-05-30T09:13:20.000Z</time>
      </trkpt>
      <trkpt lat="46.20318" lon="-1.40748">
        <ele>54.86298</ele>
        <time>2023-05-30T09:13:21.000Z</time>
      </trkpt>
      <trkpt lat="46.20317" lon="-1.40742">
        <ele>54.87815</ele>
        <time>2023-05-30T09:13:22.000Z</time>
      </trkpt>
      <trkpt lat="46.20317" lon="-1.40737">
        <ele>54.76458</ele>
        <time>2023-05-30T09:13:23.000Z</time>
      </trkpt>
      <trkpt lat="46.20317" lon="-1.40731">
        <ele>54.68158</ele>
        <time>2023-05-30T09:13:24.000Z</time>
      </trkpt>
      <trkpt lat="46.20317" lon="-1.40726">
        <ele>54.60746</ele>
        <time>2023-05-30T09:13:25.000Z</time>
      </trkpt>
      <trkpt lat="46.20318" lon="-1.40721">
        <ele>54.56649</ele>
        <time>2023-05-30T09:13:26.000Z</time>
      </trkpt>
      <trkpt lat="46.20318" lon="-1.40716">
        <ele>54.53685</ele>
        <time>2023-05-30T09:13:27.000Z</time>
      </trkpt>
      <trkpt lat="46.20318" lon="-1.40713">
        <ele>54.50878</ele>
        <time>2023-05-30T09:13:28.000Z</time>
      </trkpt>
      <trkpt lat="46.20318" lon="-1.4071">
        <ele>54.51465</ele>
        <time>2023-05-30T09:13:29.000Z</time>
      </trkpt>
      <trkpt lat="46.20318" lon="-1.40712">
        <ele>54.54105</ele>
        <time>2023-05-30T09:13:36.000Z</time>
      </trkpt>
      <trkpt lat="46.20318" lon="-1.40716">
        <ele>54.64418</ele>
        <time>2023-05-30T09:13:39.000Z</time>
      </trkpt>
      <trkpt lat="46.20317" lon="-1.40713">
        <ele>54.60934</ele>
        <time>2023-05-30T09:14:00.000Z</time>
      </trkpt>
      <trkpt lat="46.20317" lon="-1.40709">
        <ele>54.56035</ele>
        <time>2023-05-30T09:14:01.000Z</time>
      </trkpt>
      <trkpt lat="46.20317" lon="-1.40706">
        <ele>54.5217</ele>
        <time>2023-05-30T09:14:02.000Z</time>
      </trkpt>
      <trkpt lat="46.20317" lon="-1.40702">
        <ele>54.5085</ele>
        <time>2023-05-30T09:14:03.000Z</time>
      </trkpt>
      <trkpt lat="46.20317" lon="-1.40698">
        <ele>54.51359</ele>
        <time>2023-05-30T09:14:04.000Z</time>
      </trkpt>
      <trkpt lat="46.20317" lon="-1.40694">
        <ele>54.5318</ele>
        <time>2023-05-30T09:14:05.000Z</time>
      </trkpt>
      <trkpt lat="46.20317" lon="-1.4069">
        <ele>54.57109</ele>
        <time>2023-05-30T09:14:06.000Z</time>
      </trkpt>
      <trkpt lat="46.20317" lon="-1.40685">
        <ele>54.612</ele>
        <time>2023-05-30T09:14:07.000Z</time>
      </trkpt>
      <trkpt lat="46.20317" lon="-1.4068">
        <ele>54.60183</ele>
        <time>2023-05-30T09:14:08.000Z</time>
      </trkpt>
      <trkpt lat="46.20317" lon="-1.40675">
        <ele>54.53893</ele>
        <time>2023-05-30T09:14:09.000Z</time>
      </trkpt>
      <trkpt lat="46.20317" lon="-1.4067">
        <ele>54.47278</ele>
        <time>2023-05-30T09:14:10.000Z</time>
      </trkpt>
      <trkpt lat="46.20317" lon="-1.40664">
        <ele>54.42216</ele>
        <time>2023-05-30T09:14:11.000Z</time>
      </trkpt>
      <trkpt lat="46.20317" lon="-1.40659">
        <ele>54.35345</ele>
        <time>2023-05-30T09:14:12.000Z</time>
      </trkpt>
      <trkpt lat="46.20316" lon="-1.40653">
        <ele>54.28447</ele>
        <time>2023-05-30T09:14:13.000Z</time>
      </trkpt>
      <trkpt lat="46.20316" lon="-1.40648">
        <ele>54.25099</ele>
        <time>2023-05-30T09:14:14.000Z</time>
      </trkpt>
      <trkpt lat="46.20315" lon="-1.40642">
        <ele>54.21227</ele>
        <time>2023-05-30T09:14:15.000Z</time>
      </trkpt>
      <trkpt lat="46.20313" lon="-1.40636">
        <ele>54.20492</ele>
        <time>2023-05-30T09:14:16.000Z</time>
      </trkpt>
      <trkpt lat="46.20312" lon="-1.4063">
        <ele>54.18481</ele>
        <time>2023-05-30T09:14:17.000Z</time>
      </trkpt>
      <trkpt lat="46.20311" lon="-1.40625">
        <ele>54.14027</ele>
        <time>2023-05-30T09:14:18.000Z</time>
      </trkpt>
      <trkpt lat="46.2031" lon="-1.40619">
        <ele>54.05696</ele>
        <time>2023-05-30T09:14:19.000Z</time>
      </trkpt>
      <trkpt lat="46.20309" lon="-1.40613">
        <ele>54.1116</ele>
        <time>2023-05-30T09:14:20.000Z</time>
      </trkpt>
      <trkpt lat="46.20308" lon="-1.40606">
        <ele>54.18871</ele>
        <time>2023-05-30T09:14:21.000Z</time>
      </trkpt>
      <trkpt lat="46.20307" lon="-1.40601">
        <ele>54.26203</ele>
        <time>2023-05-30T09:14:22.000Z</time>
      </trkpt>
      <trkpt lat="46.20307" lon="-1.40595">
        <ele>54.34208</ele>
        <time>2023-05-30T09:14:23.000Z</time>
      </trkpt>
      <trkpt lat="46.20306" lon="-1.40589">
        <ele>54.26363</ele>
        <time>2023-05-30T09:14:24.000Z</time>
      </trkpt>
      <trkpt lat="46.20305" lon="-1.40583">
        <ele>54.19551</ele>
        <time>2023-05-30T09:14:25.000Z</time>
      </trkpt>
      <trkpt lat="46.20304" lon="-1.40577">
        <ele>54.127</ele>
        <time>2023-05-30T09:14:26.000Z</time>
      </trkpt>
      <trkpt lat="46.20303" lon="-1.40571">
        <ele>54.06735</ele>
        <time>2023-05-30T09:14:27.000Z</time>
      </trkpt>
      <trkpt lat="46.20302" lon="-1.40565">
        <ele>54.03875</ele>
        <time>2023-05-30T09:14:28.000Z</time>
      </trkpt>
      <trkpt lat="46.20301" lon="-1.40558">
        <ele>53.99493</ele>
        <time>2023-05-30T09:14:29.000Z</time>
      </trkpt>
      <trkpt lat="46.203" lon="-1.40551">
        <ele>53.99027</ele>
        <time>2023-05-30T09:14:30.000Z</time>
      </trkpt>
      <trkpt lat="46.20299" lon="-1.40544">
        <ele>54.0073</ele>
        <time>2023-05-30T09:14:31.000Z</time>
      </trkpt>
      <trkpt lat="46.20298" lon="-1.40538">
        <ele>54.02153</ele>
        <time>2023-05-30T09:14:32.000Z</time>
      </trkpt>
      <trkpt lat="46.20297" lon="-1.40533">
        <ele>54.05841</ele>
        <time>2023-05-30T09:14:33.000Z</time>
      </trkpt>
      <trkpt lat="46.20297" lon="-1.40526">
        <ele>54.05302</ele>
        <time>2023-05-30T09:14:34.000Z</time>
      </trkpt>
      <trkpt lat="46.20297" lon="-1.4052">
        <ele>54.06765</ele>
        <time>2023-05-30T09:14:35.000Z</time>
      </trkpt>
      <trkpt lat="46.20297" lon="-1.40514">
        <ele>54.08597</ele>
        <time>2023-05-30T09:14:36.000Z</time>
      </trkpt>
      <trkpt lat="46.20296" lon="-1.40507">
        <ele>54.07302</ele>
        <time>2023-05-30T09:14:37.000Z</time>
      </trkpt>
      <trkpt lat="46.20296" lon="-1.40501">
        <ele>54.08428</ele>
        <time>2023-05-30T09:14:38.000Z</time>
      </trkpt>
      <trkpt lat="46.20296" lon="-1.40494">
        <ele>54.14383</ele>
        <time>2023-05-30T09:14:39.000Z</time>
      </trkpt>
      <trkpt lat="46.20295" lon="-1.40488">
        <ele>54.19429</ele>
        <time>2023-05-30T09:14:40.000Z</time>
      </trkpt>
      <trkpt lat="46.20294" lon="-1.40481">
        <ele>54.25209</ele>
        <time>2023-05-30T09:14:41.000Z</time>
      </trkpt>
      <trkpt lat="46.20294" lon="-1.40474">
        <ele>54.3101</ele>
        <time>2023-05-30T09:14:42.000Z</time>
      </trkpt>
      <trkpt lat="46.20294" lon="-1.40468">
        <ele>54.34629</ele>
        <time>2023-05-30T09:14:43.000Z</time>
      </trkpt>
      <trkpt lat="46.20295" lon="-1.4046">
        <ele>54.38581</ele>
        <time>2023-05-30T09:14:44.000Z</time>
      </trkpt>
      <trkpt lat="46.20295" lon="-1.40454">
        <ele>54.44788</ele>
        <time>2023-05-30T09:14:45.000Z</time>
      </trkpt>
      <trkpt lat="46.20295" lon="-1.40447">
        <ele>54.52464</ele>
        <time>2023-05-30T09:14:46.000Z</time>
      </trkpt>
      <trkpt lat="46.20295" lon="-1.40441">
        <ele>54.6081</ele>
        <time>2023-05-30T09:14:47.000Z</time>
      </trkpt>
      <trkpt lat="46.20296" lon="-1.40434">
        <ele>54.70217</ele>
        <time>2023-05-30T09:14:48.000Z</time>
      </trkpt>
      <trkpt lat="46.20296" lon="-1.40428">
        <ele>54.81485</ele>
        <time>2023-05-30T09:14:49.000Z</time>
      </trkpt>
      <trkpt lat="46.20296" lon="-1.40421">
        <ele>54.91991</ele>
        <time>2023-05-30T09:14:50.000Z</time>
      </trkpt>
      <trkpt lat="46.20297" lon="-1.40415">
        <ele>55.01396</ele>
        <time>2023-05-30T09:14:51.000Z</time>
      </trkpt>
      <trkpt lat="46.20298" lon="-1.40409">
        <ele>55.03564</ele>
        <time>2023-05-30T09:14:52.000Z</time>
      </trkpt>
      <trkpt lat="46.20298" lon="-1.40403">
        <ele>55.02907</ele>
        <time>2023-05-30T09:14:53.000Z</time>
      </trkpt>
      <trkpt lat="46.20299" lon="-1.40396">
        <ele>55.02028</ele>
        <time>2023-05-30T09:14:54.000Z</time>
      </trkpt>
      <trkpt lat="46.203" lon="-1.4039">
        <ele>55.00893</ele>
        <time>2023-05-30T09:14:55.000Z</time>
      </trkpt>
      <trkpt lat="46.203" lon="-1.40383">
        <ele>55.09472</ele>
        <time>2023-05-30T09:14:56.000Z</time>
      </trkpt>
      <trkpt lat="46.20301" lon="-1.40377">
        <ele>55.16857</ele>
        <time>2023-05-30T09:14:57.000Z</time>
      </trkpt>
      <trkpt lat="46.20301" lon="-1.40371">
        <ele>55.24352</ele>
        <time>2023-05-30T09:14:58.000Z</time>
      </trkpt>
      <trkpt lat="46.20302" lon="-1.40364">
        <ele>55.28051</ele>
        <time>2023-05-30T09:14:59.000Z</time>
      </trkpt>
      <trkpt lat="46.20302" lon="-1.40357">
        <ele>55.3272</ele>
        <time>2023-05-30T09:15:00.000Z</time>
      </trkpt>
      <trkpt lat="46.20301" lon="-1.40352">
        <ele>55.34563</ele>
        <time>2023-05-30T09:15:01.000Z</time>
      </trkpt>
      <trkpt lat="46.20302" lon="-1.40346">
        <ele>55.37809</ele>
        <time>2023-05-30T09:15:02.000Z</time>
      </trkpt>
      <trkpt lat="46.20302" lon="-1.4034">
        <ele>55.39314</ele>
        <time>2023-05-30T09:15:03.000Z</time>
      </trkpt>
      <trkpt lat="46.20301" lon="-1.40335">
        <ele>55.42631</ele>
        <time>2023-05-30T09:15:04.000Z</time>
      </trkpt>
      <trkpt lat="46.20302" lon="-1.40329">
        <ele>55.45629</ele>
        <time>2023-05-30T09:15:05.000Z</time>
      </trkpt>
      <trkpt lat="46.20302" lon="-1.40322">
        <ele>55.46594</ele>
        <time>2023-05-30T09:15:06.000Z</time>
      </trkpt>
      <trkpt lat="46.20302" lon="-1.40315">
        <ele>55.39717</ele>
        <time>2023-05-30T09:15:07.000Z</time>
      </trkpt>
      <trkpt lat="46.20302" lon="-1.40308">
        <ele>55.28717</ele>
        <time>2023-05-30T09:15:08.000Z</time>
      </trkpt>
      <trkpt lat="46.20302" lon="-1.40301">
        <ele>55.18398</ele>
        <time>2023-05-30T09:15:09.000Z</time>
      </trkpt>
      <trkpt lat="46.20302" lon="-1.40294">
        <ele>55.06658</ele>
        <time>2023-05-30T09:15:10.000Z</time>
      </trkpt>
      <trkpt lat="46.20302" lon="-1.40288">
        <ele>55.05029</ele>
        <time>2023-05-30T09:15:11.000Z</time>
      </trkpt>
      <trkpt lat="46.20302" lon="-1.40281">
        <ele>55.07754</ele>
        <time>2023-05-30T09:15:12.000Z</time>
      </trkpt>
      <trkpt lat="46.20302" lon="-1.40275">
        <ele>55.11475</ele>
        <time>2023-05-30T09:15:13.000Z</time>
      </trkpt>
      <trkpt lat="46.20302" lon="-1.40268">
        <ele>55.19139</ele>
        <time>2023-05-30T09:15:14.000Z</time>
      </trkpt>
      <trkpt lat="46.20302" lon="-1.40262">
        <ele>55.2674</ele>
        <time>2023-05-30T09:15:15.000Z</time>
      </trkpt>
      <trkpt lat="46.20301" lon="-1.40256">
        <ele>55.2427</ele>
        <time>2023-05-30T09:15:16.000Z</time>
      </trkpt>
      <trkpt lat="46.20301" lon="-1.4025">
        <ele>55.26727</ele>
        <time>2023-05-30T09:15:17.000Z</time>
      </trkpt>
      <trkpt lat="46.203" lon="-1.40244">
        <ele>55.27064</ele>
        <time>2023-05-30T09:15:18.000Z</time>
      </trkpt>
      <trkpt lat="46.203" lon="-1.40238">
        <ele>55.28654</ele>
        <time>2023-05-30T09:15:19.000Z</time>
      </trkpt>
      <trkpt lat="46.20299" lon="-1.40232">
        <ele>55.29718</ele>
        <time>2023-05-30T09:15:20.000Z</time>
      </trkpt>
      <trkpt lat="46.203" lon="-1.40227">
        <ele>55.31151</ele>
        <time>2023-05-30T09:15:21.000Z</time>
      </trkpt>
      <trkpt lat="46.203" lon="-1.40222">
        <ele>55.31736</ele>
        <time>2023-05-30T09:15:22.000Z</time>
      </trkpt>
      <trkpt lat="46.20301" lon="-1.40217">
        <ele>55.32824</ele>
        <time>2023-05-30T09:15:23.000Z</time>
      </trkpt>
      <trkpt lat="46.20301" lon="-1.40213">
        <ele>55.31975</ele>
        <time>2023-05-30T09:15:24.000Z</time>
      </trkpt>
      <trkpt lat="46.20301" lon="-1.4021">
        <ele>55.31356</ele>
        <time>2023-05-30T09:15:25.000Z</time>
      </trkpt>
      <trkpt lat="46.20301" lon="-1.40206">
        <ele>55.30325</ele>
        <time>2023-05-30T09:15:26.000Z</time>
      </trkpt>
      <trkpt lat="46.20301" lon="-1.40201">
        <ele>55.34071</ele>
        <time>2023-05-30T09:15:27.000Z</time>
      </trkpt>
      <trkpt lat="46.20301" lon="-1.40197">
        <ele>55.41868</ele>
        <time>2023-05-30T09:15:28.000Z</time>
      </trkpt>
      <trkpt lat="46.20301" lon="-1.40192">
        <ele>55.43257</ele>
        <time>2023-05-30T09:15:29.000Z</time>
      </trkpt>
      <trkpt lat="46.20301" lon="-1.40187">
        <ele>55.41224</ele>
        <time>2023-05-30T09:15:30.000Z</time>
      </trkpt>
      <trkpt lat="46.20301" lon="-1.40183">
        <ele>55.30922</ele>
        <time>2023-05-30T09:15:31.000Z</time>
      </trkpt>
      <trkpt lat="46.20301" lon="-1.40178">
        <ele>55.22012</ele>
        <time>2023-05-30T09:15:32.000Z</time>
      </trkpt>
      <trkpt lat="46.20301" lon="-1.40174">
        <ele>55.22797</ele>
        <time>2023-05-30T09:15:33.000Z</time>
      </trkpt>
      <trkpt lat="46.20301" lon="-1.4017">
        <ele>55.212</ele>
        <time>2023-05-30T09:15:34.000Z</time>
      </trkpt>
      <trkpt lat="46.20301" lon="-1.40165">
        <ele>55.19405</ele>
        <time>2023-05-30T09:15:35.000Z</time>
      </trkpt>
      <trkpt lat="46.20301" lon="-1.4016">
        <ele>55.16405</ele>
        <time>2023-05-30T09:15:36.000Z</time>
      </trkpt>
      <trkpt lat="46.20301" lon="-1.40155">
        <ele>55.09803</ele>
        <time>2023-05-30T09:15:37.000Z</time>
      </trkpt>
      <trkpt lat="46.20301" lon="-1.4015">
        <ele>55.05831</ele>
        <time>2023-05-30T09:15:38.000Z</time>
      </trkpt>
      <trkpt lat="46.20301" lon="-1.40145">
        <ele>55.01685</ele>
        <time>2023-05-30T09:15:39.000Z</time>
      </trkpt>
      <trkpt lat="46.20301" lon="-1.40141">
        <ele>54.93771</ele>
        <time>2023-05-30T09:15:40.000Z</time>
      </trkpt>
      <trkpt lat="46.20302" lon="-1.40136">
        <ele>54.87128</ele>
        <time>2023-05-30T09:15:41.000Z</time>
      </trkpt>
      <trkpt lat="46.20302" lon="-1.40132">
        <ele>54.82776</ele>
        <time>2023-05-30T09:15:42.000Z</time>
      </trkpt>
      <trkpt lat="46.20302" lon="-1.40129">
        <ele>54.79375</ele>
        <time>2023-05-30T09:15:43.000Z</time>
      </trkpt>
      <trkpt lat="46.20303" lon="-1.40125">
        <ele>54.78922</ele>
        <time>2023-05-30T09:15:44.000Z</time>
      </trkpt>
      <trkpt lat="46.20303" lon="-1.40121">
        <ele>54.78899</ele>
        <time>2023-05-30T09:15:45.000Z</time>
      </trkpt>
      <trkpt lat="46.20304" lon="-1.40116">
        <ele>54.78574</ele>
        <time>2023-05-30T09:15:46.000Z</time>
      </trkpt>
      <trkpt lat="46.20304" lon="-1.40111">
        <ele>54.79651</ele>
        <time>2023-05-30T09:15:47.000Z</time>
      </trkpt>
      <trkpt lat="46.20305" lon="-1.40106">
        <ele>54.76644</ele>
        <time>2023-05-30T09:15:48.000Z</time>
      </trkpt>
      <trkpt lat="46.20305" lon="-1.40101">
        <ele>54.78553</ele>
        <time>2023-05-30T09:15:49.000Z</time>
      </trkpt>
      <trkpt lat="46.20306" lon="-1.40095">
        <ele>54.84341</ele>
        <time>2023-05-30T09:15:50.000Z</time>
      </trkpt>
      <trkpt lat="46.20307" lon="-1.4009">
        <ele>54.88045</ele>
        <time>2023-05-30T09:15:51.000Z</time>
      </trkpt>
      <trkpt lat="46.20308" lon="-1.40085">
        <ele>54.9329</ele>
        <time>2023-05-30T09:15:52.000Z</time>
      </trkpt>
      <trkpt lat="46.20309" lon="-1.4008">
        <ele>54.85524</ele>
        <time>2023-05-30T09:15:53.000Z</time>
      </trkpt>
      <trkpt lat="46.20309" lon="-1.40076">
        <ele>54.78713</ele>
        <time>2023-05-30T09:15:54.000Z</time>
      </trkpt>
      <trkpt lat="46.2031" lon="-1.40073">
        <ele>54.71084</ele>
        <time>2023-05-30T09:15:55.000Z</time>
      </trkpt>
      <trkpt lat="46.20311" lon="-1.40069">
        <ele>54.6474</ele>
        <time>2023-05-30T09:15:56.000Z</time>
      </trkpt>
      <trkpt lat="46.20312" lon="-1.40066">
        <ele>54.60765</ele>
        <time>2023-05-30T09:15:57.000Z</time>
      </trkpt>
      <trkpt lat="46.20313" lon="-1.40063">
        <ele>54.55607</ele>
        <time>2023-05-30T09:15:58.000Z</time>
      </trkpt>
      <trkpt lat="46.20313" lon="-1.4006">
        <ele>54.51322</ele>
        <time>2023-05-30T09:15:59.000Z</time>
      </trkpt>
      <trkpt lat="46.20314" lon="-1.40056">
        <ele>54.49966</ele>
        <time>2023-05-30T09:16:00.000Z</time>
      </trkpt>
      <trkpt lat="46.20315" lon="-1.40052">
        <ele>54.4747</ele>
        <time>2023-05-30T09:16:01.000Z</time>
      </trkpt>
      <trkpt lat="46.20316" lon="-1.40049">
        <ele>54.42659</ele>
        <time>2023-05-30T09:16:02.000Z</time>
      </trkpt>
      <trkpt lat="46.20317" lon="-1.40045">
        <ele>54.35239</ele>
        <time>2023-05-30T09:16:03.000Z</time>
      </trkpt>
      <trkpt lat="46.20318" lon="-1.40042">
        <ele>54.2534</ele>
        <time>2023-05-30T09:16:04.000Z</time>
      </trkpt>
      <trkpt lat="46.20319" lon="-1.40038">
        <ele>54.11819</ele>
        <time>2023-05-30T09:16:05.000Z</time>
      </trkpt>
      <trkpt lat="46.2032" lon="-1.40033">
        <ele>54.10639</ele>
        <time>2023-05-30T09:16:06.000Z</time>
      </trkpt>
      <trkpt lat="46.2032" lon="-1.40028">
        <ele>54.08113</ele>
        <time>2023-05-30T09:16:07.000Z</time>
      </trkpt>
      <trkpt lat="46.2032" lon="-1.40022">
        <ele>54.06902</ele>
        <time>2023-05-30T09:16:08.000Z</time>
      </trkpt>
      <trkpt lat="46.2032" lon="-1.40016">
        <ele>54.09098</ele>
        <time>2023-05-30T09:16:09.000Z</time>
      </trkpt>
      <trkpt lat="46.2032" lon="-1.4001">
        <ele>54.10583</ele>
        <time>2023-05-30T09:16:10.000Z</time>
      </trkpt>
      <trkpt lat="46.2032" lon="-1.40004">
        <ele>54.12261</ele>
        <time>2023-05-30T09:16:11.000Z</time>
      </trkpt>
      <trkpt lat="46.20321" lon="-1.39999">
        <ele>54.13288</ele>
        <time>2023-05-30T09:16:12.000Z</time>
      </trkpt>
      <trkpt lat="46.20321" lon="-1.39993">
        <ele>54.19227</ele>
        <time>2023-05-30T09:16:13.000Z</time>
      </trkpt>
      <trkpt lat="46.2032" lon="-1.39988">
        <ele>54.23908</ele>
        <time>2023-05-30T09:16:14.000Z</time>
      </trkpt>
      <trkpt lat="46.2032" lon="-1.39983">
        <ele>54.30614</ele>
        <time>2023-05-30T09:16:15.000Z</time>
      </trkpt>
      <trkpt lat="46.2032" lon="-1.39977">
        <ele>54.35968</ele>
        <time>2023-05-30T09:16:16.000Z</time>
      </trkpt>
      <trkpt lat="46.2032" lon="-1.39972">
        <ele>54.45142</ele>
        <time>2023-05-30T09:16:17.000Z</time>
      </trkpt>
      <trkpt lat="46.2032" lon="-1.39966">
        <ele>54.53379</ele>
        <time>2023-05-30T09:16:18.000Z</time>
      </trkpt>
      <trkpt lat="46.2032" lon="-1.39961">
        <ele>54.63731</ele>
        <time>2023-05-30T09:16:19.000Z</time>
      </trkpt>
      <trkpt lat="46.2032" lon="-1.39955">
        <ele>54.70168</ele>
        <time>2023-05-30T09:16:20.000Z</time>
      </trkpt>
      <trkpt lat="46.2032" lon="-1.3995">
        <ele>54.79668</ele>
        <time>2023-05-30T09:16:21.000Z</time>
      </trkpt>
      <trkpt lat="46.2032" lon="-1.39944">
        <ele>54.88209</ele>
        <time>2023-05-30T09:16:22.000Z</time>
      </trkpt>
      <trkpt lat="46.20321" lon="-1.39939">
        <ele>55.00427</ele>
        <time>2023-05-30T09:16:23.000Z</time>
      </trkpt>
      <trkpt lat="46.20321" lon="-1.39933">
        <ele>55.12453</ele>
        <time>2023-05-30T09:16:24.000Z</time>
      </trkpt>
      <trkpt lat="46.20321" lon="-1.39928">
        <ele>55.2756</ele>
        <time>2023-05-30T09:16:25.000Z</time>
      </trkpt>
      <trkpt lat="46.20321" lon="-1.39922">
        <ele>55.33151</ele>
        <time>2023-05-30T09:16:26.000Z</time>
      </trkpt>
      <trkpt lat="46.20321" lon="-1.39917">
        <ele>55.41047</ele>
        <time>2023-05-30T09:16:27.000Z</time>
      </trkpt>
      <trkpt lat="46.20321" lon="-1.39911">
        <ele>55.50332</ele>
        <time>2023-05-30T09:16:28.000Z</time>
      </trkpt>
      <trkpt lat="46.20322" lon="-1.39906">
        <ele>55.51736</ele>
        <time>2023-05-30T09:16:29.000Z</time>
      </trkpt>
      <trkpt lat="46.20323" lon="-1.39901">
        <ele>55.54252</ele>
        <time>2023-05-30T09:16:30.000Z</time>
      </trkpt>
      <trkpt lat="46.20323" lon="-1.39895">
        <ele>55.58702</ele>
        <time>2023-05-30T09:16:31.000Z</time>
      </trkpt>
      <trkpt lat="46.20324" lon="-1.3989">
        <ele>55.61193</ele>
        <time>2023-05-30T09:16:32.000Z</time>
      </trkpt>
      <trkpt lat="46.20324" lon="-1.39884">
        <ele>55.58753</ele>
        <time>2023-05-30T09:16:33.000Z</time>
      </trkpt>
      <trkpt lat="46.20325" lon="-1.39879">
        <ele>55.70843</ele>
        <time>2023-05-30T09:16:34.000Z</time>
      </trkpt>
      <trkpt lat="46.20325" lon="-1.39873">
        <ele>55.78085</ele>
        <time>2023-05-30T09:16:35.000Z</time>
      </trkpt>
      <trkpt lat="46.20325" lon="-1.39867">
        <ele>55.84583</ele>
        <time>2023-05-30T09:16:36.000Z</time>
      </trkpt>
      <trkpt lat="46.20325" lon="-1.3986">
        <ele>55.87494</ele>
        <time>2023-05-30T09:16:37.000Z</time>
      </trkpt>
      <trkpt lat="46.20326" lon="-1.39854">
        <ele>55.9154</ele>
        <time>2023-05-30T09:16:38.000Z</time>
      </trkpt>
      <trkpt lat="46.20327" lon="-1.39848">
        <ele>55.94044</ele>
        <time>2023-05-30T09:16:39.000Z</time>
      </trkpt>
      <trkpt lat="46.20328" lon="-1.39842">
        <ele>55.99568</ele>
        <time>2023-05-30T09:16:40.000Z</time>
      </trkpt>
      <trkpt lat="46.20329" lon="-1.39836">
        <ele>55.99951</ele>
        <time>2023-05-30T09:16:41.000Z</time>
      </trkpt>
      <trkpt lat="46.2033" lon="-1.3983">
        <ele>55.98912</ele>
        <time>2023-05-30T09:16:42.000Z</time>
      </trkpt>
      <trkpt lat="46.20331" lon="-1.39824">
        <ele>55.97987</ele>
        <time>2023-05-30T09:16:43.000Z</time>
      </trkpt>
      <trkpt lat="46.20332" lon="-1.39817">
        <ele>55.97701</ele>
        <time>2023-05-30T09:16:44.000Z</time>
      </trkpt>
      <trkpt lat="46.20333" lon="-1.39811">
        <ele>55.98391</ele>
        <time>2023-05-30T09:16:45.000Z</time>
      </trkpt>
      <trkpt lat="46.20334" lon="-1.39805">
        <ele>55.96355</ele>
        <time>2023-05-30T09:16:46.000Z</time>
      </trkpt>
      <trkpt lat="46.20335" lon="-1.39799">
        <ele>55.88024</ele>
        <time>2023-05-30T09:16:47.000Z</time>
      </trkpt>
      <trkpt lat="46.20335" lon="-1.39793">
        <ele>55.76013</ele>
        <time>2023-05-30T09:16:48.000Z</time>
      </trkpt>
      <trkpt lat="46.20336" lon="-1.39787">
        <ele>55.68168</ele>
        <time>2023-05-30T09:16:49.000Z</time>
      </trkpt>
      <trkpt lat="46.20337" lon="-1.39781">
        <ele>55.59402</ele>
        <time>2023-05-30T09:16:50.000Z</time>
      </trkpt>
      <trkpt lat="46.20338" lon="-1.39775">
        <ele>55.58085</ele>
        <time>2023-05-30T09:16:51.000Z</time>
      </trkpt>
      <trkpt lat="46.20339" lon="-1.39769">
        <ele>55.56181</ele>
        <time>2023-05-30T09:16:52.000Z</time>
      </trkpt>
      <trkpt lat="46.2034" lon="-1.39763">
        <ele>55.89995</ele>
        <time>2023-05-30T09:16:53.000Z</time>
      </trkpt>
      <trkpt lat="46.20342" lon="-1.39757">
        <ele>56.0613</ele>
        <time>2023-05-30T09:16:54.000Z</time>
      </trkpt>
      <trkpt lat="46.20343" lon="-1.3975">
        <ele>56.26378</ele>
        <time>2023-05-30T09:16:55.000Z</time>
      </trkpt>
      <trkpt lat="46.20343" lon="-1.39744">
        <ele>56.26476</ele>
        <time>2023-05-30T09:16:56.000Z</time>
      </trkpt>
      <trkpt lat="46.20342" lon="-1.39738">
        <ele>56.42339</ele>
        <time>2023-05-30T09:16:57.000Z</time>
      </trkpt>
      <trkpt lat="46.20341" lon="-1.39731">
        <ele>56.49199</ele>
        <time>2023-05-30T09:16:58.000Z</time>
      </trkpt>
      <trkpt lat="46.20341" lon="-1.39725">
        <ele>56.56167</ele>
        <time>2023-05-30T09:16:59.000Z</time>
      </trkpt>
      <trkpt lat="46.2034" lon="-1.39718">
        <ele>56.65797</ele>
        <time>2023-05-30T09:17:00.000Z</time>
      </trkpt>
      <trkpt lat="46.20339" lon="-1.39711">
        <ele>56.77468</ele>
        <time>2023-05-30T09:17:01.000Z</time>
      </trkpt>
      <trkpt lat="46.20339" lon="-1.39705">
        <ele>56.91077</ele>
        <time>2023-05-30T09:17:02.000Z</time>
      </trkpt>
      <trkpt lat="46.20339" lon="-1.397">
        <ele>57.04386</ele>
        <time>2023-05-30T09:17:03.000Z</time>
      </trkpt>
      <trkpt lat="46.20339" lon="-1.39695">
        <ele>57.16302</ele>
        <time>2023-05-30T09:17:04.000Z</time>
      </trkpt>
      <trkpt lat="46.20338" lon="-1.3969">
        <ele>57.28955</ele>
        <time>2023-05-30T09:17:05.000Z</time>
      </trkpt>
      <trkpt lat="46.20339" lon="-1.39685">
        <ele>57.28727</ele>
        <time>2023-05-30T09:17:06.000Z</time>
      </trkpt>
      <trkpt lat="46.20339" lon="-1.3968">
        <ele>57.32419</ele>
        <time>2023-05-30T09:17:07.000Z</time>
      </trkpt>
      <trkpt lat="46.20338" lon="-1.39676">
        <ele>57.36583</ele>
        <time>2023-05-30T09:17:08.000Z</time>
      </trkpt>
      <trkpt lat="46.20338" lon="-1.39671">
        <ele>57.49264</ele>
        <time>2023-05-30T09:17:09.000Z</time>
      </trkpt>
      <trkpt lat="46.20338" lon="-1.39665">
        <ele>57.6118</ele>
        <time>2023-05-30T09:17:10.000Z</time>
      </trkpt>
      <trkpt lat="46.20337" lon="-1.3966">
        <ele>57.63915</ele>
        <time>2023-05-30T09:17:11.000Z</time>
      </trkpt>
      <trkpt lat="46.20337" lon="-1.39655">
        <ele>57.67366</ele>
        <time>2023-05-30T09:17:12.000Z</time>
      </trkpt>
      <trkpt lat="46.20336" lon="-1.3965">
        <ele>57.37842</ele>
        <time>2023-05-30T09:17:13.000Z</time>
      </trkpt>
      <trkpt lat="46.20336" lon="-1.39644">
        <ele>57.14893</ele>
        <time>2023-05-30T09:17:14.000Z</time>
      </trkpt>
      <trkpt lat="46.20335" lon="-1.39639">
        <ele>56.93357</ele>
        <time>2023-05-30T09:17:15.000Z</time>
      </trkpt>
      <trkpt lat="46.20335" lon="-1.39634">
        <ele>56.92623</ele>
        <time>2023-05-30T09:17:16.000Z</time>
      </trkpt>
      <trkpt lat="46.20334" lon="-1.39628">
        <ele>56.76431</ele>
        <time>2023-05-30T09:17:17.000Z</time>
      </trkpt>
      <trkpt lat="46.20333" lon="-1.39623">
        <ele>56.68342</ele>
        <time>2023-05-30T09:17:18.000Z</time>
      </trkpt>
      <trkpt lat="46.20333" lon="-1.39618">
        <ele>56.59965</ele>
        <time>2023-05-30T09:17:19.000Z</time>
      </trkpt>
      <trkpt lat="46.20332" lon="-1.39612">
        <ele>56.49395</ele>
        <time>2023-05-30T09:17:20.000Z</time>
      </trkpt>
      <trkpt lat="46.20331" lon="-1.39607">
        <ele>56.37722</ele>
        <time>2023-05-30T09:17:21.000Z</time>
      </trkpt>
      <trkpt lat="46.2033" lon="-1.39601">
        <ele>56.3321</ele>
        <time>2023-05-30T09:17:22.000Z</time>
      </trkpt>
      <trkpt lat="46.2033" lon="-1.39595">
        <ele>56.28597</ele>
        <time>2023-05-30T09:17:23.000Z</time>
      </trkpt>
      <trkpt lat="46.20329" lon="-1.3959">
        <ele>56.25962</ele>
        <time>2023-05-30T09:17:24.000Z</time>
      </trkpt>
      <trkpt lat="46.20329" lon="-1.39585">
        <ele>56.02512</ele>
        <time>2023-05-30T09:17:25.000Z</time>
      </trkpt>
      <trkpt lat="46.20329" lon="-1.3958">
        <ele>55.93293</ele>
        <time>2023-05-30T09:17:26.000Z</time>
      </trkpt>
      <trkpt lat="46.20329" lon="-1.39574">
        <ele>55.85613</ele>
        <time>2023-05-30T09:17:27.000Z</time>
      </trkpt>
      <trkpt lat="46.20329" lon="-1.39569">
        <ele>55.93119</ele>
        <time>2023-05-30T09:17:28.000Z</time>
      </trkpt>
      <trkpt lat="46.20328" lon="-1.39563">
        <ele>55.91934</ele>
        <time>2023-05-30T09:17:29.000Z</time>
      </trkpt>
      <trkpt lat="46.20328" lon="-1.39558">
        <ele>55.92231</ele>
        <time>2023-05-30T09:17:30.000Z</time>
      </trkpt>
      <trkpt lat="46.20327" lon="-1.39552">
        <ele>55.91775</ele>
        <time>2023-05-30T09:17:31.000Z</time>
      </trkpt>
      <trkpt lat="46.20326" lon="-1.39547">
        <ele>55.9114</ele>
        <time>2023-05-30T09:17:32.000Z</time>
      </trkpt>
      <trkpt lat="46.20325" lon="-1.39542">
        <ele>55.78526</ele>
        <time>2023-05-30T09:17:33.000Z</time>
      </trkpt>
      <trkpt lat="46.20325" lon="-1.39537">
        <ele>55.73505</ele>
        <time>2023-05-30T09:17:34.000Z</time>
      </trkpt>
      <trkpt lat="46.20325" lon="-1.39531">
        <ele>55.69396</ele>
        <time>2023-05-30T09:17:35.000Z</time>
      </trkpt>
      <trkpt lat="46.20324" lon="-1.39526">
        <ele>55.66808</ele>
        <time>2023-05-30T09:17:36.000Z</time>
      </trkpt>
      <trkpt lat="46.20324" lon="-1.3952">
        <ele>55.64341</ele>
        <time>2023-05-30T09:17:37.000Z</time>
      </trkpt>
      <trkpt lat="46.20323" lon="-1.39514">
        <ele>55.62512</ele>
        <time>2023-05-30T09:17:38.000Z</time>
      </trkpt>
      <trkpt lat="46.20322" lon="-1.39509">
        <ele>55.59872</ele>
        <time>2023-05-30T09:17:39.000Z</time>
      </trkpt>
      <trkpt lat="46.20322" lon="-1.39503">
        <ele>55.48673</ele>
        <time>2023-05-30T09:17:40.000Z</time>
      </trkpt>
      <trkpt lat="46.20321" lon="-1.39497">
        <ele>55.51455</ele>
        <time>2023-05-30T09:17:41.000Z</time>
      </trkpt>
      <trkpt lat="46.20321" lon="-1.39491">
        <ele>55.46963</ele>
        <time>2023-05-30T09:17:42.000Z</time>
      </trkpt>
      <trkpt lat="46.2032" lon="-1.39485">
        <ele>55.42239</ele>
        <time>2023-05-30T09:17:43.000Z</time>
      </trkpt>
      <trkpt lat="46.2032" lon="-1.3948">
        <ele>55.36835</ele>
        <time>2023-05-30T09:17:44.000Z</time>
      </trkpt>
      <trkpt lat="46.2032" lon="-1.39474">
        <ele>55.49709</ele>
        <time>2023-05-30T09:17:45.000Z</time>
      </trkpt>
      <trkpt lat="46.20319" lon="-1.39469">
        <ele>55.61051</ele>
        <time>2023-05-30T09:17:46.000Z</time>
      </trkpt>
      <trkpt lat="46.20319" lon="-1.39463">
        <ele>55.72206</ele>
        <time>2023-05-30T09:17:47.000Z</time>
      </trkpt>
      <trkpt lat="46.20318" lon="-1.39458">
        <ele>55.70543</ele>
        <time>2023-05-30T09:17:48.000Z</time>
      </trkpt>
      <trkpt lat="46.20318" lon="-1.39454">
        <ele>55.69472</ele>
        <time>2023-05-30T09:17:49.000Z</time>
      </trkpt>
      <trkpt lat="46.20318" lon="-1.39449">
        <ele>55.66553</ele>
        <time>2023-05-30T09:17:50.000Z</time>
      </trkpt>
      <trkpt lat="46.20318" lon="-1.39445">
        <ele>55.64368</ele>
        <time>2023-05-30T09:17:51.000Z</time>
      </trkpt>
      <trkpt lat="46.20317" lon="-1.39441">
        <ele>55.6502</ele>
        <time>2023-05-30T09:17:52.000Z</time>
      </trkpt>
      <trkpt lat="46.20315" lon="-1.39438">
        <ele>55.78465</ele>
        <time>2023-05-30T09:17:53.000Z</time>
      </trkpt>
      <trkpt lat="46.20312" lon="-1.39436">
        <ele>55.77127</ele>
        <time>2023-05-30T09:17:54.000Z</time>
      </trkpt>
      <trkpt lat="46.20309" lon="-1.39436">
        <ele>55.7808</ele>
        <time>2023-05-30T09:17:55.000Z</time>
      </trkpt>
      <trkpt lat="46.20306" lon="-1.39437">
        <ele>55.77173</ele>
        <time>2023-05-30T09:17:56.000Z</time>
      </trkpt>
      <trkpt lat="46.20303" lon="-1.39438">
        <ele>55.75996</ele>
        <time>2023-05-30T09:17:57.000Z</time>
      </trkpt>
      <trkpt lat="46.203" lon="-1.39438">
        <ele>55.74932</ele>
        <time>2023-05-30T09:17:58.000Z</time>
      </trkpt>
      <trkpt lat="46.20296" lon="-1.39439">
        <ele>55.79114</ele>
        <time>2023-05-30T09:17:59.000Z</time>
      </trkpt>
      <trkpt lat="46.20293" lon="-1.3944">
        <ele>55.94319</ele>
        <time>2023-05-30T09:18:00.000Z</time>
      </trkpt>
      <trkpt lat="46.2029" lon="-1.3944">
        <ele>55.97418</ele>
        <time>2023-05-30T09:18:01.000Z</time>
      </trkpt>
      <trkpt lat="46.20287" lon="-1.3944">
        <ele>55.99751</ele>
        <time>2023-05-30T09:18:02.000Z</time>
      </trkpt>
      <trkpt lat="46.20285" lon="-1.39439">
        <ele>56.04308</ele>
        <time>2023-05-30T09:18:03.000Z</time>
      </trkpt>
      <trkpt lat="46.20283" lon="-1.39436">
        <ele>56.09496</ele>
        <time>2023-05-30T09:18:04.000Z</time>
      </trkpt>
      <trkpt lat="46.20283" lon="-1.39431">
        <ele>56.11416</ele>
        <time>2023-05-30T09:18:05.000Z</time>
      </trkpt>
      <trkpt lat="46.20284" lon="-1.39427">
        <ele>56.19233</ele>
        <time>2023-05-30T09:18:06.000Z</time>
      </trkpt>
      <trkpt lat="46.20285" lon="-1.39422">
        <ele>56.25331</ele>
        <time>2023-05-30T09:18:07.000Z</time>
      </trkpt>
      <trkpt lat="46.20286" lon="-1.39418">
        <ele>56.3595</ele>
        <time>2023-05-30T09:18:08.000Z</time>
      </trkpt>
      <trkpt lat="46.20286" lon="-1.39413">
        <ele>56.49459</ele>
        <time>2023-05-30T09:18:09.000Z</time>
      </trkpt>
      <trkpt lat="46.20287" lon="-1.39407">
        <ele>56.64668</ele>
        <time>2023-05-30T09:18:10.000Z</time>
      </trkpt>
      <trkpt lat="46.20287" lon="-1.39402">
        <ele>56.8334</ele>
        <time>2023-05-30T09:18:11.000Z</time>
      </trkpt>
      <trkpt lat="46.20288" lon="-1.39397">
        <ele>56.99223</ele>
        <time>2023-05-30T09:18:12.000Z</time>
      </trkpt>
      <trkpt lat="46.20288" lon="-1.39392">
        <ele>57.14007</ele>
        <time>2023-05-30T09:18:13.000Z</time>
      </trkpt>
      <trkpt lat="46.20288" lon="-1.39387">
        <ele>57.34335</ele>
        <time>2023-05-30T09:18:14.000Z</time>
      </trkpt>
      <trkpt lat="46.20289" lon="-1.39382">
        <ele>57.49955</ele>
        <time>2023-05-30T09:18:15.000Z</time>
      </trkpt>
      <trkpt lat="46.20289" lon="-1.39377">
        <ele>57.65739</ele>
        <time>2023-05-30T09:18:16.000Z</time>
      </trkpt>
      <trkpt lat="46.20289" lon="-1.39373">
        <ele>57.79704</ele>
        <time>2023-05-30T09:18:17.000Z</time>
      </trkpt>
      <trkpt lat="46.2029" lon="-1.39369">
        <ele>57.94314</ele>
        <time>2023-05-30T09:18:18.000Z</time>
      </trkpt>
      <trkpt lat="46.20291" lon="-1.39365">
        <ele>58.05032</ele>
        <time>2023-05-30T09:18:19.000Z</time>
      </trkpt>
      <trkpt lat="46.20292" lon="-1.39361">
        <ele>58.12983</ele>
        <time>2023-05-30T09:18:20.000Z</time>
      </trkpt>
      <trkpt lat="46.20293" lon="-1.39357">
        <ele>58.24908</ele>
        <time>2023-05-30T09:18:21.000Z</time>
      </trkpt>
      <trkpt lat="46.20294" lon="-1.39354">
        <ele>58.35112</ele>
        <time>2023-05-30T09:18:22.000Z</time>
      </trkpt>
      <trkpt lat="46.20294" lon="-1.39351">
        <ele>58.35091</ele>
        <time>2023-05-30T09:18:23.000Z</time>
      </trkpt>
      <trkpt lat="46.20294" lon="-1.39347">
        <ele>58.37384</ele>
        <time>2023-05-30T09:18:24.000Z</time>
      </trkpt>
      <trkpt lat="46.20295" lon="-1.39344">
        <ele>58.44138</ele>
        <time>2023-05-30T09:18:25.000Z</time>
      </trkpt>
      <trkpt lat="46.20295" lon="-1.3934">
        <ele>58.45565</ele>
        <time>2023-05-30T09:18:26.000Z</time>
      </trkpt>
      <trkpt lat="46.20295" lon="-1.39336">
        <ele>58.49353</ele>
        <time>2023-05-30T09:18:27.000Z</time>
      </trkpt>
      <trkpt lat="46.20295" lon="-1.39332">
        <ele>58.47637</ele>
        <time>2023-05-30T09:18:28.000Z</time>
      </trkpt>
      <trkpt lat="46.20296" lon="-1.39327">
        <ele>58.39785</ele>
        <time>2023-05-30T09:18:29.000Z</time>
      </trkpt>
      <trkpt lat="46.20296" lon="-1.39322">
        <ele>58.2906</ele>
        <time>2023-05-30T09:18:30.000Z</time>
      </trkpt>
      <trkpt lat="46.20296" lon="-1.39318">
        <ele>58.20325</ele>
        <time>2023-05-30T09:18:31.000Z</time>
      </trkpt>
      <trkpt lat="46.20297" lon="-1.39313">
        <ele>58.07842</ele>
        <time>2023-05-30T09:18:32.000Z</time>
      </trkpt>
      <trkpt lat="46.20297" lon="-1.39309">
        <ele>58.01326</ele>
        <time>2023-05-30T09:18:33.000Z</time>
      </trkpt>
      <trkpt lat="46.20297" lon="-1.39304">
        <ele>57.95842</ele>
        <time>2023-05-30T09:18:34.000Z</time>
      </trkpt>
      <trkpt lat="46.20298" lon="-1.39299">
        <ele>57.91166</ele>
        <time>2023-05-30T09:18:35.000Z</time>
      </trkpt>
      <trkpt lat="46.20298" lon="-1.39295">
        <ele>57.86957</ele>
        <time>2023-05-30T09:18:36.000Z</time>
      </trkpt>
      <trkpt lat="46.20299" lon="-1.39291">
        <ele>57.83837</ele>
        <time>2023-05-30T09:18:37.000Z</time>
      </trkpt>
      <trkpt lat="46.20299" lon="-1.39287">
        <ele>57.82544</ele>
        <time>2023-05-30T09:18:38.000Z</time>
      </trkpt>
      <trkpt lat="46.20299" lon="-1.39283">
        <ele>57.78609</ele>
        <time>2023-05-30T09:18:39.000Z</time>
      </trkpt>
      <trkpt lat="46.203" lon="-1.39279">
        <ele>57.7519</ele>
        <time>2023-05-30T09:18:40.000Z</time>
      </trkpt>
      <trkpt lat="46.203" lon="-1.39275">
        <ele>57.63768</ele>
        <time>2023-05-30T09:18:41.000Z</time>
      </trkpt>
      <trkpt lat="46.20301" lon="-1.3927">
        <ele>57.55019</ele>
        <time>2023-05-30T09:18:42.000Z</time>
      </trkpt>
      <trkpt lat="46.20301" lon="-1.39265">
        <ele>57.54576</ele>
        <time>2023-05-30T09:18:43.000Z</time>
      </trkpt>
      <trkpt lat="46.20302" lon="-1.39261">
        <ele>57.5005</ele>
        <time>2023-05-30T09:18:44.000Z</time>
      </trkpt>
      <trkpt lat="46.20302" lon="-1.39257">
        <ele>57.42673</ele>
        <time>2023-05-30T09:18:45.000Z</time>
      </trkpt>
      <trkpt lat="46.20303" lon="-1.39254">
        <ele>57.37218</ele>
        <time>2023-05-30T09:18:46.000Z</time>
      </trkpt>
      <trkpt lat="46.20303" lon="-1.3925">
        <ele>57.30814</ele>
        <time>2023-05-30T09:18:47.000Z</time>
      </trkpt>
      <trkpt lat="46.20303" lon="-1.39247">
        <ele>57.24986</ele>
        <time>2023-05-30T09:18:48.000Z</time>
      </trkpt>
      <trkpt lat="46.20304" lon="-1.39242">
        <ele>57.25254</ele>
        <time>2023-05-30T09:18:50.000Z</time>
      </trkpt>
      <trkpt lat="46.20304" lon="-1.39238">
        <ele>57.24443</ele>
        <time>2023-05-30T09:18:52.000Z</time>
      </trkpt>
      <trkpt lat="46.20302" lon="-1.39235">
        <ele>57.18975</ele>
        <time>2023-05-30T09:19:40.000Z</time>
      </trkpt>
      <trkpt lat="46.20303" lon="-1.39232">
        <ele>57.2292</ele>
        <time>2023-05-30T09:19:41.000Z</time>
      </trkpt>
      <trkpt lat="46.20304" lon="-1.3923">
        <ele>57.20499</ele>
        <time>2023-05-30T09:19:42.000Z</time>
      </trkpt>
      <trkpt lat="46.20306" lon="-1.39229">
        <ele>57.17714</ele>
        <time>2023-05-30T09:19:43.000Z</time>
      </trkpt>
      <trkpt lat="46.20309" lon="-1.39229">
        <ele>57.1365</ele>
        <time>2023-05-30T09:19:44.000Z</time>
      </trkpt>
      <trkpt lat="46.20311" lon="-1.39229">
        <ele>57.09017</ele>
        <time>2023-05-30T09:19:45.000Z</time>
      </trkpt>
      <trkpt lat="46.20314" lon="-1.39229">
        <ele>57.05048</ele>
        <time>2023-05-30T09:19:46.000Z</time>
      </trkpt>
      <trkpt lat="46.20316" lon="-1.39229">
        <ele>56.97496</ele>
        <time>2023-05-30T09:19:47.000Z</time>
      </trkpt>
      <trkpt lat="46.20319" lon="-1.39229">
        <ele>56.91046</ele>
        <time>2023-05-30T09:19:48.000Z</time>
      </trkpt>
      <trkpt lat="46.20322" lon="-1.39229">
        <ele>56.84947</ele>
        <time>2023-05-30T09:19:49.000Z</time>
      </trkpt>
      <trkpt lat="46.20324" lon="-1.39229">
        <ele>56.82782</ele>
        <time>2023-05-30T09:19:50.000Z</time>
      </trkpt>
      <trkpt lat="46.20326" lon="-1.39229">
        <ele>56.82353</ele>
        <time>2023-05-30T09:19:51.000Z</time>
      </trkpt>
      <trkpt lat="46.20328" lon="-1.3923">
        <ele>56.84072</ele>
        <time>2023-05-30T09:19:52.000Z</time>
      </trkpt>
      <trkpt lat="46.2033" lon="-1.3923">
        <ele>56.86462</ele>
        <time>2023-05-30T09:19:53.000Z</time>
      </trkpt>
      <trkpt lat="46.20333" lon="-1.3923">
        <ele>56.87864</ele>
        <time>2023-05-30T09:19:54.000Z</time>
      </trkpt>
      <trkpt lat="46.20335" lon="-1.3923">
        <ele>56.90012</ele>
        <time>2023-05-30T09:19:55.000Z</time>
      </trkpt>
      <trkpt lat="46.20337" lon="-1.3923">
        <ele>56.92358</ele>
        <time>2023-05-30T09:19:56.000Z</time>
      </trkpt>
      <trkpt lat="46.20339" lon="-1.3923">
        <ele>56.93959</ele>
        <time>2023-05-30T09:19:57.000Z</time>
      </trkpt>
      <trkpt lat="46.20342" lon="-1.39228">
        <ele>57.0013</ele>
        <time>2023-05-30T09:19:58.000Z</time>
      </trkpt>
      <trkpt lat="46.20344" lon="-1.39224">
        <ele>57.10226</ele>
        <time>2023-05-30T09:19:59.000Z</time>
      </trkpt>
      <trkpt lat="46.20345" lon="-1.39218">
        <ele>57.1661</ele>
        <time>2023-05-30T09:20:00.000Z</time>
      </trkpt>
      <trkpt lat="46.20345" lon="-1.39212">
        <ele>57.18829</ele>
        <time>2023-05-30T09:20:01.000Z</time>
      </trkpt>
      <trkpt lat="46.20345" lon="-1.39206">
        <ele>57.21852</ele>
        <time>2023-05-30T09:20:02.000Z</time>
      </trkpt>
      <trkpt lat="46.20344" lon="-1.392">
        <ele>57.22458</ele>
        <time>2023-05-30T09:20:03.000Z</time>
      </trkpt>
      <trkpt lat="46.20345" lon="-1.39193">
        <ele>57.22236</ele>
        <time>2023-05-30T09:20:04.000Z</time>
      </trkpt>
      <trkpt lat="46.20345" lon="-1.39187">
        <ele>57.22784</ele>
        <time>2023-05-30T09:20:05.000Z</time>
      </trkpt>
      <trkpt lat="46.20345" lon="-1.39181">
        <ele>57.21521</ele>
        <time>2023-05-30T09:20:06.000Z</time>
      </trkpt>
      <trkpt lat="46.20346" lon="-1.39174">
        <ele>57.22683</ele>
        <time>2023-05-30T09:20:07.000Z</time>
      </trkpt>
      <trkpt lat="46.20347" lon="-1.39168">
        <ele>57.23555</ele>
        <time>2023-05-30T09:20:08.000Z</time>
      </trkpt>
      <trkpt lat="46.20347" lon="-1.39161">
        <ele>57.24713</ele>
        <time>2023-05-30T09:20:09.000Z</time>
      </trkpt>
      <trkpt lat="46.20348" lon="-1.39155">
        <ele>57.22855</ele>
        <time>2023-05-30T09:20:10.000Z</time>
      </trkpt>
      <trkpt lat="46.20349" lon="-1.39148">
        <ele>57.18458</ele>
        <time>2023-05-30T09:20:11.000Z</time>
      </trkpt>
      <trkpt lat="46.2035" lon="-1.39143">
        <ele>57.11826</ele>
        <time>2023-05-30T09:20:12.000Z</time>
      </trkpt>
      <trkpt lat="46.20351" lon="-1.39136">
        <ele>57.0546</ele>
        <time>2023-05-30T09:20:13.000Z</time>
      </trkpt>
      <trkpt lat="46.20351" lon="-1.39129">
        <ele>57.09404</ele>
        <time>2023-05-30T09:20:14.000Z</time>
      </trkpt>
      <trkpt lat="46.20352" lon="-1.39123">
        <ele>57.09032</ele>
        <time>2023-05-30T09:20:15.000Z</time>
      </trkpt>
      <trkpt lat="46.20352" lon="-1.39117">
        <ele>57.09325</ele>
        <time>2023-05-30T09:20:16.000Z</time>
      </trkpt>
      <trkpt lat="46.20354" lon="-1.39111">
        <ele>57.11449</ele>
        <time>2023-05-30T09:20:17.000Z</time>
      </trkpt>
      <trkpt lat="46.20354" lon="-1.39105">
        <ele>57.07489</ele>
        <time>2023-05-30T09:20:18.000Z</time>
      </trkpt>
      <trkpt lat="46.20355" lon="-1.39099">
        <ele>57.04035</ele>
        <time>2023-05-30T09:20:19.000Z</time>
      </trkpt>
      <trkpt lat="46.20356" lon="-1.39093">
        <ele>57.05788</ele>
        <time>2023-05-30T09:20:20.000Z</time>
      </trkpt>
      <trkpt lat="46.20357" lon="-1.39087">
        <ele>57.08555</ele>
        <time>2023-05-30T09:20:21.000Z</time>
      </trkpt>
      <trkpt lat="46.20358" lon="-1.39081">
        <ele>57.11774</ele>
        <time>2023-05-30T09:20:22.000Z</time>
      </trkpt>
      <trkpt lat="46.20359" lon="-1.39075">
        <ele>57.16433</ele>
        <time>2023-05-30T09:20:23.000Z</time>
      </trkpt>
      <trkpt lat="46.20359" lon="-1.39069">
        <ele>57.20893</ele>
        <time>2023-05-30T09:20:24.000Z</time>
      </trkpt>
      <trkpt lat="46.2036" lon="-1.39063">
        <ele>57.23636</ele>
        <time>2023-05-30T09:20:25.000Z</time>
      </trkpt>
      <trkpt lat="46.2036" lon="-1.39057">
        <ele>57.29263</ele>
        <time>2023-05-30T09:20:26.000Z</time>
      </trkpt>
      <trkpt lat="46.20361" lon="-1.39051">
        <ele>57.31199</ele>
        <time>2023-05-30T09:20:27.000Z</time>
      </trkpt>
      <trkpt lat="46.20362" lon="-1.39046">
        <ele>57.34629</ele>
        <time>2023-05-30T09:20:28.000Z</time>
      </trkpt>
      <trkpt lat="46.20363" lon="-1.39041">
        <ele>57.38195</ele>
        <time>2023-05-30T09:20:29.000Z</time>
      </trkpt>
      <trkpt lat="46.20364" lon="-1.39035">
        <ele>57.44755</ele>
        <time>2023-05-30T09:20:30.000Z</time>
      </trkpt>
      <trkpt lat="46.20364" lon="-1.39029">
        <ele>57.51281</ele>
        <time>2023-05-30T09:20:31.000Z</time>
      </trkpt>
      <trkpt lat="46.20364" lon="-1.39023">
        <ele>57.58817</ele>
        <time>2023-05-30T09:20:32.000Z</time>
      </trkpt>
      <trkpt lat="46.20364" lon="-1.39017">
        <ele>57.65667</ele>
        <time>2023-05-30T09:20:33.000Z</time>
      </trkpt>
      <trkpt lat="46.20365" lon="-1.3901">
        <ele>57.66213</ele>
        <time>2023-05-30T09:20:34.000Z</time>
      </trkpt>
      <trkpt lat="46.20365" lon="-1.39004">
        <ele>57.67463</ele>
        <time>2023-05-30T09:20:35.000Z</time>
      </trkpt>
      <trkpt lat="46.20366" lon="-1.38997">
        <ele>57.67934</ele>
        <time>2023-05-30T09:20:36.000Z</time>
      </trkpt>
      <trkpt lat="46.20367" lon="-1.38991">
        <ele>57.66296</ele>
        <time>2023-05-30T09:20:37.000Z</time>
      </trkpt>
      <trkpt lat="46.20368" lon="-1.38985">
        <ele>57.65094</ele>
        <time>2023-05-30T09:20:38.000Z</time>
      </trkpt>
      <trkpt lat="46.20369" lon="-1.38979">
        <ele>57.62562</ele>
        <time>2023-05-30T09:20:39.000Z</time>
      </trkpt>
      <trkpt lat="46.20371" lon="-1.38973">
        <ele>57.55131</ele>
        <time>2023-05-30T09:20:40.000Z</time>
      </trkpt>
      <trkpt lat="46.20372" lon="-1.38966">
        <ele>57.45326</ele>
        <time>2023-05-30T09:20:41.000Z</time>
      </trkpt>
      <trkpt lat="46.20373" lon="-1.3896">
        <ele>57.33987</ele>
        <time>2023-05-30T09:20:42.000Z</time>
      </trkpt>
      <trkpt lat="46.20374" lon="-1.38954">
        <ele>57.27901</ele>
        <time>2023-05-30T09:20:43.000Z</time>
      </trkpt>
      <trkpt lat="46.20376" lon="-1.38947">
        <ele>57.24945</ele>
        <time>2023-05-30T09:20:44.000Z</time>
      </trkpt>
      <trkpt lat="46.20377" lon="-1.38941">
        <ele>57.23789</ele>
        <time>2023-05-30T09:20:45.000Z</time>
      </trkpt>
      <trkpt lat="46.20378" lon="-1.38935">
        <ele>57.22465</ele>
        <time>2023-05-30T09:20:46.000Z</time>
      </trkpt>
      <trkpt lat="46.20379" lon="-1.38929">
        <ele>57.2365</ele>
        <time>2023-05-30T09:20:47.000Z</time>
      </trkpt>
      <trkpt lat="46.2038" lon="-1.38922">
        <ele>57.23967</ele>
        <time>2023-05-30T09:20:48.000Z</time>
      </trkpt>
      <trkpt lat="46.20382" lon="-1.38916">
        <ele>57.24885</ele>
        <time>2023-05-30T09:20:49.000Z</time>
      </trkpt>
      <trkpt lat="46.20383" lon="-1.38911">
        <ele>57.23287</ele>
        <time>2023-05-30T09:20:50.000Z</time>
      </trkpt>
      <trkpt lat="46.20385" lon="-1.38905">
        <ele>57.22796</ele>
        <time>2023-05-30T09:20:51.000Z</time>
      </trkpt>
      <trkpt lat="46.20386" lon="-1.38899">
        <ele>57.20643</ele>
        <time>2023-05-30T09:20:52.000Z</time>
      </trkpt>
      <trkpt lat="46.20387" lon="-1.38894">
        <ele>57.19547</ele>
        <time>2023-05-30T09:20:53.000Z</time>
      </trkpt>
      <trkpt lat="46.20387" lon="-1.38889">
        <ele>57.15758</ele>
        <time>2023-05-30T09:20:54.000Z</time>
      </trkpt>
      <trkpt lat="46.20388" lon="-1.38884">
        <ele>57.10841</ele>
        <time>2023-05-30T09:20:55.000Z</time>
      </trkpt>
      <trkpt lat="46.20388" lon="-1.38879">
        <ele>57.03558</ele>
        <time>2023-05-30T09:20:56.000Z</time>
      </trkpt>
      <trkpt lat="46.20389" lon="-1.38873">
        <ele>56.95531</ele>
        <time>2023-05-30T09:20:57.000Z</time>
      </trkpt>
      <trkpt lat="46.20388" lon="-1.38869">
        <ele>56.87822</ele>
        <time>2023-05-30T09:20:58.000Z</time>
      </trkpt>
      <trkpt lat="46.20386" lon="-1.38864">
        <ele>56.81028</ele>
        <time>2023-05-30T09:20:59.000Z</time>
      </trkpt>
      <trkpt lat="46.20383" lon="-1.38863">
        <ele>56.78093</ele>
        <time>2023-05-30T09:21:00.000Z</time>
      </trkpt>
      <trkpt lat="46.20379" lon="-1.38862">
        <ele>56.78455</ele>
        <time>2023-05-30T09:21:01.000Z</time>
      </trkpt>
      <trkpt lat="46.20375" lon="-1.38862">
        <ele>56.81474</ele>
        <time>2023-05-30T09:21:02.000Z</time>
      </trkpt>
      <trkpt lat="46.20371" lon="-1.38862">
        <ele>56.78953</ele>
        <time>2023-05-30T09:21:03.000Z</time>
      </trkpt>
      <trkpt lat="46.20367" lon="-1.38861">
        <ele>56.76436</ele>
        <time>2023-05-30T09:21:04.000Z</time>
      </trkpt>
      <trkpt lat="46.20363" lon="-1.38861">
        <ele>56.72727</ele>
        <time>2023-05-30T09:21:05.000Z</time>
      </trkpt>
      <trkpt lat="46.2036" lon="-1.38861">
        <ele>56.69928</ele>
        <time>2023-05-30T09:21:06.000Z</time>
      </trkpt>
      <trkpt lat="46.20357" lon="-1.3886">
        <ele>56.66279</ele>
        <time>2023-05-30T09:21:07.000Z</time>
      </trkpt>
      <trkpt lat="46.20354" lon="-1.38859">
        <ele>56.62881</ele>
        <time>2023-05-30T09:21:08.000Z</time>
      </trkpt>
      <trkpt lat="46.20353" lon="-1.38855">
        <ele>56.5807</ele>
        <time>2023-05-30T09:21:09.000Z</time>
      </trkpt>
      <trkpt lat="46.20352" lon="-1.3885">
        <ele>56.57888</ele>
        <time>2023-05-30T09:21:10.000Z</time>
      </trkpt>
      <trkpt lat="46.20352" lon="-1.38845">
        <ele>56.59577</ele>
        <time>2023-05-30T09:21:11.000Z</time>
      </trkpt>
      <trkpt lat="46.20352" lon="-1.38839">
        <ele>56.62583</ele>
        <time>2023-05-30T09:21:12.000Z</time>
      </trkpt>
      <trkpt lat="46.20353" lon="-1.38834">
        <ele>56.65869</ele>
        <time>2023-05-30T09:21:13.000Z</time>
      </trkpt>
      <trkpt lat="46.20353" lon="-1.38829">
        <ele>56.70123</ele>
        <time>2023-05-30T09:21:14.000Z</time>
      </trkpt>
      <trkpt lat="46.20353" lon="-1.38823">
        <ele>56.77171</ele>
        <time>2023-05-30T09:21:15.000Z</time>
      </trkpt>
      <trkpt lat="46.20353" lon="-1.38818">
        <ele>56.92501</ele>
        <time>2023-05-30T09:21:16.000Z</time>
      </trkpt>
      <trkpt lat="46.20353" lon="-1.38813">
        <ele>57.0899</ele>
        <time>2023-05-30T09:21:17.000Z</time>
      </trkpt>
      <trkpt lat="46.20353" lon="-1.38807">
        <ele>57.25433</ele>
        <time>2023-05-30T09:21:18.000Z</time>
      </trkpt>
      <trkpt lat="46.20353" lon="-1.38802">
        <ele>57.40413</ele>
        <time>2023-05-30T09:21:19.000Z</time>
      </trkpt>
      <trkpt lat="46.20353" lon="-1.38796">
        <ele>57.55301</ele>
        <time>2023-05-30T09:21:20.000Z</time>
      </trkpt>
      <trkpt lat="46.20354" lon="-1.38791">
        <ele>57.68464</ele>
        <time>2023-05-30T09:21:21.000Z</time>
      </trkpt>
      <trkpt lat="46.20355" lon="-1.38785">
        <ele>57.78933</ele>
        <time>2023-05-30T09:21:22.000Z</time>
      </trkpt>
      <trkpt lat="46.20355" lon="-1.38779">
        <ele>57.89236</ele>
        <time>2023-05-30T09:21:23.000Z</time>
      </trkpt>
      <trkpt lat="46.20356" lon="-1.38773">
        <ele>57.979</ele>
        <time>2023-05-30T09:21:24.000Z</time>
      </trkpt>
      <trkpt lat="46.20356" lon="-1.38767">
        <ele>58.06952</ele>
        <time>2023-05-30T09:21:25.000Z</time>
      </trkpt>
      <trkpt lat="46.20356" lon="-1.38761">
        <ele>58.11631</ele>
        <time>2023-05-30T09:21:26.000Z</time>
      </trkpt>
      <trkpt lat="46.20356" lon="-1.38756">
        <ele>58.13575</ele>
        <time>2023-05-30T09:21:27.000Z</time>
      </trkpt>
      <trkpt lat="46.20357" lon="-1.3875">
        <ele>58.16188</ele>
        <time>2023-05-30T09:21:28.000Z</time>
      </trkpt>
      <trkpt lat="46.20357" lon="-1.38743">
        <ele>58.18389</ele>
        <time>2023-05-30T09:21:29.000Z</time>
      </trkpt>
      <trkpt lat="46.20358" lon="-1.38737">
        <ele>58.193</ele>
        <time>2023-05-30T09:21:30.000Z</time>
      </trkpt>
      <trkpt lat="46.20358" lon="-1.38731">
        <ele>58.1725</ele>
        <time>2023-05-30T09:21:31.000Z</time>
      </trkpt>
      <trkpt lat="46.20358" lon="-1.38725">
        <ele>58.16645</ele>
        <time>2023-05-30T09:21:32.000Z</time>
      </trkpt>
      <trkpt lat="46.20358" lon="-1.38718">
        <ele>58.17149</ele>
        <time>2023-05-30T09:21:33.000Z</time>
      </trkpt>
      <trkpt lat="46.20358" lon="-1.38712">
        <ele>58.18959</ele>
        <time>2023-05-30T09:21:34.000Z</time>
      </trkpt>
      <trkpt lat="46.20358" lon="-1.38706">
        <ele>58.19663</ele>
        <time>2023-05-30T09:21:35.000Z</time>
      </trkpt>
      <trkpt lat="46.20358" lon="-1.387">
        <ele>58.14746</ele>
        <time>2023-05-30T09:21:36.000Z</time>
      </trkpt>
      <trkpt lat="46.20358" lon="-1.38694">
        <ele>58.1209</ele>
        <time>2023-05-30T09:21:37.000Z</time>
      </trkpt>
      <trkpt lat="46.20359" lon="-1.38688">
        <ele>58.07392</ele>
        <time>2023-05-30T09:21:38.000Z</time>
      </trkpt>
      <trkpt lat="46.20359" lon="-1.38683">
        <ele>58.01868</ele>
        <time>2023-05-30T09:21:39.000Z</time>
      </trkpt>
      <trkpt lat="46.2036" lon="-1.38677">
        <ele>57.93638</ele>
        <time>2023-05-30T09:21:40.000Z</time>
      </trkpt>
      <trkpt lat="46.2036" lon="-1.38672">
        <ele>57.8746</ele>
        <time>2023-05-30T09:21:41.000Z</time>
      </trkpt>
      <trkpt lat="46.2036" lon="-1.38667">
        <ele>57.81892</ele>
        <time>2023-05-30T09:21:42.000Z</time>
      </trkpt>
      <trkpt lat="46.20361" lon="-1.38662">
        <ele>57.765</ele>
        <time>2023-05-30T09:21:43.000Z</time>
      </trkpt>
      <trkpt lat="46.20364" lon="-1.38658">
        <ele>57.66458</ele>
        <time>2023-05-30T09:21:44.000Z</time>
      </trkpt>
      <trkpt lat="46.20367" lon="-1.38657">
        <ele>57.56102</ele>
        <time>2023-05-30T09:21:45.000Z</time>
      </trkpt>
      <trkpt lat="46.20371" lon="-1.38657">
        <ele>57.47361</ele>
        <time>2023-05-30T09:21:46.000Z</time>
      </trkpt>
      <trkpt lat="46.20374" lon="-1.38657">
        <ele>57.42433</ele>
        <time>2023-05-30T09:21:47.000Z</time>
      </trkpt>
      <trkpt lat="46.20377" lon="-1.38658">
        <ele>57.36997</ele>
        <time>2023-05-30T09:21:48.000Z</time>
      </trkpt>
      <trkpt lat="46.20381" lon="-1.38659">
        <ele>57.30424</ele>
        <time>2023-05-30T09:21:49.000Z</time>
      </trkpt>
      <trkpt lat="46.20384" lon="-1.3866">
        <ele>57.22501</ele>
        <time>2023-05-30T09:21:50.000Z</time>
      </trkpt>
      <trkpt lat="46.20387" lon="-1.38661">
        <ele>57.164</ele>
        <time>2023-05-30T09:21:51.000Z</time>
      </trkpt>
      <trkpt lat="46.2039" lon="-1.38661">
        <ele>57.06767</ele>
        <time>2023-05-30T09:21:52.000Z</time>
      </trkpt>
      <trkpt lat="46.20393" lon="-1.38662">
        <ele>57.00575</ele>
        <time>2023-05-30T09:21:53.000Z</time>
      </trkpt>
      <trkpt lat="46.20397" lon="-1.38663">
        <ele>56.9036</ele>
        <time>2023-05-30T09:21:54.000Z</time>
      </trkpt>
      <trkpt lat="46.204" lon="-1.38664">
        <ele>56.8058</ele>
        <time>2023-05-30T09:21:55.000Z</time>
      </trkpt>
      <trkpt lat="46.20403" lon="-1.38665">
        <ele>56.71259</ele>
        <time>2023-05-30T09:21:56.000Z</time>
      </trkpt>
      <trkpt lat="46.20406" lon="-1.38666">
        <ele>56.59341</ele>
        <time>2023-05-30T09:21:57.000Z</time>
      </trkpt>
      <trkpt lat="46.20409" lon="-1.38666">
        <ele>56.49858</ele>
        <time>2023-05-30T09:21:58.000Z</time>
      </trkpt>
      <trkpt lat="46.20411" lon="-1.38666">
        <ele>56.42158</ele>
        <time>2023-05-30T09:21:59.000Z</time>
      </trkpt>
      <trkpt lat="46.20413" lon="-1.38664">
        <ele>56.36975</ele>
        <time>2023-05-30T09:22:00.000Z</time>
      </trkpt>
      <trkpt lat="46.20414" lon="-1.38661">
        <ele>56.31384</ele>
        <time>2023-05-30T09:22:01.000Z</time>
      </trkpt>
      <trkpt lat="46.20415" lon="-1.38656">
        <ele>56.2583</ele>
        <time>2023-05-30T09:22:02.000Z</time>
      </trkpt>
      <trkpt lat="46.20415" lon="-1.38651">
        <ele>56.17995</ele>
        <time>2023-05-30T09:22:03.000Z</time>
      </trkpt>
      <trkpt lat="46.20415" lon="-1.38645">
        <ele>56.14414</ele>
        <time>2023-05-30T09:22:04.000Z</time>
      </trkpt>
      <trkpt lat="46.20415" lon="-1.3864">
        <ele>56.12782</ele>
        <time>2023-05-30T09:22:05.000Z</time>
      </trkpt>
      <trkpt lat="46.20416" lon="-1.38634">
        <ele>56.13774</ele>
        <time>2023-05-30T09:22:06.000Z</time>
      </trkpt>
      <trkpt lat="46.20417" lon="-1.38629">
        <ele>56.13114</ele>
        <time>2023-05-30T09:22:07.000Z</time>
      </trkpt>
      <trkpt lat="46.20417" lon="-1.38623">
        <ele>56.18493</ele>
        <time>2023-05-30T09:22:08.000Z</time>
      </trkpt>
      <trkpt lat="46.20418" lon="-1.38618">
        <ele>56.25454</ele>
        <time>2023-05-30T09:22:09.000Z</time>
      </trkpt>
      <trkpt lat="46.20419" lon="-1.38612">
        <ele>56.34166</ele>
        <time>2023-05-30T09:22:10.000Z</time>
      </trkpt>
      <trkpt lat="46.20419" lon="-1.38606">
        <ele>56.45383</ele>
        <time>2023-05-30T09:22:11.000Z</time>
      </trkpt>
      <trkpt lat="46.2042" lon="-1.38601">
        <ele>56.59248</ele>
        <time>2023-05-30T09:22:12.000Z</time>
      </trkpt>
      <trkpt lat="46.2042" lon="-1.38595">
        <ele>56.66177</ele>
        <time>2023-05-30T09:22:13.000Z</time>
      </trkpt>
      <trkpt lat="46.20421" lon="-1.3859">
        <ele>56.76223</ele>
        <time>2023-05-30T09:22:14.000Z</time>
      </trkpt>
      <trkpt lat="46.20421" lon="-1.38584">
        <ele>56.85321</ele>
        <time>2023-05-30T09:22:15.000Z</time>
      </trkpt>
      <trkpt lat="46.20422" lon="-1.38578">
        <ele>56.93363</ele>
        <time>2023-05-30T09:22:16.000Z</time>
      </trkpt>
      <trkpt lat="46.20423" lon="-1.38573">
        <ele>57.03202</ele>
        <time>2023-05-30T09:22:17.000Z</time>
      </trkpt>
      <trkpt lat="46.20423" lon="-1.38567">
        <ele>57.08417</ele>
        <time>2023-05-30T09:22:18.000Z</time>
      </trkpt>
      <trkpt lat="46.20424" lon="-1.38562">
        <ele>57.12031</ele>
        <time>2023-05-30T09:22:19.000Z</time>
      </trkpt>
      <trkpt lat="46.20424" lon="-1.38556">
        <ele>57.13234</ele>
        <time>2023-05-30T09:22:20.000Z</time>
      </trkpt>
      <trkpt lat="46.20425" lon="-1.38551">
        <ele>57.20724</ele>
        <time>2023-05-30T09:22:21.000Z</time>
      </trkpt>
      <trkpt lat="46.20426" lon="-1.38546">
        <ele>57.30161</ele>
        <time>2023-05-30T09:22:22.000Z</time>
      </trkpt>
      <trkpt lat="46.20426" lon="-1.3854">
        <ele>57.42216</ele>
        <time>2023-05-30T09:22:23.000Z</time>
      </trkpt>
      <trkpt lat="46.20427" lon="-1.38535">
        <ele>57.52794</ele>
        <time>2023-05-30T09:22:24.000Z</time>
      </trkpt>
      <trkpt lat="46.20428" lon="-1.3853">
        <ele>57.64284</ele>
        <time>2023-05-30T09:22:25.000Z</time>
      </trkpt>
      <trkpt lat="46.20428" lon="-1.38524">
        <ele>57.7238</ele>
        <time>2023-05-30T09:22:26.000Z</time>
      </trkpt>
      <trkpt lat="46.20429" lon="-1.38518">
        <ele>57.80592</ele>
        <time>2023-05-30T09:22:27.000Z</time>
      </trkpt>
      <trkpt lat="46.20429" lon="-1.38512">
        <ele>57.80801</ele>
        <time>2023-05-30T09:22:28.000Z</time>
      </trkpt>
      <trkpt lat="46.2043" lon="-1.38507">
        <ele>57.79253</ele>
        <time>2023-05-30T09:22:29.000Z</time>
      </trkpt>
      <trkpt lat="46.20431" lon="-1.38501">
        <ele>57.74327</ele>
        <time>2023-05-30T09:22:30.000Z</time>
      </trkpt>
      <trkpt lat="46.20431" lon="-1.38495">
        <ele>57.65946</ele>
        <time>2023-05-30T09:22:31.000Z</time>
      </trkpt>
      <trkpt lat="46.20432" lon="-1.38489">
        <ele>57.55121</ele>
        <time>2023-05-30T09:22:32.000Z</time>
      </trkpt>
      <trkpt lat="46.20433" lon="-1.38483">
        <ele>57.46616</ele>
        <time>2023-05-30T09:22:33.000Z</time>
      </trkpt>
      <trkpt lat="46.20434" lon="-1.38477">
        <ele>57.37769</ele>
        <time>2023-05-30T09:22:34.000Z</time>
      </trkpt>
      <trkpt lat="46.20435" lon="-1.38472">
        <ele>57.2902</ele>
        <time>2023-05-30T09:22:35.000Z</time>
      </trkpt>
      <trkpt lat="46.20436" lon="-1.38466">
        <ele>57.21237</ele>
        <time>2023-05-30T09:22:36.000Z</time>
      </trkpt>
      <trkpt lat="46.20437" lon="-1.3846">
        <ele>57.11654</ele>
        <time>2023-05-30T09:22:37.000Z</time>
      </trkpt>
      <trkpt lat="46.20438" lon="-1.38454">
        <ele>57.0034</ele>
        <time>2023-05-30T09:22:38.000Z</time>
      </trkpt>
      <trkpt lat="46.20439" lon="-1.38448">
        <ele>56.92333</ele>
        <time>2023-05-30T09:22:39.000Z</time>
      </trkpt>
      <trkpt lat="46.2044" lon="-1.38441">
        <ele>56.88494</ele>
        <time>2023-05-30T09:22:40.000Z</time>
      </trkpt>
      <trkpt lat="46.20441" lon="-1.38435">
        <ele>56.76208</ele>
        <time>2023-05-30T09:22:41.000Z</time>
      </trkpt>
      <trkpt lat="46.20442" lon="-1.3843">
        <ele>56.59644</ele>
        <time>2023-05-30T09:22:42.000Z</time>
      </trkpt>
      <trkpt lat="46.20443" lon="-1.38424">
        <ele>56.44033</ele>
        <time>2023-05-30T09:22:43.000Z</time>
      </trkpt>
      <trkpt lat="46.20444" lon="-1.38418">
        <ele>56.35762</ele>
        <time>2023-05-30T09:22:44.000Z</time>
      </trkpt>
      <trkpt lat="46.20445" lon="-1.38412">
        <ele>56.2513</ele>
        <time>2023-05-30T09:22:45.000Z</time>
      </trkpt>
      <trkpt lat="46.20445" lon="-1.38407">
        <ele>56.1345</ele>
        <time>2023-05-30T09:22:46.000Z</time>
      </trkpt>
      <trkpt lat="46.20447" lon="-1.38401">
        <ele>56.05708</ele>
        <time>2023-05-30T09:22:47.000Z</time>
      </trkpt>
      <trkpt lat="46.20448" lon="-1.38395">
        <ele>55.99754</ele>
        <time>2023-05-30T09:22:48.000Z</time>
      </trkpt>
      <trkpt lat="46.20449" lon="-1.3839">
        <ele>55.94855</ele>
        <time>2023-05-30T09:22:49.000Z</time>
      </trkpt>
      <trkpt lat="46.2045" lon="-1.38384">
        <ele>55.88704</ele>
        <time>2023-05-30T09:22:50.000Z</time>
      </trkpt>
      <trkpt lat="46.20451" lon="-1.38377">
        <ele>55.82632</ele>
        <time>2023-05-30T09:22:51.000Z</time>
      </trkpt>
      <trkpt lat="46.20451" lon="-1.38372">
        <ele>55.7553</ele>
        <time>2023-05-30T09:22:52.000Z</time>
      </trkpt>
      <trkpt lat="46.20452" lon="-1.38366">
        <ele>55.69375</ele>
        <time>2023-05-30T09:22:53.000Z</time>
      </trkpt>
      <trkpt lat="46.20454" lon="-1.3836">
        <ele>55.68336</ele>
        <time>2023-05-30T09:22:54.000Z</time>
      </trkpt>
      <trkpt lat="46.20455" lon="-1.38355">
        <ele>55.68523</ele>
        <time>2023-05-30T09:22:55.000Z</time>
      </trkpt>
      <trkpt lat="46.20456" lon="-1.3835">
        <ele>55.69632</ele>
        <time>2023-05-30T09:22:56.000Z</time>
      </trkpt>
      <trkpt lat="46.20457" lon="-1.38345">
        <ele>55.70514</ele>
        <time>2023-05-30T09:22:57.000Z</time>
      </trkpt>
      <trkpt lat="46.20458" lon="-1.38339">
        <ele>55.75862</ele>
        <time>2023-05-30T09:22:58.000Z</time>
      </trkpt>
      <trkpt lat="46.20459" lon="-1.38333">
        <ele>55.78807</ele>
        <time>2023-05-30T09:22:59.000Z</time>
      </trkpt>
      <trkpt lat="46.2046" lon="-1.38328">
        <ele>55.80718</ele>
        <time>2023-05-30T09:23:00.000Z</time>
      </trkpt>
      <trkpt lat="46.20461" lon="-1.38322">
        <ele>55.83382</ele>
        <time>2023-05-30T09:23:01.000Z</time>
      </trkpt>
      <trkpt lat="46.20463" lon="-1.38316">
        <ele>55.87201</ele>
        <time>2023-05-30T09:23:02.000Z</time>
      </trkpt>
      <trkpt lat="46.20463" lon="-1.3831">
        <ele>55.89415</ele>
        <time>2023-05-30T09:23:03.000Z</time>
      </trkpt>
      <trkpt lat="46.20464" lon="-1.38305">
        <ele>55.87061</ele>
        <time>2023-05-30T09:23:04.000Z</time>
      </trkpt>
      <trkpt lat="46.20464" lon="-1.38299">
        <ele>55.84121</ele>
        <time>2023-05-30T09:23:05.000Z</time>
      </trkpt>
      <trkpt lat="46.20464" lon="-1.38293">
        <ele>55.83009</ele>
        <time>2023-05-30T09:23:06.000Z</time>
      </trkpt>
      <trkpt lat="46.20463" lon="-1.38288">
        <ele>55.80853</ele>
        <time>2023-05-30T09:23:07.000Z</time>
      </trkpt>
      <trkpt lat="46.20463" lon="-1.38282">
        <ele>55.80547</ele>
        <time>2023-05-30T09:23:08.000Z</time>
      </trkpt>
      <trkpt lat="46.20462" lon="-1.38277">
        <ele>55.81665</ele>
        <time>2023-05-30T09:23:09.000Z</time>
      </trkpt>
      <trkpt lat="46.20461" lon="-1.38272">
        <ele>55.87605</ele>
        <time>2023-05-30T09:23:10.000Z</time>
      </trkpt>
      <trkpt lat="46.20461" lon="-1.38267">
        <ele>55.93596</ele>
        <time>2023-05-30T09:23:11.000Z</time>
      </trkpt>
      <trkpt lat="46.2046" lon="-1.38262">
        <ele>56.01683</ele>
        <time>2023-05-30T09:23:12.000Z</time>
      </trkpt>
      <trkpt lat="46.20459" lon="-1.38257">
        <ele>56.07263</ele>
        <time>2023-05-30T09:23:13.000Z</time>
      </trkpt>
      <trkpt lat="46.20459" lon="-1.38252">
        <ele>56.07154</ele>
        <time>2023-05-30T09:23:14.000Z</time>
      </trkpt>
      <trkpt lat="46.20459" lon="-1.38248">
        <ele>56.00903</ele>
        <time>2023-05-30T09:23:15.000Z</time>
      </trkpt>
      <trkpt lat="46.20458" lon="-1.38244">
        <ele>55.94031</ele>
        <time>2023-05-30T09:23:16.000Z</time>
      </trkpt>
      <trkpt lat="46.20458" lon="-1.3824">
        <ele>55.8838</ele>
        <time>2023-05-30T09:23:17.000Z</time>
      </trkpt>
      <trkpt lat="46.20458" lon="-1.38236">
        <ele>55.84151</ele>
        <time>2023-05-30T09:23:18.000Z</time>
      </trkpt>
      <trkpt lat="46.20458" lon="-1.38233">
        <ele>55.81506</ele>
        <time>2023-05-30T09:23:19.000Z</time>
      </trkpt>
      <trkpt lat="46.20458" lon="-1.3823">
        <ele>55.76283</ele>
        <time>2023-05-30T09:23:20.000Z</time>
      </trkpt>
      <trkpt lat="46.20459" lon="-1.38228">
        <ele>55.73537</ele>
        <time>2023-05-30T09:23:21.000Z</time>
      </trkpt>
      <trkpt lat="46.2046" lon="-1.38225">
        <ele>55.7202</ele>
        <time>2023-05-30T09:23:22.000Z</time>
      </trkpt>
      <trkpt lat="46.2046" lon="-1.38223">
        <ele>55.70094</ele>
        <time>2023-05-30T09:23:25.000Z</time>
      </trkpt>
      <trkpt lat="46.2046" lon="-1.38223">
        <ele>55.70094</ele>
        <time>2023-05-30T09:23:25.000Z</time>
      </trkpt>
      <trkpt lat="46.20457" lon="-1.38215">
        <ele>55.3837</ele>
        <time>2023-05-30T10:45:18.000Z</time>
      </trkpt>
      <trkpt lat="46.20457" lon="-1.38215">
        <ele>55.3837</ele>
        <time>2023-05-30T10:45:18.000Z</time>
      </trkpt>
      <trkpt lat="46.20459" lon="-1.38214">
        <ele>55.17747</ele>
        <time>2023-05-30T10:45:30.000Z</time>
      </trkpt>
      <trkpt lat="46.2046" lon="-1.38216">
        <ele>54.97405</ele>
        <time>2023-05-30T10:46:12.000Z</time>
      </trkpt>
      <trkpt lat="46.20458" lon="-1.38217">
        <ele>54.69439</ele>
        <time>2023-05-30T10:48:07.000Z</time>
      </trkpt>
      <trkpt lat="46.20459" lon="-1.38215">
        <ele>54.40775</ele>
        <time>2023-05-30T10:48:46.000Z</time>
      </trkpt>
      <trkpt lat="46.20458" lon="-1.38214">
        <ele>54.0337</ele>
        <time>2023-05-30T10:50:27.000Z</time>
      </trkpt>
      <trkpt lat="46.20458" lon="-1.38211">
        <ele>53.68713</ele>
        <time>2023-05-30T10:50:56.000Z</time>
      </trkpt>
      <trkpt lat="46.20458" lon="-1.38207">
        <ele>53.31077</ele>
        <time>2023-05-30T10:50:59.000Z</time>
      </trkpt>
      <trkpt lat="46.20457" lon="-1.38203">
        <ele>52.97435</ele>
        <time>2023-05-30T10:51:07.000Z</time>
      </trkpt>
      <trkpt lat="46.20457" lon="-1.38198">
        <ele>52.68316</ele>
        <time>2023-05-30T10:51:09.000Z</time>
      </trkpt>
      <trkpt lat="46.20457" lon="-1.38195">
        <ele>52.37363</ele>
        <time>2023-05-30T10:51:10.000Z</time>
      </trkpt>
      <trkpt lat="46.20457" lon="-1.38192">
        <ele>52.12086</ele>
        <time>2023-05-30T10:51:11.000Z</time>
      </trkpt>
      <trkpt lat="46.20456" lon="-1.38189">
        <ele>51.9095</ele>
        <time>2023-05-30T10:51:12.000Z</time>
      </trkpt>
      <trkpt lat="46.20457" lon="-1.38186">
        <ele>51.6792</ele>
        <time>2023-05-30T10:51:13.000Z</time>
      </trkpt>
      <trkpt lat="46.20456" lon="-1.38182">
        <ele>51.43392</ele>
        <time>2023-05-30T10:51:14.000Z</time>
      </trkpt>
      <trkpt lat="46.20456" lon="-1.38179">
        <ele>51.17229</ele>
        <time>2023-05-30T10:51:15.000Z</time>
      </trkpt>
      <trkpt lat="46.20456" lon="-1.38175">
        <ele>50.92958</ele>
        <time>2023-05-30T10:51:16.000Z</time>
      </trkpt>
      <trkpt lat="46.20456" lon="-1.38172">
        <ele>50.66172</ele>
        <time>2023-05-30T10:51:17.000Z</time>
      </trkpt>
      <trkpt lat="46.20456" lon="-1.38169">
        <ele>50.41125</ele>
        <time>2023-05-30T10:51:18.000Z</time>
      </trkpt>
      <trkpt lat="46.20456" lon="-1.38165">
        <ele>50.17879</ele>
        <time>2023-05-30T10:51:19.000Z</time>
      </trkpt>
      <trkpt lat="46.20456" lon="-1.38161">
        <ele>50.23037</ele>
        <time>2023-05-30T10:51:20.000Z</time>
      </trkpt>
      <trkpt lat="46.20456" lon="-1.38158">
        <ele>50.18422</ele>
        <time>2023-05-30T10:51:21.000Z</time>
      </trkpt>
      <trkpt lat="46.20456" lon="-1.38154">
        <ele>50.14774</ele>
        <time>2023-05-30T10:51:22.000Z</time>
      </trkpt>
      <trkpt lat="46.20456" lon="-1.3815">
        <ele>50.18736</ele>
        <time>2023-05-30T10:51:23.000Z</time>
      </trkpt>
      <trkpt lat="46.20456" lon="-1.38147">
        <ele>50.18557</ele>
        <time>2023-05-30T10:51:24.000Z</time>
      </trkpt>
      <trkpt lat="46.20456" lon="-1.38144">
        <ele>50.27259</ele>
        <time>2023-05-30T10:51:25.000Z</time>
      </trkpt>
      <trkpt lat="46.20456" lon="-1.38141">
        <ele>50.29656</ele>
        <time>2023-05-30T10:51:26.000Z</time>
      </trkpt>
      <trkpt lat="46.20457" lon="-1.38138">
        <ele>50.34655</ele>
        <time>2023-05-30T10:51:27.000Z</time>
      </trkpt>
      <trkpt lat="46.20457" lon="-1.38135">
        <ele>50.36588</ele>
        <time>2023-05-30T10:51:28.000Z</time>
      </trkpt>
      <trkpt lat="46.20458" lon="-1.38131">
        <ele>50.33015</ele>
        <time>2023-05-30T10:51:29.000Z</time>
      </trkpt>
      <trkpt lat="46.20459" lon="-1.38127">
        <ele>50.34358</ele>
        <time>2023-05-30T10:51:30.000Z</time>
      </trkpt>
      <trkpt lat="46.20461" lon="-1.38123">
        <ele>50.37136</ele>
        <time>2023-05-30T10:51:31.000Z</time>
      </trkpt>
      <trkpt lat="46.20462" lon="-1.3812">
        <ele>50.36432</ele>
        <time>2023-05-30T10:51:32.000Z</time>
      </trkpt>
      <trkpt lat="46.20463" lon="-1.38115">
        <ele>50.35937</ele>
        <time>2023-05-30T10:51:33.000Z</time>
      </trkpt>
      <trkpt lat="46.20463" lon="-1.38111">
        <ele>50.42265</ele>
        <time>2023-05-30T10:51:34.000Z</time>
      </trkpt>
      <trkpt lat="46.20464" lon="-1.38107">
        <ele>50.49368</ele>
        <time>2023-05-30T10:51:35.000Z</time>
      </trkpt>
      <trkpt lat="46.20464" lon="-1.38102">
        <ele>50.55502</ele>
        <time>2023-05-30T10:51:36.000Z</time>
      </trkpt>
      <trkpt lat="46.20464" lon="-1.38097">
        <ele>50.61304</ele>
        <time>2023-05-30T10:51:37.000Z</time>
      </trkpt>
      <trkpt lat="46.20464" lon="-1.38092">
        <ele>50.66266</ele>
        <time>2023-05-30T10:51:38.000Z</time>
      </trkpt>
      <trkpt lat="46.20463" lon="-1.38087">
        <ele>50.70068</ele>
        <time>2023-05-30T10:51:39.000Z</time>
      </trkpt>
      <trkpt lat="46.20463" lon="-1.38082">
        <ele>50.76484</ele>
        <time>2023-05-30T10:51:40.000Z</time>
      </trkpt>
      <trkpt lat="46.20463" lon="-1.38077">
        <ele>50.81814</ele>
        <time>2023-05-30T10:51:41.000Z</time>
      </trkpt>
      <trkpt lat="46.20463" lon="-1.38073">
        <ele>50.87462</ele>
        <time>2023-05-30T10:51:42.000Z</time>
      </trkpt>
      <trkpt lat="46.20462" lon="-1.38068">
        <ele>50.93741</ele>
        <time>2023-05-30T10:51:43.000Z</time>
      </trkpt>
      <trkpt lat="46.20462" lon="-1.38063">
        <ele>51.02816</ele>
        <time>2023-05-30T10:51:44.000Z</time>
      </trkpt>
      <trkpt lat="46.20462" lon="-1.38058">
        <ele>51.14756</ele>
        <time>2023-05-30T10:51:45.000Z</time>
      </trkpt>
      <trkpt lat="46.20462" lon="-1.38053">
        <ele>51.22174</ele>
        <time>2023-05-30T10:51:46.000Z</time>
      </trkpt>
      <trkpt lat="46.20462" lon="-1.38049">
        <ele>51.30666</ele>
        <time>2023-05-30T10:51:47.000Z</time>
      </trkpt>
      <trkpt lat="46.20462" lon="-1.38044">
        <ele>51.46751</ele>
        <time>2023-05-30T10:51:48.000Z</time>
      </trkpt>
      <trkpt lat="46.20463" lon="-1.3804">
        <ele>51.6442</ele>
        <time>2023-05-30T10:51:49.000Z</time>
      </trkpt>
      <trkpt lat="46.20463" lon="-1.38035">
        <ele>51.81868</ele>
        <time>2023-05-30T10:51:50.000Z</time>
      </trkpt>
      <trkpt lat="46.20463" lon="-1.38031">
        <ele>51.98577</ele>
        <time>2023-05-30T10:51:51.000Z</time>
      </trkpt>
      <trkpt lat="46.20463" lon="-1.38027">
        <ele>52.14292</ele>
        <time>2023-05-30T10:51:52.000Z</time>
      </trkpt>
      <trkpt lat="46.20462" lon="-1.38023">
        <ele>52.32172</ele>
        <time>2023-05-30T10:51:53.000Z</time>
      </trkpt>
      <trkpt lat="46.20462" lon="-1.38019">
        <ele>52.44465</ele>
        <time>2023-05-30T10:51:54.000Z</time>
      </trkpt>
      <trkpt lat="46.20461" lon="-1.38015">
        <ele>52.54608</ele>
        <time>2023-05-30T10:51:55.000Z</time>
      </trkpt>
      <trkpt lat="46.20461" lon="-1.38011">
        <ele>52.63881</ele>
        <time>2023-05-30T10:51:56.000Z</time>
      </trkpt>
      <trkpt lat="46.2046" lon="-1.38007">
        <ele>52.73074</ele>
        <time>2023-05-30T10:51:57.000Z</time>
      </trkpt>
      <trkpt lat="46.20459" lon="-1.38002">
        <ele>52.79105</ele>
        <time>2023-05-30T10:51:58.000Z</time>
      </trkpt>
      <trkpt lat="46.20458" lon="-1.37998">
        <ele>52.85842</ele>
        <time>2023-05-30T10:51:59.000Z</time>
      </trkpt>
      <trkpt lat="46.20457" lon="-1.37993">
        <ele>52.91346</ele>
        <time>2023-05-30T10:52:00.000Z</time>
      </trkpt>
      <trkpt lat="46.20457" lon="-1.37989">
        <ele>53.04263</ele>
        <time>2023-05-30T10:52:01.000Z</time>
      </trkpt>
      <trkpt lat="46.20456" lon="-1.37985">
        <ele>53.15007</ele>
        <time>2023-05-30T10:52:02.000Z</time>
      </trkpt>
      <trkpt lat="46.20455" lon="-1.37981">
        <ele>53.2487</ele>
        <time>2023-05-30T10:52:03.000Z</time>
      </trkpt>
      <trkpt lat="46.20455" lon="-1.37977">
        <ele>53.34753</ele>
        <time>2023-05-30T10:52:04.000Z</time>
      </trkpt>
      <trkpt lat="46.20454" lon="-1.37973">
        <ele>53.41682</ele>
        <time>2023-05-30T10:52:05.000Z</time>
      </trkpt>
      <trkpt lat="46.20454" lon="-1.37968">
        <ele>53.53068</ele>
        <time>2023-05-30T10:52:06.000Z</time>
      </trkpt>
      <trkpt lat="46.20453" lon="-1.37964">
        <ele>53.6401</ele>
        <time>2023-05-30T10:52:07.000Z</time>
      </trkpt>
      <trkpt lat="46.20452" lon="-1.37959">
        <ele>53.75288</ele>
        <time>2023-05-30T10:52:08.000Z</time>
      </trkpt>
      <trkpt lat="46.20451" lon="-1.37955">
        <ele>53.88214</ele>
        <time>2023-05-30T10:52:09.000Z</time>
      </trkpt>
      <trkpt lat="46.20451" lon="-1.3795">
        <ele>54.01476</ele>
        <time>2023-05-30T10:52:10.000Z</time>
      </trkpt>
      <trkpt lat="46.2045" lon="-1.37946">
        <ele>54.09242</ele>
        <time>2023-05-30T10:52:11.000Z</time>
      </trkpt>
      <trkpt lat="46.20449" lon="-1.37942">
        <ele>54.12151</ele>
        <time>2023-05-30T10:52:12.000Z</time>
      </trkpt>
      <trkpt lat="46.20448" lon="-1.37937">
        <ele>54.15073</ele>
        <time>2023-05-30T10:52:13.000Z</time>
      </trkpt>
      <trkpt lat="46.20447" lon="-1.37932">
        <ele>54.15691</ele>
        <time>2023-05-30T10:52:14.000Z</time>
      </trkpt>
      <trkpt lat="46.20447" lon="-1.37927">
        <ele>54.19398</ele>
        <time>2023-05-30T10:52:15.000Z</time>
      </trkpt>
      <trkpt lat="46.20446" lon="-1.37922">
        <ele>54.25185</ele>
        <time>2023-05-30T10:52:16.000Z</time>
      </trkpt>
      <trkpt lat="46.20445" lon="-1.37917">
        <ele>54.30247</ele>
        <time>2023-05-30T10:52:17.000Z</time>
      </trkpt>
      <trkpt lat="46.20445" lon="-1.37912">
        <ele>54.4176</ele>
        <time>2023-05-30T10:52:18.000Z</time>
      </trkpt>
      <trkpt lat="46.20445" lon="-1.37907">
        <ele>54.54436</ele>
        <time>2023-05-30T10:52:19.000Z</time>
      </trkpt>
      <trkpt lat="46.20444" lon="-1.37902">
        <ele>54.67097</ele>
        <time>2023-05-30T10:52:20.000Z</time>
      </trkpt>
      <trkpt lat="46.20444" lon="-1.37897">
        <ele>54.73101</ele>
        <time>2023-05-30T10:52:21.000Z</time>
      </trkpt>
      <trkpt lat="46.20445" lon="-1.37892">
        <ele>54.96526</ele>
        <time>2023-05-30T10:52:22.000Z</time>
      </trkpt>
      <trkpt lat="46.20445" lon="-1.37887">
        <ele>55.19966</ele>
        <time>2023-05-30T10:52:23.000Z</time>
      </trkpt>
      <trkpt lat="46.20445" lon="-1.37882">
        <ele>55.43918</ele>
        <time>2023-05-30T10:52:24.000Z</time>
      </trkpt>
      <trkpt lat="46.20445" lon="-1.37877">
        <ele>55.67297</ele>
        <time>2023-05-30T10:52:25.000Z</time>
      </trkpt>
      <trkpt lat="46.20446" lon="-1.37871">
        <ele>55.90288</ele>
        <time>2023-05-30T10:52:26.000Z</time>
      </trkpt>
      <trkpt lat="46.20447" lon="-1.37865">
        <ele>56.1372</ele>
        <time>2023-05-30T10:52:27.000Z</time>
      </trkpt>
      <trkpt lat="46.20447" lon="-1.3786">
        <ele>56.2644</ele>
        <time>2023-05-30T10:52:28.000Z</time>
      </trkpt>
      <trkpt lat="46.20448" lon="-1.37854">
        <ele>56.39743</ele>
        <time>2023-05-30T10:52:29.000Z</time>
      </trkpt>
      <trkpt lat="46.20449" lon="-1.37848">
        <ele>56.50198</ele>
        <time>2023-05-30T10:52:30.000Z</time>
      </trkpt>
      <trkpt lat="46.2045" lon="-1.37843">
        <ele>56.67405</ele>
        <time>2023-05-30T10:52:31.000Z</time>
      </trkpt>
      <trkpt lat="46.20451" lon="-1.37837">
        <ele>56.89579</ele>
        <time>2023-05-30T10:52:32.000Z</time>
      </trkpt>
      <trkpt lat="46.20452" lon="-1.37832">
        <ele>57.09052</ele>
        <time>2023-05-30T10:52:33.000Z</time>
      </trkpt>
      <trkpt lat="46.20453" lon="-1.37826">
        <ele>57.167</ele>
        <time>2023-05-30T10:52:34.000Z</time>
      </trkpt>
      <trkpt lat="46.20454" lon="-1.37821">
        <ele>57.2533</ele>
        <time>2023-05-30T10:52:35.000Z</time>
      </trkpt>
      <trkpt lat="46.20454" lon="-1.37815">
        <ele>57.33176</ele>
        <time>2023-05-30T10:52:36.000Z</time>
      </trkpt>
      <trkpt lat="46.20455" lon="-1.3781">
        <ele>57.41908</ele>
        <time>2023-05-30T10:52:37.000Z</time>
      </trkpt>
      <trkpt lat="46.20456" lon="-1.37804">
        <ele>57.46053</ele>
        <time>2023-05-30T10:52:38.000Z</time>
      </trkpt>
      <trkpt lat="46.20457" lon="-1.37798">
        <ele>57.49438</ele>
        <time>2023-05-30T10:52:39.000Z</time>
      </trkpt>
      <trkpt lat="46.20458" lon="-1.37793">
        <ele>57.52016</ele>
        <time>2023-05-30T10:52:40.000Z</time>
      </trkpt>
      <trkpt lat="46.20458" lon="-1.37787">
        <ele>57.55204</ele>
        <time>2023-05-30T10:52:41.000Z</time>
      </trkpt>
      <trkpt lat="46.20459" lon="-1.37781">
        <ele>57.3988</ele>
        <time>2023-05-30T10:52:42.000Z</time>
      </trkpt>
      <trkpt lat="46.20459" lon="-1.37775">
        <ele>57.24071</ele>
        <time>2023-05-30T10:52:43.000Z</time>
      </trkpt>
      <trkpt lat="46.20459" lon="-1.37769">
        <ele>57.10884</ele>
        <time>2023-05-30T10:52:44.000Z</time>
      </trkpt>
      <trkpt lat="46.20459" lon="-1.37762">
        <ele>56.95681</ele>
        <time>2023-05-30T10:52:45.000Z</time>
      </trkpt>
      <trkpt lat="46.20458" lon="-1.37756">
        <ele>56.79844</ele>
        <time>2023-05-30T10:52:46.000Z</time>
      </trkpt>
      <trkpt lat="46.20458" lon="-1.37749">
        <ele>56.64046</ele>
        <time>2023-05-30T10:52:47.000Z</time>
      </trkpt>
      <trkpt lat="46.20457" lon="-1.37742">
        <ele>56.50269</ele>
        <time>2023-05-30T10:52:48.000Z</time>
      </trkpt>
      <trkpt lat="46.20456" lon="-1.37736">
        <ele>56.35231</ele>
        <time>2023-05-30T10:52:49.000Z</time>
      </trkpt>
      <trkpt lat="46.20455" lon="-1.37729">
        <ele>56.21085</ele>
        <time>2023-05-30T10:52:50.000Z</time>
      </trkpt>
      <trkpt lat="46.20455" lon="-1.37722">
        <ele>56.06835</ele>
        <time>2023-05-30T10:52:51.000Z</time>
      </trkpt>
      <trkpt lat="46.20455" lon="-1.37716">
        <ele>55.92777</ele>
        <time>2023-05-30T10:52:52.000Z</time>
      </trkpt>
      <trkpt lat="46.20455" lon="-1.3771">
        <ele>55.80931</ele>
        <time>2023-05-30T10:52:53.000Z</time>
      </trkpt>
      <trkpt lat="46.20454" lon="-1.37704">
        <ele>55.82617</ele>
        <time>2023-05-30T10:52:54.000Z</time>
      </trkpt>
      <trkpt lat="46.20454" lon="-1.37698">
        <ele>55.79932</ele>
        <time>2023-05-30T10:52:55.000Z</time>
      </trkpt>
      <trkpt lat="46.20454" lon="-1.37692">
        <ele>55.76517</ele>
        <time>2023-05-30T10:52:56.000Z</time>
      </trkpt>
      <trkpt lat="46.20452" lon="-1.37687">
        <ele>55.72276</ele>
        <time>2023-05-30T10:52:57.000Z</time>
      </trkpt>
      <trkpt lat="46.20452" lon="-1.37681">
        <ele>55.68542</ele>
        <time>2023-05-30T10:52:58.000Z</time>
      </trkpt>
      <trkpt lat="46.20451" lon="-1.37676">
        <ele>55.69321</ele>
        <time>2023-05-30T10:52:59.000Z</time>
      </trkpt>
      <trkpt lat="46.2045" lon="-1.3767">
        <ele>55.70603</ele>
        <time>2023-05-30T10:53:00.000Z</time>
      </trkpt>
      <trkpt lat="46.20448" lon="-1.37666">
        <ele>55.72068</ele>
        <time>2023-05-30T10:53:01.000Z</time>
      </trkpt>
      <trkpt lat="46.20446" lon="-1.37661">
        <ele>55.76731</ele>
        <time>2023-05-30T10:53:02.000Z</time>
      </trkpt>
      <trkpt lat="46.20444" lon="-1.37657">
        <ele>55.80909</ele>
        <time>2023-05-30T10:53:03.000Z</time>
      </trkpt>
      <trkpt lat="46.20442" lon="-1.37654">
        <ele>55.80637</ele>
        <time>2023-05-30T10:53:04.000Z</time>
      </trkpt>
      <trkpt lat="46.2044" lon="-1.37652">
        <ele>55.83207</ele>
        <time>2023-05-30T10:53:05.000Z</time>
      </trkpt>
      <trkpt lat="46.20438" lon="-1.3765">
        <ele>55.88581</ele>
        <time>2023-05-30T10:53:06.000Z</time>
      </trkpt>
      <trkpt lat="46.20436" lon="-1.37648">
        <ele>55.93557</ele>
        <time>2023-05-30T10:53:07.000Z</time>
      </trkpt>
      <trkpt lat="46.20434" lon="-1.37645">
        <ele>56.00121</ele>
        <time>2023-05-30T10:53:09.000Z</time>
      </trkpt>
      <trkpt lat="46.20432" lon="-1.37644">
        <ele>56.07882</ele>
        <time>2023-05-30T10:53:10.000Z</time>
      </trkpt>
      <trkpt lat="46.20429" lon="-1.3764">
        <ele>56.14216</ele>
        <time>2023-05-30T10:53:12.000Z</time>
      </trkpt>
      <trkpt lat="46.20428" lon="-1.37638">
        <ele>56.18851</ele>
        <time>2023-05-30T10:53:13.000Z</time>
      </trkpt>
      <trkpt lat="46.20426" lon="-1.37637">
        <ele>56.23802</ele>
        <time>2023-05-30T10:53:14.000Z</time>
      </trkpt>
      <trkpt lat="46.20425" lon="-1.37635">
        <ele>56.28301</ele>
        <time>2023-05-30T10:53:15.000Z</time>
      </trkpt>
      <trkpt lat="46.20423" lon="-1.37633">
        <ele>56.325</ele>
        <time>2023-05-30T10:53:16.000Z</time>
      </trkpt>
      <trkpt lat="46.20422" lon="-1.37631">
        <ele>56.40593</ele>
        <time>2023-05-30T10:53:17.000Z</time>
      </trkpt>
      <trkpt lat="46.2042" lon="-1.37628">
        <ele>56.48183</ele>
        <time>2023-05-30T10:53:19.000Z</time>
      </trkpt>
      <trkpt lat="46.20417" lon="-1.37626">
        <ele>56.60349</ele>
        <time>2023-05-30T10:53:21.000Z</time>
      </trkpt>
      <trkpt lat="46.20414" lon="-1.37624">
        <ele>56.70936</ele>
        <time>2023-05-30T10:53:23.000Z</time>
      </trkpt>
      <trkpt lat="46.20412" lon="-1.37623">
        <ele>56.69285</ele>
        <time>2023-05-30T10:53:25.000Z</time>
      </trkpt>
      <trkpt lat="46.20409" lon="-1.37621">
        <ele>56.68931</ele>
        <time>2023-05-30T10:53:27.000Z</time>
      </trkpt>
      <trkpt lat="46.20407" lon="-1.37618">
        <ele>56.77071</ele>
        <time>2023-05-30T10:53:29.000Z</time>
      </trkpt>
      <trkpt lat="46.20405" lon="-1.37616">
        <ele>56.86779</ele>
        <time>2023-05-30T10:53:30.000Z</time>
      </trkpt>
      <trkpt lat="46.20403" lon="-1.37614">
        <ele>56.96267</ele>
        <time>2023-05-30T10:53:31.000Z</time>
      </trkpt>
      <trkpt lat="46.20401" lon="-1.37611">
        <ele>57.04</ele>
        <time>2023-05-30T10:53:32.000Z</time>
      </trkpt>
      <trkpt lat="46.20398" lon="-1.37609">
        <ele>57.10913</ele>
        <time>2023-05-30T10:53:33.000Z</time>
      </trkpt>
      <trkpt lat="46.20396" lon="-1.37607">
        <ele>57.0883</ele>
        <time>2023-05-30T10:53:34.000Z</time>
      </trkpt>
      <trkpt lat="46.20393" lon="-1.37605">
        <ele>57.06748</ele>
        <time>2023-05-30T10:53:35.000Z</time>
      </trkpt>
      <trkpt lat="46.20391" lon="-1.37603">
        <ele>57.11285</ele>
        <time>2023-05-30T10:53:36.000Z</time>
      </trkpt>
      <trkpt lat="46.20388" lon="-1.376">
        <ele>57.10048</ele>
        <time>2023-05-30T10:53:37.000Z</time>
      </trkpt>
      <trkpt lat="46.20385" lon="-1.37598">
        <ele>57.1063</ele>
        <time>2023-05-30T10:53:38.000Z</time>
      </trkpt>
      <trkpt lat="46.20382" lon="-1.37595">
        <ele>57.12817</ele>
        <time>2023-05-30T10:53:39.000Z</time>
      </trkpt>
      <trkpt lat="46.20379" lon="-1.37593">
        <ele>57.14304</ele>
        <time>2023-05-30T10:53:40.000Z</time>
      </trkpt>
      <trkpt lat="46.20375" lon="-1.37591">
        <ele>57.16443</ele>
        <time>2023-05-30T10:53:41.000Z</time>
      </trkpt>
      <trkpt lat="46.20372" lon="-1.37589">
        <ele>57.19481</ele>
        <time>2023-05-30T10:53:42.000Z</time>
      </trkpt>
      <trkpt lat="46.20369" lon="-1.37587">
        <ele>57.21828</ele>
        <time>2023-05-30T10:53:43.000Z</time>
      </trkpt>
      <trkpt lat="46.20366" lon="-1.37586">
        <ele>57.26318</ele>
        <time>2023-05-30T10:53:44.000Z</time>
      </trkpt>
      <trkpt lat="46.20362" lon="-1.37585">
        <ele>57.27544</ele>
        <time>2023-05-30T10:53:45.000Z</time>
      </trkpt>
      <trkpt lat="46.20359" lon="-1.37583">
        <ele>57.30963</ele>
        <time>2023-05-30T10:53:46.000Z</time>
      </trkpt>
      <trkpt lat="46.20356" lon="-1.37582">
        <ele>57.4143</ele>
        <time>2023-05-30T10:53:47.000Z</time>
      </trkpt>
      <trkpt lat="46.20353" lon="-1.37581">
        <ele>57.50189</ele>
        <time>2023-05-30T10:53:48.000Z</time>
      </trkpt>
      <trkpt lat="46.2035" lon="-1.3758">
        <ele>57.49779</ele>
        <time>2023-05-30T10:53:49.000Z</time>
      </trkpt>
      <trkpt lat="46.20347" lon="-1.37579">
        <ele>57.46696</ele>
        <time>2023-05-30T10:53:50.000Z</time>
      </trkpt>
      <trkpt lat="46.20344" lon="-1.37578">
        <ele>57.48608</ele>
        <time>2023-05-30T10:53:51.000Z</time>
      </trkpt>
      <trkpt lat="46.2034" lon="-1.37577">
        <ele>57.57059</ele>
        <time>2023-05-30T10:53:52.000Z</time>
      </trkpt>
      <trkpt lat="46.20337" lon="-1.37576">
        <ele>57.63554</ele>
        <time>2023-05-30T10:53:53.000Z</time>
      </trkpt>
      <trkpt lat="46.20334" lon="-1.37574">
        <ele>57.80046</ele>
        <time>2023-05-30T10:53:54.000Z</time>
      </trkpt>
      <trkpt lat="46.20331" lon="-1.37573">
        <ele>57.95155</ele>
        <time>2023-05-30T10:53:55.000Z</time>
      </trkpt>
      <trkpt lat="46.20327" lon="-1.37572">
        <ele>58.02349</ele>
        <time>2023-05-30T10:53:56.000Z</time>
      </trkpt>
      <trkpt lat="46.20324" lon="-1.37572">
        <ele>58.15731</ele>
        <time>2023-05-30T10:53:57.000Z</time>
      </trkpt>
      <trkpt lat="46.20321" lon="-1.37571">
        <ele>58.27948</ele>
        <time>2023-05-30T10:53:58.000Z</time>
      </trkpt>
      <trkpt lat="46.20318" lon="-1.3757">
        <ele>58.39542</ele>
        <time>2023-05-30T10:53:59.000Z</time>
      </trkpt>
      <trkpt lat="46.20315" lon="-1.37569">
        <ele>58.50311</ele>
        <time>2023-05-30T10:54:00.000Z</time>
      </trkpt>
      <trkpt lat="46.20312" lon="-1.37568">
        <ele>58.57911</ele>
        <time>2023-05-30T10:54:01.000Z</time>
      </trkpt>
      <trkpt lat="46.2031" lon="-1.37567">
        <ele>58.63826</ele>
        <time>2023-05-30T10:54:02.000Z</time>
      </trkpt>
      <trkpt lat="46.20307" lon="-1.37566">
        <ele>58.69565</ele>
        <time>2023-05-30T10:54:03.000Z</time>
      </trkpt>
      <trkpt lat="46.20304" lon="-1.37565">
        <ele>58.73455</ele>
        <time>2023-05-30T10:54:04.000Z</time>
      </trkpt>
      <trkpt lat="46.20301" lon="-1.37565">
        <ele>58.83168</ele>
        <time>2023-05-30T10:54:05.000Z</time>
      </trkpt>
      <trkpt lat="46.20298" lon="-1.37564">
        <ele>58.93858</ele>
        <time>2023-05-30T10:54:06.000Z</time>
      </trkpt>
      <trkpt lat="46.20295" lon="-1.37562">
        <ele>59.04382</ele>
        <time>2023-05-30T10:54:07.000Z</time>
      </trkpt>
      <trkpt lat="46.20292" lon="-1.37561">
        <ele>59.15051</ele>
        <time>2023-05-30T10:54:08.000Z</time>
      </trkpt>
      <trkpt lat="46.20288" lon="-1.3756">
        <ele>59.26036</ele>
        <time>2023-05-30T10:54:09.000Z</time>
      </trkpt>
      <trkpt lat="46.20285" lon="-1.37559">
        <ele>59.33589</ele>
        <time>2023-05-30T10:54:10.000Z</time>
      </trkpt>
      <trkpt lat="46.20282" lon="-1.37559">
        <ele>59.35691</ele>
        <time>2023-05-30T10:54:11.000Z</time>
      </trkpt>
      <trkpt lat="46.20278" lon="-1.37558">
        <ele>59.34401</ele>
        <time>2023-05-30T10:54:12.000Z</time>
      </trkpt>
      <trkpt lat="46.20275" lon="-1.37558">
        <ele>59.36285</ele>
        <time>2023-05-30T10:54:13.000Z</time>
      </trkpt>
      <trkpt lat="46.20272" lon="-1.37558">
        <ele>59.36657</ele>
        <time>2023-05-30T10:54:14.000Z</time>
      </trkpt>
      <trkpt lat="46.20268" lon="-1.37558">
        <ele>59.36946</ele>
        <time>2023-05-30T10:54:15.000Z</time>
      </trkpt>
      <trkpt lat="46.20265" lon="-1.37557">
        <ele>59.3471</ele>
        <time>2023-05-30T10:54:16.000Z</time>
      </trkpt>
      <trkpt lat="46.20262" lon="-1.37557">
        <ele>59.31244</ele>
        <time>2023-05-30T10:54:17.000Z</time>
      </trkpt>
      <trkpt lat="46.20258" lon="-1.37557">
        <ele>59.33739</ele>
        <time>2023-05-30T10:54:18.000Z</time>
      </trkpt>
      <trkpt lat="46.20255" lon="-1.37557">
        <ele>59.35226</ele>
        <time>2023-05-30T10:54:19.000Z</time>
      </trkpt>
      <trkpt lat="46.20253" lon="-1.37557">
        <ele>59.37701</ele>
        <time>2023-05-30T10:54:20.000Z</time>
      </trkpt>
      <trkpt lat="46.2025" lon="-1.37557">
        <ele>59.41908</ele>
        <time>2023-05-30T10:54:21.000Z</time>
      </trkpt>
      <trkpt lat="46.20247" lon="-1.37558">
        <ele>59.47099</ele>
        <time>2023-05-30T10:54:22.000Z</time>
      </trkpt>
      <trkpt lat="46.20244" lon="-1.37557">
        <ele>59.52536</ele>
        <time>2023-05-30T10:54:23.000Z</time>
      </trkpt>
      <trkpt lat="46.20241" lon="-1.37557">
        <ele>59.60725</ele>
        <time>2023-05-30T10:54:24.000Z</time>
      </trkpt>
      <trkpt lat="46.20238" lon="-1.37557">
        <ele>59.62698</ele>
        <time>2023-05-30T10:54:25.000Z</time>
      </trkpt>
      <trkpt lat="46.20235" lon="-1.37557">
        <ele>59.63426</ele>
        <time>2023-05-30T10:54:26.000Z</time>
      </trkpt>
      <trkpt lat="46.20232" lon="-1.37557">
        <ele>59.63243</ele>
        <time>2023-05-30T10:54:27.000Z</time>
      </trkpt>
      <trkpt lat="46.20229" lon="-1.37557">
        <ele>59.60801</ele>
        <time>2023-05-30T10:54:28.000Z</time>
      </trkpt>
      <trkpt lat="46.20225" lon="-1.37557">
        <ele>59.58815</ele>
        <time>2023-05-30T10:54:29.000Z</time>
      </trkpt>
      <trkpt lat="46.20222" lon="-1.37558">
        <ele>59.57837</ele>
        <time>2023-05-30T10:54:30.000Z</time>
      </trkpt>
      <trkpt lat="46.20218" lon="-1.37558">
        <ele>59.56062</ele>
        <time>2023-05-30T10:54:31.000Z</time>
      </trkpt>
      <trkpt lat="46.20215" lon="-1.37558">
        <ele>59.52207</ele>
        <time>2023-05-30T10:54:32.000Z</time>
      </trkpt>
      <trkpt lat="46.20211" lon="-1.37558">
        <ele>59.47854</ele>
        <time>2023-05-30T10:54:33.000Z</time>
      </trkpt>
      <trkpt lat="46.20207" lon="-1.37557">
        <ele>59.45871</ele>
        <time>2023-05-30T10:54:34.000Z</time>
      </trkpt>
      <trkpt lat="46.20204" lon="-1.37557">
        <ele>59.45448</ele>
        <time>2023-05-30T10:54:35.000Z</time>
      </trkpt>
      <trkpt lat="46.202" lon="-1.37556">
        <ele>59.472</ele>
        <time>2023-05-30T10:54:36.000Z</time>
      </trkpt>
      <trkpt lat="46.20197" lon="-1.37556">
        <ele>59.49096</ele>
        <time>2023-05-30T10:54:37.000Z</time>
      </trkpt>
      <trkpt lat="46.20193" lon="-1.37556">
        <ele>59.45003</ele>
        <time>2023-05-30T10:54:38.000Z</time>
      </trkpt>
      <trkpt lat="46.2019" lon="-1.37555">
        <ele>59.4148</ele>
        <time>2023-05-30T10:54:39.000Z</time>
      </trkpt>
      <trkpt lat="46.20186" lon="-1.37555">
        <ele>59.37397</ele>
        <time>2023-05-30T10:54:40.000Z</time>
      </trkpt>
      <trkpt lat="46.20183" lon="-1.37555">
        <ele>59.30849</ele>
        <time>2023-05-30T10:54:41.000Z</time>
      </trkpt>
      <trkpt lat="46.20179" lon="-1.37555">
        <ele>59.24559</ele>
        <time>2023-05-30T10:54:42.000Z</time>
      </trkpt>
      <trkpt lat="46.20175" lon="-1.37555">
        <ele>59.17225</ele>
        <time>2023-05-30T10:54:43.000Z</time>
      </trkpt>
      <trkpt lat="46.20172" lon="-1.37554">
        <ele>59.08006</ele>
        <time>2023-05-30T10:54:44.000Z</time>
      </trkpt>
      <trkpt lat="46.20168" lon="-1.37553">
        <ele>59.04887</ele>
        <time>2023-05-30T10:54:45.000Z</time>
      </trkpt>
      <trkpt lat="46.20165" lon="-1.37552">
        <ele>59.02651</ele>
        <time>2023-05-30T10:54:46.000Z</time>
      </trkpt>
      <trkpt lat="46.20161" lon="-1.37551">
        <ele>59.02018</ele>
        <time>2023-05-30T10:54:47.000Z</time>
      </trkpt>
      <trkpt lat="46.20157" lon="-1.3755">
        <ele>59.0383</ele>
        <time>2023-05-30T10:54:48.000Z</time>
      </trkpt>
      <trkpt lat="46.20153" lon="-1.37548">
        <ele>59.04691</ele>
        <time>2023-05-30T10:54:49.000Z</time>
      </trkpt>
      <trkpt lat="46.20149" lon="-1.37547">
        <ele>59.08405</ele>
        <time>2023-05-30T10:54:50.000Z</time>
      </trkpt>
      <trkpt lat="46.20145" lon="-1.37546">
        <ele>59.12556</ele>
        <time>2023-05-30T10:54:51.000Z</time>
      </trkpt>
      <trkpt lat="46.20142" lon="-1.37545">
        <ele>59.20493</ele>
        <time>2023-05-30T10:54:52.000Z</time>
      </trkpt>
      <trkpt lat="46.20139" lon="-1.37543">
        <ele>59.26412</ele>
        <time>2023-05-30T10:54:53.000Z</time>
      </trkpt>
      <trkpt lat="46.20136" lon="-1.37542">
        <ele>59.29224</ele>
        <time>2023-05-30T10:54:54.000Z</time>
      </trkpt>
      <trkpt lat="46.20133" lon="-1.3754">
        <ele>59.31423</ele>
        <time>2023-05-30T10:54:55.000Z</time>
      </trkpt>
      <trkpt lat="46.2013" lon="-1.37537">
        <ele>59.33364</ele>
        <time>2023-05-30T10:54:56.000Z</time>
      </trkpt>
      <trkpt lat="46.20128" lon="-1.37533">
        <ele>59.34873</ele>
        <time>2023-05-30T10:54:57.000Z</time>
      </trkpt>
      <trkpt lat="46.20127" lon="-1.37528">
        <ele>59.39187</ele>
        <time>2023-05-30T10:54:58.000Z</time>
      </trkpt>
      <trkpt lat="46.20126" lon="-1.37522">
        <ele>59.43644</ele>
        <time>2023-05-30T10:54:59.000Z</time>
      </trkpt>
      <trkpt lat="46.20124" lon="-1.37516">
        <ele>59.49282</ele>
        <time>2023-05-30T10:55:00.000Z</time>
      </trkpt>
      <trkpt lat="46.20123" lon="-1.37511">
        <ele>59.57393</ele>
        <time>2023-05-30T10:55:01.000Z</time>
      </trkpt>
      <trkpt lat="46.20123" lon="-1.37506">
        <ele>59.65774</ele>
        <time>2023-05-30T10:55:02.000Z</time>
      </trkpt>
      <trkpt lat="46.20123" lon="-1.375">
        <ele>59.75135</ele>
        <time>2023-05-30T10:55:03.000Z</time>
      </trkpt>
      <trkpt lat="46.20124" lon="-1.37495">
        <ele>59.85497</ele>
        <time>2023-05-30T10:55:04.000Z</time>
      </trkpt>
      <trkpt lat="46.20125" lon="-1.3749">
        <ele>59.88659</ele>
        <time>2023-05-30T10:55:05.000Z</time>
      </trkpt>
      <trkpt lat="46.20127" lon="-1.37485">
        <ele>59.91386</ele>
        <time>2023-05-30T10:55:06.000Z</time>
      </trkpt>
      <trkpt lat="46.20129" lon="-1.3748">
        <ele>59.93118</ele>
        <time>2023-05-30T10:55:07.000Z</time>
      </trkpt>
      <trkpt lat="46.20131" lon="-1.37475">
        <ele>59.86881</ele>
        <time>2023-05-30T10:55:08.000Z</time>
      </trkpt>
      <trkpt lat="46.20132" lon="-1.3747">
        <ele>59.79753</ele>
        <time>2023-05-30T10:55:09.000Z</time>
      </trkpt>
      <trkpt lat="46.20134" lon="-1.37466">
        <ele>59.71671</ele>
        <time>2023-05-30T10:55:10.000Z</time>
      </trkpt>
      <trkpt lat="46.20135" lon="-1.37461">
        <ele>59.858</ele>
        <time>2023-05-30T10:55:11.000Z</time>
      </trkpt>
      <trkpt lat="46.20136" lon="-1.37457">
        <ele>59.75199</ele>
        <time>2023-05-30T10:55:12.000Z</time>
      </trkpt>
      <trkpt lat="46.20137" lon="-1.37453">
        <ele>59.76307</ele>
        <time>2023-05-30T10:55:13.000Z</time>
      </trkpt>
      <trkpt lat="46.20138" lon="-1.37449">
        <ele>59.76987</ele>
        <time>2023-05-30T10:55:14.000Z</time>
      </trkpt>
      <trkpt lat="46.2014" lon="-1.37445">
        <ele>59.78699</ele>
        <time>2023-05-30T10:55:15.000Z</time>
      </trkpt>
      <trkpt lat="46.20141" lon="-1.37442">
        <ele>59.79521</ele>
        <time>2023-05-30T10:55:16.000Z</time>
      </trkpt>
      <trkpt lat="46.20141" lon="-1.3744">
        <ele>59.81507</ele>
        <time>2023-05-30T10:55:17.000Z</time>
      </trkpt>
      <trkpt lat="46.20143" lon="-1.37436">
        <ele>59.80193</ele>
        <time>2023-05-30T10:55:18.000Z</time>
      </trkpt>
      <trkpt lat="46.20144" lon="-1.37432">
        <ele>59.76298</ele>
        <time>2023-05-30T10:55:19.000Z</time>
      </trkpt>
      <trkpt lat="46.20146" lon="-1.37428">
        <ele>59.71984</ele>
        <time>2023-05-30T10:55:20.000Z</time>
      </trkpt>
      <trkpt lat="46.20148" lon="-1.37425">
        <ele>59.68124</ele>
        <time>2023-05-30T10:55:21.000Z</time>
      </trkpt>
      <trkpt lat="46.2015" lon="-1.37422">
        <ele>59.64162</ele>
        <time>2023-05-30T10:55:22.000Z</time>
      </trkpt>
      <trkpt lat="46.20152" lon="-1.37418">
        <ele>59.58253</ele>
        <time>2023-05-30T10:55:23.000Z</time>
      </trkpt>
      <trkpt lat="46.20155" lon="-1.37414">
        <ele>59.52435</ele>
        <time>2023-05-30T10:55:24.000Z</time>
      </trkpt>
      <trkpt lat="46.20157" lon="-1.37411">
        <ele>59.49418</ele>
        <time>2023-05-30T10:55:25.000Z</time>
      </trkpt>
      <trkpt lat="46.2016" lon="-1.37407">
        <ele>59.48185</ele>
        <time>2023-05-30T10:55:26.000Z</time>
      </trkpt>
      <trkpt lat="46.20162" lon="-1.37404">
        <ele>59.47697</ele>
        <time>2023-05-30T10:55:27.000Z</time>
      </trkpt>
      <trkpt lat="46.20165" lon="-1.37401">
        <ele>59.54229</ele>
        <time>2023-05-30T10:55:28.000Z</time>
      </trkpt>
      <trkpt lat="46.20167" lon="-1.37397">
        <ele>59.64562</ele>
        <time>2023-05-30T10:55:29.000Z</time>
      </trkpt>
      <trkpt lat="46.20169" lon="-1.37394">
        <ele>59.75927</ele>
        <time>2023-05-30T10:55:30.000Z</time>
      </trkpt>
      <trkpt lat="46.20172" lon="-1.37391">
        <ele>59.67092</ele>
        <time>2023-05-30T10:55:31.000Z</time>
      </trkpt>
      <trkpt lat="46.20174" lon="-1.37388">
        <ele>59.79295</ele>
        <time>2023-05-30T10:55:32.000Z</time>
      </trkpt>
      <trkpt lat="46.20177" lon="-1.37385">
        <ele>59.81527</ele>
        <time>2023-05-30T10:55:33.000Z</time>
      </trkpt>
      <trkpt lat="46.20179" lon="-1.37382">
        <ele>59.84525</ele>
        <time>2023-05-30T10:55:34.000Z</time>
      </trkpt>
      <trkpt lat="46.20182" lon="-1.37379">
        <ele>59.84126</ele>
        <time>2023-05-30T10:55:35.000Z</time>
      </trkpt>
      <trkpt lat="46.20185" lon="-1.37377">
        <ele>59.8462</ele>
        <time>2023-05-30T10:55:36.000Z</time>
      </trkpt>
      <trkpt lat="46.20187" lon="-1.37374">
        <ele>59.80822</ele>
        <time>2023-05-30T10:55:37.000Z</time>
      </trkpt>
      <trkpt lat="46.2019" lon="-1.3737">
        <ele>59.75726</ele>
        <time>2023-05-30T10:55:38.000Z</time>
      </trkpt>
      <trkpt lat="46.20192" lon="-1.37366">
        <ele>59.7354</ele>
        <time>2023-05-30T10:55:39.000Z</time>
      </trkpt>
      <trkpt lat="46.20195" lon="-1.37362">
        <ele>59.70936</ele>
        <time>2023-05-30T10:55:40.000Z</time>
      </trkpt>
      <trkpt lat="46.20197" lon="-1.3736">
        <ele>59.68464</ele>
        <time>2023-05-30T10:55:41.000Z</time>
      </trkpt>
      <trkpt lat="46.20199" lon="-1.37357">
        <ele>59.69629</ele>
        <time>2023-05-30T10:55:42.000Z</time>
      </trkpt>
      <trkpt lat="46.20201" lon="-1.37354">
        <ele>59.7344</ele>
        <time>2023-05-30T10:55:43.000Z</time>
      </trkpt>
      <trkpt lat="46.20204" lon="-1.37351">
        <ele>59.75198</ele>
        <time>2023-05-30T10:55:44.000Z</time>
      </trkpt>
      <trkpt lat="46.20206" lon="-1.37348">
        <ele>59.80471</ele>
        <time>2023-05-30T10:55:45.000Z</time>
      </trkpt>
      <trkpt lat="46.20209" lon="-1.37346">
        <ele>59.70889</ele>
        <time>2023-05-30T10:55:46.000Z</time>
      </trkpt>
      <trkpt lat="46.20211" lon="-1.37343">
        <ele>59.70842</ele>
        <time>2023-05-30T10:55:47.000Z</time>
      </trkpt>
      <trkpt lat="46.20214" lon="-1.37341">
        <ele>59.71738</ele>
        <time>2023-05-30T10:55:48.000Z</time>
      </trkpt>
      <trkpt lat="46.20216" lon="-1.37339">
        <ele>59.7087</ele>
        <time>2023-05-30T10:55:49.000Z</time>
      </trkpt>
      <trkpt lat="46.20218" lon="-1.37337">
        <ele>59.70206</ele>
        <time>2023-05-30T10:55:50.000Z</time>
      </trkpt>
      <trkpt lat="46.20221" lon="-1.37335">
        <ele>59.68935</ele>
        <time>2023-05-30T10:55:51.000Z</time>
      </trkpt>
      <trkpt lat="46.20223" lon="-1.37333">
        <ele>59.64298</ele>
        <time>2023-05-30T10:55:52.000Z</time>
      </trkpt>
      <trkpt lat="46.20226" lon="-1.37331">
        <ele>59.62712</ele>
        <time>2023-05-30T10:55:53.000Z</time>
      </trkpt>
      <trkpt lat="46.20228" lon="-1.37329">
        <ele>59.61355</ele>
        <time>2023-05-30T10:55:54.000Z</time>
      </trkpt>
      <trkpt lat="46.20231" lon="-1.37328">
        <ele>59.62548</ele>
        <time>2023-05-30T10:55:55.000Z</time>
      </trkpt>
      <trkpt lat="46.20234" lon="-1.37327">
        <ele>59.62402</ele>
        <time>2023-05-30T10:55:56.000Z</time>
      </trkpt>
      <trkpt lat="46.20237" lon="-1.37326">
        <ele>59.64927</ele>
        <time>2023-05-30T10:55:57.000Z</time>
      </trkpt>
      <trkpt lat="46.2024" lon="-1.37325">
        <ele>59.67966</ele>
        <time>2023-05-30T10:55:58.000Z</time>
      </trkpt>
      <trkpt lat="46.20244" lon="-1.37325">
        <ele>59.71715</ele>
        <time>2023-05-30T10:55:59.000Z</time>
      </trkpt>
      <trkpt lat="46.20247" lon="-1.37325">
        <ele>59.7427</ele>
        <time>2023-05-30T10:56:00.000Z</time>
      </trkpt>
      <trkpt lat="46.2025" lon="-1.37324">
        <ele>59.80652</ele>
        <time>2023-05-30T10:56:01.000Z</time>
      </trkpt>
      <trkpt lat="46.20254" lon="-1.37324">
        <ele>59.833</ele>
        <time>2023-05-30T10:56:02.000Z</time>
      </trkpt>
      <trkpt lat="46.20257" lon="-1.37324">
        <ele>59.86748</ele>
        <time>2023-05-30T10:56:03.000Z</time>
      </trkpt>
      <trkpt lat="46.20261" lon="-1.37324">
        <ele>59.90679</ele>
        <time>2023-05-30T10:56:04.000Z</time>
      </trkpt>
      <trkpt lat="46.20264" lon="-1.37325">
        <ele>59.89284</ele>
        <time>2023-05-30T10:56:05.000Z</time>
      </trkpt>
      <trkpt lat="46.20268" lon="-1.37325">
        <ele>59.97789</ele>
        <time>2023-05-30T10:56:06.000Z</time>
      </trkpt>
      <trkpt lat="46.20272" lon="-1.37325">
        <ele>59.9507</ele>
        <time>2023-05-30T10:56:07.000Z</time>
      </trkpt>
      <trkpt lat="46.20275" lon="-1.37325">
        <ele>59.95948</ele>
        <time>2023-05-30T10:56:08.000Z</time>
      </trkpt>
      <trkpt lat="46.20279" lon="-1.37325">
        <ele>59.95337</ele>
        <time>2023-05-30T10:56:09.000Z</time>
      </trkpt>
      <trkpt lat="46.20282" lon="-1.37325">
        <ele>59.93667</ele>
        <time>2023-05-30T10:56:10.000Z</time>
      </trkpt>
      <trkpt lat="46.20285" lon="-1.37325">
        <ele>59.91147</ele>
        <time>2023-05-30T10:56:11.000Z</time>
      </trkpt>
      <trkpt lat="46.20289" lon="-1.37325">
        <ele>59.92401</ele>
        <time>2023-05-30T10:56:12.000Z</time>
      </trkpt>
      <trkpt lat="46.20292" lon="-1.37325">
        <ele>59.90206</ele>
        <time>2023-05-30T10:56:13.000Z</time>
      </trkpt>
      <trkpt lat="46.20296" lon="-1.37325">
        <ele>59.88255</ele>
        <time>2023-05-30T10:56:14.000Z</time>
      </trkpt>
      <trkpt lat="46.20299" lon="-1.37325">
        <ele>59.86693</ele>
        <time>2023-05-30T10:56:15.000Z</time>
      </trkpt>
      <trkpt lat="46.20303" lon="-1.37325">
        <ele>59.87916</ele>
        <time>2023-05-30T10:56:16.000Z</time>
      </trkpt>
      <trkpt lat="46.20307" lon="-1.37325">
        <ele>59.90498</ele>
        <time>2023-05-30T10:56:17.000Z</time>
      </trkpt>
      <trkpt lat="46.2031" lon="-1.37325">
        <ele>59.96467</ele>
        <time>2023-05-30T10:56:18.000Z</time>
      </trkpt>
      <trkpt lat="46.20313" lon="-1.37324">
        <ele>60.00689</ele>
        <time>2023-05-30T10:56:19.000Z</time>
      </trkpt>
      <trkpt lat="46.20317" lon="-1.37324">
        <ele>60.07368</ele>
        <time>2023-05-30T10:56:20.000Z</time>
      </trkpt>
      <trkpt lat="46.2032" lon="-1.37324">
        <ele>60.09567</ele>
        <time>2023-05-30T10:56:21.000Z</time>
      </trkpt>
      <trkpt lat="46.20324" lon="-1.37324">
        <ele>60.11644</ele>
        <time>2023-05-30T10:56:22.000Z</time>
      </trkpt>
      <trkpt lat="46.20327" lon="-1.37323">
        <ele>60.08894</ele>
        <time>2023-05-30T10:56:23.000Z</time>
      </trkpt>
      <trkpt lat="46.20331" lon="-1.37322">
        <ele>60.07176</ele>
        <time>2023-05-30T10:56:24.000Z</time>
      </trkpt>
      <trkpt lat="46.20335" lon="-1.37322">
        <ele>60.05189</ele>
        <time>2023-05-30T10:56:25.000Z</time>
      </trkpt>
      <trkpt lat="46.20338" lon="-1.37322">
        <ele>60.0326</ele>
        <time>2023-05-30T10:56:26.000Z</time>
      </trkpt>
      <trkpt lat="46.20342" lon="-1.37322">
        <ele>60.00864</ele>
        <time>2023-05-30T10:56:27.000Z</time>
      </trkpt>
      <trkpt lat="46.20345" lon="-1.37321">
        <ele>59.93849</ele>
        <time>2023-05-30T10:56:28.000Z</time>
      </trkpt>
      <trkpt lat="46.20349" lon="-1.37321">
        <ele>59.91184</ele>
        <time>2023-05-30T10:56:29.000Z</time>
      </trkpt>
      <trkpt lat="46.20353" lon="-1.37321">
        <ele>59.8926</ele>
        <time>2023-05-30T10:56:30.000Z</time>
      </trkpt>
      <trkpt lat="46.20356" lon="-1.3732">
        <ele>59.87603</ele>
        <time>2023-05-30T10:56:31.000Z</time>
      </trkpt>
      <trkpt lat="46.2036" lon="-1.3732">
        <ele>59.88353</ele>
        <time>2023-05-30T10:56:32.000Z</time>
      </trkpt>
      <trkpt lat="46.20364" lon="-1.3732">
        <ele>59.88377</ele>
        <time>2023-05-30T10:56:33.000Z</time>
      </trkpt>
      <trkpt lat="46.20367" lon="-1.37319">
        <ele>59.88371</ele>
        <time>2023-05-30T10:56:34.000Z</time>
      </trkpt>
      <trkpt lat="46.20371" lon="-1.37319">
        <ele>59.88043</ele>
        <time>2023-05-30T10:56:35.000Z</time>
      </trkpt>
      <trkpt lat="46.20375" lon="-1.37318">
        <ele>59.84758</ele>
        <time>2023-05-30T10:56:36.000Z</time>
      </trkpt>
      <trkpt lat="46.20379" lon="-1.37318">
        <ele>59.81439</ele>
        <time>2023-05-30T10:56:37.000Z</time>
      </trkpt>
      <trkpt lat="46.20383" lon="-1.37317">
        <ele>59.75962</ele>
        <time>2023-05-30T10:56:38.000Z</time>
      </trkpt>
      <trkpt lat="46.20387" lon="-1.37317">
        <ele>59.67196</ele>
        <time>2023-05-30T10:56:39.000Z</time>
      </trkpt>
      <trkpt lat="46.20391" lon="-1.37317">
        <ele>59.60059</ele>
        <time>2023-05-30T10:56:40.000Z</time>
      </trkpt>
      <trkpt lat="46.20395" lon="-1.37317">
        <ele>59.52544</ele>
        <time>2023-05-30T10:56:41.000Z</time>
      </trkpt>
      <trkpt lat="46.20399" lon="-1.37317">
        <ele>59.46066</ele>
        <time>2023-05-30T10:56:42.000Z</time>
      </trkpt>
      <trkpt lat="46.20403" lon="-1.37317">
        <ele>59.33957</ele>
        <time>2023-05-30T10:56:43.000Z</time>
      </trkpt>
      <trkpt lat="46.20406" lon="-1.37317">
        <ele>59.19717</ele>
        <time>2023-05-30T10:56:44.000Z</time>
      </trkpt>
      <trkpt lat="46.2041" lon="-1.37317">
        <ele>59.13822</ele>
        <time>2023-05-30T10:56:45.000Z</time>
      </trkpt>
      <trkpt lat="46.20413" lon="-1.37317">
        <ele>59.10073</ele>
        <time>2023-05-30T10:56:46.000Z</time>
      </trkpt>
      <trkpt lat="46.20416" lon="-1.37317">
        <ele>59.08651</ele>
        <time>2023-05-30T10:56:47.000Z</time>
      </trkpt>
      <trkpt lat="46.20419" lon="-1.37317">
        <ele>59.07808</ele>
        <time>2023-05-30T10:56:48.000Z</time>
      </trkpt>
      <trkpt lat="46.20421" lon="-1.37317">
        <ele>59.03278</ele>
        <time>2023-05-30T10:56:49.000Z</time>
      </trkpt>
      <trkpt lat="46.20424" lon="-1.37317">
        <ele>58.98833</ele>
        <time>2023-05-30T10:56:50.000Z</time>
      </trkpt>
      <trkpt lat="46.20426" lon="-1.37316">
        <ele>58.92928</ele>
        <time>2023-05-30T10:56:51.000Z</time>
      </trkpt>
      <trkpt lat="46.20429" lon="-1.37315">
        <ele>58.92756</ele>
        <time>2023-05-30T10:56:52.000Z</time>
      </trkpt>
      <trkpt lat="46.20431" lon="-1.37315">
        <ele>58.93217</ele>
        <time>2023-05-30T10:56:53.000Z</time>
      </trkpt>
      <trkpt lat="46.20433" lon="-1.37314">
        <ele>58.91499</ele>
        <time>2023-05-30T10:56:54.000Z</time>
      </trkpt>
      <trkpt lat="46.20435" lon="-1.37312">
        <ele>58.87768</ele>
        <time>2023-05-30T10:56:55.000Z</time>
      </trkpt>
      <trkpt lat="46.20437" lon="-1.3731">
        <ele>58.84055</ele>
        <time>2023-05-30T10:56:56.000Z</time>
      </trkpt>
      <trkpt lat="46.2044" lon="-1.37308">
        <ele>58.78652</ele>
        <time>2023-05-30T10:56:57.000Z</time>
      </trkpt>
      <trkpt lat="46.20443" lon="-1.37306">
        <ele>58.74592</ele>
        <time>2023-05-30T10:56:58.000Z</time>
      </trkpt>
      <trkpt lat="46.20446" lon="-1.37306">
        <ele>58.74466</ele>
        <time>2023-05-30T10:56:59.000Z</time>
      </trkpt>
      <trkpt lat="46.20447" lon="-1.37306">
        <ele>58.71639</ele>
        <time>2023-05-30T10:57:00.000Z</time>
      </trkpt>
      <trkpt lat="46.20451" lon="-1.37306">
        <ele>58.68801</ele>
        <time>2023-05-30T10:57:02.000Z</time>
      </trkpt>
      <trkpt lat="46.20453" lon="-1.37301">
        <ele>58.67587</ele>
        <time>2023-05-30T10:57:04.000Z</time>
      </trkpt>
      <trkpt lat="46.20452" lon="-1.37297">
        <ele>58.73721</ele>
        <time>2023-05-30T10:57:05.000Z</time>
      </trkpt>
      <trkpt lat="46.20452" lon="-1.37294">
        <ele>58.80763</ele>
        <time>2023-05-30T10:57:06.000Z</time>
      </trkpt>
      <trkpt lat="46.20451" lon="-1.37291">
        <ele>58.80207</ele>
        <time>2023-05-30T10:57:07.000Z</time>
      </trkpt>
      <trkpt lat="46.20452" lon="-1.37286">
        <ele>58.74249</ele>
        <time>2023-05-30T10:57:09.000Z</time>
      </trkpt>
      <trkpt lat="46.20453" lon="-1.37285">
        <ele>58.65397</ele>
        <time>2023-05-30T10:57:10.000Z</time>
      </trkpt>
      <trkpt lat="46.20456" lon="-1.37284">
        <ele>58.56474</ele>
        <time>2023-05-30T10:57:11.000Z</time>
      </trkpt>
      <trkpt lat="46.20459" lon="-1.37283">
        <ele>58.45177</ele>
        <time>2023-05-30T10:57:12.000Z</time>
      </trkpt>
      <trkpt lat="46.20463" lon="-1.37283">
        <ele>58.29071</ele>
        <time>2023-05-30T10:57:13.000Z</time>
      </trkpt>
      <trkpt lat="46.20466" lon="-1.37283">
        <ele>58.14156</ele>
        <time>2023-05-30T10:57:14.000Z</time>
      </trkpt>
      <trkpt lat="46.20468" lon="-1.37283">
        <ele>57.95247</ele>
        <time>2023-05-30T10:57:15.000Z</time>
      </trkpt>
      <trkpt lat="46.2047" lon="-1.37284">
        <ele>57.76719</ele>
        <time>2023-05-30T10:57:16.000Z</time>
      </trkpt>
      <trkpt lat="46.20472" lon="-1.37284">
        <ele>57.59409</ele>
        <time>2023-05-30T10:57:17.000Z</time>
      </trkpt>
      <trkpt lat="46.20474" lon="-1.37283">
        <ele>57.42842</ele>
        <time>2023-05-30T10:57:18.000Z</time>
      </trkpt>
      <trkpt lat="46.20476" lon="-1.37283">
        <ele>57.28842</ele>
        <time>2023-05-30T10:57:19.000Z</time>
      </trkpt>
      <trkpt lat="46.20479" lon="-1.37283">
        <ele>57.14797</ele>
        <time>2023-05-30T10:57:20.000Z</time>
      </trkpt>
      <trkpt lat="46.20481" lon="-1.37283">
        <ele>57.00756</ele>
        <time>2023-05-30T10:57:21.000Z</time>
      </trkpt>
      <trkpt lat="46.20484" lon="-1.37283">
        <ele>56.86932</ele>
        <time>2023-05-30T10:57:22.000Z</time>
      </trkpt>
      <trkpt lat="46.20487" lon="-1.37283">
        <ele>56.71991</ele>
        <time>2023-05-30T10:57:23.000Z</time>
      </trkpt>
      <trkpt lat="46.20489" lon="-1.37283">
        <ele>56.58757</ele>
        <time>2023-05-30T10:57:24.000Z</time>
      </trkpt>
      <trkpt lat="46.20492" lon="-1.37282">
        <ele>56.40717</ele>
        <time>2023-05-30T10:57:25.000Z</time>
      </trkpt>
      <trkpt lat="46.20495" lon="-1.37282">
        <ele>56.25761</ele>
        <time>2023-05-30T10:57:26.000Z</time>
      </trkpt>
      <trkpt lat="46.20498" lon="-1.37281">
        <ele>56.12441</ele>
        <time>2023-05-30T10:57:27.000Z</time>
      </trkpt>
      <trkpt lat="46.20501" lon="-1.37281">
        <ele>55.99755</ele>
        <time>2023-05-30T10:57:28.000Z</time>
      </trkpt>
      <trkpt lat="46.20504" lon="-1.37281">
        <ele>55.92975</ele>
        <time>2023-05-30T10:57:29.000Z</time>
      </trkpt>
      <trkpt lat="46.20507" lon="-1.3728">
        <ele>55.87344</ele>
        <time>2023-05-30T10:57:30.000Z</time>
      </trkpt>
      <trkpt lat="46.2051" lon="-1.37279">
        <ele>55.81318</ele>
        <time>2023-05-30T10:57:31.000Z</time>
      </trkpt>
      <trkpt lat="46.20513" lon="-1.37278">
        <ele>55.74237</ele>
        <time>2023-05-30T10:57:32.000Z</time>
      </trkpt>
      <trkpt lat="46.20517" lon="-1.37277">
        <ele>55.72178</ele>
        <time>2023-05-30T10:57:33.000Z</time>
      </trkpt>
      <trkpt lat="46.2052" lon="-1.37275">
        <ele>55.67599</ele>
        <time>2023-05-30T10:57:34.000Z</time>
      </trkpt>
      <trkpt lat="46.20523" lon="-1.37273">
        <ele>55.59397</ele>
        <time>2023-05-30T10:57:35.000Z</time>
      </trkpt>
      <trkpt lat="46.20525" lon="-1.37271">
        <ele>55.51134</ele>
        <time>2023-05-30T10:57:36.000Z</time>
      </trkpt>
      <trkpt lat="46.20528" lon="-1.37268">
        <ele>55.46452</ele>
        <time>2023-05-30T10:57:37.000Z</time>
      </trkpt>
      <trkpt lat="46.20531" lon="-1.37266">
        <ele>55.44226</ele>
        <time>2023-05-30T10:57:38.000Z</time>
      </trkpt>
      <trkpt lat="46.20534" lon="-1.37262">
        <ele>55.39854</ele>
        <time>2023-05-30T10:57:39.000Z</time>
      </trkpt>
      <trkpt lat="46.20536" lon="-1.37259">
        <ele>55.36613</ele>
        <time>2023-05-30T10:57:40.000Z</time>
      </trkpt>
      <trkpt lat="46.20539" lon="-1.37255">
        <ele>55.33257</ele>
        <time>2023-05-30T10:57:41.000Z</time>
      </trkpt>
      <trkpt lat="46.20541" lon="-1.37251">
        <ele>55.30561</ele>
        <time>2023-05-30T10:57:42.000Z</time>
      </trkpt>
      <trkpt lat="46.20543" lon="-1.37247">
        <ele>55.3022</ele>
        <time>2023-05-30T10:57:43.000Z</time>
      </trkpt>
      <trkpt lat="46.20545" lon="-1.37243">
        <ele>55.28864</ele>
        <time>2023-05-30T10:57:44.000Z</time>
      </trkpt>
      <trkpt lat="46.20547" lon="-1.37239">
        <ele>55.29919</ele>
        <time>2023-05-30T10:57:45.000Z</time>
      </trkpt>
      <trkpt lat="46.20549" lon="-1.37234">
        <ele>55.28144</ele>
        <time>2023-05-30T10:57:46.000Z</time>
      </trkpt>
      <trkpt lat="46.20551" lon="-1.3723">
        <ele>55.21479</ele>
        <time>2023-05-30T10:57:47.000Z</time>
      </trkpt>
      <trkpt lat="46.20552" lon="-1.37225">
        <ele>55.14896</ele>
        <time>2023-05-30T10:57:48.000Z</time>
      </trkpt>
      <trkpt lat="46.20553" lon="-1.3722">
        <ele>55.08506</ele>
        <time>2023-05-30T10:57:49.000Z</time>
      </trkpt>
      <trkpt lat="46.20555" lon="-1.37214">
        <ele>55.0151</ele>
        <time>2023-05-30T10:57:50.000Z</time>
      </trkpt>
      <trkpt lat="46.20556" lon="-1.37209">
        <ele>54.97054</ele>
        <time>2023-05-30T10:57:51.000Z</time>
      </trkpt>
      <trkpt lat="46.20557" lon="-1.37204">
        <ele>54.91459</ele>
        <time>2023-05-30T10:57:52.000Z</time>
      </trkpt>
      <trkpt lat="46.20557" lon="-1.372">
        <ele>54.85292</ele>
        <time>2023-05-30T10:57:53.000Z</time>
      </trkpt>
      <trkpt lat="46.20558" lon="-1.37196">
        <ele>54.81363</ele>
        <time>2023-05-30T10:57:54.000Z</time>
      </trkpt>
      <trkpt lat="46.20559" lon="-1.37193">
        <ele>54.79026</ele>
        <time>2023-05-30T10:57:55.000Z</time>
      </trkpt>
      <trkpt lat="46.20559" lon="-1.37189">
        <ele>54.75541</ele>
        <time>2023-05-30T10:57:56.000Z</time>
      </trkpt>
      <trkpt lat="46.2056" lon="-1.37185">
        <ele>54.69783</ele>
        <time>2023-05-30T10:57:57.000Z</time>
      </trkpt>
      <trkpt lat="46.20561" lon="-1.3718">
        <ele>54.62571</ele>
        <time>2023-05-30T10:57:58.000Z</time>
      </trkpt>
      <trkpt lat="46.20562" lon="-1.37176">
        <ele>54.56313</ele>
        <time>2023-05-30T10:57:59.000Z</time>
      </trkpt>
      <trkpt lat="46.20564" lon="-1.37171">
        <ele>54.52192</ele>
        <time>2023-05-30T10:58:00.000Z</time>
      </trkpt>
      <trkpt lat="46.20566" lon="-1.37166">
        <ele>54.47367</ele>
        <time>2023-05-30T10:58:01.000Z</time>
      </trkpt>
      <trkpt lat="46.20567" lon="-1.37161">
        <ele>54.42075</ele>
        <time>2023-05-30T10:58:02.000Z</time>
      </trkpt>
      <trkpt lat="46.20568" lon="-1.37155">
        <ele>54.35028</ele>
        <time>2023-05-30T10:58:03.000Z</time>
      </trkpt>
      <trkpt lat="46.20568" lon="-1.3715">
        <ele>54.2879</ele>
        <time>2023-05-30T10:58:04.000Z</time>
      </trkpt>
      <trkpt lat="46.20569" lon="-1.37145">
        <ele>54.22833</ele>
        <time>2023-05-30T10:58:05.000Z</time>
      </trkpt>
      <trkpt lat="46.20569" lon="-1.37141">
        <ele>54.16294</ele>
        <time>2023-05-30T10:58:06.000Z</time>
      </trkpt>
      <trkpt lat="46.2057" lon="-1.37136">
        <ele>54.1345</ele>
        <time>2023-05-30T10:58:07.000Z</time>
      </trkpt>
      <trkpt lat="46.20571" lon="-1.37132">
        <ele>54.09808</ele>
        <time>2023-05-30T10:58:08.000Z</time>
      </trkpt>
      <trkpt lat="46.20572" lon="-1.37127">
        <ele>54.08968</ele>
        <time>2023-05-30T10:58:09.000Z</time>
      </trkpt>
      <trkpt lat="46.20572" lon="-1.37123">
        <ele>54.1079</ele>
        <time>2023-05-30T10:58:10.000Z</time>
      </trkpt>
      <trkpt lat="46.20573" lon="-1.37119">
        <ele>54.11208</ele>
        <time>2023-05-30T10:58:11.000Z</time>
      </trkpt>
      <trkpt lat="46.20574" lon="-1.37114">
        <ele>54.15184</ele>
        <time>2023-05-30T10:58:12.000Z</time>
      </trkpt>
      <trkpt lat="46.20574" lon="-1.3711">
        <ele>54.19616</ele>
        <time>2023-05-30T10:58:13.000Z</time>
      </trkpt>
      <trkpt lat="46.20575" lon="-1.37105">
        <ele>54.22706</ele>
        <time>2023-05-30T10:58:14.000Z</time>
      </trkpt>
      <trkpt lat="46.20575" lon="-1.371">
        <ele>54.23115</ele>
        <time>2023-05-30T10:58:15.000Z</time>
      </trkpt>
      <trkpt lat="46.20574" lon="-1.37096">
        <ele>54.25811</ele>
        <time>2023-05-30T10:58:16.000Z</time>
      </trkpt>
      <trkpt lat="46.20573" lon="-1.37092">
        <ele>54.25742</ele>
        <time>2023-05-30T10:58:17.000Z</time>
      </trkpt>
      <trkpt lat="46.20571" lon="-1.37088">
        <ele>54.29518</ele>
        <time>2023-05-30T10:58:18.000Z</time>
      </trkpt>
      <trkpt lat="46.2057" lon="-1.37084">
        <ele>54.33777</ele>
        <time>2023-05-30T10:58:19.000Z</time>
      </trkpt>
      <trkpt lat="46.20569" lon="-1.37079">
        <ele>54.35722</ele>
        <time>2023-05-30T10:58:20.000Z</time>
      </trkpt>
      <trkpt lat="46.20568" lon="-1.37075">
        <ele>54.36571</ele>
        <time>2023-05-30T10:58:21.000Z</time>
      </trkpt>
      <trkpt lat="46.20567" lon="-1.3707">
        <ele>54.36304</ele>
        <time>2023-05-30T10:58:22.000Z</time>
      </trkpt>
      <trkpt lat="46.20566" lon="-1.37066">
        <ele>54.35658</ele>
        <time>2023-05-30T10:58:23.000Z</time>
      </trkpt>
      <trkpt lat="46.20565" lon="-1.37061">
        <ele>54.34099</ele>
        <time>2023-05-30T10:58:24.000Z</time>
      </trkpt>
      <trkpt lat="46.20565" lon="-1.37057">
        <ele>54.31763</ele>
        <time>2023-05-30T10:58:25.000Z</time>
      </trkpt>
      <trkpt lat="46.20563" lon="-1.37052">
        <ele>54.30384</ele>
        <time>2023-05-30T10:58:26.000Z</time>
      </trkpt>
      <trkpt lat="46.20562" lon="-1.37048">
        <ele>54.30099</ele>
        <time>2023-05-30T10:58:27.000Z</time>
      </trkpt>
      <trkpt lat="46.20561" lon="-1.37043">
        <ele>54.28804</ele>
        <time>2023-05-30T10:58:28.000Z</time>
      </trkpt>
      <trkpt lat="46.2056" lon="-1.3704">
        <ele>54.24023</ele>
        <time>2023-05-30T10:58:29.000Z</time>
      </trkpt>
      <trkpt lat="46.20559" lon="-1.37037">
        <ele>54.17086</ele>
        <time>2023-05-30T10:58:30.000Z</time>
      </trkpt>
      <trkpt lat="46.20557" lon="-1.37035">
        <ele>54.08912</ele>
        <time>2023-05-30T10:58:31.000Z</time>
      </trkpt>
      <trkpt lat="46.20555" lon="-1.37031">
        <ele>54.0601</ele>
        <time>2023-05-30T10:58:33.000Z</time>
      </trkpt>
      <trkpt lat="46.20555" lon="-1.37026">
        <ele>54.03615</ele>
        <time>2023-05-30T10:58:35.000Z</time>
      </trkpt>
      <trkpt lat="46.20554" lon="-1.37023">
        <ele>54.00749</ele>
        <time>2023-05-30T10:58:37.000Z</time>
      </trkpt>
      <trkpt lat="46.20553" lon="-1.3702">
        <ele>53.96478</ele>
        <time>2023-05-30T10:59:17.000Z</time>
      </trkpt>
      <trkpt lat="46.20551" lon="-1.37016">
        <ele>53.85969</ele>
        <time>2023-05-30T10:59:19.000Z</time>
      </trkpt>
      <trkpt lat="46.2055" lon="-1.37012">
        <ele>53.74799</ele>
        <time>2023-05-30T10:59:21.000Z</time>
      </trkpt>
      <trkpt lat="46.20548" lon="-1.3701">
        <ele>53.60549</ele>
        <time>2023-05-30T10:59:23.000Z</time>
      </trkpt>
      <trkpt lat="46.2055" lon="-1.37011">
        <ele>53.49699</ele>
        <time>2023-05-30T10:59:47.000Z</time>
      </trkpt>
      <trkpt lat="46.20553" lon="-1.37012">
        <ele>53.3653</ele>
        <time>2023-05-30T10:59:49.000Z</time>
      </trkpt>
      <trkpt lat="46.20554" lon="-1.37016">
        <ele>53.14451</ele>
        <time>2023-05-30T10:59:51.000Z</time>
      </trkpt>
      <trkpt lat="46.20555" lon="-1.3702">
        <ele>52.95344</ele>
        <time>2023-05-30T10:59:53.000Z</time>
      </trkpt>
      <trkpt lat="46.20556" lon="-1.37025">
        <ele>52.77269</ele>
        <time>2023-05-30T10:59:55.000Z</time>
      </trkpt>
      <trkpt lat="46.20557" lon="-1.37027">
        <ele>52.58762</ele>
        <time>2023-05-30T10:59:56.000Z</time>
      </trkpt>
      <trkpt lat="46.20559" lon="-1.37032">
        <ele>52.4364</ele>
        <time>2023-05-30T10:59:58.000Z</time>
      </trkpt>
      <trkpt lat="46.2056" lon="-1.37034">
        <ele>52.26831</ele>
        <time>2023-05-30T10:59:59.000Z</time>
      </trkpt>
      <trkpt lat="46.20561" lon="-1.37037">
        <ele>52.10819</ele>
        <time>2023-05-30T11:00:00.000Z</time>
      </trkpt>
      <trkpt lat="46.20562" lon="-1.37039">
        <ele>51.95637</ele>
        <time>2023-05-30T11:00:01.000Z</time>
      </trkpt>
      <trkpt lat="46.20563" lon="-1.37042">
        <ele>51.81416</ele>
        <time>2023-05-30T11:00:02.000Z</time>
      </trkpt>
      <trkpt lat="46.20565" lon="-1.37043">
        <ele>51.69118</ele>
        <time>2023-05-30T11:00:03.000Z</time>
      </trkpt>
      <trkpt lat="46.20569" lon="-1.37043">
        <ele>51.61974</ele>
        <time>2023-05-30T11:00:05.000Z</time>
      </trkpt>
      <trkpt lat="46.20571" lon="-1.37041">
        <ele>51.51545</ele>
        <time>2023-05-30T11:00:06.000Z</time>
      </trkpt>
      <trkpt lat="46.20572" lon="-1.3704">
        <ele>51.37748</ele>
        <time>2023-05-30T11:00:07.000Z</time>
      </trkpt>
      <trkpt lat="46.20574" lon="-1.37037">
        <ele>51.4003</ele>
        <time>2023-05-30T11:00:08.000Z</time>
      </trkpt>
      <trkpt lat="46.20575" lon="-1.37034">
        <ele>51.48331</ele>
        <time>2023-05-30T11:00:09.000Z</time>
      </trkpt>
      <trkpt lat="46.20575" lon="-1.37031">
        <ele>51.61209</ele>
        <time>2023-05-30T11:00:10.000Z</time>
      </trkpt>
      <trkpt lat="46.20573" lon="-1.37028">
        <ele>51.7654</ele>
        <time>2023-05-30T11:00:11.000Z</time>
      </trkpt>
      <trkpt lat="46.20571" lon="-1.37026">
        <ele>51.89269</ele>
        <time>2023-05-30T11:00:12.000Z</time>
      </trkpt>
      <trkpt lat="46.20569" lon="-1.37023">
        <ele>51.97457</ele>
        <time>2023-05-30T11:00:13.000Z</time>
      </trkpt>
      <trkpt lat="46.20568" lon="-1.37021">
        <ele>52.07338</ele>
        <time>2023-05-30T11:00:14.000Z</time>
      </trkpt>
      <trkpt lat="46.20566" lon="-1.37018">
        <ele>52.27277</ele>
        <time>2023-05-30T11:00:15.000Z</time>
      </trkpt>
      <trkpt lat="46.20566" lon="-1.37015">
        <ele>52.43153</ele>
        <time>2023-05-30T11:00:16.000Z</time>
      </trkpt>
      <trkpt lat="46.20565" lon="-1.37012">
        <ele>52.5991</ele>
        <time>2023-05-30T11:00:17.000Z</time>
      </trkpt>
      <trkpt lat="46.20562" lon="-1.3701">
        <ele>52.74146</ele>
        <time>2023-05-30T11:00:19.000Z</time>
      </trkpt>
      <trkpt lat="46.20558" lon="-1.37011">
        <ele>52.88154</ele>
        <time>2023-05-30T11:00:21.000Z</time>
      </trkpt>
      <trkpt lat="46.20558" lon="-1.37014">
        <ele>53.06207</ele>
        <time>2023-05-30T11:00:26.000Z</time>
      </trkpt>
      <trkpt lat="46.20558" lon="-1.37014">
        <ele>53.06207</ele>
        <time>2023-05-30T11:00:26.000Z</time>
      </trkpt>
      <trkpt lat="46.20605" lon="-1.36799">
        <ele>53.11216</ele>
        <time>2023-05-30T11:57:15.000Z</time>
      </trkpt>
      <trkpt lat="46.20605" lon="-1.36799">
        <ele>53.11216</ele>
        <time>2023-05-30T11:57:15.000Z</time>
      </trkpt>
      <trkpt lat="46.20604" lon="-1.36802">
        <ele>53.24316</ele>
        <time>2023-05-30T11:57:19.000Z</time>
      </trkpt>
      <trkpt lat="46.20602" lon="-1.36805">
        <ele>53.37376</ele>
        <time>2023-05-30T11:57:20.000Z</time>
      </trkpt>
      <trkpt lat="46.206" lon="-1.36808">
        <ele>53.54119</ele>
        <time>2023-05-30T11:57:23.000Z</time>
      </trkpt>
      <trkpt lat="46.20599" lon="-1.3681">
        <ele>53.72459</ele>
        <time>2023-05-30T11:57:27.000Z</time>
      </trkpt>
      <trkpt lat="46.20597" lon="-1.36812">
        <ele>53.91007</ele>
        <time>2023-05-30T11:57:30.000Z</time>
      </trkpt>
      <trkpt lat="46.20595" lon="-1.36814">
        <ele>54.11158</ele>
        <time>2023-05-30T11:57:32.000Z</time>
      </trkpt>
      <trkpt lat="46.20595" lon="-1.36814">
        <ele>54.11158</ele>
        <time>2023-05-30T11:57:32.000Z</time>
      </trkpt>
      <trkpt lat="46.20591" lon="-1.36817">
        <ele>54.13996</ele>
        <time>2023-05-30T11:57:35.895Z</time>
      </trkpt>
      <trkpt lat="46.20591" lon="-1.36817">
        <ele>54.13996</ele>
        <time>2023-05-30T11:57:35.895Z</time>
      </trkpt>
      <trkpt lat="46.20589" lon="-1.36818">
        <ele>54.11785</ele>
        <time>2023-05-30T11:57:40.000Z</time>
      </trkpt>
      <trkpt lat="46.20587" lon="-1.36821">
        <ele>54.12251</ele>
        <time>2023-05-30T11:57:42.000Z</time>
      </trkpt>
      <trkpt lat="46.20586" lon="-1.36824">
        <ele>54.12597</ele>
        <time>2023-05-30T11:57:43.000Z</time>
      </trkpt>
      <trkpt lat="46.20584" lon="-1.36826">
        <ele>54.15615</ele>
        <time>2023-05-30T11:57:45.000Z</time>
      </trkpt>
      <trkpt lat="46.20583" lon="-1.36828">
        <ele>54.17607</ele>
        <time>2023-05-30T11:57:47.000Z</time>
      </trkpt>
      <trkpt lat="46.20581" lon="-1.36829">
        <ele>54.23113</ele>
        <time>2023-05-30T11:57:49.000Z</time>
      </trkpt>
      <trkpt lat="46.20578" lon="-1.3683">
        <ele>54.3282</ele>
        <time>2023-05-30T11:57:52.000Z</time>
      </trkpt>
      <trkpt lat="46.20576" lon="-1.3683">
        <ele>54.45411</ele>
        <time>2023-05-30T11:57:54.000Z</time>
      </trkpt>
      <trkpt lat="46.20574" lon="-1.36831">
        <ele>54.52818</ele>
        <time>2023-05-30T11:57:56.000Z</time>
      </trkpt>
      <trkpt lat="46.20573" lon="-1.36833">
        <ele>54.64942</ele>
        <time>2023-05-30T11:57:59.000Z</time>
      </trkpt>
      <trkpt lat="46.20571" lon="-1.36835">
        <ele>54.6995</ele>
        <time>2023-05-30T11:58:02.000Z</time>
      </trkpt>
      <trkpt lat="46.20569" lon="-1.36837">
        <ele>54.74752</ele>
        <time>2023-05-30T11:58:05.000Z</time>
      </trkpt>
      <trkpt lat="46.20568" lon="-1.36839">
        <ele>54.96045</ele>
        <time>2023-05-30T11:58:08.000Z</time>
      </trkpt>
      <trkpt lat="46.20566" lon="-1.36842">
        <ele>55.09214</ele>
        <time>2023-05-30T11:58:12.000Z</time>
      </trkpt>
      <trkpt lat="46.20564" lon="-1.36844">
        <ele>55.2152</ele>
        <time>2023-05-30T11:58:15.000Z</time>
      </trkpt>
      <trkpt lat="46.20562" lon="-1.36844">
        <ele>55.27153</ele>
        <time>2023-05-30T11:58:19.000Z</time>
      </trkpt>
      <trkpt lat="46.20561" lon="-1.36846">
        <ele>55.30978</ele>
        <time>2023-05-30T11:58:22.000Z</time>
      </trkpt>
      <trkpt lat="46.20559" lon="-1.36849">
        <ele>55.3416</ele>
        <time>2023-05-30T11:58:25.000Z</time>
      </trkpt>
      <trkpt lat="46.20558" lon="-1.3685">
        <ele>55.38519</ele>
        <time>2023-05-30T11:58:27.000Z</time>
      </trkpt>
      <trkpt lat="46.20556" lon="-1.36852">
        <ele>55.45344</ele>
        <time>2023-05-30T11:58:29.000Z</time>
      </trkpt>
      <trkpt lat="46.20553" lon="-1.36853">
        <ele>55.52431</ele>
        <time>2023-05-30T11:58:32.000Z</time>
      </trkpt>
      <trkpt lat="46.20551" lon="-1.36854">
        <ele>55.56642</ele>
        <time>2023-05-30T11:58:35.000Z</time>
      </trkpt>
      <trkpt lat="46.20549" lon="-1.36857">
        <ele>55.60737</ele>
        <time>2023-05-30T11:58:38.000Z</time>
      </trkpt>
      <trkpt lat="46.20548" lon="-1.36858">
        <ele>55.63235</ele>
        <time>2023-05-30T11:58:43.000Z</time>
      </trkpt>
      <trkpt lat="46.20545" lon="-1.3686">
        <ele>55.64523</ele>
        <time>2023-05-30T11:58:46.000Z</time>
      </trkpt>
      <trkpt lat="46.20544" lon="-1.36862">
        <ele>55.65471</ele>
        <time>2023-05-30T11:58:49.000Z</time>
      </trkpt>
      <trkpt lat="46.20542" lon="-1.36863">
        <ele>55.6171</ele>
        <time>2023-05-30T11:58:52.000Z</time>
      </trkpt>
      <trkpt lat="46.20539" lon="-1.36864">
        <ele>55.57314</ele>
        <time>2023-05-30T11:58:55.000Z</time>
      </trkpt>
      <trkpt lat="46.20538" lon="-1.36867">
        <ele>55.56187</ele>
        <time>2023-05-30T11:58:58.000Z</time>
      </trkpt>
      <trkpt lat="46.20536" lon="-1.36868">
        <ele>55.5509</ele>
        <time>2023-05-30T11:59:01.000Z</time>
      </trkpt>
      <trkpt lat="46.20534" lon="-1.36868">
        <ele>55.57524</ele>
        <time>2023-05-30T11:59:04.000Z</time>
      </trkpt>
      <trkpt lat="46.20532" lon="-1.36867">
        <ele>55.60832</ele>
        <time>2023-05-30T11:59:07.000Z</time>
      </trkpt>
      <trkpt lat="46.2053" lon="-1.36866">
        <ele>55.57882</ele>
        <time>2023-05-30T11:59:10.000Z</time>
      </trkpt>
      <trkpt lat="46.20527" lon="-1.36865">
        <ele>55.54796</ele>
        <time>2023-05-30T11:59:13.000Z</time>
      </trkpt>
      <trkpt lat="46.20526" lon="-1.36863">
        <ele>55.53713</ele>
        <time>2023-05-30T11:59:17.000Z</time>
      </trkpt>
      <trkpt lat="46.20524" lon="-1.3686">
        <ele>55.53725</ele>
        <time>2023-05-30T11:59:20.000Z</time>
      </trkpt>
      <trkpt lat="46.20523" lon="-1.36858">
        <ele>55.44292</ele>
        <time>2023-05-30T11:59:23.000Z</time>
      </trkpt>
      <trkpt lat="46.20521" lon="-1.36855">
        <ele>55.37919</ele>
        <time>2023-05-30T11:59:26.000Z</time>
      </trkpt>
      <trkpt lat="46.20521" lon="-1.36852">
        <ele>55.30098</ele>
        <time>2023-05-30T11:59:29.000Z</time>
      </trkpt>
      <trkpt lat="46.2052" lon="-1.36849">
        <ele>55.2253</ele>
        <time>2023-05-30T11:59:32.000Z</time>
      </trkpt>
      <trkpt lat="46.20519" lon="-1.36846">
        <ele>55.17914</ele>
        <time>2023-05-30T11:59:36.000Z</time>
      </trkpt>
      <trkpt lat="46.20518" lon="-1.36843">
        <ele>55.1139</ele>
        <time>2023-05-30T11:59:39.000Z</time>
      </trkpt>
      <trkpt lat="46.20517" lon="-1.3684">
        <ele>55.04881</ele>
        <time>2023-05-30T11:59:42.000Z</time>
      </trkpt>
      <trkpt lat="46.20517" lon="-1.36838">
        <ele>54.94507</ele>
        <time>2023-05-30T11:59:45.000Z</time>
      </trkpt>
      <trkpt lat="46.20516" lon="-1.36835">
        <ele>54.93607</ele>
        <time>2023-05-30T11:59:48.000Z</time>
      </trkpt>
      <trkpt lat="46.20516" lon="-1.36832">
        <ele>54.84715</ele>
        <time>2023-05-30T11:59:51.000Z</time>
      </trkpt>
      <trkpt lat="46.20516" lon="-1.36829">
        <ele>54.78114</ele>
        <time>2023-05-30T11:59:55.000Z</time>
      </trkpt>
      <trkpt lat="46.20515" lon="-1.36826">
        <ele>54.72102</ele>
        <time>2023-05-30T11:59:59.000Z</time>
      </trkpt>
      <trkpt lat="46.20515" lon="-1.36823">
        <ele>54.64365</ele>
        <time>2023-05-30T12:00:06.000Z</time>
      </trkpt>
      <trkpt lat="46.20515" lon="-1.3682">
        <ele>54.58308</ele>
        <time>2023-05-30T12:00:10.000Z</time>
      </trkpt>
      <trkpt lat="46.20515" lon="-1.36817">
        <ele>54.5423</ele>
        <time>2023-05-30T12:00:15.000Z</time>
      </trkpt>
      <trkpt lat="46.20516" lon="-1.36814">
        <ele>54.47449</ele>
        <time>2023-05-30T12:00:18.000Z</time>
      </trkpt>
      <trkpt lat="46.20517" lon="-1.36811">
        <ele>54.40061</ele>
        <time>2023-05-30T12:00:21.000Z</time>
      </trkpt>
      <trkpt lat="46.20518" lon="-1.36807">
        <ele>54.22509</ele>
        <time>2023-05-30T12:00:24.000Z</time>
      </trkpt>
      <trkpt lat="46.20519" lon="-1.36805">
        <ele>54.14862</ele>
        <time>2023-05-30T12:00:27.000Z</time>
      </trkpt>
      <trkpt lat="46.2052" lon="-1.36803">
        <ele>54.02607</ele>
        <time>2023-05-30T12:00:30.000Z</time>
      </trkpt>
      <trkpt lat="46.2052" lon="-1.368">
        <ele>53.96289</ele>
        <time>2023-05-30T12:00:33.000Z</time>
      </trkpt>
      <trkpt lat="46.20521" lon="-1.36797">
        <ele>53.89204</ele>
        <time>2023-05-30T12:00:37.000Z</time>
      </trkpt>
      <trkpt lat="46.20522" lon="-1.36794">
        <ele>53.81854</ele>
        <time>2023-05-30T12:00:41.000Z</time>
      </trkpt>
      <trkpt lat="46.20522" lon="-1.36792">
        <ele>53.75816</ele>
        <time>2023-05-30T12:00:45.000Z</time>
      </trkpt>
      <trkpt lat="46.20523" lon="-1.36789">
        <ele>53.71677</ele>
        <time>2023-05-30T12:00:48.000Z</time>
      </trkpt>
      <trkpt lat="46.20524" lon="-1.36786">
        <ele>53.69619</ele>
        <time>2023-05-30T12:00:53.000Z</time>
      </trkpt>
      <trkpt lat="46.20524" lon="-1.36783">
        <ele>53.7868</ele>
        <time>2023-05-30T12:00:56.000Z</time>
      </trkpt>
      <trkpt lat="46.20525" lon="-1.36781">
        <ele>53.95851</ele>
        <time>2023-05-30T12:00:59.000Z</time>
      </trkpt>
      <trkpt lat="46.20525" lon="-1.36778">
        <ele>54.01682</ele>
        <time>2023-05-30T12:01:06.000Z</time>
      </trkpt>
      <trkpt lat="46.20524" lon="-1.36776">
        <ele>54.13075</ele>
        <time>2023-05-30T12:01:10.000Z</time>
      </trkpt>
      <trkpt lat="46.20522" lon="-1.36774">
        <ele>54.30253</ele>
        <time>2023-05-30T12:01:13.000Z</time>
      </trkpt>
      <trkpt lat="46.20521" lon="-1.36772">
        <ele>54.48196</ele>
        <time>2023-05-30T12:01:17.000Z</time>
      </trkpt>
      <trkpt lat="46.20519" lon="-1.3677">
        <ele>54.72495</ele>
        <time>2023-05-30T12:01:21.000Z</time>
      </trkpt>
      <trkpt lat="46.20517" lon="-1.36769">
        <ele>54.91874</ele>
        <time>2023-05-30T12:01:25.000Z</time>
      </trkpt>
      <trkpt lat="46.20515" lon="-1.36769">
        <ele>55.11623</ele>
        <time>2023-05-30T12:01:28.000Z</time>
      </trkpt>
      <trkpt lat="46.20513" lon="-1.36768">
        <ele>55.27874</ele>
        <time>2023-05-30T12:01:33.000Z</time>
      </trkpt>
      <trkpt lat="46.2051" lon="-1.36766">
        <ele>55.42744</ele>
        <time>2023-05-30T12:01:36.000Z</time>
      </trkpt>
      <trkpt lat="46.20508" lon="-1.36765">
        <ele>55.6884</ele>
        <time>2023-05-30T12:01:39.000Z</time>
      </trkpt>
      <trkpt lat="46.20507" lon="-1.36764">
        <ele>55.85453</ele>
        <time>2023-05-30T12:01:42.000Z</time>
      </trkpt>
      <trkpt lat="46.20504" lon="-1.36762">
        <ele>56.09045</ele>
        <time>2023-05-30T12:01:45.000Z</time>
      </trkpt>
      <trkpt lat="46.20503" lon="-1.36761">
        <ele>56.28193</ele>
        <time>2023-05-30T12:01:47.000Z</time>
      </trkpt>
      <trkpt lat="46.20501" lon="-1.36759">
        <ele>56.46057</ele>
        <time>2023-05-30T12:01:49.000Z</time>
      </trkpt>
      <trkpt lat="46.20499" lon="-1.36758">
        <ele>56.64544</ele>
        <time>2023-05-30T12:01:51.000Z</time>
      </trkpt>
      <trkpt lat="46.20497" lon="-1.36757">
        <ele>56.88795</ele>
        <time>2023-05-30T12:01:53.000Z</time>
      </trkpt>
      <trkpt lat="46.20495" lon="-1.36756">
        <ele>57.15763</ele>
        <time>2023-05-30T12:01:56.000Z</time>
      </trkpt>
      <trkpt lat="46.20493" lon="-1.36755">
        <ele>57.43334</ele>
        <time>2023-05-30T12:01:59.000Z</time>
      </trkpt>
      <trkpt lat="46.20491" lon="-1.36755">
        <ele>57.598</ele>
        <time>2023-05-30T12:02:02.000Z</time>
      </trkpt>
      <trkpt lat="46.20489" lon="-1.36756">
        <ele>57.61212</ele>
        <time>2023-05-30T12:02:06.000Z</time>
      </trkpt>
      <trkpt lat="46.20487" lon="-1.36758">
        <ele>57.63115</ele>
        <time>2023-05-30T12:02:10.000Z</time>
      </trkpt>
      <trkpt lat="46.20486" lon="-1.36761">
        <ele>57.66145</ele>
        <time>2023-05-30T12:02:13.000Z</time>
      </trkpt>
      <trkpt lat="46.20485" lon="-1.36764">
        <ele>57.58501</ele>
        <time>2023-05-30T12:02:16.000Z</time>
      </trkpt>
      <trkpt lat="46.20484" lon="-1.36767">
        <ele>57.48931</ele>
        <time>2023-05-30T12:02:18.000Z</time>
      </trkpt>
      <trkpt lat="46.20483" lon="-1.3677">
        <ele>57.34837</ele>
        <time>2023-05-30T12:02:24.000Z</time>
      </trkpt>
      <trkpt lat="46.20483" lon="-1.36773">
        <ele>57.2364</ele>
        <time>2023-05-30T12:02:28.000Z</time>
      </trkpt>
      <trkpt lat="46.20482" lon="-1.36776">
        <ele>57.13378</ele>
        <time>2023-05-30T12:02:31.000Z</time>
      </trkpt>
      <trkpt lat="46.20481" lon="-1.36778">
        <ele>57.02738</ele>
        <time>2023-05-30T12:02:34.000Z</time>
      </trkpt>
      <trkpt lat="46.20479" lon="-1.36781">
        <ele>56.95664</ele>
        <time>2023-05-30T12:02:37.000Z</time>
      </trkpt>
      <trkpt lat="46.20478" lon="-1.36782">
        <ele>56.86809</ele>
        <time>2023-05-30T12:02:39.000Z</time>
      </trkpt>
      <trkpt lat="46.20476" lon="-1.36784">
        <ele>56.74421</ele>
        <time>2023-05-30T12:02:42.000Z</time>
      </trkpt>
      <trkpt lat="46.20476" lon="-1.36787">
        <ele>56.64509</ele>
        <time>2023-05-30T12:02:46.000Z</time>
      </trkpt>
      <trkpt lat="46.20475" lon="-1.3679">
        <ele>56.57338</ele>
        <time>2023-05-30T12:02:50.000Z</time>
      </trkpt>
      <trkpt lat="46.20475" lon="-1.36793">
        <ele>56.49618</ele>
        <time>2023-05-30T12:02:55.000Z</time>
      </trkpt>
      <trkpt lat="46.20473" lon="-1.36795">
        <ele>56.44569</ele>
        <time>2023-05-30T12:03:01.000Z</time>
      </trkpt>
      <trkpt lat="46.20473" lon="-1.36797">
        <ele>56.32406</ele>
        <time>2023-05-30T12:03:04.000Z</time>
      </trkpt>
      <trkpt lat="46.20472" lon="-1.368">
        <ele>56.14739</ele>
        <time>2023-05-30T12:03:08.000Z</time>
      </trkpt>
      <trkpt lat="46.20471" lon="-1.36803">
        <ele>55.8932</ele>
        <time>2023-05-30T12:03:14.000Z</time>
      </trkpt>
      <trkpt lat="46.20469" lon="-1.36802">
        <ele>55.62068</ele>
        <time>2023-05-30T12:03:20.000Z</time>
      </trkpt>
      <trkpt lat="46.20469" lon="-1.36799">
        <ele>55.47017</ele>
        <time>2023-05-30T12:03:24.000Z</time>
      </trkpt>
      <trkpt lat="46.2047" lon="-1.36796">
        <ele>55.39693</ele>
        <time>2023-05-30T12:03:28.000Z</time>
      </trkpt>
      <trkpt lat="46.20469" lon="-1.36794">
        <ele>55.26489</ele>
        <time>2023-05-30T12:03:36.000Z</time>
      </trkpt>
      <trkpt lat="46.20471" lon="-1.36794">
        <ele>55.24795</ele>
        <time>2023-05-30T12:04:38.000Z</time>
      </trkpt>
      <trkpt lat="46.20473" lon="-1.36795">
        <ele>55.41838</ele>
        <time>2023-05-30T12:05:13.000Z</time>
      </trkpt>
      <trkpt lat="46.2048" lon="-1.36795">
        <ele>55.55434</ele>
        <time>2023-05-30T12:06:33.000Z</time>
      </trkpt>
      <trkpt lat="46.20478" lon="-1.36794">
        <ele>55.70592</ele>
        <time>2023-05-30T12:06:37.000Z</time>
      </trkpt>
      <trkpt lat="46.20477" lon="-1.36796">
        <ele>55.90343</ele>
        <time>2023-05-30T12:07:10.000Z</time>
      </trkpt>
      <trkpt lat="46.20475" lon="-1.36796">
        <ele>56.04919</ele>
        <time>2023-05-30T12:07:12.000Z</time>
      </trkpt>
      <trkpt lat="46.20474" lon="-1.36797">
        <ele>56.18061</ele>
        <time>2023-05-30T12:07:17.000Z</time>
      </trkpt>
      <trkpt lat="46.20471" lon="-1.36797">
        <ele>56.27909</ele>
        <time>2023-05-30T12:07:35.000Z</time>
      </trkpt>
      <trkpt lat="46.20471" lon="-1.36797">
        <ele>56.27909</ele>
        <time>2023-05-30T12:07:35.000Z</time>
      </trkpt>
      <trkpt lat="46.2056" lon="-1.37015">
        <ele>53.66693</ele>
        <time>2023-05-30T14:03:19.000Z</time>
      </trkpt>
      <trkpt lat="46.2056" lon="-1.37015">
        <ele>53.66693</ele>
        <time>2023-05-30T14:03:19.000Z</time>
      </trkpt>
      <trkpt lat="46.20562" lon="-1.37017">
        <ele>50.93333</ele>
        <time>2023-05-30T14:03:32.000Z</time>
      </trkpt>
      <trkpt lat="46.20564" lon="-1.37021">
        <ele>50.70876</ele>
        <time>2023-05-30T14:03:34.000Z</time>
      </trkpt>
      <trkpt lat="46.20566" lon="-1.37023">
        <ele>50.45859</ele>
        <time>2023-05-30T14:03:36.000Z</time>
      </trkpt>
      <trkpt lat="46.20568" lon="-1.37025">
        <ele>47.88264</ele>
        <time>2023-05-30T14:03:38.000Z</time>
      </trkpt>
      <trkpt lat="46.2057" lon="-1.37028">
        <ele>47.47979</ele>
        <time>2023-05-30T14:03:40.000Z</time>
      </trkpt>
      <trkpt lat="46.20572" lon="-1.3703">
        <ele>47.05805</ele>
        <time>2023-05-30T14:03:43.000Z</time>
      </trkpt>
      <trkpt lat="46.20574" lon="-1.37031">
        <ele>44.49054</ele>
        <time>2023-05-30T14:03:46.000Z</time>
      </trkpt>
      <trkpt lat="46.20575" lon="-1.37033">
        <ele>44.01802</ele>
        <time>2023-05-30T14:03:47.000Z</time>
      </trkpt>
      <trkpt lat="46.20578" lon="-1.37034">
        <ele>43.51651</ele>
        <time>2023-05-30T14:03:49.000Z</time>
      </trkpt>
      <trkpt lat="46.2058" lon="-1.37035">
        <ele>42.95812</ele>
        <time>2023-05-30T14:03:50.000Z</time>
      </trkpt>
      <trkpt lat="46.20582" lon="-1.37038">
        <ele>42.42105</ele>
        <time>2023-05-30T14:03:51.000Z</time>
      </trkpt>
      <trkpt lat="46.20582" lon="-1.37041">
        <ele>39.76487</ele>
        <time>2023-05-30T14:03:52.000Z</time>
      </trkpt>
      <trkpt lat="46.20581" lon="-1.37044">
        <ele>38.80193</ele>
        <time>2023-05-30T14:03:53.000Z</time>
      </trkpt>
      <trkpt lat="46.20581" lon="-1.37047">
        <ele>37.83027</ele>
        <time>2023-05-30T14:03:54.000Z</time>
      </trkpt>
      <trkpt lat="46.20581" lon="-1.3705">
        <ele>36.78462</ele>
        <time>2023-05-30T14:03:55.000Z</time>
      </trkpt>
      <trkpt lat="46.20581" lon="-1.37052">
        <ele>35.61628</ele>
        <time>2023-05-30T14:03:56.000Z</time>
      </trkpt>
      <trkpt lat="46.20581" lon="-1.37055">
        <ele>34.48027</ele>
        <time>2023-05-30T14:03:57.000Z</time>
      </trkpt>
      <trkpt lat="46.2058" lon="-1.37057">
        <ele>31.68041</ele>
        <time>2023-05-30T14:03:58.000Z</time>
      </trkpt>
      <trkpt lat="46.20578" lon="-1.37059">
        <ele>28.95826</ele>
        <time>2023-05-30T14:04:00.000Z</time>
      </trkpt>
      <trkpt lat="46.20575" lon="-1.37059">
        <ele>28.96975</ele>
        <time>2023-05-30T14:04:02.000Z</time>
      </trkpt>
      <trkpt lat="46.20573" lon="-1.3706">
        <ele>29.06148</ele>
        <time>2023-05-30T14:05:04.000Z</time>
      </trkpt>
      <trkpt lat="46.20572" lon="-1.37062">
        <ele>26.64236</ele>
        <time>2023-05-30T14:05:06.000Z</time>
      </trkpt>
      <trkpt lat="46.20569" lon="-1.37065">
        <ele>24.24621</ele>
        <time>2023-05-30T14:05:08.000Z</time>
      </trkpt>
      <trkpt lat="46.20568" lon="-1.37068">
        <ele>24.16379</ele>
        <time>2023-05-30T14:05:09.000Z</time>
      </trkpt>
      <trkpt lat="46.20568" lon="-1.37072">
        <ele>21.92296</ele>
        <time>2023-05-30T14:05:10.000Z</time>
      </trkpt>
      <trkpt lat="46.20568" lon="-1.37076">
        <ele>19.70152</ele>
        <time>2023-05-30T14:05:11.000Z</time>
      </trkpt>
      <trkpt lat="46.20568" lon="-1.37079">
        <ele>19.70245</ele>
        <time>2023-05-30T14:05:12.000Z</time>
      </trkpt>
      <trkpt lat="46.20569" lon="-1.37083">
        <ele>17.64016</ele>
        <time>2023-05-30T14:05:13.000Z</time>
      </trkpt>
      <trkpt lat="46.20569" lon="-1.37087">
        <ele>15.61799</ele>
        <time>2023-05-30T14:05:14.000Z</time>
      </trkpt>
      <trkpt lat="46.2057" lon="-1.3709">
        <ele>13.6337</ele>
        <time>2023-05-30T14:05:15.000Z</time>
      </trkpt>
      <trkpt lat="46.2057" lon="-1.37093">
        <ele>11.68942</ele>
        <time>2023-05-30T14:05:16.000Z</time>
      </trkpt>
      <trkpt lat="46.2057" lon="-1.37095">
        <ele>11.76266</ele>
        <time>2023-05-30T14:05:17.000Z</time>
      </trkpt>
      <trkpt lat="46.2057" lon="-1.37098">
        <ele>9.95816</ele>
        <time>2023-05-30T14:05:18.000Z</time>
      </trkpt>
      <trkpt lat="46.2057" lon="-1.37102">
        <ele>8.20809</ele>
        <time>2023-05-30T14:05:19.000Z</time>
      </trkpt>
      <trkpt lat="46.2057" lon="-1.37105">
        <ele>6.49344</ele>
        <time>2023-05-30T14:05:20.000Z</time>
      </trkpt>
      <trkpt lat="46.2057" lon="-1.37108">
        <ele>4.85082</ele>
        <time>2023-05-30T14:05:21.000Z</time>
      </trkpt>
      <trkpt lat="46.20571" lon="-1.37111">
        <ele>3.26014</ele>
        <time>2023-05-30T14:05:22.000Z</time>
      </trkpt>
      <trkpt lat="46.20571" lon="-1.37114">
        <ele>3.32385</ele>
        <time>2023-05-30T14:05:23.000Z</time>
      </trkpt>
      <trkpt lat="46.20571" lon="-1.37117">
        <ele>3.36098</ele>
        <time>2023-05-30T14:05:24.000Z</time>
      </trkpt>
      <trkpt lat="46.20571" lon="-1.37121">
        <ele>3.38114</ele>
        <time>2023-05-30T14:05:25.000Z</time>
      </trkpt>
      <trkpt lat="46.20571" lon="-1.37124">
        <ele>3.40711</ele>
        <time>2023-05-30T14:05:26.000Z</time>
      </trkpt>
      <trkpt lat="46.2057" lon="-1.37127">
        <ele>3.44719</ele>
        <time>2023-05-30T14:05:27.000Z</time>
      </trkpt>
      <trkpt lat="46.2057" lon="-1.37131">
        <ele>3.47953</ele>
        <time>2023-05-30T14:05:28.000Z</time>
      </trkpt>
      <trkpt lat="46.20569" lon="-1.37134">
        <ele>3.49544</ele>
        <time>2023-05-30T14:05:29.000Z</time>
      </trkpt>
      <trkpt lat="46.20569" lon="-1.37137">
        <ele>3.51463</ele>
        <time>2023-05-30T14:05:30.000Z</time>
      </trkpt>
      <trkpt lat="46.20568" lon="-1.3714">
        <ele>3.51941</ele>
        <time>2023-05-30T14:05:31.000Z</time>
      </trkpt>
      <trkpt lat="46.20568" lon="-1.37143">
        <ele>3.52598</ele>
        <time>2023-05-30T14:05:32.000Z</time>
      </trkpt>
      <trkpt lat="46.20567" lon="-1.37146">
        <ele>3.53449</ele>
        <time>2023-05-30T14:05:33.000Z</time>
      </trkpt>
      <trkpt lat="46.20567" lon="-1.37149">
        <ele>3.53717</ele>
        <time>2023-05-30T14:05:34.000Z</time>
      </trkpt>
      <trkpt lat="46.20567" lon="-1.37152">
        <ele>3.51872</ele>
        <time>2023-05-30T14:05:35.000Z</time>
      </trkpt>
      <trkpt lat="46.20566" lon="-1.37155">
        <ele>3.49391</ele>
        <time>2023-05-30T14:05:36.000Z</time>
      </trkpt>
      <trkpt lat="46.20566" lon="-1.37158">
        <ele>3.46835</ele>
        <time>2023-05-30T14:05:37.000Z</time>
      </trkpt>
      <trkpt lat="46.20565" lon="-1.3716">
        <ele>3.45417</ele>
        <time>2023-05-30T14:05:38.000Z</time>
      </trkpt>
      <trkpt lat="46.20563" lon="-1.37163">
        <ele>3.40933</ele>
        <time>2023-05-30T14:05:40.000Z</time>
      </trkpt>
      <trkpt lat="46.20561" lon="-1.37166">
        <ele>3.46902</ele>
        <time>2023-05-30T14:06:25.000Z</time>
      </trkpt>
      <trkpt lat="46.20559" lon="-1.37168">
        <ele>3.50103</ele>
        <time>2023-05-30T14:06:26.000Z</time>
      </trkpt>
      <trkpt lat="46.20558" lon="-1.3717">
        <ele>3.54087</ele>
        <time>2023-05-30T14:06:27.000Z</time>
      </trkpt>
      <trkpt lat="46.20558" lon="-1.37173">
        <ele>3.60327</ele>
        <time>2023-05-30T14:06:28.000Z</time>
      </trkpt>
      <trkpt lat="46.20559" lon="-1.37177">
        <ele>3.6553</ele>
        <time>2023-05-30T14:06:29.000Z</time>
      </trkpt>
      <trkpt lat="46.2056" lon="-1.37181">
        <ele>3.75617</ele>
        <time>2023-05-30T14:06:30.000Z</time>
      </trkpt>
      <trkpt lat="46.2056" lon="-1.37185">
        <ele>3.84466</ele>
        <time>2023-05-30T14:06:31.000Z</time>
      </trkpt>
      <trkpt lat="46.2056" lon="-1.37188">
        <ele>3.92661</ele>
        <time>2023-05-30T14:06:32.000Z</time>
      </trkpt>
      <trkpt lat="46.20559" lon="-1.37193">
        <ele>3.99375</ele>
        <time>2023-05-30T14:06:33.000Z</time>
      </trkpt>
      <trkpt lat="46.20558" lon="-1.37197">
        <ele>4.0604</ele>
        <time>2023-05-30T14:06:34.000Z</time>
      </trkpt>
      <trkpt lat="46.20557" lon="-1.37201">
        <ele>4.12591</ele>
        <time>2023-05-30T14:06:35.000Z</time>
      </trkpt>
      <trkpt lat="46.20556" lon="-1.37205">
        <ele>4.18231</ele>
        <time>2023-05-30T14:06:36.000Z</time>
      </trkpt>
      <trkpt lat="46.20554" lon="-1.37209">
        <ele>4.25276</ele>
        <time>2023-05-30T14:06:37.000Z</time>
      </trkpt>
      <trkpt lat="46.20553" lon="-1.37214">
        <ele>4.34085</ele>
        <time>2023-05-30T14:06:38.000Z</time>
      </trkpt>
      <trkpt lat="46.20551" lon="-1.37218">
        <ele>4.41938</ele>
        <time>2023-05-30T14:06:39.000Z</time>
      </trkpt>
      <trkpt lat="46.2055" lon="-1.37223">
        <ele>4.49167</ele>
        <time>2023-05-30T14:06:40.000Z</time>
      </trkpt>
      <trkpt lat="46.20548" lon="-1.37227">
        <ele>4.61262</ele>
        <time>2023-05-30T14:06:41.000Z</time>
      </trkpt>
      <trkpt lat="46.20547" lon="-1.37231">
        <ele>4.92561</ele>
        <time>2023-05-30T14:06:42.000Z</time>
      </trkpt>
      <trkpt lat="46.20545" lon="-1.37235">
        <ele>5.16355</ele>
        <time>2023-05-30T14:06:43.000Z</time>
      </trkpt>
      <trkpt lat="46.20543" lon="-1.3724">
        <ele>5.44203</ele>
        <time>2023-05-30T14:06:44.000Z</time>
      </trkpt>
      <trkpt lat="46.20541" lon="-1.37245">
        <ele>5.62006</ele>
        <time>2023-05-30T14:06:45.000Z</time>
      </trkpt>
      <trkpt lat="46.20539" lon="-1.3725">
        <ele>5.81874</ele>
        <time>2023-05-30T14:06:46.000Z</time>
      </trkpt>
      <trkpt lat="46.20536" lon="-1.37254">
        <ele>6.01048</ele>
        <time>2023-05-30T14:06:47.000Z</time>
      </trkpt>
      <trkpt lat="46.20534" lon="-1.37259">
        <ele>6.18305</ele>
        <time>2023-05-30T14:06:48.000Z</time>
      </trkpt>
      <trkpt lat="46.20531" lon="-1.37264">
        <ele>6.34941</ele>
        <time>2023-05-30T14:06:49.000Z</time>
      </trkpt>
      <trkpt lat="46.20527" lon="-1.37268">
        <ele>6.48659</ele>
        <time>2023-05-30T14:06:50.000Z</time>
      </trkpt>
      <trkpt lat="46.20524" lon="-1.37271">
        <ele>6.63092</ele>
        <time>2023-05-30T14:06:51.000Z</time>
      </trkpt>
      <trkpt lat="46.20519" lon="-1.37271">
        <ele>6.79389</ele>
        <time>2023-05-30T14:06:52.000Z</time>
      </trkpt>
      <trkpt lat="46.20515" lon="-1.37274">
        <ele>6.96837</ele>
        <time>2023-05-30T14:06:53.000Z</time>
      </trkpt>
      <trkpt lat="46.20511" lon="-1.37276">
        <ele>7.14984</ele>
        <time>2023-05-30T14:06:54.000Z</time>
      </trkpt>
      <trkpt lat="46.20507" lon="-1.37278">
        <ele>7.32861</ele>
        <time>2023-05-30T14:06:55.000Z</time>
      </trkpt>
      <trkpt lat="46.20504" lon="-1.37279">
        <ele>7.54041</ele>
        <time>2023-05-30T14:06:56.000Z</time>
      </trkpt>
      <trkpt lat="46.205" lon="-1.3728">
        <ele>7.66361</ele>
        <time>2023-05-30T14:06:57.000Z</time>
      </trkpt>
      <trkpt lat="46.20496" lon="-1.37282">
        <ele>7.71387</ele>
        <time>2023-05-30T14:06:58.000Z</time>
      </trkpt>
      <trkpt lat="46.20492" lon="-1.37283">
        <ele>7.78394</ele>
        <time>2023-05-30T14:06:59.000Z</time>
      </trkpt>
      <trkpt lat="46.20487" lon="-1.37284">
        <ele>7.84704</ele>
        <time>2023-05-30T14:07:00.000Z</time>
      </trkpt>
      <trkpt lat="46.20483" lon="-1.37285">
        <ele>7.86518</ele>
        <time>2023-05-30T14:07:01.000Z</time>
      </trkpt>
      <trkpt lat="46.20479" lon="-1.37286">
        <ele>7.69156</ele>
        <time>2023-05-30T14:07:02.000Z</time>
      </trkpt>
      <trkpt lat="46.20474" lon="-1.37287">
        <ele>7.6009</ele>
        <time>2023-05-30T14:07:03.000Z</time>
      </trkpt>
      <trkpt lat="46.2047" lon="-1.37287">
        <ele>7.51022</ele>
        <time>2023-05-30T14:07:04.000Z</time>
      </trkpt>
      <trkpt lat="46.20467" lon="-1.37286">
        <ele>7.4446</ele>
        <time>2023-05-30T14:07:05.000Z</time>
      </trkpt>
      <trkpt lat="46.20462" lon="-1.37287">
        <ele>7.38084</ele>
        <time>2023-05-30T14:07:06.000Z</time>
      </trkpt>
      <trkpt lat="46.20458" lon="-1.37287">
        <ele>7.34511</ele>
        <time>2023-05-30T14:07:07.000Z</time>
      </trkpt>
      <trkpt lat="46.20455" lon="-1.37287">
        <ele>7.31977</ele>
        <time>2023-05-30T14:07:08.000Z</time>
      </trkpt>
      <trkpt lat="46.20451" lon="-1.37288">
        <ele>7.30855</ele>
        <time>2023-05-30T14:07:09.000Z</time>
      </trkpt>
      <trkpt lat="46.20449" lon="-1.37291">
        <ele>7.28597</ele>
        <time>2023-05-30T14:07:10.000Z</time>
      </trkpt>
      <trkpt lat="46.20448" lon="-1.37295">
        <ele>7.26423</ele>
        <time>2023-05-30T14:07:11.000Z</time>
      </trkpt>
      <trkpt lat="46.20447" lon="-1.37298">
        <ele>7.23617</ele>
        <time>2023-05-30T14:07:12.000Z</time>
      </trkpt>
      <trkpt lat="46.20444" lon="-1.37301">
        <ele>7.20758</ele>
        <time>2023-05-30T14:07:13.000Z</time>
      </trkpt>
      <trkpt lat="46.20441" lon="-1.37303">
        <ele>7.18832</ele>
        <time>2023-05-30T14:07:14.000Z</time>
      </trkpt>
      <trkpt lat="46.20437" lon="-1.37303">
        <ele>7.17049</ele>
        <time>2023-05-30T14:07:15.000Z</time>
      </trkpt>
      <trkpt lat="46.20432" lon="-1.37303">
        <ele>7.15027</ele>
        <time>2023-05-30T14:07:16.000Z</time>
      </trkpt>
      <trkpt lat="46.20428" lon="-1.37303">
        <ele>7.21353</ele>
        <time>2023-05-30T14:07:17.000Z</time>
      </trkpt>
      <trkpt lat="46.20424" lon="-1.37303">
        <ele>7.33776</ele>
        <time>2023-05-30T14:07:18.000Z</time>
      </trkpt>
      <trkpt lat="46.2042" lon="-1.37303">
        <ele>7.46478</ele>
        <time>2023-05-30T14:07:19.000Z</time>
      </trkpt>
      <trkpt lat="46.20416" lon="-1.37303">
        <ele>7.62359</ele>
        <time>2023-05-30T14:07:20.000Z</time>
      </trkpt>
      <trkpt lat="46.20412" lon="-1.37303">
        <ele>7.81161</ele>
        <time>2023-05-30T14:07:21.000Z</time>
      </trkpt>
      <trkpt lat="46.20407" lon="-1.37303">
        <ele>8.01847</ele>
        <time>2023-05-30T14:07:22.000Z</time>
      </trkpt>
      <trkpt lat="46.20403" lon="-1.37304">
        <ele>8.22141</ele>
        <time>2023-05-30T14:07:23.000Z</time>
      </trkpt>
      <trkpt lat="46.20398" lon="-1.37304">
        <ele>8.41222</ele>
        <time>2023-05-30T14:07:24.000Z</time>
      </trkpt>
      <trkpt lat="46.20393" lon="-1.37306">
        <ele>8.58704</ele>
        <time>2023-05-30T14:07:25.000Z</time>
      </trkpt>
      <trkpt lat="46.20389" lon="-1.37306">
        <ele>8.7444</ele>
        <time>2023-05-30T14:07:26.000Z</time>
      </trkpt>
      <trkpt lat="46.20384" lon="-1.37307">
        <ele>8.90227</ele>
        <time>2023-05-30T14:07:27.000Z</time>
      </trkpt>
      <trkpt lat="46.20379" lon="-1.37308">
        <ele>9.00654</ele>
        <time>2023-05-30T14:07:28.000Z</time>
      </trkpt>
      <trkpt lat="46.20374" lon="-1.37309">
        <ele>9.0951</ele>
        <time>2023-05-30T14:07:29.000Z</time>
      </trkpt>
      <trkpt lat="46.20369" lon="-1.3731">
        <ele>9.24946</ele>
        <time>2023-05-30T14:07:30.000Z</time>
      </trkpt>
      <trkpt lat="46.20364" lon="-1.37311">
        <ele>9.407</ele>
        <time>2023-05-30T14:07:31.000Z</time>
      </trkpt>
      <trkpt lat="46.2036" lon="-1.37311">
        <ele>9.55424</ele>
        <time>2023-05-30T14:07:32.000Z</time>
      </trkpt>
      <trkpt lat="46.20355" lon="-1.37312">
        <ele>9.68715</ele>
        <time>2023-05-30T14:07:33.000Z</time>
      </trkpt>
      <trkpt lat="46.2035" lon="-1.37313">
        <ele>9.81759</ele>
        <time>2023-05-30T14:07:34.000Z</time>
      </trkpt>
      <trkpt lat="46.20346" lon="-1.37313">
        <ele>9.94527</ele>
        <time>2023-05-30T14:07:35.000Z</time>
      </trkpt>
      <trkpt lat="46.20341" lon="-1.37314">
        <ele>10.06675</ele>
        <time>2023-05-30T14:07:36.000Z</time>
      </trkpt>
      <trkpt lat="46.20336" lon="-1.37315">
        <ele>10.18376</ele>
        <time>2023-05-30T14:07:37.000Z</time>
      </trkpt>
      <trkpt lat="46.2033" lon="-1.37314">
        <ele>10.29012</ele>
        <time>2023-05-30T14:07:38.000Z</time>
      </trkpt>
      <trkpt lat="46.20326" lon="-1.37313">
        <ele>10.36902</ele>
        <time>2023-05-30T14:07:39.000Z</time>
      </trkpt>
      <trkpt lat="46.20322" lon="-1.37313">
        <ele>10.44696</ele>
        <time>2023-05-30T14:07:40.000Z</time>
      </trkpt>
      <trkpt lat="46.20319" lon="-1.37316">
        <ele>10.44127</ele>
        <time>2023-05-30T14:07:41.000Z</time>
      </trkpt>
      <trkpt lat="46.20316" lon="-1.37319">
        <ele>10.4716</ele>
        <time>2023-05-30T14:07:42.000Z</time>
      </trkpt>
      <trkpt lat="46.20312" lon="-1.3732">
        <ele>10.45117</ele>
        <time>2023-05-30T14:07:43.000Z</time>
      </trkpt>
      <trkpt lat="46.20307" lon="-1.37321">
        <ele>10.49779</ele>
        <time>2023-05-30T14:07:44.000Z</time>
      </trkpt>
      <trkpt lat="46.20303" lon="-1.37321">
        <ele>10.50854</ele>
        <time>2023-05-30T14:07:45.000Z</time>
      </trkpt>
      <trkpt lat="46.20297" lon="-1.37322">
        <ele>10.5208</ele>
        <time>2023-05-30T14:07:46.000Z</time>
      </trkpt>
      <trkpt lat="46.20291" lon="-1.37323">
        <ele>10.49815</ele>
        <time>2023-05-30T14:07:47.000Z</time>
      </trkpt>
      <trkpt lat="46.20285" lon="-1.37323">
        <ele>10.54579</ele>
        <time>2023-05-30T14:07:48.000Z</time>
      </trkpt>
      <trkpt lat="46.20279" lon="-1.37324">
        <ele>10.59066</ele>
        <time>2023-05-30T14:07:49.000Z</time>
      </trkpt>
      <trkpt lat="46.20274" lon="-1.37324">
        <ele>10.56373</ele>
        <time>2023-05-30T14:07:50.000Z</time>
      </trkpt>
      <trkpt lat="46.20267" lon="-1.37324">
        <ele>10.52837</ele>
        <time>2023-05-30T14:07:51.000Z</time>
      </trkpt>
      <trkpt lat="46.20261" lon="-1.37325">
        <ele>10.48825</ele>
        <time>2023-05-30T14:07:52.000Z</time>
      </trkpt>
      <trkpt lat="46.20255" lon="-1.37325">
        <ele>10.46973</ele>
        <time>2023-05-30T14:07:53.000Z</time>
      </trkpt>
      <trkpt lat="46.2025" lon="-1.37325">
        <ele>10.54267</ele>
        <time>2023-05-30T14:07:54.000Z</time>
      </trkpt>
      <trkpt lat="46.20245" lon="-1.37326">
        <ele>10.59609</ele>
        <time>2023-05-30T14:07:55.000Z</time>
      </trkpt>
      <trkpt lat="46.20239" lon="-1.37327">
        <ele>10.64807</ele>
        <time>2023-05-30T14:07:56.000Z</time>
      </trkpt>
      <trkpt lat="46.20233" lon="-1.37329">
        <ele>10.69051</ele>
        <time>2023-05-30T14:07:57.000Z</time>
      </trkpt>
      <trkpt lat="46.20227" lon="-1.37331">
        <ele>10.72382</ele>
        <time>2023-05-30T14:07:58.000Z</time>
      </trkpt>
      <trkpt lat="46.20222" lon="-1.37334">
        <ele>10.75286</ele>
        <time>2023-05-30T14:07:59.000Z</time>
      </trkpt>
      <trkpt lat="46.20217" lon="-1.37338">
        <ele>10.81334</ele>
        <time>2023-05-30T14:08:00.000Z</time>
      </trkpt>
      <trkpt lat="46.20212" lon="-1.37343">
        <ele>10.91357</ele>
        <time>2023-05-30T14:08:01.000Z</time>
      </trkpt>
      <trkpt lat="46.20207" lon="-1.37347">
        <ele>10.98576</ele>
        <time>2023-05-30T14:08:02.000Z</time>
      </trkpt>
      <trkpt lat="46.20203" lon="-1.37353">
        <ele>11.05757</ele>
        <time>2023-05-30T14:08:03.000Z</time>
      </trkpt>
      <trkpt lat="46.20198" lon="-1.37359">
        <ele>11.00694</ele>
        <time>2023-05-30T14:08:04.000Z</time>
      </trkpt>
      <trkpt lat="46.20193" lon="-1.37364">
        <ele>11.00528</ele>
        <time>2023-05-30T14:08:05.000Z</time>
      </trkpt>
      <trkpt lat="46.20189" lon="-1.37369">
        <ele>10.99323</ele>
        <time>2023-05-30T14:08:06.000Z</time>
      </trkpt>
      <trkpt lat="46.20184" lon="-1.37374">
        <ele>10.99915</ele>
        <time>2023-05-30T14:08:07.000Z</time>
      </trkpt>
      <trkpt lat="46.20181" lon="-1.37379">
        <ele>11.02376</ele>
        <time>2023-05-30T14:08:08.000Z</time>
      </trkpt>
      <trkpt lat="46.20178" lon="-1.37385">
        <ele>11.06385</ele>
        <time>2023-05-30T14:08:09.000Z</time>
      </trkpt>
      <trkpt lat="46.20175" lon="-1.37391">
        <ele>11.12493</ele>
        <time>2023-05-30T14:08:10.000Z</time>
      </trkpt>
      <trkpt lat="46.20174" lon="-1.37396">
        <ele>11.1828</ele>
        <time>2023-05-30T14:08:11.000Z</time>
      </trkpt>
      <trkpt lat="46.20171" lon="-1.374">
        <ele>11.25088</ele>
        <time>2023-05-30T14:08:12.000Z</time>
      </trkpt>
      <trkpt lat="46.20168" lon="-1.37404">
        <ele>11.31272</ele>
        <time>2023-05-30T14:08:13.000Z</time>
      </trkpt>
      <trkpt lat="46.20165" lon="-1.37407">
        <ele>11.28544</ele>
        <time>2023-05-30T14:08:14.000Z</time>
      </trkpt>
      <trkpt lat="46.20163" lon="-1.37411">
        <ele>11.27771</ele>
        <time>2023-05-30T14:08:15.000Z</time>
      </trkpt>
      <trkpt lat="46.2016" lon="-1.37414">
        <ele>11.27079</ele>
        <time>2023-05-30T14:08:16.000Z</time>
      </trkpt>
      <trkpt lat="46.20157" lon="-1.37417">
        <ele>11.26561</ele>
        <time>2023-05-30T14:08:17.000Z</time>
      </trkpt>
      <trkpt lat="46.20154" lon="-1.3742">
        <ele>11.18558</ele>
        <time>2023-05-30T14:08:18.000Z</time>
      </trkpt>
      <trkpt lat="46.20152" lon="-1.37423">
        <ele>11.10764</ele>
        <time>2023-05-30T14:08:19.000Z</time>
      </trkpt>
      <trkpt lat="46.2015" lon="-1.37427">
        <ele>11.07263</ele>
        <time>2023-05-30T14:08:20.000Z</time>
      </trkpt>
      <trkpt lat="46.20147" lon="-1.37431">
        <ele>11.03636</ele>
        <time>2023-05-30T14:08:21.000Z</time>
      </trkpt>
      <trkpt lat="46.20145" lon="-1.37435">
        <ele>10.99811</ele>
        <time>2023-05-30T14:08:22.000Z</time>
      </trkpt>
      <trkpt lat="46.20143" lon="-1.3744">
        <ele>10.99669</ele>
        <time>2023-05-30T14:08:23.000Z</time>
      </trkpt>
      <trkpt lat="46.20141" lon="-1.37444">
        <ele>11.01249</ele>
        <time>2023-05-30T14:08:24.000Z</time>
      </trkpt>
      <trkpt lat="46.20139" lon="-1.37447">
        <ele>11.01819</ele>
        <time>2023-05-30T14:08:25.000Z</time>
      </trkpt>
      <trkpt lat="46.20138" lon="-1.37451">
        <ele>11.02498</ele>
        <time>2023-05-30T14:08:26.000Z</time>
      </trkpt>
      <trkpt lat="46.20136" lon="-1.37454">
        <ele>11.01937</ele>
        <time>2023-05-30T14:08:27.000Z</time>
      </trkpt>
      <trkpt lat="46.20135" lon="-1.37457">
        <ele>10.98757</ele>
        <time>2023-05-30T14:08:28.000Z</time>
      </trkpt>
      <trkpt lat="46.20133" lon="-1.3746">
        <ele>10.94219</ele>
        <time>2023-05-30T14:08:29.000Z</time>
      </trkpt>
      <trkpt lat="46.20132" lon="-1.37462">
        <ele>11.07881</ele>
        <time>2023-05-30T14:08:30.000Z</time>
      </trkpt>
      <trkpt lat="46.20131" lon="-1.37465">
        <ele>11.21642</ele>
        <time>2023-05-30T14:08:31.000Z</time>
      </trkpt>
      <trkpt lat="46.2013" lon="-1.37469">
        <ele>11.34192</ele>
        <time>2023-05-30T14:08:32.000Z</time>
      </trkpt>
      <trkpt lat="46.2013" lon="-1.37474">
        <ele>11.45591</ele>
        <time>2023-05-30T14:08:33.000Z</time>
      </trkpt>
      <trkpt lat="46.20129" lon="-1.37478">
        <ele>11.4145</ele>
        <time>2023-05-30T14:08:34.000Z</time>
      </trkpt>
      <trkpt lat="46.20129" lon="-1.37483">
        <ele>11.49675</ele>
        <time>2023-05-30T14:08:35.000Z</time>
      </trkpt>
      <trkpt lat="46.20128" lon="-1.37487">
        <ele>11.59828</ele>
        <time>2023-05-30T14:08:36.000Z</time>
      </trkpt>
      <trkpt lat="46.20127" lon="-1.37491">
        <ele>11.56048</ele>
        <time>2023-05-30T14:08:37.000Z</time>
      </trkpt>
      <trkpt lat="46.20126" lon="-1.37494">
        <ele>11.63809</ele>
        <time>2023-05-30T14:08:38.000Z</time>
      </trkpt>
      <trkpt lat="46.20125" lon="-1.37496">
        <ele>11.73472</ele>
        <time>2023-05-30T14:08:39.000Z</time>
      </trkpt>
      <trkpt lat="46.20124" lon="-1.37499">
        <ele>11.73225</ele>
        <time>2023-05-30T14:08:41.000Z</time>
      </trkpt>
      <trkpt lat="46.20124" lon="-1.37503">
        <ele>11.71164</ele>
        <time>2023-05-30T14:08:42.000Z</time>
      </trkpt>
      <trkpt lat="46.20124" lon="-1.37507">
        <ele>11.73189</ele>
        <time>2023-05-30T14:08:43.000Z</time>
      </trkpt>
      <trkpt lat="46.20125" lon="-1.37511">
        <ele>11.75568</ele>
        <time>2023-05-30T14:08:44.000Z</time>
      </trkpt>
      <trkpt lat="46.20126" lon="-1.37516">
        <ele>11.80236</ele>
        <time>2023-05-30T14:08:45.000Z</time>
      </trkpt>
      <trkpt lat="46.20127" lon="-1.3752">
        <ele>11.84292</ele>
        <time>2023-05-30T14:08:46.000Z</time>
      </trkpt>
      <trkpt lat="46.20128" lon="-1.37523">
        <ele>11.92145</ele>
        <time>2023-05-30T14:08:47.000Z</time>
      </trkpt>
      <trkpt lat="46.20129" lon="-1.37527">
        <ele>11.95115</ele>
        <time>2023-05-30T14:08:48.000Z</time>
      </trkpt>
      <trkpt lat="46.2013" lon="-1.3753">
        <ele>11.96857</ele>
        <time>2023-05-30T14:08:49.000Z</time>
      </trkpt>
      <trkpt lat="46.20132" lon="-1.37533">
        <ele>11.99356</ele>
        <time>2023-05-30T14:08:50.000Z</time>
      </trkpt>
      <trkpt lat="46.20133" lon="-1.37536">
        <ele>11.82986</ele>
        <time>2023-05-30T14:08:51.000Z</time>
      </trkpt>
      <trkpt lat="46.20135" lon="-1.37539">
        <ele>11.70868</ele>
        <time>2023-05-30T14:08:52.000Z</time>
      </trkpt>
      <trkpt lat="46.20137" lon="-1.37542">
        <ele>11.59864</ele>
        <time>2023-05-30T14:08:53.000Z</time>
      </trkpt>
      <trkpt lat="46.2014" lon="-1.37543">
        <ele>11.50327</ele>
        <time>2023-05-30T14:08:54.000Z</time>
      </trkpt>
      <trkpt lat="46.20143" lon="-1.37544">
        <ele>11.56021</ele>
        <time>2023-05-30T14:08:55.000Z</time>
      </trkpt>
      <trkpt lat="46.20146" lon="-1.37545">
        <ele>11.4863</ele>
        <time>2023-05-30T14:08:56.000Z</time>
      </trkpt>
      <trkpt lat="46.20149" lon="-1.37546">
        <ele>11.38354</ele>
        <time>2023-05-30T14:08:57.000Z</time>
      </trkpt>
      <trkpt lat="46.20152" lon="-1.37546">
        <ele>11.41251</ele>
        <time>2023-05-30T14:08:58.000Z</time>
      </trkpt>
      <trkpt lat="46.20155" lon="-1.37547">
        <ele>11.3928</ele>
        <time>2023-05-30T14:08:59.000Z</time>
      </trkpt>
      <trkpt lat="46.20158" lon="-1.37548">
        <ele>11.36867</ele>
        <time>2023-05-30T14:09:00.000Z</time>
      </trkpt>
      <trkpt lat="46.20161" lon="-1.37549">
        <ele>11.37726</ele>
        <time>2023-05-30T14:09:01.000Z</time>
      </trkpt>
      <trkpt lat="46.20165" lon="-1.37551">
        <ele>11.42927</ele>
        <time>2023-05-30T14:09:02.000Z</time>
      </trkpt>
      <trkpt lat="46.20168" lon="-1.37551">
        <ele>11.41971</ele>
        <time>2023-05-30T14:09:03.000Z</time>
      </trkpt>
      <trkpt lat="46.20171" lon="-1.37552">
        <ele>11.41545</ele>
        <time>2023-05-30T14:09:04.000Z</time>
      </trkpt>
      <trkpt lat="46.20175" lon="-1.37552">
        <ele>11.4073</ele>
        <time>2023-05-30T14:09:05.000Z</time>
      </trkpt>
      <trkpt lat="46.20178" lon="-1.37552">
        <ele>11.39742</ele>
        <time>2023-05-30T14:09:06.000Z</time>
      </trkpt>
      <trkpt lat="46.20181" lon="-1.37552">
        <ele>11.36221</ele>
        <time>2023-05-30T14:09:07.000Z</time>
      </trkpt>
      <trkpt lat="46.20184" lon="-1.37553">
        <ele>11.36483</ele>
        <time>2023-05-30T14:09:08.000Z</time>
      </trkpt>
      <trkpt lat="46.20188" lon="-1.37553">
        <ele>11.38346</ele>
        <time>2023-05-30T14:09:09.000Z</time>
      </trkpt>
      <trkpt lat="46.20191" lon="-1.37553">
        <ele>11.38406</ele>
        <time>2023-05-30T14:09:10.000Z</time>
      </trkpt>
      <trkpt lat="46.20194" lon="-1.37553">
        <ele>11.39406</ele>
        <time>2023-05-30T14:09:11.000Z</time>
      </trkpt>
      <trkpt lat="46.20198" lon="-1.37553">
        <ele>11.39429</ele>
        <time>2023-05-30T14:09:12.000Z</time>
      </trkpt>
      <trkpt lat="46.20201" lon="-1.37553">
        <ele>11.39405</ele>
        <time>2023-05-30T14:09:13.000Z</time>
      </trkpt>
      <trkpt lat="46.20205" lon="-1.37553">
        <ele>11.39435</ele>
        <time>2023-05-30T14:09:14.000Z</time>
      </trkpt>
      <trkpt lat="46.20208" lon="-1.37554">
        <ele>11.38613</ele>
        <time>2023-05-30T14:09:15.000Z</time>
      </trkpt>
      <trkpt lat="46.20211" lon="-1.37555">
        <ele>11.38971</ele>
        <time>2023-05-30T14:09:16.000Z</time>
      </trkpt>
      <trkpt lat="46.20214" lon="-1.37556">
        <ele>11.38638</ele>
        <time>2023-05-30T14:09:17.000Z</time>
      </trkpt>
      <trkpt lat="46.20217" lon="-1.37556">
        <ele>11.37469</ele>
        <time>2023-05-30T14:09:18.000Z</time>
      </trkpt>
      <trkpt lat="46.2022" lon="-1.37556">
        <ele>11.3635</ele>
        <time>2023-05-30T14:09:19.000Z</time>
      </trkpt>
      <trkpt lat="46.20223" lon="-1.37557">
        <ele>11.34539</ele>
        <time>2023-05-30T14:09:20.000Z</time>
      </trkpt>
      <trkpt lat="46.20226" lon="-1.37557">
        <ele>11.37154</ele>
        <time>2023-05-30T14:09:21.000Z</time>
      </trkpt>
      <trkpt lat="46.20229" lon="-1.37557">
        <ele>11.38637</ele>
        <time>2023-05-30T14:09:22.000Z</time>
      </trkpt>
      <trkpt lat="46.20232" lon="-1.37558">
        <ele>11.40714</ele>
        <time>2023-05-30T14:09:23.000Z</time>
      </trkpt>
      <trkpt lat="46.20235" lon="-1.37558">
        <ele>11.42455</ele>
        <time>2023-05-30T14:09:24.000Z</time>
      </trkpt>
      <trkpt lat="46.20238" lon="-1.37558">
        <ele>11.47755</ele>
        <time>2023-05-30T14:09:25.000Z</time>
      </trkpt>
      <trkpt lat="46.20241" lon="-1.37558">
        <ele>11.51788</ele>
        <time>2023-05-30T14:09:26.000Z</time>
      </trkpt>
      <trkpt lat="46.20244" lon="-1.37558">
        <ele>11.55277</ele>
        <time>2023-05-30T14:09:27.000Z</time>
      </trkpt>
      <trkpt lat="46.20248" lon="-1.37558">
        <ele>11.59918</ele>
        <time>2023-05-30T14:09:28.000Z</time>
      </trkpt>
      <trkpt lat="46.20251" lon="-1.37558">
        <ele>11.63245</ele>
        <time>2023-05-30T14:09:29.000Z</time>
      </trkpt>
      <trkpt lat="46.20255" lon="-1.37558">
        <ele>11.695</ele>
        <time>2023-05-30T14:09:30.000Z</time>
      </trkpt>
      <trkpt lat="46.20258" lon="-1.37558">
        <ele>11.62735</ele>
        <time>2023-05-30T14:09:31.000Z</time>
      </trkpt>
      <trkpt lat="46.20262" lon="-1.37558">
        <ele>11.5317</ele>
        <time>2023-05-30T14:09:32.000Z</time>
      </trkpt>
      <trkpt lat="46.20266" lon="-1.37559">
        <ele>11.43457</ele>
        <time>2023-05-30T14:09:33.000Z</time>
      </trkpt>
      <trkpt lat="46.2027" lon="-1.37559">
        <ele>11.32944</ele>
        <time>2023-05-30T14:09:34.000Z</time>
      </trkpt>
      <trkpt lat="46.20274" lon="-1.37559">
        <ele>11.19028</ele>
        <time>2023-05-30T14:09:35.000Z</time>
      </trkpt>
      <trkpt lat="46.20278" lon="-1.3756">
        <ele>11.1299</ele>
        <time>2023-05-30T14:09:36.000Z</time>
      </trkpt>
      <trkpt lat="46.20282" lon="-1.3756">
        <ele>11.06472</ele>
        <time>2023-05-30T14:09:37.000Z</time>
      </trkpt>
      <trkpt lat="46.20285" lon="-1.3756">
        <ele>11.0161</ele>
        <time>2023-05-30T14:09:38.000Z</time>
      </trkpt>
      <trkpt lat="46.20289" lon="-1.37561">
        <ele>10.97669</ele>
        <time>2023-05-30T14:09:39.000Z</time>
      </trkpt>
      <trkpt lat="46.20292" lon="-1.37562">
        <ele>10.93905</ele>
        <time>2023-05-30T14:09:40.000Z</time>
      </trkpt>
      <trkpt lat="46.20295" lon="-1.37563">
        <ele>10.85013</ele>
        <time>2023-05-30T14:09:41.000Z</time>
      </trkpt>
      <trkpt lat="46.20299" lon="-1.37564">
        <ele>10.73373</ele>
        <time>2023-05-30T14:09:42.000Z</time>
      </trkpt>
      <trkpt lat="46.20303" lon="-1.37565">
        <ele>10.64411</ele>
        <time>2023-05-30T14:09:43.000Z</time>
      </trkpt>
      <trkpt lat="46.20306" lon="-1.37565">
        <ele>10.54577</ele>
        <time>2023-05-30T14:09:44.000Z</time>
      </trkpt>
      <trkpt lat="46.2031" lon="-1.37566">
        <ele>10.44048</ele>
        <time>2023-05-30T14:09:45.000Z</time>
      </trkpt>
      <trkpt lat="46.20314" lon="-1.37567">
        <ele>10.3289</ele>
        <time>2023-05-30T14:09:46.000Z</time>
      </trkpt>
      <trkpt lat="46.20318" lon="-1.37568">
        <ele>10.20174</ele>
        <time>2023-05-30T14:09:47.000Z</time>
      </trkpt>
      <trkpt lat="46.20322" lon="-1.37569">
        <ele>10.08738</ele>
        <time>2023-05-30T14:09:48.000Z</time>
      </trkpt>
      <trkpt lat="46.20326" lon="-1.3757">
        <ele>9.94939</ele>
        <time>2023-05-30T14:09:49.000Z</time>
      </trkpt>
      <trkpt lat="46.20329" lon="-1.37572">
        <ele>9.80983</ele>
        <time>2023-05-30T14:09:50.000Z</time>
      </trkpt>
      <trkpt lat="46.20333" lon="-1.37573">
        <ele>9.75373</ele>
        <time>2023-05-30T14:09:51.000Z</time>
      </trkpt>
      <trkpt lat="46.20337" lon="-1.37575">
        <ele>9.69667</ele>
        <time>2023-05-30T14:09:52.000Z</time>
      </trkpt>
      <trkpt lat="46.2034" lon="-1.37576">
        <ele>9.64656</ele>
        <time>2023-05-30T14:09:53.000Z</time>
      </trkpt>
      <trkpt lat="46.20344" lon="-1.37578">
        <ele>9.58081</ele>
        <time>2023-05-30T14:09:54.000Z</time>
      </trkpt>
      <trkpt lat="46.20347" lon="-1.37579">
        <ele>9.67597</ele>
        <time>2023-05-30T14:09:55.000Z</time>
      </trkpt>
      <trkpt lat="46.20351" lon="-1.3758">
        <ele>9.6704</ele>
        <time>2023-05-30T14:09:56.000Z</time>
      </trkpt>
      <trkpt lat="46.20355" lon="-1.37581">
        <ele>9.68431</ele>
        <time>2023-05-30T14:09:57.000Z</time>
      </trkpt>
      <trkpt lat="46.20358" lon="-1.37581">
        <ele>9.69987</ele>
        <time>2023-05-30T14:09:58.000Z</time>
      </trkpt>
      <trkpt lat="46.20362" lon="-1.37583">
        <ele>9.69293</ele>
        <time>2023-05-30T14:09:59.000Z</time>
      </trkpt>
      <trkpt lat="46.20366" lon="-1.37584">
        <ele>9.67664</ele>
        <time>2023-05-30T14:10:00.000Z</time>
      </trkpt>
      <trkpt lat="46.20369" lon="-1.37586">
        <ele>9.65388</ele>
        <time>2023-05-30T14:10:01.000Z</time>
      </trkpt>
      <trkpt lat="46.20373" lon="-1.37588">
        <ele>9.66745</ele>
        <time>2023-05-30T14:10:02.000Z</time>
      </trkpt>
      <trkpt lat="46.20376" lon="-1.3759">
        <ele>9.66983</ele>
        <time>2023-05-30T14:10:03.000Z</time>
      </trkpt>
      <trkpt lat="46.20379" lon="-1.37593">
        <ele>9.67547</ele>
        <time>2023-05-30T14:10:04.000Z</time>
      </trkpt>
      <trkpt lat="46.20383" lon="-1.37595">
        <ele>9.66123</ele>
        <time>2023-05-30T14:10:05.000Z</time>
      </trkpt>
      <trkpt lat="46.20386" lon="-1.37598">
        <ele>9.66283</ele>
        <time>2023-05-30T14:10:06.000Z</time>
      </trkpt>
      <trkpt lat="46.20389" lon="-1.37601">
        <ele>9.76445</ele>
        <time>2023-05-30T14:10:07.000Z</time>
      </trkpt>
      <trkpt lat="46.20392" lon="-1.37603">
        <ele>9.84768</ele>
        <time>2023-05-30T14:10:08.000Z</time>
      </trkpt>
      <trkpt lat="46.20396" lon="-1.37606">
        <ele>10.00449</ele>
        <time>2023-05-30T14:10:09.000Z</time>
      </trkpt>
      <trkpt lat="46.20399" lon="-1.37609">
        <ele>10.15761</ele>
        <time>2023-05-30T14:10:10.000Z</time>
      </trkpt>
      <trkpt lat="46.20402" lon="-1.37611">
        <ele>10.33106</ele>
        <time>2023-05-30T14:10:11.000Z</time>
      </trkpt>
      <trkpt lat="46.20404" lon="-1.37614">
        <ele>10.5029</ele>
        <time>2023-05-30T14:10:12.000Z</time>
      </trkpt>
      <trkpt lat="46.20407" lon="-1.37616">
        <ele>10.57822</ele>
        <time>2023-05-30T14:10:13.000Z</time>
      </trkpt>
      <trkpt lat="46.20409" lon="-1.37619">
        <ele>10.67287</ele>
        <time>2023-05-30T14:10:14.000Z</time>
      </trkpt>
      <trkpt lat="46.20411" lon="-1.37621">
        <ele>10.62846</ele>
        <time>2023-05-30T14:10:15.000Z</time>
      </trkpt>
      <trkpt lat="46.20413" lon="-1.37623">
        <ele>10.57375</ele>
        <time>2023-05-30T14:10:16.000Z</time>
      </trkpt>
      <trkpt lat="46.20415" lon="-1.37625">
        <ele>10.52234</ele>
        <time>2023-05-30T14:10:17.000Z</time>
      </trkpt>
      <trkpt lat="46.20417" lon="-1.37628">
        <ele>10.52295</ele>
        <time>2023-05-30T14:10:18.000Z</time>
      </trkpt>
      <trkpt lat="46.20418" lon="-1.3763">
        <ele>10.50725</ele>
        <time>2023-05-30T14:10:19.000Z</time>
      </trkpt>
      <trkpt lat="46.2042" lon="-1.37632">
        <ele>10.49953</ele>
        <time>2023-05-30T14:10:20.000Z</time>
      </trkpt>
      <trkpt lat="46.20422" lon="-1.37634">
        <ele>10.49167</ele>
        <time>2023-05-30T14:10:21.000Z</time>
      </trkpt>
      <trkpt lat="46.20425" lon="-1.37635">
        <ele>10.45946</ele>
        <time>2023-05-30T14:10:22.000Z</time>
      </trkpt>
      <trkpt lat="46.20427" lon="-1.37636">
        <ele>10.42152</ele>
        <time>2023-05-30T14:10:23.000Z</time>
      </trkpt>
      <trkpt lat="46.2043" lon="-1.37635">
        <ele>10.36881</ele>
        <time>2023-05-30T14:10:24.000Z</time>
      </trkpt>
      <trkpt lat="46.20433" lon="-1.37633">
        <ele>10.32245</ele>
        <time>2023-05-30T14:10:25.000Z</time>
      </trkpt>
      <trkpt lat="46.20435" lon="-1.37629">
        <ele>10.29024</ele>
        <time>2023-05-30T14:10:26.000Z</time>
      </trkpt>
      <trkpt lat="46.20438" lon="-1.37627">
        <ele>10.1881</ele>
        <time>2023-05-30T14:10:27.000Z</time>
      </trkpt>
      <trkpt lat="46.2044" lon="-1.37626">
        <ele>10.08838</ele>
        <time>2023-05-30T14:10:28.000Z</time>
      </trkpt>
      <trkpt lat="46.20442" lon="-1.37625">
        <ele>9.93262</ele>
        <time>2023-05-30T14:10:29.000Z</time>
      </trkpt>
      <trkpt lat="46.20444" lon="-1.37625">
        <ele>9.77612</ele>
        <time>2023-05-30T14:10:30.000Z</time>
      </trkpt>
      <trkpt lat="46.20447" lon="-1.37625">
        <ele>9.64045</ele>
        <time>2023-05-30T14:10:31.000Z</time>
      </trkpt>
      <trkpt lat="46.20449" lon="-1.37625">
        <ele>9.49897</ele>
        <time>2023-05-30T14:10:32.000Z</time>
      </trkpt>
      <trkpt lat="46.20452" lon="-1.37626">
        <ele>9.41069</ele>
        <time>2023-05-30T14:10:33.000Z</time>
      </trkpt>
      <trkpt lat="46.20456" lon="-1.37627">
        <ele>9.32616</ele>
        <time>2023-05-30T14:10:34.000Z</time>
      </trkpt>
      <trkpt lat="46.2046" lon="-1.37627">
        <ele>9.25225</ele>
        <time>2023-05-30T14:10:35.000Z</time>
      </trkpt>
      <trkpt lat="46.20464" lon="-1.37627">
        <ele>9.20133</ele>
        <time>2023-05-30T14:10:36.000Z</time>
      </trkpt>
      <trkpt lat="46.20468" lon="-1.37626">
        <ele>9.15528</ele>
        <time>2023-05-30T14:10:37.000Z</time>
      </trkpt>
      <trkpt lat="46.20473" lon="-1.37626">
        <ele>9.05123</ele>
        <time>2023-05-30T14:10:38.000Z</time>
      </trkpt>
      <trkpt lat="46.20477" lon="-1.37625">
        <ele>8.96587</ele>
        <time>2023-05-30T14:10:39.000Z</time>
      </trkpt>
      <trkpt lat="46.20481" lon="-1.37624">
        <ele>8.8509</ele>
        <time>2023-05-30T14:10:40.000Z</time>
      </trkpt>
      <trkpt lat="46.20485" lon="-1.37624">
        <ele>8.74091</ele>
        <time>2023-05-30T14:10:41.000Z</time>
      </trkpt>
      <trkpt lat="46.20489" lon="-1.37623">
        <ele>8.63712</ele>
        <time>2023-05-30T14:10:42.000Z</time>
      </trkpt>
      <trkpt lat="46.20493" lon="-1.37622">
        <ele>8.55662</ele>
        <time>2023-05-30T14:10:43.000Z</time>
      </trkpt>
      <trkpt lat="46.20497" lon="-1.37622">
        <ele>8.38084</ele>
        <time>2023-05-30T14:10:44.000Z</time>
      </trkpt>
      <trkpt lat="46.20501" lon="-1.37622">
        <ele>8.18982</ele>
        <time>2023-05-30T14:10:45.000Z</time>
      </trkpt>
      <trkpt lat="46.20505" lon="-1.37622">
        <ele>7.99601</ele>
        <time>2023-05-30T14:10:46.000Z</time>
      </trkpt>
      <trkpt lat="46.20509" lon="-1.37621">
        <ele>7.78032</ele>
        <time>2023-05-30T14:10:47.000Z</time>
      </trkpt>
      <trkpt lat="46.20513" lon="-1.37621">
        <ele>7.57404</ele>
        <time>2023-05-30T14:10:48.000Z</time>
      </trkpt>
      <trkpt lat="46.20517" lon="-1.3762">
        <ele>7.34705</ele>
        <time>2023-05-30T14:10:49.000Z</time>
      </trkpt>
      <trkpt lat="46.20521" lon="-1.3762">
        <ele>7.10894</ele>
        <time>2023-05-30T14:10:50.000Z</time>
      </trkpt>
      <trkpt lat="46.20524" lon="-1.37619">
        <ele>6.85579</ele>
        <time>2023-05-30T14:10:51.000Z</time>
      </trkpt>
      <trkpt lat="46.20528" lon="-1.37619">
        <ele>6.6327</ele>
        <time>2023-05-30T14:10:52.000Z</time>
      </trkpt>
      <trkpt lat="46.20531" lon="-1.37618">
        <ele>6.43896</ele>
        <time>2023-05-30T14:10:53.000Z</time>
      </trkpt>
      <trkpt lat="46.20535" lon="-1.37618">
        <ele>6.26272</ele>
        <time>2023-05-30T14:10:54.000Z</time>
      </trkpt>
      <trkpt lat="46.20538" lon="-1.37618">
        <ele>6.09177</ele>
        <time>2023-05-30T14:10:55.000Z</time>
      </trkpt>
      <trkpt lat="46.20541" lon="-1.37617">
        <ele>5.94489</ele>
        <time>2023-05-30T14:10:56.000Z</time>
      </trkpt>
      <trkpt lat="46.20544" lon="-1.37617">
        <ele>5.79126</ele>
        <time>2023-05-30T14:10:57.000Z</time>
      </trkpt>
      <trkpt lat="46.20547" lon="-1.37616">
        <ele>5.67641</ele>
        <time>2023-05-30T14:10:58.000Z</time>
      </trkpt>
      <trkpt lat="46.2055" lon="-1.37616">
        <ele>5.57652</ele>
        <time>2023-05-30T14:10:59.000Z</time>
      </trkpt>
      <trkpt lat="46.20553" lon="-1.37616">
        <ele>5.49033</ele>
        <time>2023-05-30T14:11:00.000Z</time>
      </trkpt>
      <trkpt lat="46.20556" lon="-1.37615">
        <ele>5.43384</ele>
        <time>2023-05-30T14:11:01.000Z</time>
      </trkpt>
      <trkpt lat="46.20559" lon="-1.37614">
        <ele>5.39432</ele>
        <time>2023-05-30T14:11:02.000Z</time>
      </trkpt>
      <trkpt lat="46.20561" lon="-1.37614">
        <ele>5.3173</ele>
        <time>2023-05-30T14:11:03.000Z</time>
      </trkpt>
      <trkpt lat="46.20564" lon="-1.37613">
        <ele>5.35085</ele>
        <time>2023-05-30T14:11:04.000Z</time>
      </trkpt>
      <trkpt lat="46.20566" lon="-1.37611">
        <ele>5.42069</ele>
        <time>2023-05-30T14:11:05.000Z</time>
      </trkpt>
      <trkpt lat="46.20567" lon="-1.37608">
        <ele>5.48981</ele>
        <time>2023-05-30T14:11:06.000Z</time>
      </trkpt>
      <trkpt lat="46.20566" lon="-1.37605">
        <ele>5.56126</ele>
        <time>2023-05-30T14:11:07.000Z</time>
      </trkpt>
      <trkpt lat="46.20564" lon="-1.37602">
        <ele>5.62578</ele>
        <time>2023-05-30T14:11:08.000Z</time>
      </trkpt>
      <trkpt lat="46.20561" lon="-1.37602">
        <ele>5.71382</ele>
        <time>2023-05-30T14:11:09.000Z</time>
      </trkpt>
      <trkpt lat="46.20558" lon="-1.37604">
        <ele>5.80591</ele>
        <time>2023-05-30T14:11:10.000Z</time>
      </trkpt>
      <trkpt lat="46.20554" lon="-1.37606">
        <ele>5.91794</ele>
        <time>2023-05-30T14:11:11.000Z</time>
      </trkpt>
      <trkpt lat="46.2055" lon="-1.37609">
        <ele>6.0172</ele>
        <time>2023-05-30T14:11:12.000Z</time>
      </trkpt>
      <trkpt lat="46.20547" lon="-1.37611">
        <ele>6.12772</ele>
        <time>2023-05-30T14:11:13.000Z</time>
      </trkpt>
      <trkpt lat="46.20543" lon="-1.37613">
        <ele>6.20879</ele>
        <time>2023-05-30T14:11:14.000Z</time>
      </trkpt>
      <trkpt lat="46.2054" lon="-1.37615">
        <ele>6.29112</ele>
        <time>2023-05-30T14:11:15.000Z</time>
      </trkpt>
      <trkpt lat="46.20537" lon="-1.37617">
        <ele>6.35164</ele>
        <time>2023-05-30T14:11:16.000Z</time>
      </trkpt>
      <trkpt lat="46.20534" lon="-1.37618">
        <ele>6.40669</ele>
        <time>2023-05-30T14:11:17.000Z</time>
      </trkpt>
      <trkpt lat="46.2053" lon="-1.37619">
        <ele>6.43487</ele>
        <time>2023-05-30T14:11:18.000Z</time>
      </trkpt>
      <trkpt lat="46.20527" lon="-1.37619">
        <ele>6.46844</ele>
        <time>2023-05-30T14:11:19.000Z</time>
      </trkpt>
      <trkpt lat="46.20524" lon="-1.37618">
        <ele>6.53305</ele>
        <time>2023-05-30T14:11:20.000Z</time>
      </trkpt>
      <trkpt lat="46.20521" lon="-1.37618">
        <ele>6.56826</ele>
        <time>2023-05-30T14:11:21.000Z</time>
      </trkpt>
      <trkpt lat="46.20517" lon="-1.37619">
        <ele>6.57957</ele>
        <time>2023-05-30T14:11:22.000Z</time>
      </trkpt>
      <trkpt lat="46.20514" lon="-1.37619">
        <ele>6.59259</ele>
        <time>2023-05-30T14:11:23.000Z</time>
      </trkpt>
      <trkpt lat="46.20511" lon="-1.3762">
        <ele>6.60202</ele>
        <time>2023-05-30T14:11:24.000Z</time>
      </trkpt>
      <trkpt lat="46.20508" lon="-1.3762">
        <ele>6.59782</ele>
        <time>2023-05-30T14:11:25.000Z</time>
      </trkpt>
      <trkpt lat="46.20504" lon="-1.3762">
        <ele>6.60807</ele>
        <time>2023-05-30T14:11:26.000Z</time>
      </trkpt>
      <trkpt lat="46.20501" lon="-1.37621">
        <ele>6.64536</ele>
        <time>2023-05-30T14:11:27.000Z</time>
      </trkpt>
      <trkpt lat="46.20497" lon="-1.37621">
        <ele>6.68681</ele>
        <time>2023-05-30T14:11:28.000Z</time>
      </trkpt>
      <trkpt lat="46.20494" lon="-1.37622">
        <ele>6.69745</ele>
        <time>2023-05-30T14:11:29.000Z</time>
      </trkpt>
      <trkpt lat="46.20491" lon="-1.37622">
        <ele>6.74316</ele>
        <time>2023-05-30T14:11:30.000Z</time>
      </trkpt>
      <trkpt lat="46.20487" lon="-1.37622">
        <ele>6.78465</ele>
        <time>2023-05-30T14:11:31.000Z</time>
      </trkpt>
      <trkpt lat="46.20483" lon="-1.37622">
        <ele>6.81375</ele>
        <time>2023-05-30T14:11:32.000Z</time>
      </trkpt>
      <trkpt lat="46.2048" lon="-1.37622">
        <ele>6.84153</ele>
        <time>2023-05-30T14:11:33.000Z</time>
      </trkpt>
      <trkpt lat="46.20477" lon="-1.37622">
        <ele>6.87815</ele>
        <time>2023-05-30T14:11:34.000Z</time>
      </trkpt>
      <trkpt lat="46.20473" lon="-1.37622">
        <ele>6.9063</ele>
        <time>2023-05-30T14:11:35.000Z</time>
      </trkpt>
      <trkpt lat="46.2047" lon="-1.37623">
        <ele>6.92531</ele>
        <time>2023-05-30T14:11:36.000Z</time>
      </trkpt>
      <trkpt lat="46.20467" lon="-1.37624">
        <ele>6.92665</ele>
        <time>2023-05-30T14:11:37.000Z</time>
      </trkpt>
      <trkpt lat="46.20465" lon="-1.37625">
        <ele>6.91197</ele>
        <time>2023-05-30T14:11:38.000Z</time>
      </trkpt>
      <trkpt lat="46.20462" lon="-1.37625">
        <ele>6.90579</ele>
        <time>2023-05-30T14:11:39.000Z</time>
      </trkpt>
      <trkpt lat="46.20459" lon="-1.37625">
        <ele>6.9802</ele>
        <time>2023-05-30T14:11:40.000Z</time>
      </trkpt>
      <trkpt lat="46.20456" lon="-1.37625">
        <ele>7.05543</ele>
        <time>2023-05-30T14:11:41.000Z</time>
      </trkpt>
      <trkpt lat="46.20453" lon="-1.37625">
        <ele>7.12446</ele>
        <time>2023-05-30T14:11:42.000Z</time>
      </trkpt>
      <trkpt lat="46.2045" lon="-1.37626">
        <ele>7.19415</ele>
        <time>2023-05-30T14:11:43.000Z</time>
      </trkpt>
      <trkpt lat="46.20447" lon="-1.37626">
        <ele>7.27525</ele>
        <time>2023-05-30T14:11:44.000Z</time>
      </trkpt>
      <trkpt lat="46.20444" lon="-1.37626">
        <ele>7.33731</ele>
        <time>2023-05-30T14:11:45.000Z</time>
      </trkpt>
      <trkpt lat="46.20441" lon="-1.37627">
        <ele>7.32812</ele>
        <time>2023-05-30T14:11:46.000Z</time>
      </trkpt>
      <trkpt lat="46.20439" lon="-1.37627">
        <ele>7.3619</ele>
        <time>2023-05-30T14:11:47.000Z</time>
      </trkpt>
      <trkpt lat="46.20437" lon="-1.37628">
        <ele>7.3909</ele>
        <time>2023-05-30T14:11:48.000Z</time>
      </trkpt>
      <trkpt lat="46.20435" lon="-1.37629">
        <ele>7.46087</ele>
        <time>2023-05-30T14:11:49.000Z</time>
      </trkpt>
      <trkpt lat="46.20433" lon="-1.37631">
        <ele>7.48434</ele>
        <time>2023-05-30T14:11:50.000Z</time>
      </trkpt>
      <trkpt lat="46.20431" lon="-1.37632">
        <ele>7.52154</ele>
        <time>2023-05-30T14:11:51.000Z</time>
      </trkpt>
      <trkpt lat="46.20428" lon="-1.37633">
        <ele>7.57096</ele>
        <time>2023-05-30T14:11:53.000Z</time>
      </trkpt>
      <trkpt lat="46.20426" lon="-1.37632">
        <ele>7.62128</ele>
        <time>2023-05-30T14:11:55.000Z</time>
      </trkpt>
      <trkpt lat="46.20425" lon="-1.37629">
        <ele>7.66721</ele>
        <time>2023-05-30T14:11:57.000Z</time>
      </trkpt>
      <trkpt lat="46.20423" lon="-1.37625">
        <ele>7.71741</ele>
        <time>2023-05-30T14:11:59.000Z</time>
      </trkpt>
      <trkpt lat="46.2042" lon="-1.37624">
        <ele>7.74858</ele>
        <time>2023-05-30T14:12:01.000Z</time>
      </trkpt>
      <trkpt lat="46.20418" lon="-1.37624">
        <ele>7.8148</ele>
        <time>2023-05-30T14:12:02.000Z</time>
      </trkpt>
      <trkpt lat="46.20416" lon="-1.37623">
        <ele>7.89217</ele>
        <time>2023-05-30T14:12:03.000Z</time>
      </trkpt>
      <trkpt lat="46.20414" lon="-1.37621">
        <ele>7.9586</ele>
        <time>2023-05-30T14:12:04.000Z</time>
      </trkpt>
      <trkpt lat="46.20412" lon="-1.3762">
        <ele>7.93292</ele>
        <time>2023-05-30T14:12:05.000Z</time>
      </trkpt>
      <trkpt lat="46.20409" lon="-1.37618">
        <ele>7.90078</ele>
        <time>2023-05-30T14:12:06.000Z</time>
      </trkpt>
      <trkpt lat="46.20407" lon="-1.37616">
        <ele>7.90139</ele>
        <time>2023-05-30T14:12:07.000Z</time>
      </trkpt>
      <trkpt lat="46.20405" lon="-1.37614">
        <ele>7.87576</ele>
        <time>2023-05-30T14:12:08.000Z</time>
      </trkpt>
      <trkpt lat="46.20403" lon="-1.37611">
        <ele>7.85088</ele>
        <time>2023-05-30T14:12:09.000Z</time>
      </trkpt>
      <trkpt lat="46.20401" lon="-1.37609">
        <ele>7.85082</ele>
        <time>2023-05-30T14:12:10.000Z</time>
      </trkpt>
      <trkpt lat="46.20398" lon="-1.37607">
        <ele>7.91465</ele>
        <time>2023-05-30T14:12:11.000Z</time>
      </trkpt>
      <trkpt lat="46.20396" lon="-1.37604">
        <ele>7.91388</ele>
        <time>2023-05-30T14:12:12.000Z</time>
      </trkpt>
      <trkpt lat="46.20394" lon="-1.37603">
        <ele>7.91676</ele>
        <time>2023-05-30T14:12:13.000Z</time>
      </trkpt>
      <trkpt lat="46.20391" lon="-1.37601">
        <ele>7.9472</ele>
        <time>2023-05-30T14:12:14.000Z</time>
      </trkpt>
      <trkpt lat="46.20389" lon="-1.37599">
        <ele>8.00037</ele>
        <time>2023-05-30T14:12:15.000Z</time>
      </trkpt>
      <trkpt lat="46.20386" lon="-1.37597">
        <ele>8.03676</ele>
        <time>2023-05-30T14:12:16.000Z</time>
      </trkpt>
      <trkpt lat="46.20384" lon="-1.37596">
        <ele>8.07069</ele>
        <time>2023-05-30T14:12:17.000Z</time>
      </trkpt>
      <trkpt lat="46.20382" lon="-1.37594">
        <ele>8.10501</ele>
        <time>2023-05-30T14:12:18.000Z</time>
      </trkpt>
      <trkpt lat="46.2038" lon="-1.37593">
        <ele>8.13937</ele>
        <time>2023-05-30T14:12:19.000Z</time>
      </trkpt>
      <trkpt lat="46.20377" lon="-1.37591">
        <ele>8.18248</ele>
        <time>2023-05-30T14:12:20.000Z</time>
      </trkpt>
      <trkpt lat="46.20375" lon="-1.3759">
        <ele>8.2643</ele>
        <time>2023-05-30T14:12:21.000Z</time>
      </trkpt>
      <trkpt lat="46.20372" lon="-1.37588">
        <ele>8.34339</ele>
        <time>2023-05-30T14:12:22.000Z</time>
      </trkpt>
      <trkpt lat="46.2037" lon="-1.37587">
        <ele>8.41872</ele>
        <time>2023-05-30T14:12:23.000Z</time>
      </trkpt>
      <trkpt lat="46.20367" lon="-1.37586">
        <ele>8.49547</ele>
        <time>2023-05-30T14:12:24.000Z</time>
      </trkpt>
      <trkpt lat="46.20365" lon="-1.37585">
        <ele>8.59352</ele>
        <time>2023-05-30T14:12:25.000Z</time>
      </trkpt>
      <trkpt lat="46.20362" lon="-1.37584">
        <ele>8.6841</ele>
        <time>2023-05-30T14:12:26.000Z</time>
      </trkpt>
      <trkpt lat="46.20359" lon="-1.37583">
        <ele>8.62313</ele>
        <time>2023-05-30T14:12:27.000Z</time>
      </trkpt>
      <trkpt lat="46.20356" lon="-1.37582">
        <ele>8.68285</ele>
        <time>2023-05-30T14:12:28.000Z</time>
      </trkpt>
      <trkpt lat="46.20354" lon="-1.37581">
        <ele>8.73862</ele>
        <time>2023-05-30T14:12:29.000Z</time>
      </trkpt>
      <trkpt lat="46.20351" lon="-1.3758">
        <ele>8.72337</ele>
        <time>2023-05-30T14:12:30.000Z</time>
      </trkpt>
      <trkpt lat="46.20348" lon="-1.37579">
        <ele>8.82343</ele>
        <time>2023-05-30T14:12:31.000Z</time>
      </trkpt>
      <trkpt lat="46.20345" lon="-1.37579">
        <ele>8.93376</ele>
        <time>2023-05-30T14:12:32.000Z</time>
      </trkpt>
      <trkpt lat="46.20342" lon="-1.37578">
        <ele>9.04274</ele>
        <time>2023-05-30T14:12:33.000Z</time>
      </trkpt>
      <trkpt lat="46.2034" lon="-1.37577">
        <ele>9.12502</ele>
        <time>2023-05-30T14:12:34.000Z</time>
      </trkpt>
      <trkpt lat="46.20337" lon="-1.37576">
        <ele>9.23177</ele>
        <time>2023-05-30T14:12:35.000Z</time>
      </trkpt>
      <trkpt lat="46.20334" lon="-1.37575">
        <ele>9.33195</ele>
        <time>2023-05-30T14:12:36.000Z</time>
      </trkpt>
      <trkpt lat="46.20332" lon="-1.37575">
        <ele>9.43573</ele>
        <time>2023-05-30T14:12:37.000Z</time>
      </trkpt>
      <trkpt lat="46.20329" lon="-1.37574">
        <ele>9.54115</ele>
        <time>2023-05-30T14:12:38.000Z</time>
      </trkpt>
      <trkpt lat="46.20327" lon="-1.37574">
        <ele>9.64397</ele>
        <time>2023-05-30T14:12:39.000Z</time>
      </trkpt>
      <trkpt lat="46.20324" lon="-1.37573">
        <ele>9.73883</ele>
        <time>2023-05-30T14:12:40.000Z</time>
      </trkpt>
      <trkpt lat="46.20322" lon="-1.37572">
        <ele>9.83447</ele>
        <time>2023-05-30T14:12:41.000Z</time>
      </trkpt>
      <trkpt lat="46.20319" lon="-1.37571">
        <ele>9.92575</ele>
        <time>2023-05-30T14:12:42.000Z</time>
      </trkpt>
      <trkpt lat="46.20317" lon="-1.3757">
        <ele>10.01042</ele>
        <time>2023-05-30T14:12:43.000Z</time>
      </trkpt>
      <trkpt lat="46.20314" lon="-1.3757">
        <ele>10.09341</ele>
        <time>2023-05-30T14:12:44.000Z</time>
      </trkpt>
      <trkpt lat="46.20312" lon="-1.37569">
        <ele>10.15408</ele>
        <time>2023-05-30T14:12:45.000Z</time>
      </trkpt>
      <trkpt lat="46.20309" lon="-1.37568">
        <ele>10.22409</ele>
        <time>2023-05-30T14:12:46.000Z</time>
      </trkpt>
      <trkpt lat="46.20307" lon="-1.37568">
        <ele>10.42979</ele>
        <time>2023-05-30T14:12:47.000Z</time>
      </trkpt>
      <trkpt lat="46.20304" lon="-1.37567">
        <ele>10.553</ele>
        <time>2023-05-30T14:12:48.000Z</time>
      </trkpt>
      <trkpt lat="46.20302" lon="-1.37566">
        <ele>10.68399</ele>
        <time>2023-05-30T14:12:49.000Z</time>
      </trkpt>
      <trkpt lat="46.203" lon="-1.37566">
        <ele>10.88869</ele>
        <time>2023-05-30T14:12:50.000Z</time>
      </trkpt>
      <trkpt lat="46.20297" lon="-1.37565">
        <ele>10.98088</ele>
        <time>2023-05-30T14:12:51.000Z</time>
      </trkpt>
      <trkpt lat="46.20295" lon="-1.37564">
        <ele>11.02143</ele>
        <time>2023-05-30T14:12:52.000Z</time>
      </trkpt>
      <trkpt lat="46.20293" lon="-1.37563">
        <ele>11.05484</ele>
        <time>2023-05-30T14:12:53.000Z</time>
      </trkpt>
      <trkpt lat="46.2029" lon="-1.37562">
        <ele>11.06234</ele>
        <time>2023-05-30T14:12:54.000Z</time>
      </trkpt>
      <trkpt lat="46.20287" lon="-1.37562">
        <ele>11.1111</ele>
        <time>2023-05-30T14:12:55.000Z</time>
      </trkpt>
      <trkpt lat="46.20284" lon="-1.37561">
        <ele>11.14287</ele>
        <time>2023-05-30T14:12:56.000Z</time>
      </trkpt>
      <trkpt lat="46.20281" lon="-1.37561">
        <ele>11.20919</ele>
        <time>2023-05-30T14:12:57.000Z</time>
      </trkpt>
      <trkpt lat="46.20278" lon="-1.37561">
        <ele>11.26333</ele>
        <time>2023-05-30T14:12:58.000Z</time>
      </trkpt>
      <trkpt lat="46.20274" lon="-1.3756">
        <ele>11.32536</ele>
        <time>2023-05-30T14:12:59.000Z</time>
      </trkpt>
      <trkpt lat="46.20271" lon="-1.3756">
        <ele>11.36825</ele>
        <time>2023-05-30T14:13:00.000Z</time>
      </trkpt>
      <trkpt lat="46.20268" lon="-1.3756">
        <ele>11.38704</ele>
        <time>2023-05-30T14:13:01.000Z</time>
      </trkpt>
      <trkpt lat="46.20265" lon="-1.37559">
        <ele>11.40273</ele>
        <time>2023-05-30T14:13:02.000Z</time>
      </trkpt>
      <trkpt lat="46.20262" lon="-1.37559">
        <ele>11.41598</ele>
        <time>2023-05-30T14:13:03.000Z</time>
      </trkpt>
      <trkpt lat="46.20258" lon="-1.37558">
        <ele>11.43369</ele>
        <time>2023-05-30T14:13:04.000Z</time>
      </trkpt>
      <trkpt lat="46.20255" lon="-1.37558">
        <ele>11.43589</ele>
        <time>2023-05-30T14:13:05.000Z</time>
      </trkpt>
      <trkpt lat="46.20252" lon="-1.37558">
        <ele>11.48643</ele>
        <time>2023-05-30T14:13:06.000Z</time>
      </trkpt>
      <trkpt lat="46.20249" lon="-1.37558">
        <ele>11.53207</ele>
        <time>2023-05-30T14:13:07.000Z</time>
      </trkpt>
      <trkpt lat="46.20246" lon="-1.37558">
        <ele>11.57355</ele>
        <time>2023-05-30T14:13:08.000Z</time>
      </trkpt>
      <trkpt lat="46.20243" lon="-1.37558">
        <ele>11.5918</ele>
        <time>2023-05-30T14:13:09.000Z</time>
      </trkpt>
      <trkpt lat="46.20239" lon="-1.37558">
        <ele>11.58668</ele>
        <time>2023-05-30T14:13:10.000Z</time>
      </trkpt>
      <trkpt lat="46.20236" lon="-1.37558">
        <ele>11.57574</ele>
        <time>2023-05-30T14:13:11.000Z</time>
      </trkpt>
      <trkpt lat="46.20233" lon="-1.37558">
        <ele>11.56919</ele>
        <time>2023-05-30T14:13:12.000Z</time>
      </trkpt>
      <trkpt lat="46.20229" lon="-1.37558">
        <ele>11.61478</ele>
        <time>2023-05-30T14:13:13.000Z</time>
      </trkpt>
      <trkpt lat="46.20225" lon="-1.37558">
        <ele>11.69037</ele>
        <time>2023-05-30T14:13:14.000Z</time>
      </trkpt>
      <trkpt lat="46.20222" lon="-1.37558">
        <ele>11.69297</ele>
        <time>2023-05-30T14:13:15.000Z</time>
      </trkpt>
      <trkpt lat="46.20218" lon="-1.37558">
        <ele>11.65912</ele>
        <time>2023-05-30T14:13:16.000Z</time>
      </trkpt>
      <trkpt lat="46.20215" lon="-1.37557">
        <ele>11.63632</ele>
        <time>2023-05-30T14:13:17.000Z</time>
      </trkpt>
      <trkpt lat="46.20211" lon="-1.37557">
        <ele>11.62714</ele>
        <time>2023-05-30T14:13:18.000Z</time>
      </trkpt>
      <trkpt lat="46.20208" lon="-1.37557">
        <ele>11.62953</ele>
        <time>2023-05-30T14:13:19.000Z</time>
      </trkpt>
      <trkpt lat="46.20204" lon="-1.37557">
        <ele>11.59196</ele>
        <time>2023-05-30T14:13:20.000Z</time>
      </trkpt>
      <trkpt lat="46.202" lon="-1.37557">
        <ele>11.57621</ele>
        <time>2023-05-30T14:13:21.000Z</time>
      </trkpt>
      <trkpt lat="46.20196" lon="-1.37556">
        <ele>11.56109</ele>
        <time>2023-05-30T14:13:22.000Z</time>
      </trkpt>
      <trkpt lat="46.20193" lon="-1.37556">
        <ele>11.53798</ele>
        <time>2023-05-30T14:13:23.000Z</time>
      </trkpt>
      <trkpt lat="46.20188" lon="-1.37556">
        <ele>11.59653</ele>
        <time>2023-05-30T14:13:24.000Z</time>
      </trkpt>
      <trkpt lat="46.20184" lon="-1.37555">
        <ele>11.67553</ele>
        <time>2023-05-30T14:13:25.000Z</time>
      </trkpt>
      <trkpt lat="46.2018" lon="-1.37555">
        <ele>11.71678</ele>
        <time>2023-05-30T14:13:26.000Z</time>
      </trkpt>
      <trkpt lat="46.20176" lon="-1.37555">
        <ele>11.75585</ele>
        <time>2023-05-30T14:13:27.000Z</time>
      </trkpt>
      <trkpt lat="46.20172" lon="-1.37554">
        <ele>11.79276</ele>
        <time>2023-05-30T14:13:28.000Z</time>
      </trkpt>
      <trkpt lat="46.20167" lon="-1.37553">
        <ele>11.83821</ele>
        <time>2023-05-30T14:13:29.000Z</time>
      </trkpt>
      <trkpt lat="46.20163" lon="-1.37552">
        <ele>11.89659</ele>
        <time>2023-05-30T14:13:30.000Z</time>
      </trkpt>
      <trkpt lat="46.20159" lon="-1.37551">
        <ele>11.96639</ele>
        <time>2023-05-30T14:13:31.000Z</time>
      </trkpt>
      <trkpt lat="46.20155" lon="-1.3755">
        <ele>12.06573</ele>
        <time>2023-05-30T14:13:32.000Z</time>
      </trkpt>
      <trkpt lat="46.20151" lon="-1.37549">
        <ele>12.11234</ele>
        <time>2023-05-30T14:13:33.000Z</time>
      </trkpt>
      <trkpt lat="46.20147" lon="-1.37547">
        <ele>12.15688</ele>
        <time>2023-05-30T14:13:34.000Z</time>
      </trkpt>
      <trkpt lat="46.20143" lon="-1.37546">
        <ele>12.18677</ele>
        <time>2023-05-30T14:13:35.000Z</time>
      </trkpt>
      <trkpt lat="46.2014" lon="-1.37544">
        <ele>12.26438</ele>
        <time>2023-05-30T14:13:36.000Z</time>
      </trkpt>
      <trkpt lat="46.20136" lon="-1.37541">
        <ele>12.29348</ele>
        <time>2023-05-30T14:13:37.000Z</time>
      </trkpt>
      <trkpt lat="46.20133" lon="-1.37538">
        <ele>12.30701</ele>
        <time>2023-05-30T14:13:38.000Z</time>
      </trkpt>
      <trkpt lat="46.20131" lon="-1.37534">
        <ele>12.30223</ele>
        <time>2023-05-30T14:13:39.000Z</time>
      </trkpt>
      <trkpt lat="46.20129" lon="-1.3753">
        <ele>12.3524</ele>
        <time>2023-05-30T14:13:40.000Z</time>
      </trkpt>
      <trkpt lat="46.20128" lon="-1.37525">
        <ele>12.38088</ele>
        <time>2023-05-30T14:13:41.000Z</time>
      </trkpt>
      <trkpt lat="46.20127" lon="-1.37522">
        <ele>12.40726</ele>
        <time>2023-05-30T14:13:42.000Z</time>
      </trkpt>
      <trkpt lat="46.20125" lon="-1.37518">
        <ele>12.44442</ele>
        <time>2023-05-30T14:13:43.000Z</time>
      </trkpt>
      <trkpt lat="46.20124" lon="-1.37515">
        <ele>12.404</ele>
        <time>2023-05-30T14:13:44.000Z</time>
      </trkpt>
      <trkpt lat="46.20123" lon="-1.37512">
        <ele>12.34792</ele>
        <time>2023-05-30T14:13:45.000Z</time>
      </trkpt>
      <trkpt lat="46.20122" lon="-1.37508">
        <ele>12.27867</ele>
        <time>2023-05-30T14:13:46.000Z</time>
      </trkpt>
      <trkpt lat="46.20121" lon="-1.37506">
        <ele>12.22978</ele>
        <time>2023-05-30T14:13:47.000Z</time>
      </trkpt>
      <trkpt lat="46.20119" lon="-1.37503">
        <ele>12.1959</ele>
        <time>2023-05-30T14:13:48.000Z</time>
      </trkpt>
      <trkpt lat="46.20117" lon="-1.37502">
        <ele>12.14019</ele>
        <time>2023-05-30T14:13:49.000Z</time>
      </trkpt>
      <trkpt lat="46.20114" lon="-1.37501">
        <ele>12.12203</ele>
        <time>2023-05-30T14:13:51.000Z</time>
      </trkpt>
      <trkpt lat="46.20112" lon="-1.375">
        <ele>12.05512</ele>
        <time>2023-05-30T14:13:53.000Z</time>
      </trkpt>
      <trkpt lat="46.2011" lon="-1.37499">
        <ele>11.99846</ele>
        <time>2023-05-30T14:13:55.000Z</time>
      </trkpt>
      <trkpt lat="46.20108" lon="-1.37498">
        <ele>11.96224</ele>
        <time>2023-05-30T14:13:56.000Z</time>
      </trkpt>
      <trkpt lat="46.20105" lon="-1.37498">
        <ele>11.8844</ele>
        <time>2023-05-30T14:13:57.000Z</time>
      </trkpt>
      <trkpt lat="46.20103" lon="-1.37499">
        <ele>11.80456</ele>
        <time>2023-05-30T14:13:58.000Z</time>
      </trkpt>
      <trkpt lat="46.20101" lon="-1.375">
        <ele>11.71193</ele>
        <time>2023-05-30T14:13:59.000Z</time>
      </trkpt>
      <trkpt lat="46.20099" lon="-1.37502">
        <ele>11.66574</ele>
        <time>2023-05-30T14:14:00.000Z</time>
      </trkpt>
      <trkpt lat="46.20097" lon="-1.37506">
        <ele>11.60304</ele>
        <time>2023-05-30T14:14:01.000Z</time>
      </trkpt>
      <trkpt lat="46.20096" lon="-1.37509">
        <ele>11.53377</ele>
        <time>2023-05-30T14:14:02.000Z</time>
      </trkpt>
      <trkpt lat="46.20095" lon="-1.37512">
        <ele>11.47283</ele>
        <time>2023-05-30T14:14:03.000Z</time>
      </trkpt>
      <trkpt lat="46.20094" lon="-1.37515">
        <ele>11.44407</ele>
        <time>2023-05-30T14:14:04.000Z</time>
      </trkpt>
      <trkpt lat="46.20093" lon="-1.37518">
        <ele>11.42115</ele>
        <time>2023-05-30T14:14:05.000Z</time>
      </trkpt>
      <trkpt lat="46.2009" lon="-1.3752">
        <ele>11.38635</ele>
        <time>2023-05-30T14:14:06.000Z</time>
      </trkpt>
      <trkpt lat="46.20088" lon="-1.37522">
        <ele>11.33793</ele>
        <time>2023-05-30T14:14:07.000Z</time>
      </trkpt>
      <trkpt lat="46.20086" lon="-1.37523">
        <ele>11.28859</ele>
        <time>2023-05-30T14:14:08.000Z</time>
      </trkpt>
      <trkpt lat="46.20083" lon="-1.37524">
        <ele>11.22908</ele>
        <time>2023-05-30T14:14:09.000Z</time>
      </trkpt>
      <trkpt lat="46.2008" lon="-1.37524">
        <ele>11.16966</ele>
        <time>2023-05-30T14:14:10.000Z</time>
      </trkpt>
      <trkpt lat="46.20077" lon="-1.37523">
        <ele>11.07949</ele>
        <time>2023-05-30T14:14:11.000Z</time>
      </trkpt>
      <trkpt lat="46.20074" lon="-1.37522">
        <ele>10.95437</ele>
        <time>2023-05-30T14:14:12.000Z</time>
      </trkpt>
      <trkpt lat="46.20071" lon="-1.37521">
        <ele>10.81439</ele>
        <time>2023-05-30T14:14:13.000Z</time>
      </trkpt>
      <trkpt lat="46.20068" lon="-1.37521">
        <ele>10.74936</ele>
        <time>2023-05-30T14:14:14.000Z</time>
      </trkpt>
      <trkpt lat="46.20065" lon="-1.37521">
        <ele>10.67844</ele>
        <time>2023-05-30T14:14:15.000Z</time>
      </trkpt>
      <trkpt lat="46.20062" lon="-1.37522">
        <ele>10.59486</ele>
        <time>2023-05-30T14:14:16.000Z</time>
      </trkpt>
      <trkpt lat="46.20059" lon="-1.37523">
        <ele>10.51736</ele>
        <time>2023-05-30T14:14:17.000Z</time>
      </trkpt>
      <trkpt lat="46.20055" lon="-1.37524">
        <ele>10.43546</ele>
        <time>2023-05-30T14:14:18.000Z</time>
      </trkpt>
      <trkpt lat="46.20052" lon="-1.37526">
        <ele>10.37907</ele>
        <time>2023-05-30T14:14:19.000Z</time>
      </trkpt>
      <trkpt lat="46.20049" lon="-1.3753">
        <ele>10.22533</ele>
        <time>2023-05-30T14:14:20.000Z</time>
      </trkpt>
      <trkpt lat="46.20046" lon="-1.37533">
        <ele>10.17302</ele>
        <time>2023-05-30T14:14:21.000Z</time>
      </trkpt>
      <trkpt lat="46.20043" lon="-1.37536">
        <ele>10.13718</ele>
        <time>2023-05-30T14:14:22.000Z</time>
      </trkpt>
      <trkpt lat="46.20039" lon="-1.37538">
        <ele>10.08403</ele>
        <time>2023-05-30T14:14:23.000Z</time>
      </trkpt>
      <trkpt lat="46.20035" lon="-1.3754">
        <ele>10.06251</ele>
        <time>2023-05-30T14:14:24.000Z</time>
      </trkpt>
      <trkpt lat="46.20031" lon="-1.37542">
        <ele>10.0323</ele>
        <time>2023-05-30T14:14:25.000Z</time>
      </trkpt>
      <trkpt lat="46.20026" lon="-1.37543">
        <ele>10.02389</ele>
        <time>2023-05-30T14:14:26.000Z</time>
      </trkpt>
      <trkpt lat="46.20021" lon="-1.37543">
        <ele>10.01035</ele>
        <time>2023-05-30T14:14:27.000Z</time>
      </trkpt>
      <trkpt lat="46.20017" lon="-1.37543">
        <ele>10.00791</ele>
        <time>2023-05-30T14:14:28.000Z</time>
      </trkpt>
      <trkpt lat="46.20012" lon="-1.37543">
        <ele>10.01778</ele>
        <time>2023-05-30T14:14:29.000Z</time>
      </trkpt>
      <trkpt lat="46.20008" lon="-1.37543">
        <ele>10.01823</ele>
        <time>2023-05-30T14:14:30.000Z</time>
      </trkpt>
      <trkpt lat="46.20003" lon="-1.37543">
        <ele>10.04206</ele>
        <time>2023-05-30T14:14:31.000Z</time>
      </trkpt>
      <trkpt lat="46.19999" lon="-1.37543">
        <ele>10.11147</ele>
        <time>2023-05-30T14:14:32.000Z</time>
      </trkpt>
      <trkpt lat="46.19994" lon="-1.37543">
        <ele>10.13185</ele>
        <time>2023-05-30T14:14:33.000Z</time>
      </trkpt>
      <trkpt lat="46.19989" lon="-1.37543">
        <ele>10.10555</ele>
        <time>2023-05-30T14:14:34.000Z</time>
      </trkpt>
      <trkpt lat="46.19984" lon="-1.37544">
        <ele>10.0838</ele>
        <time>2023-05-30T14:14:35.000Z</time>
      </trkpt>
      <trkpt lat="46.19979" lon="-1.37546">
        <ele>10.06898</ele>
        <time>2023-05-30T14:14:36.000Z</time>
      </trkpt>
      <trkpt lat="46.19973" lon="-1.37546">
        <ele>10.08014</ele>
        <time>2023-05-30T14:14:37.000Z</time>
      </trkpt>
      <trkpt lat="46.19968" lon="-1.37544">
        <ele>10.11547</ele>
        <time>2023-05-30T14:14:38.000Z</time>
      </trkpt>
      <trkpt lat="46.19963" lon="-1.37543">
        <ele>10.13389</ele>
        <time>2023-05-30T14:14:39.000Z</time>
      </trkpt>
      <trkpt lat="46.19957" lon="-1.37543">
        <ele>10.19135</ele>
        <time>2023-05-30T14:14:40.000Z</time>
      </trkpt>
      <trkpt lat="46.19952" lon="-1.37544">
        <ele>10.15753</ele>
        <time>2023-05-30T14:14:41.000Z</time>
      </trkpt>
      <trkpt lat="46.19948" lon="-1.37544">
        <ele>10.13264</ele>
        <time>2023-05-30T14:14:42.000Z</time>
      </trkpt>
      <trkpt lat="46.19944" lon="-1.37545">
        <ele>10.12523</ele>
        <time>2023-05-30T14:14:43.000Z</time>
      </trkpt>
      <trkpt lat="46.19939" lon="-1.37545">
        <ele>10.08324</ele>
        <time>2023-05-30T14:14:44.000Z</time>
      </trkpt>
      <trkpt lat="46.19934" lon="-1.37545">
        <ele>10.05818</ele>
        <time>2023-05-30T14:14:45.000Z</time>
      </trkpt>
      <trkpt lat="46.19929" lon="-1.37545">
        <ele>10.03713</ele>
        <time>2023-05-30T14:14:46.000Z</time>
      </trkpt>
      <trkpt lat="46.19924" lon="-1.37545">
        <ele>10.02833</ele>
        <time>2023-05-30T14:14:47.000Z</time>
      </trkpt>
      <trkpt lat="46.19919" lon="-1.37545">
        <ele>9.99613</ele>
        <time>2023-05-30T14:14:48.000Z</time>
      </trkpt>
      <trkpt lat="46.19914" lon="-1.37545">
        <ele>9.96352</ele>
        <time>2023-05-30T14:14:49.000Z</time>
      </trkpt>
      <trkpt lat="46.19909" lon="-1.37544">
        <ele>9.95212</ele>
        <time>2023-05-30T14:14:50.000Z</time>
      </trkpt>
      <trkpt lat="46.19904" lon="-1.37544">
        <ele>9.92575</ele>
        <time>2023-05-30T14:14:51.000Z</time>
      </trkpt>
      <trkpt lat="46.19899" lon="-1.37544">
        <ele>9.91273</ele>
        <time>2023-05-30T14:14:52.000Z</time>
      </trkpt>
      <trkpt lat="46.19894" lon="-1.37545">
        <ele>9.93449</ele>
        <time>2023-05-30T14:14:53.000Z</time>
      </trkpt>
      <trkpt lat="46.1989" lon="-1.37545">
        <ele>9.97888</ele>
        <time>2023-05-30T14:14:54.000Z</time>
      </trkpt>
      <trkpt lat="46.19885" lon="-1.37544">
        <ele>10.0179</ele>
        <time>2023-05-30T14:14:55.000Z</time>
      </trkpt>
      <trkpt lat="46.1988" lon="-1.37545">
        <ele>10.05741</ele>
        <time>2023-05-30T14:14:56.000Z</time>
      </trkpt>
      <trkpt lat="46.19874" lon="-1.37545">
        <ele>10.11307</ele>
        <time>2023-05-30T14:14:57.000Z</time>
      </trkpt>
      <trkpt lat="46.19869" lon="-1.37544">
        <ele>10.18589</ele>
        <time>2023-05-30T14:14:58.000Z</time>
      </trkpt>
      <trkpt lat="46.19864" lon="-1.37544">
        <ele>10.26771</ele>
        <time>2023-05-30T14:14:59.000Z</time>
      </trkpt>
      <trkpt lat="46.19859" lon="-1.37545">
        <ele>10.35588</ele>
        <time>2023-05-30T14:15:00.000Z</time>
      </trkpt>
      <trkpt lat="46.19854" lon="-1.37545">
        <ele>10.45259</ele>
        <time>2023-05-30T14:15:01.000Z</time>
      </trkpt>
      <trkpt lat="46.19849" lon="-1.37545">
        <ele>10.53409</ele>
        <time>2023-05-30T14:15:02.000Z</time>
      </trkpt>
      <trkpt lat="46.19843" lon="-1.37545">
        <ele>10.63252</ele>
        <time>2023-05-30T14:15:03.000Z</time>
      </trkpt>
      <trkpt lat="46.19838" lon="-1.37546">
        <ele>10.72341</ele>
        <time>2023-05-30T14:15:04.000Z</time>
      </trkpt>
      <trkpt lat="46.19833" lon="-1.37546">
        <ele>10.80739</ele>
        <time>2023-05-30T14:15:05.000Z</time>
      </trkpt>
      <trkpt lat="46.19828" lon="-1.37547">
        <ele>10.87961</ele>
        <time>2023-05-30T14:15:06.000Z</time>
      </trkpt>
      <trkpt lat="46.19823" lon="-1.37547">
        <ele>10.95349</ele>
        <time>2023-05-30T14:15:07.000Z</time>
      </trkpt>
      <trkpt lat="46.19818" lon="-1.37547">
        <ele>11.04274</ele>
        <time>2023-05-30T14:15:08.000Z</time>
      </trkpt>
      <trkpt lat="46.19813" lon="-1.37547">
        <ele>11.12777</ele>
        <time>2023-05-30T14:15:09.000Z</time>
      </trkpt>
      <trkpt lat="46.19808" lon="-1.37547">
        <ele>11.19355</ele>
        <time>2023-05-30T14:15:10.000Z</time>
      </trkpt>
      <trkpt lat="46.19802" lon="-1.37546">
        <ele>11.27415</ele>
        <time>2023-05-30T14:15:11.000Z</time>
      </trkpt>
      <trkpt lat="46.19797" lon="-1.37546">
        <ele>11.35435</ele>
        <time>2023-05-30T14:15:12.000Z</time>
      </trkpt>
      <trkpt lat="46.19791" lon="-1.37546">
        <ele>11.41371</ele>
        <time>2023-05-30T14:15:13.000Z</time>
      </trkpt>
      <trkpt lat="46.19786" lon="-1.37546">
        <ele>11.44913</ele>
        <time>2023-05-30T14:15:14.000Z</time>
      </trkpt>
      <trkpt lat="46.1978" lon="-1.37545">
        <ele>11.49133</ele>
        <time>2023-05-30T14:15:15.000Z</time>
      </trkpt>
      <trkpt lat="46.19775" lon="-1.37545">
        <ele>11.54707</ele>
        <time>2023-05-30T14:15:16.000Z</time>
      </trkpt>
      <trkpt lat="46.19769" lon="-1.37545">
        <ele>11.60344</ele>
        <time>2023-05-30T14:15:17.000Z</time>
      </trkpt>
      <trkpt lat="46.19764" lon="-1.37545">
        <ele>11.63582</ele>
        <time>2023-05-30T14:15:18.000Z</time>
      </trkpt>
      <trkpt lat="46.19758" lon="-1.37546">
        <ele>11.66207</ele>
        <time>2023-05-30T14:15:19.000Z</time>
      </trkpt>
      <trkpt lat="46.19753" lon="-1.37546">
        <ele>11.70987</ele>
        <time>2023-05-30T14:15:20.000Z</time>
      </trkpt>
      <trkpt lat="46.19747" lon="-1.37547">
        <ele>11.74989</ele>
        <time>2023-05-30T14:15:21.000Z</time>
      </trkpt>
      <trkpt lat="46.19742" lon="-1.37547">
        <ele>11.78761</ele>
        <time>2023-05-30T14:15:22.000Z</time>
      </trkpt>
      <trkpt lat="46.19737" lon="-1.37546">
        <ele>11.81402</ele>
        <time>2023-05-30T14:15:23.000Z</time>
      </trkpt>
      <trkpt lat="46.19732" lon="-1.37546">
        <ele>11.81991</ele>
        <time>2023-05-30T14:15:24.000Z</time>
      </trkpt>
      <trkpt lat="46.19726" lon="-1.37546">
        <ele>11.81606</ele>
        <time>2023-05-30T14:15:25.000Z</time>
      </trkpt>
      <trkpt lat="46.19721" lon="-1.37545">
        <ele>11.8084</ele>
        <time>2023-05-30T14:15:26.000Z</time>
      </trkpt>
      <trkpt lat="46.19716" lon="-1.37545">
        <ele>11.82439</ele>
        <time>2023-05-30T14:15:27.000Z</time>
      </trkpt>
      <trkpt lat="46.1971" lon="-1.37545">
        <ele>11.84648</ele>
        <time>2023-05-30T14:15:28.000Z</time>
      </trkpt>
      <trkpt lat="46.19705" lon="-1.37545">
        <ele>11.87007</ele>
        <time>2023-05-30T14:15:29.000Z</time>
      </trkpt>
      <trkpt lat="46.197" lon="-1.37546">
        <ele>11.88232</ele>
        <time>2023-05-30T14:15:30.000Z</time>
      </trkpt>
      <trkpt lat="46.19695" lon="-1.37547">
        <ele>11.86748</ele>
        <time>2023-05-30T14:15:31.000Z</time>
      </trkpt>
      <trkpt lat="46.19689" lon="-1.37547">
        <ele>11.86281</ele>
        <time>2023-05-30T14:15:32.000Z</time>
      </trkpt>
      <trkpt lat="46.19685" lon="-1.37545">
        <ele>11.85065</ele>
        <time>2023-05-30T14:15:33.000Z</time>
      </trkpt>
      <trkpt lat="46.19681" lon="-1.3754">
        <ele>11.85112</ele>
        <time>2023-05-30T14:15:34.000Z</time>
      </trkpt>
      <trkpt lat="46.19679" lon="-1.37534">
        <ele>11.85448</ele>
        <time>2023-05-30T14:15:35.000Z</time>
      </trkpt>
      <trkpt lat="46.19679" lon="-1.37528">
        <ele>11.8334</ele>
        <time>2023-05-30T14:15:36.000Z</time>
      </trkpt>
      <trkpt lat="46.19679" lon="-1.37521">
        <ele>11.80356</ele>
        <time>2023-05-30T14:15:37.000Z</time>
      </trkpt>
      <trkpt lat="46.19678" lon="-1.37514">
        <ele>11.78426</ele>
        <time>2023-05-30T14:15:38.000Z</time>
      </trkpt>
      <trkpt lat="46.19678" lon="-1.37507">
        <ele>11.77315</ele>
        <time>2023-05-30T14:15:39.000Z</time>
      </trkpt>
      <trkpt lat="46.19678" lon="-1.37501">
        <ele>11.74927</ele>
        <time>2023-05-30T14:15:40.000Z</time>
      </trkpt>
      <trkpt lat="46.19677" lon="-1.37493">
        <ele>11.75639</ele>
        <time>2023-05-30T14:15:41.000Z</time>
      </trkpt>
      <trkpt lat="46.19678" lon="-1.37487">
        <ele>11.775</ele>
        <time>2023-05-30T14:15:42.000Z</time>
      </trkpt>
      <trkpt lat="46.19677" lon="-1.3748">
        <ele>11.78418</ele>
        <time>2023-05-30T14:15:43.000Z</time>
      </trkpt>
      <trkpt lat="46.19677" lon="-1.37473">
        <ele>11.81006</ele>
        <time>2023-05-30T14:15:44.000Z</time>
      </trkpt>
      <trkpt lat="46.19678" lon="-1.37466">
        <ele>11.85801</ele>
        <time>2023-05-30T14:15:45.000Z</time>
      </trkpt>
      <trkpt lat="46.19678" lon="-1.37459">
        <ele>11.91621</ele>
        <time>2023-05-30T14:15:46.000Z</time>
      </trkpt>
      <trkpt lat="46.19678" lon="-1.37451">
        <ele>11.93671</ele>
        <time>2023-05-30T14:15:47.000Z</time>
      </trkpt>
      <trkpt lat="46.19678" lon="-1.37445">
        <ele>11.92287</ele>
        <time>2023-05-30T14:15:48.000Z</time>
      </trkpt>
      <trkpt lat="46.19678" lon="-1.37438">
        <ele>11.90253</ele>
        <time>2023-05-30T14:15:49.000Z</time>
      </trkpt>
      <trkpt lat="46.19677" lon="-1.37432">
        <ele>11.88905</ele>
        <time>2023-05-30T14:15:50.000Z</time>
      </trkpt>
      <trkpt lat="46.19676" lon="-1.37426">
        <ele>11.89541</ele>
        <time>2023-05-30T14:15:51.000Z</time>
      </trkpt>
      <trkpt lat="46.19672" lon="-1.37422">
        <ele>11.95488</ele>
        <time>2023-05-30T14:15:52.000Z</time>
      </trkpt>
      <trkpt lat="46.19668" lon="-1.3742">
        <ele>11.99533</ele>
        <time>2023-05-30T14:15:53.000Z</time>
      </trkpt>
      <trkpt lat="46.19664" lon="-1.37419">
        <ele>12.02321</ele>
        <time>2023-05-30T14:15:54.000Z</time>
      </trkpt>
      <trkpt lat="46.1966" lon="-1.3742">
        <ele>12.02652</ele>
        <time>2023-05-30T14:15:55.000Z</time>
      </trkpt>
      <trkpt lat="46.19655" lon="-1.3742">
        <ele>12.01726</ele>
        <time>2023-05-30T14:15:56.000Z</time>
      </trkpt>
      <trkpt lat="46.19651" lon="-1.3742">
        <ele>11.99657</ele>
        <time>2023-05-30T14:15:57.000Z</time>
      </trkpt>
      <trkpt lat="46.19646" lon="-1.3742">
        <ele>11.98017</ele>
        <time>2023-05-30T14:15:58.000Z</time>
      </trkpt>
      <trkpt lat="46.19642" lon="-1.37421">
        <ele>11.95437</ele>
        <time>2023-05-30T14:15:59.000Z</time>
      </trkpt>
      <trkpt lat="46.19638" lon="-1.37422">
        <ele>11.92806</ele>
        <time>2023-05-30T14:16:00.000Z</time>
      </trkpt>
      <trkpt lat="46.19633" lon="-1.37423">
        <ele>11.8734</ele>
        <time>2023-05-30T14:16:01.000Z</time>
      </trkpt>
      <trkpt lat="46.19628" lon="-1.37423">
        <ele>11.80317</ele>
        <time>2023-05-30T14:16:02.000Z</time>
      </trkpt>
      <trkpt lat="46.19623" lon="-1.37423">
        <ele>11.73905</ele>
        <time>2023-05-30T14:16:03.000Z</time>
      </trkpt>
      <trkpt lat="46.19619" lon="-1.37423">
        <ele>11.69435</ele>
        <time>2023-05-30T14:16:04.000Z</time>
      </trkpt>
      <trkpt lat="46.19614" lon="-1.37423">
        <ele>11.64901</ele>
        <time>2023-05-30T14:16:05.000Z</time>
      </trkpt>
      <trkpt lat="46.19609" lon="-1.37423">
        <ele>11.61226</ele>
        <time>2023-05-30T14:16:06.000Z</time>
      </trkpt>
      <trkpt lat="46.19605" lon="-1.37422">
        <ele>11.6032</ele>
        <time>2023-05-30T14:16:07.000Z</time>
      </trkpt>
      <trkpt lat="46.196" lon="-1.37422">
        <ele>11.62718</ele>
        <time>2023-05-30T14:16:08.000Z</time>
      </trkpt>
      <trkpt lat="46.19595" lon="-1.37422">
        <ele>11.6539</ele>
        <time>2023-05-30T14:16:09.000Z</time>
      </trkpt>
      <trkpt lat="46.1959" lon="-1.37421">
        <ele>11.68345</ele>
        <time>2023-05-30T14:16:10.000Z</time>
      </trkpt>
      <trkpt lat="46.19585" lon="-1.37422">
        <ele>11.72188</ele>
        <time>2023-05-30T14:16:11.000Z</time>
      </trkpt>
      <trkpt lat="46.1958" lon="-1.37421">
        <ele>11.7001</ele>
        <time>2023-05-30T14:16:12.000Z</time>
      </trkpt>
      <trkpt lat="46.19576" lon="-1.37421">
        <ele>11.69636</ele>
        <time>2023-05-30T14:16:13.000Z</time>
      </trkpt>
      <trkpt lat="46.19571" lon="-1.37421">
        <ele>11.65478</ele>
        <time>2023-05-30T14:16:14.000Z</time>
      </trkpt>
      <trkpt lat="46.19565" lon="-1.37421">
        <ele>11.61955</ele>
        <time>2023-05-30T14:16:15.000Z</time>
      </trkpt>
      <trkpt lat="46.19561" lon="-1.37421">
        <ele>11.53522</ele>
        <time>2023-05-30T14:16:16.000Z</time>
      </trkpt>
      <trkpt lat="46.19555" lon="-1.37421">
        <ele>11.45838</ele>
        <time>2023-05-30T14:16:17.000Z</time>
      </trkpt>
      <trkpt lat="46.1955" lon="-1.37422">
        <ele>11.46237</ele>
        <time>2023-05-30T14:16:18.000Z</time>
      </trkpt>
      <trkpt lat="46.19544" lon="-1.37422">
        <ele>11.46987</ele>
        <time>2023-05-30T14:16:19.000Z</time>
      </trkpt>
      <trkpt lat="46.19539" lon="-1.37422">
        <ele>11.4869</ele>
        <time>2023-05-30T14:16:20.000Z</time>
      </trkpt>
      <trkpt lat="46.19534" lon="-1.37423">
        <ele>11.50883</ele>
        <time>2023-05-30T14:16:21.000Z</time>
      </trkpt>
      <trkpt lat="46.19529" lon="-1.37422">
        <ele>11.54418</ele>
        <time>2023-05-30T14:16:22.000Z</time>
      </trkpt>
      <trkpt lat="46.19524" lon="-1.37423">
        <ele>11.54624</ele>
        <time>2023-05-30T14:16:23.000Z</time>
      </trkpt>
      <trkpt lat="46.19519" lon="-1.37423">
        <ele>11.51993</ele>
        <time>2023-05-30T14:16:24.000Z</time>
      </trkpt>
      <trkpt lat="46.19513" lon="-1.37423">
        <ele>11.49219</ele>
        <time>2023-05-30T14:16:25.000Z</time>
      </trkpt>
      <trkpt lat="46.19508" lon="-1.37422">
        <ele>11.45097</ele>
        <time>2023-05-30T14:16:26.000Z</time>
      </trkpt>
      <trkpt lat="46.19503" lon="-1.37421">
        <ele>11.36516</ele>
        <time>2023-05-30T14:16:27.000Z</time>
      </trkpt>
      <trkpt lat="46.19498" lon="-1.3742">
        <ele>11.27629</ele>
        <time>2023-05-30T14:16:28.000Z</time>
      </trkpt>
      <trkpt lat="46.19493" lon="-1.37418">
        <ele>11.15421</ele>
        <time>2023-05-30T14:16:29.000Z</time>
      </trkpt>
      <trkpt lat="46.19488" lon="-1.37417">
        <ele>11.02432</ele>
        <time>2023-05-30T14:16:30.000Z</time>
      </trkpt>
      <trkpt lat="46.19482" lon="-1.37416">
        <ele>11.00104</ele>
        <time>2023-05-30T14:16:31.000Z</time>
      </trkpt>
      <trkpt lat="46.19477" lon="-1.37415">
        <ele>10.96729</ele>
        <time>2023-05-30T14:16:32.000Z</time>
      </trkpt>
      <trkpt lat="46.19473" lon="-1.37414">
        <ele>10.92456</ele>
        <time>2023-05-30T14:16:33.000Z</time>
      </trkpt>
      <trkpt lat="46.19468" lon="-1.37413">
        <ele>10.92901</ele>
        <time>2023-05-30T14:16:34.000Z</time>
      </trkpt>
      <trkpt lat="46.19464" lon="-1.37412">
        <ele>10.89091</ele>
        <time>2023-05-30T14:16:35.000Z</time>
      </trkpt>
      <trkpt lat="46.1946" lon="-1.37411">
        <ele>10.93329</ele>
        <time>2023-05-30T14:16:36.000Z</time>
      </trkpt>
      <trkpt lat="46.19456" lon="-1.37411">
        <ele>10.96696</ele>
        <time>2023-05-30T14:16:37.000Z</time>
      </trkpt>
      <trkpt lat="46.19451" lon="-1.37409">
        <ele>11.01921</ele>
        <time>2023-05-30T14:16:38.000Z</time>
      </trkpt>
      <trkpt lat="46.19447" lon="-1.37409">
        <ele>11.06359</ele>
        <time>2023-05-30T14:16:39.000Z</time>
      </trkpt>
      <trkpt lat="46.19442" lon="-1.37408">
        <ele>11.10373</ele>
        <time>2023-05-30T14:16:40.000Z</time>
      </trkpt>
      <trkpt lat="46.19437" lon="-1.37408">
        <ele>11.14445</ele>
        <time>2023-05-30T14:16:41.000Z</time>
      </trkpt>
      <trkpt lat="46.19431" lon="-1.37408">
        <ele>11.16547</ele>
        <time>2023-05-30T14:16:42.000Z</time>
      </trkpt>
      <trkpt lat="46.19426" lon="-1.37409">
        <ele>11.21768</ele>
        <time>2023-05-30T14:16:43.000Z</time>
      </trkpt>
      <trkpt lat="46.19421" lon="-1.37407">
        <ele>11.29605</ele>
        <time>2023-05-30T14:16:44.000Z</time>
      </trkpt>
      <trkpt lat="46.19416" lon="-1.37407">
        <ele>11.40083</ele>
        <time>2023-05-30T14:16:45.000Z</time>
      </trkpt>
      <trkpt lat="46.1941" lon="-1.37406">
        <ele>11.48904</ele>
        <time>2023-05-30T14:16:46.000Z</time>
      </trkpt>
      <trkpt lat="46.19405" lon="-1.37405">
        <ele>11.59821</ele>
        <time>2023-05-30T14:16:47.000Z</time>
      </trkpt>
      <trkpt lat="46.194" lon="-1.37404">
        <ele>11.71927</ele>
        <time>2023-05-30T14:16:48.000Z</time>
      </trkpt>
      <trkpt lat="46.19394" lon="-1.37404">
        <ele>11.89151</ele>
        <time>2023-05-30T14:16:49.000Z</time>
      </trkpt>
      <trkpt lat="46.19388" lon="-1.37403">
        <ele>12.07372</ele>
        <time>2023-05-30T14:16:50.000Z</time>
      </trkpt>
      <trkpt lat="46.19383" lon="-1.37402">
        <ele>12.1605</ele>
        <time>2023-05-30T14:16:51.000Z</time>
      </trkpt>
      <trkpt lat="46.19378" lon="-1.37402">
        <ele>12.23785</ele>
        <time>2023-05-30T14:16:52.000Z</time>
      </trkpt>
      <trkpt lat="46.19372" lon="-1.37401">
        <ele>12.33962</ele>
        <time>2023-05-30T14:16:53.000Z</time>
      </trkpt>
      <trkpt lat="46.19366" lon="-1.37401">
        <ele>12.43362</ele>
        <time>2023-05-30T14:16:54.000Z</time>
      </trkpt>
      <trkpt lat="46.1936" lon="-1.37401">
        <ele>12.57185</ele>
        <time>2023-05-30T14:16:55.000Z</time>
      </trkpt>
      <trkpt lat="46.19355" lon="-1.374">
        <ele>12.69541</ele>
        <time>2023-05-30T14:16:56.000Z</time>
      </trkpt>
      <trkpt lat="46.1935" lon="-1.37399">
        <ele>12.81714</ele>
        <time>2023-05-30T14:16:57.000Z</time>
      </trkpt>
      <trkpt lat="46.19344" lon="-1.37399">
        <ele>12.82907</ele>
        <time>2023-05-30T14:16:58.000Z</time>
      </trkpt>
      <trkpt lat="46.19339" lon="-1.37399">
        <ele>12.84771</ele>
        <time>2023-05-30T14:16:59.000Z</time>
      </trkpt>
      <trkpt lat="46.19334" lon="-1.37397">
        <ele>12.86986</ele>
        <time>2023-05-30T14:17:00.000Z</time>
      </trkpt>
      <trkpt lat="46.1933" lon="-1.37397">
        <ele>12.88509</ele>
        <time>2023-05-30T14:17:01.000Z</time>
      </trkpt>
      <trkpt lat="46.19325" lon="-1.37395">
        <ele>12.92467</ele>
        <time>2023-05-30T14:17:02.000Z</time>
      </trkpt>
      <trkpt lat="46.1932" lon="-1.37395">
        <ele>12.96159</ele>
        <time>2023-05-30T14:17:03.000Z</time>
      </trkpt>
      <trkpt lat="46.19316" lon="-1.37395">
        <ele>12.96184</ele>
        <time>2023-05-30T14:17:04.000Z</time>
      </trkpt>
      <trkpt lat="46.19311" lon="-1.37395">
        <ele>12.90822</ele>
        <time>2023-05-30T14:17:05.000Z</time>
      </trkpt>
      <trkpt lat="46.19307" lon="-1.37395">
        <ele>12.85805</ele>
        <time>2023-05-30T14:17:06.000Z</time>
      </trkpt>
      <trkpt lat="46.19303" lon="-1.37394">
        <ele>12.8234</ele>
        <time>2023-05-30T14:17:07.000Z</time>
      </trkpt>
      <trkpt lat="46.19298" lon="-1.37394">
        <ele>12.78417</ele>
        <time>2023-05-30T14:17:08.000Z</time>
      </trkpt>
      <trkpt lat="46.19294" lon="-1.37394">
        <ele>12.72163</ele>
        <time>2023-05-30T14:17:09.000Z</time>
      </trkpt>
      <trkpt lat="46.1929" lon="-1.37392">
        <ele>12.64603</ele>
        <time>2023-05-30T14:17:10.000Z</time>
      </trkpt>
      <trkpt lat="46.19287" lon="-1.37389">
        <ele>12.58512</ele>
        <time>2023-05-30T14:17:11.000Z</time>
      </trkpt>
      <trkpt lat="46.19285" lon="-1.37384">
        <ele>12.4902</ele>
        <time>2023-05-30T14:17:12.000Z</time>
      </trkpt>
      <trkpt lat="46.19283" lon="-1.37378">
        <ele>12.39033</ele>
        <time>2023-05-30T14:17:13.000Z</time>
      </trkpt>
      <trkpt lat="46.19283" lon="-1.37373">
        <ele>12.28485</ele>
        <time>2023-05-30T14:17:14.000Z</time>
      </trkpt>
      <trkpt lat="46.19284" lon="-1.37367">
        <ele>12.19308</ele>
        <time>2023-05-30T14:17:15.000Z</time>
      </trkpt>
      <trkpt lat="46.19286" lon="-1.37362">
        <ele>12.09233</ele>
        <time>2023-05-30T14:17:16.000Z</time>
      </trkpt>
      <trkpt lat="46.19287" lon="-1.37356">
        <ele>12.00091</ele>
        <time>2023-05-30T14:17:17.000Z</time>
      </trkpt>
      <trkpt lat="46.19289" lon="-1.3735">
        <ele>11.90911</ele>
        <time>2023-05-30T14:17:18.000Z</time>
      </trkpt>
      <trkpt lat="46.1929" lon="-1.37345">
        <ele>11.83602</ele>
        <time>2023-05-30T14:17:19.000Z</time>
      </trkpt>
      <trkpt lat="46.19291" lon="-1.37339">
        <ele>11.75511</ele>
        <time>2023-05-30T14:17:20.000Z</time>
      </trkpt>
      <trkpt lat="46.19292" lon="-1.37332">
        <ele>11.68161</ele>
        <time>2023-05-30T14:17:21.000Z</time>
      </trkpt>
      <trkpt lat="46.19294" lon="-1.37326">
        <ele>11.59479</ele>
        <time>2023-05-30T14:17:22.000Z</time>
      </trkpt>
      <trkpt lat="46.19295" lon="-1.3732">
        <ele>11.50996</ele>
        <time>2023-05-30T14:17:23.000Z</time>
      </trkpt>
      <trkpt lat="46.19296" lon="-1.37313">
        <ele>11.4403</ele>
        <time>2023-05-30T14:17:24.000Z</time>
      </trkpt>
      <trkpt lat="46.19296" lon="-1.37307">
        <ele>11.37471</ele>
        <time>2023-05-30T14:17:25.000Z</time>
      </trkpt>
      <trkpt lat="46.19298" lon="-1.37301">
        <ele>11.33636</ele>
        <time>2023-05-30T14:17:26.000Z</time>
      </trkpt>
      <trkpt lat="46.19299" lon="-1.37295">
        <ele>11.2935</ele>
        <time>2023-05-30T14:17:27.000Z</time>
      </trkpt>
      <trkpt lat="46.19299" lon="-1.37289">
        <ele>11.24763</ele>
        <time>2023-05-30T14:17:28.000Z</time>
      </trkpt>
      <trkpt lat="46.193" lon="-1.37283">
        <ele>11.21877</ele>
        <time>2023-05-30T14:17:29.000Z</time>
      </trkpt>
      <trkpt lat="46.19301" lon="-1.37277">
        <ele>11.18727</ele>
        <time>2023-05-30T14:17:30.000Z</time>
      </trkpt>
      <trkpt lat="46.19302" lon="-1.37271">
        <ele>11.13453</ele>
        <time>2023-05-30T14:17:31.000Z</time>
      </trkpt>
      <trkpt lat="46.19303" lon="-1.37264">
        <ele>11.14436</ele>
        <time>2023-05-30T14:17:32.000Z</time>
      </trkpt>
      <trkpt lat="46.19304" lon="-1.37258">
        <ele>11.14535</ele>
        <time>2023-05-30T14:17:33.000Z</time>
      </trkpt>
      <trkpt lat="46.19304" lon="-1.37251">
        <ele>11.1782</ele>
        <time>2023-05-30T14:17:34.000Z</time>
      </trkpt>
      <trkpt lat="46.19305" lon="-1.37245">
        <ele>11.2184</ele>
        <time>2023-05-30T14:17:35.000Z</time>
      </trkpt>
      <trkpt lat="46.19307" lon="-1.37238">
        <ele>11.27585</ele>
        <time>2023-05-30T14:17:36.000Z</time>
      </trkpt>
      <trkpt lat="46.19308" lon="-1.37232">
        <ele>11.33333</ele>
        <time>2023-05-30T14:17:37.000Z</time>
      </trkpt>
      <trkpt lat="46.19309" lon="-1.37226">
        <ele>11.39997</ele>
        <time>2023-05-30T14:17:38.000Z</time>
      </trkpt>
      <trkpt lat="46.19309" lon="-1.3722">
        <ele>11.461</ele>
        <time>2023-05-30T14:17:39.000Z</time>
      </trkpt>
      <trkpt lat="46.1931" lon="-1.37214">
        <ele>11.45893</ele>
        <time>2023-05-30T14:17:40.000Z</time>
      </trkpt>
      <trkpt lat="46.19311" lon="-1.37207">
        <ele>11.4247</ele>
        <time>2023-05-30T14:17:41.000Z</time>
      </trkpt>
      <trkpt lat="46.19312" lon="-1.37201">
        <ele>11.38663</ele>
        <time>2023-05-30T14:17:42.000Z</time>
      </trkpt>
      <trkpt lat="46.19313" lon="-1.37195">
        <ele>11.44915</ele>
        <time>2023-05-30T14:17:43.000Z</time>
      </trkpt>
      <trkpt lat="46.19314" lon="-1.3719">
        <ele>11.4885</ele>
        <time>2023-05-30T14:17:44.000Z</time>
      </trkpt>
      <trkpt lat="46.19315" lon="-1.37183">
        <ele>11.55036</ele>
        <time>2023-05-30T14:17:45.000Z</time>
      </trkpt>
      <trkpt lat="46.19317" lon="-1.37177">
        <ele>11.59883</ele>
        <time>2023-05-30T14:17:46.000Z</time>
      </trkpt>
      <trkpt lat="46.19318" lon="-1.37172">
        <ele>11.63504</ele>
        <time>2023-05-30T14:17:47.000Z</time>
      </trkpt>
      <trkpt lat="46.19319" lon="-1.37164">
        <ele>11.68318</ele>
        <time>2023-05-30T14:17:48.000Z</time>
      </trkpt>
      <trkpt lat="46.1932" lon="-1.37158">
        <ele>11.73394</ele>
        <time>2023-05-30T14:17:49.000Z</time>
      </trkpt>
      <trkpt lat="46.19321" lon="-1.37151">
        <ele>11.80175</ele>
        <time>2023-05-30T14:17:50.000Z</time>
      </trkpt>
      <trkpt lat="46.19322" lon="-1.37144">
        <ele>11.85107</ele>
        <time>2023-05-30T14:17:51.000Z</time>
      </trkpt>
      <trkpt lat="46.19324" lon="-1.37138">
        <ele>11.90186</ele>
        <time>2023-05-30T14:17:52.000Z</time>
      </trkpt>
      <trkpt lat="46.19325" lon="-1.37132">
        <ele>11.95647</ele>
        <time>2023-05-30T14:17:53.000Z</time>
      </trkpt>
      <trkpt lat="46.19326" lon="-1.37126">
        <ele>11.94598</ele>
        <time>2023-05-30T14:17:54.000Z</time>
      </trkpt>
      <trkpt lat="46.19328" lon="-1.3712">
        <ele>11.90066</ele>
        <time>2023-05-30T14:17:55.000Z</time>
      </trkpt>
      <trkpt lat="46.19329" lon="-1.37114">
        <ele>11.84148</ele>
        <time>2023-05-30T14:17:56.000Z</time>
      </trkpt>
      <trkpt lat="46.19331" lon="-1.37108">
        <ele>11.78257</ele>
        <time>2023-05-30T14:17:57.000Z</time>
      </trkpt>
      <trkpt lat="46.19333" lon="-1.37103">
        <ele>11.83286</ele>
        <time>2023-05-30T14:17:58.000Z</time>
      </trkpt>
      <trkpt lat="46.19334" lon="-1.37096">
        <ele>11.85909</ele>
        <time>2023-05-30T14:17:59.000Z</time>
      </trkpt>
      <trkpt lat="46.19335" lon="-1.37091">
        <ele>11.93345</ele>
        <time>2023-05-30T14:18:00.000Z</time>
      </trkpt>
      <trkpt lat="46.19336" lon="-1.37086">
        <ele>12.04749</ele>
        <time>2023-05-30T14:18:01.000Z</time>
      </trkpt>
      <trkpt lat="46.19338" lon="-1.37079">
        <ele>12.18486</ele>
        <time>2023-05-30T14:18:02.000Z</time>
      </trkpt>
      <trkpt lat="46.1934" lon="-1.37073">
        <ele>12.2054</ele>
        <time>2023-05-30T14:18:03.000Z</time>
      </trkpt>
      <trkpt lat="46.19341" lon="-1.37068">
        <ele>12.23863</ele>
        <time>2023-05-30T14:18:04.000Z</time>
      </trkpt>
      <trkpt lat="46.19343" lon="-1.37062">
        <ele>12.2505</ele>
        <time>2023-05-30T14:18:05.000Z</time>
      </trkpt>
      <trkpt lat="46.19345" lon="-1.37056">
        <ele>12.25568</ele>
        <time>2023-05-30T14:18:06.000Z</time>
      </trkpt>
      <trkpt lat="46.19346" lon="-1.3705">
        <ele>12.27111</ele>
        <time>2023-05-30T14:18:07.000Z</time>
      </trkpt>
      <trkpt lat="46.19348" lon="-1.37045">
        <ele>12.27304</ele>
        <time>2023-05-30T14:18:08.000Z</time>
      </trkpt>
      <trkpt lat="46.1935" lon="-1.37039">
        <ele>12.26007</ele>
        <time>2023-05-30T14:18:09.000Z</time>
      </trkpt>
      <trkpt lat="46.19352" lon="-1.37034">
        <ele>12.22878</ele>
        <time>2023-05-30T14:18:10.000Z</time>
      </trkpt>
      <trkpt lat="46.19354" lon="-1.37029">
        <ele>12.18313</ele>
        <time>2023-05-30T14:18:11.000Z</time>
      </trkpt>
      <trkpt lat="46.19356" lon="-1.37024">
        <ele>12.10917</ele>
        <time>2023-05-30T14:18:12.000Z</time>
      </trkpt>
      <trkpt lat="46.19358" lon="-1.37018">
        <ele>12.03758</ele>
        <time>2023-05-30T14:18:13.000Z</time>
      </trkpt>
      <trkpt lat="46.19359" lon="-1.37013">
        <ele>12.02917</ele>
        <time>2023-05-30T14:18:14.000Z</time>
      </trkpt>
      <trkpt lat="46.1936" lon="-1.37007">
        <ele>12.0383</ele>
        <time>2023-05-30T14:18:15.000Z</time>
      </trkpt>
      <trkpt lat="46.19361" lon="-1.37002">
        <ele>12.04855</ele>
        <time>2023-05-30T14:18:16.000Z</time>
      </trkpt>
      <trkpt lat="46.19362" lon="-1.36997">
        <ele>12.07272</ele>
        <time>2023-05-30T14:18:17.000Z</time>
      </trkpt>
      <trkpt lat="46.19364" lon="-1.36992">
        <ele>11.97631</ele>
        <time>2023-05-30T14:18:18.000Z</time>
      </trkpt>
      <trkpt lat="46.19365" lon="-1.36987">
        <ele>11.89491</ele>
        <time>2023-05-30T14:18:19.000Z</time>
      </trkpt>
      <trkpt lat="46.19366" lon="-1.36982">
        <ele>11.81627</ele>
        <time>2023-05-30T14:18:20.000Z</time>
      </trkpt>
      <trkpt lat="46.19366" lon="-1.36978">
        <ele>11.73386</ele>
        <time>2023-05-30T14:18:21.000Z</time>
      </trkpt>
      <trkpt lat="46.19367" lon="-1.36974">
        <ele>11.62055</ele>
        <time>2023-05-30T14:18:22.000Z</time>
      </trkpt>
      <trkpt lat="46.19366" lon="-1.3697">
        <ele>11.51264</ele>
        <time>2023-05-30T14:18:23.000Z</time>
      </trkpt>
      <trkpt lat="46.19365" lon="-1.36966">
        <ele>11.41772</ele>
        <time>2023-05-30T14:18:24.000Z</time>
      </trkpt>
      <trkpt lat="46.19363" lon="-1.36963">
        <ele>11.34551</ele>
        <time>2023-05-30T14:18:25.000Z</time>
      </trkpt>
      <trkpt lat="46.19362" lon="-1.3696">
        <ele>11.28211</ele>
        <time>2023-05-30T14:18:26.000Z</time>
      </trkpt>
      <trkpt lat="46.1936" lon="-1.36957">
        <ele>11.23126</ele>
        <time>2023-05-30T14:18:27.000Z</time>
      </trkpt>
      <trkpt lat="46.19359" lon="-1.36954">
        <ele>11.19359</ele>
        <time>2023-05-30T14:18:28.000Z</time>
      </trkpt>
      <trkpt lat="46.19357" lon="-1.36951">
        <ele>11.17196</ele>
        <time>2023-05-30T14:18:29.000Z</time>
      </trkpt>
      <trkpt lat="46.19356" lon="-1.36949">
        <ele>11.15855</ele>
        <time>2023-05-30T14:18:30.000Z</time>
      </trkpt>
      <trkpt lat="46.19353" lon="-1.36946">
        <ele>11.16829</ele>
        <time>2023-05-30T14:18:32.000Z</time>
      </trkpt>
      <trkpt lat="46.19354" lon="-1.3694">
        <ele>11.17626</ele>
        <time>2023-05-30T14:18:34.000Z</time>
      </trkpt>
      <trkpt lat="46.19356" lon="-1.36938">
        <ele>11.20453</ele>
        <time>2023-05-30T14:18:35.000Z</time>
      </trkpt>
      <trkpt lat="46.19358" lon="-1.36937">
        <ele>11.20115</ele>
        <time>2023-05-30T14:18:36.000Z</time>
      </trkpt>
      <trkpt lat="46.1936" lon="-1.36937">
        <ele>11.18017</ele>
        <time>2023-05-30T14:18:37.000Z</time>
      </trkpt>
      <trkpt lat="46.19363" lon="-1.36938">
        <ele>11.18808</ele>
        <time>2023-05-30T14:18:38.000Z</time>
      </trkpt>
      <trkpt lat="46.19366" lon="-1.36936">
        <ele>11.19788</ele>
        <time>2023-05-30T14:18:39.000Z</time>
      </trkpt>
      <trkpt lat="46.19368" lon="-1.36933">
        <ele>11.14824</ele>
        <time>2023-05-30T14:18:40.000Z</time>
      </trkpt>
      <trkpt lat="46.19369" lon="-1.3693">
        <ele>11.09346</ele>
        <time>2023-05-30T14:18:41.000Z</time>
      </trkpt>
      <trkpt lat="46.19371" lon="-1.36926">
        <ele>11.05202</ele>
        <time>2023-05-30T14:18:42.000Z</time>
      </trkpt>
      <trkpt lat="46.19373" lon="-1.36923">
        <ele>10.99926</ele>
        <time>2023-05-30T14:18:43.000Z</time>
      </trkpt>
      <trkpt lat="46.19374" lon="-1.36919">
        <ele>10.95207</ele>
        <time>2023-05-30T14:18:44.000Z</time>
      </trkpt>
      <trkpt lat="46.19374" lon="-1.36914">
        <ele>11.02805</ele>
        <time>2023-05-30T14:18:45.000Z</time>
      </trkpt>
      <trkpt lat="46.19373" lon="-1.36911">
        <ele>11.09483</ele>
        <time>2023-05-30T14:18:46.000Z</time>
      </trkpt>
      <trkpt lat="46.19372" lon="-1.36907">
        <ele>11.15072</ele>
        <time>2023-05-30T14:18:47.000Z</time>
      </trkpt>
      <trkpt lat="46.19372" lon="-1.36903">
        <ele>11.20821</ele>
        <time>2023-05-30T14:18:48.000Z</time>
      </trkpt>
      <trkpt lat="46.19372" lon="-1.369">
        <ele>11.2325</ele>
        <time>2023-05-30T14:18:49.000Z</time>
      </trkpt>
      <trkpt lat="46.19372" lon="-1.36896">
        <ele>11.24182</ele>
        <time>2023-05-30T14:18:50.000Z</time>
      </trkpt>
      <trkpt lat="46.19372" lon="-1.36892">
        <ele>11.24218</ele>
        <time>2023-05-30T14:18:51.000Z</time>
      </trkpt>
      <trkpt lat="46.19372" lon="-1.36888">
        <ele>11.23339</ele>
        <time>2023-05-30T14:18:52.000Z</time>
      </trkpt>
      <trkpt lat="46.19372" lon="-1.36885">
        <ele>11.23664</ele>
        <time>2023-05-30T14:18:53.000Z</time>
      </trkpt>
      <trkpt lat="46.19373" lon="-1.36881">
        <ele>11.25381</ele>
        <time>2023-05-30T14:18:54.000Z</time>
      </trkpt>
      <trkpt lat="46.19373" lon="-1.36878">
        <ele>11.26845</ele>
        <time>2023-05-30T14:18:55.000Z</time>
      </trkpt>
      <trkpt lat="46.19373" lon="-1.36875">
        <ele>11.30848</ele>
        <time>2023-05-30T14:18:56.000Z</time>
      </trkpt>
      <trkpt lat="46.19374" lon="-1.36872">
        <ele>11.3653</ele>
        <time>2023-05-30T14:18:57.000Z</time>
      </trkpt>
      <trkpt lat="46.19374" lon="-1.36869">
        <ele>11.3954</ele>
        <time>2023-05-30T14:18:58.000Z</time>
      </trkpt>
      <trkpt lat="46.19374" lon="-1.36865">
        <ele>11.44095</ele>
        <time>2023-05-30T14:18:59.000Z</time>
      </trkpt>
      <trkpt lat="46.19374" lon="-1.36861">
        <ele>11.45451</ele>
        <time>2023-05-30T14:19:00.000Z</time>
      </trkpt>
      <trkpt lat="46.19374" lon="-1.36857">
        <ele>11.49901</ele>
        <time>2023-05-30T14:19:01.000Z</time>
      </trkpt>
      <trkpt lat="46.19375" lon="-1.36854">
        <ele>11.52852</ele>
        <time>2023-05-30T14:19:02.000Z</time>
      </trkpt>
      <trkpt lat="46.19375" lon="-1.3685">
        <ele>11.55781</ele>
        <time>2023-05-30T14:19:03.000Z</time>
      </trkpt>
      <trkpt lat="46.19375" lon="-1.36847">
        <ele>11.58073</ele>
        <time>2023-05-30T14:19:04.000Z</time>
      </trkpt>
      <trkpt lat="46.19376" lon="-1.36843">
        <ele>11.6003</ele>
        <time>2023-05-30T14:19:05.000Z</time>
      </trkpt>
      <trkpt lat="46.19376" lon="-1.36839">
        <ele>11.61702</ele>
        <time>2023-05-30T14:19:06.000Z</time>
      </trkpt>
      <trkpt lat="46.19376" lon="-1.36835">
        <ele>11.61855</ele>
        <time>2023-05-30T14:19:07.000Z</time>
      </trkpt>
      <trkpt lat="46.19377" lon="-1.36831">
        <ele>11.63443</ele>
        <time>2023-05-30T14:19:08.000Z</time>
      </trkpt>
      <trkpt lat="46.19377" lon="-1.36827">
        <ele>11.65941</ele>
        <time>2023-05-30T14:19:09.000Z</time>
      </trkpt>
      <trkpt lat="46.19377" lon="-1.36823">
        <ele>11.69837</ele>
        <time>2023-05-30T14:19:10.000Z</time>
      </trkpt>
      <trkpt lat="46.19378" lon="-1.36818">
        <ele>11.73376</ele>
        <time>2023-05-30T14:19:11.000Z</time>
      </trkpt>
      <trkpt lat="46.19378" lon="-1.36814">
        <ele>11.77255</ele>
        <time>2023-05-30T14:19:12.000Z</time>
      </trkpt>
      <trkpt lat="46.19379" lon="-1.36809">
        <ele>11.7931</ele>
        <time>2023-05-30T14:19:13.000Z</time>
      </trkpt>
      <trkpt lat="46.19379" lon="-1.36805">
        <ele>11.82389</ele>
        <time>2023-05-30T14:19:14.000Z</time>
      </trkpt>
      <trkpt lat="46.1938" lon="-1.368">
        <ele>11.84773</ele>
        <time>2023-05-30T14:19:15.000Z</time>
      </trkpt>
      <trkpt lat="46.1938" lon="-1.36796">
        <ele>11.8475</ele>
        <time>2023-05-30T14:19:16.000Z</time>
      </trkpt>
      <trkpt lat="46.1938" lon="-1.36791">
        <ele>11.83522</ele>
        <time>2023-05-30T14:19:17.000Z</time>
      </trkpt>
      <trkpt lat="46.19381" lon="-1.36786">
        <ele>11.8232</ele>
        <time>2023-05-30T14:19:18.000Z</time>
      </trkpt>
      <trkpt lat="46.19381" lon="-1.36782">
        <ele>11.76195</ele>
        <time>2023-05-30T14:19:19.000Z</time>
      </trkpt>
      <trkpt lat="46.19382" lon="-1.36777">
        <ele>11.80997</ele>
        <time>2023-05-30T14:19:20.000Z</time>
      </trkpt>
      <trkpt lat="46.19382" lon="-1.36772">
        <ele>11.83597</ele>
        <time>2023-05-30T14:19:21.000Z</time>
      </trkpt>
      <trkpt lat="46.19383" lon="-1.36767">
        <ele>11.88162</ele>
        <time>2023-05-30T14:19:22.000Z</time>
      </trkpt>
      <trkpt lat="46.19383" lon="-1.36763">
        <ele>11.93898</ele>
        <time>2023-05-30T14:19:23.000Z</time>
      </trkpt>
      <trkpt lat="46.19383" lon="-1.36758">
        <ele>12.03651</ele>
        <time>2023-05-30T14:19:24.000Z</time>
      </trkpt>
      <trkpt lat="46.19384" lon="-1.36753">
        <ele>12.04445</ele>
        <time>2023-05-30T14:19:25.000Z</time>
      </trkpt>
      <trkpt lat="46.19384" lon="-1.36748">
        <ele>12.0752</ele>
        <time>2023-05-30T14:19:26.000Z</time>
      </trkpt>
      <trkpt lat="46.19384" lon="-1.36743">
        <ele>12.09715</ele>
        <time>2023-05-30T14:19:27.000Z</time>
      </trkpt>
      <trkpt lat="46.19384" lon="-1.36738">
        <ele>12.09231</ele>
        <time>2023-05-30T14:19:28.000Z</time>
      </trkpt>
      <trkpt lat="46.19384" lon="-1.36732">
        <ele>12.11402</ele>
        <time>2023-05-30T14:19:29.000Z</time>
      </trkpt>
      <trkpt lat="46.19384" lon="-1.36727">
        <ele>12.12455</ele>
        <time>2023-05-30T14:19:30.000Z</time>
      </trkpt>
      <trkpt lat="46.19385" lon="-1.36721">
        <ele>12.13234</ele>
        <time>2023-05-30T14:19:31.000Z</time>
      </trkpt>
      <trkpt lat="46.19385" lon="-1.36716">
        <ele>12.14651</ele>
        <time>2023-05-30T14:19:32.000Z</time>
      </trkpt>
      <trkpt lat="46.19385" lon="-1.3671">
        <ele>12.17552</ele>
        <time>2023-05-30T14:19:33.000Z</time>
      </trkpt>
      <trkpt lat="46.19385" lon="-1.36705">
        <ele>12.17178</ele>
        <time>2023-05-30T14:19:34.000Z</time>
      </trkpt>
      <trkpt lat="46.19386" lon="-1.36699">
        <ele>12.17192</ele>
        <time>2023-05-30T14:19:35.000Z</time>
      </trkpt>
      <trkpt lat="46.19386" lon="-1.36693">
        <ele>12.17995</ele>
        <time>2023-05-30T14:19:36.000Z</time>
      </trkpt>
      <trkpt lat="46.19386" lon="-1.36687">
        <ele>12.21705</ele>
        <time>2023-05-30T14:19:37.000Z</time>
      </trkpt>
      <trkpt lat="46.19386" lon="-1.36682">
        <ele>12.252</ele>
        <time>2023-05-30T14:19:38.000Z</time>
      </trkpt>
      <trkpt lat="46.19386" lon="-1.36676">
        <ele>12.31006</ele>
        <time>2023-05-30T14:19:39.000Z</time>
      </trkpt>
      <trkpt lat="46.19386" lon="-1.3667">
        <ele>12.3744</ele>
        <time>2023-05-30T14:19:40.000Z</time>
      </trkpt>
      <trkpt lat="46.19387" lon="-1.36664">
        <ele>12.42635</ele>
        <time>2023-05-30T14:19:41.000Z</time>
      </trkpt>
      <trkpt lat="46.19387" lon="-1.36659">
        <ele>12.50717</ele>
        <time>2023-05-30T14:19:42.000Z</time>
      </trkpt>
      <trkpt lat="46.19387" lon="-1.36653">
        <ele>12.55573</ele>
        <time>2023-05-30T14:19:43.000Z</time>
      </trkpt>
      <trkpt lat="46.19387" lon="-1.36647">
        <ele>12.58193</ele>
        <time>2023-05-30T14:19:44.000Z</time>
      </trkpt>
      <trkpt lat="46.19387" lon="-1.36641">
        <ele>12.55863</ele>
        <time>2023-05-30T14:19:45.000Z</time>
      </trkpt>
      <trkpt lat="46.19387" lon="-1.36636">
        <ele>12.52596</ele>
        <time>2023-05-30T14:19:46.000Z</time>
      </trkpt>
      <trkpt lat="46.19387" lon="-1.3663">
        <ele>12.5121</ele>
        <time>2023-05-30T14:19:47.000Z</time>
      </trkpt>
      <trkpt lat="46.19388" lon="-1.36624">
        <ele>12.50606</ele>
        <time>2023-05-30T14:19:48.000Z</time>
      </trkpt>
      <trkpt lat="46.19388" lon="-1.36619">
        <ele>12.48178</ele>
        <time>2023-05-30T14:19:49.000Z</time>
      </trkpt>
      <trkpt lat="46.19388" lon="-1.36613">
        <ele>12.40074</ele>
        <time>2023-05-30T14:19:50.000Z</time>
      </trkpt>
      <trkpt lat="46.19388" lon="-1.36608">
        <ele>12.28481</ele>
        <time>2023-05-30T14:19:51.000Z</time>
      </trkpt>
      <trkpt lat="46.19388" lon="-1.36602">
        <ele>12.16365</ele>
        <time>2023-05-30T14:19:52.000Z</time>
      </trkpt>
      <trkpt lat="46.19388" lon="-1.36597">
        <ele>12.03358</ele>
        <time>2023-05-30T14:19:53.000Z</time>
      </trkpt>
      <trkpt lat="46.19388" lon="-1.36591">
        <ele>11.87245</ele>
        <time>2023-05-30T14:19:54.000Z</time>
      </trkpt>
      <trkpt lat="46.19388" lon="-1.36585">
        <ele>11.71364</ele>
        <time>2023-05-30T14:19:55.000Z</time>
      </trkpt>
      <trkpt lat="46.19387" lon="-1.36579">
        <ele>11.68508</ele>
        <time>2023-05-30T14:19:56.000Z</time>
      </trkpt>
      <trkpt lat="46.19387" lon="-1.36573">
        <ele>11.63617</ele>
        <time>2023-05-30T14:19:57.000Z</time>
      </trkpt>
      <trkpt lat="46.19387" lon="-1.36568">
        <ele>11.60279</ele>
        <time>2023-05-30T14:19:58.000Z</time>
      </trkpt>
      <trkpt lat="46.19387" lon="-1.36562">
        <ele>11.55988</ele>
        <time>2023-05-30T14:19:59.000Z</time>
      </trkpt>
      <trkpt lat="46.19387" lon="-1.36556">
        <ele>11.49412</ele>
        <time>2023-05-30T14:20:00.000Z</time>
      </trkpt>
      <trkpt lat="46.19387" lon="-1.3655">
        <ele>11.44731</ele>
        <time>2023-05-30T14:20:01.000Z</time>
      </trkpt>
      <trkpt lat="46.19387" lon="-1.36544">
        <ele>11.36279</ele>
        <time>2023-05-30T14:20:02.000Z</time>
      </trkpt>
      <trkpt lat="46.19387" lon="-1.36538">
        <ele>11.31839</ele>
        <time>2023-05-30T14:20:03.000Z</time>
      </trkpt>
      <trkpt lat="46.19388" lon="-1.36532">
        <ele>11.27996</ele>
        <time>2023-05-30T14:20:04.000Z</time>
      </trkpt>
      <trkpt lat="46.19388" lon="-1.36527">
        <ele>11.26426</ele>
        <time>2023-05-30T14:20:05.000Z</time>
      </trkpt>
      <trkpt lat="46.19388" lon="-1.36521">
        <ele>11.26281</ele>
        <time>2023-05-30T14:20:06.000Z</time>
      </trkpt>
      <trkpt lat="46.19388" lon="-1.36515">
        <ele>11.24018</ele>
        <time>2023-05-30T14:20:07.000Z</time>
      </trkpt>
      <trkpt lat="46.19389" lon="-1.36509">
        <ele>11.19824</ele>
        <time>2023-05-30T14:20:08.000Z</time>
      </trkpt>
      <trkpt lat="46.19389" lon="-1.36503">
        <ele>11.16725</ele>
        <time>2023-05-30T14:20:09.000Z</time>
      </trkpt>
      <trkpt lat="46.19389" lon="-1.36497">
        <ele>11.18624</ele>
        <time>2023-05-30T14:20:10.000Z</time>
      </trkpt>
      <trkpt lat="46.1939" lon="-1.36491">
        <ele>11.24739</ele>
        <time>2023-05-30T14:20:11.000Z</time>
      </trkpt>
      <trkpt lat="46.1939" lon="-1.36485">
        <ele>11.32578</ele>
        <time>2023-05-30T14:20:12.000Z</time>
      </trkpt>
      <trkpt lat="46.1939" lon="-1.3648">
        <ele>11.41429</ele>
        <time>2023-05-30T14:20:13.000Z</time>
      </trkpt>
      <trkpt lat="46.19391" lon="-1.36474">
        <ele>11.56231</ele>
        <time>2023-05-30T14:20:14.000Z</time>
      </trkpt>
      <trkpt lat="46.19391" lon="-1.36468">
        <ele>11.69737</ele>
        <time>2023-05-30T14:20:15.000Z</time>
      </trkpt>
      <trkpt lat="46.19392" lon="-1.36462">
        <ele>11.70779</ele>
        <time>2023-05-30T14:20:16.000Z</time>
      </trkpt>
      <trkpt lat="46.19392" lon="-1.36456">
        <ele>11.71828</ele>
        <time>2023-05-30T14:20:17.000Z</time>
      </trkpt>
      <trkpt lat="46.19393" lon="-1.3645">
        <ele>11.71847</ele>
        <time>2023-05-30T14:20:18.000Z</time>
      </trkpt>
      <trkpt lat="46.19393" lon="-1.36443">
        <ele>11.72334</ele>
        <time>2023-05-30T14:20:19.000Z</time>
      </trkpt>
      <trkpt lat="46.19394" lon="-1.36437">
        <ele>11.74034</ele>
        <time>2023-05-30T14:20:20.000Z</time>
      </trkpt>
      <trkpt lat="46.19394" lon="-1.36431">
        <ele>11.76454</ele>
        <time>2023-05-30T14:20:21.000Z</time>
      </trkpt>
      <trkpt lat="46.19395" lon="-1.36426">
        <ele>11.77879</ele>
        <time>2023-05-30T14:20:22.000Z</time>
      </trkpt>
      <trkpt lat="46.19396" lon="-1.3642">
        <ele>11.77872</ele>
        <time>2023-05-30T14:20:23.000Z</time>
      </trkpt>
      <trkpt lat="46.19397" lon="-1.36414">
        <ele>11.76895</ele>
        <time>2023-05-30T14:20:24.000Z</time>
      </trkpt>
      <trkpt lat="46.19398" lon="-1.36408">
        <ele>11.7542</ele>
        <time>2023-05-30T14:20:25.000Z</time>
      </trkpt>
      <trkpt lat="46.19399" lon="-1.36402">
        <ele>11.72711</ele>
        <time>2023-05-30T14:20:26.000Z</time>
      </trkpt>
      <trkpt lat="46.194" lon="-1.36396">
        <ele>11.72737</ele>
        <time>2023-05-30T14:20:27.000Z</time>
      </trkpt>
      <trkpt lat="46.19401" lon="-1.36391">
        <ele>11.74673</ele>
        <time>2023-05-30T14:20:28.000Z</time>
      </trkpt>
      <trkpt lat="46.19402" lon="-1.36385">
        <ele>11.74706</ele>
        <time>2023-05-30T14:20:29.000Z</time>
      </trkpt>
      <trkpt lat="46.19403" lon="-1.36379">
        <ele>11.74268</ele>
        <time>2023-05-30T14:20:30.000Z</time>
      </trkpt>
      <trkpt lat="46.19404" lon="-1.36373">
        <ele>11.72978</ele>
        <time>2023-05-30T14:20:31.000Z</time>
      </trkpt>
      <trkpt lat="46.19405" lon="-1.36367">
        <ele>11.70442</ele>
        <time>2023-05-30T14:20:32.000Z</time>
      </trkpt>
      <trkpt lat="46.19406" lon="-1.36361">
        <ele>11.67768</ele>
        <time>2023-05-30T14:20:33.000Z</time>
      </trkpt>
      <trkpt lat="46.19407" lon="-1.36355">
        <ele>11.6428</ele>
        <time>2023-05-30T14:20:34.000Z</time>
      </trkpt>
      <trkpt lat="46.19408" lon="-1.36349">
        <ele>11.61274</ele>
        <time>2023-05-30T14:20:35.000Z</time>
      </trkpt>
      <trkpt lat="46.19409" lon="-1.36343">
        <ele>11.58275</ele>
        <time>2023-05-30T14:20:36.000Z</time>
      </trkpt>
      <trkpt lat="46.1941" lon="-1.36337">
        <ele>11.5716</ele>
        <time>2023-05-30T14:20:37.000Z</time>
      </trkpt>
      <trkpt lat="46.19411" lon="-1.36331">
        <ele>11.5693</ele>
        <time>2023-05-30T14:20:38.000Z</time>
      </trkpt>
      <trkpt lat="46.19412" lon="-1.36325">
        <ele>11.57679</ele>
        <time>2023-05-30T14:20:39.000Z</time>
      </trkpt>
      <trkpt lat="46.19413" lon="-1.36319">
        <ele>11.53053</ele>
        <time>2023-05-30T14:20:40.000Z</time>
      </trkpt>
      <trkpt lat="46.19413" lon="-1.36313">
        <ele>11.43706</ele>
        <time>2023-05-30T14:20:41.000Z</time>
      </trkpt>
      <trkpt lat="46.19414" lon="-1.36307">
        <ele>11.46077</ele>
        <time>2023-05-30T14:20:42.000Z</time>
      </trkpt>
      <trkpt lat="46.19414" lon="-1.363">
        <ele>11.46811</ele>
        <time>2023-05-30T14:20:43.000Z</time>
      </trkpt>
      <trkpt lat="46.19415" lon="-1.36294">
        <ele>11.48353</ele>
        <time>2023-05-30T14:20:44.000Z</time>
      </trkpt>
      <trkpt lat="46.19415" lon="-1.36288">
        <ele>11.51708</ele>
        <time>2023-05-30T14:20:45.000Z</time>
      </trkpt>
      <trkpt lat="46.19416" lon="-1.36282">
        <ele>11.53365</ele>
        <time>2023-05-30T14:20:46.000Z</time>
      </trkpt>
      <trkpt lat="46.19416" lon="-1.36276">
        <ele>11.55206</ele>
        <time>2023-05-30T14:20:47.000Z</time>
      </trkpt>
      <trkpt lat="46.19416" lon="-1.3627">
        <ele>11.57183</ele>
        <time>2023-05-30T14:20:48.000Z</time>
      </trkpt>
      <trkpt lat="46.19417" lon="-1.36265">
        <ele>11.59924</ele>
        <time>2023-05-30T14:20:49.000Z</time>
      </trkpt>
      <trkpt lat="46.19417" lon="-1.36259">
        <ele>11.62945</ele>
        <time>2023-05-30T14:20:50.000Z</time>
      </trkpt>
      <trkpt lat="46.19417" lon="-1.36253">
        <ele>11.65929</ele>
        <time>2023-05-30T14:20:51.000Z</time>
      </trkpt>
      <trkpt lat="46.19417" lon="-1.36247">
        <ele>11.70229</ele>
        <time>2023-05-30T14:20:52.000Z</time>
      </trkpt>
      <trkpt lat="46.19417" lon="-1.36241">
        <ele>11.7333</ele>
        <time>2023-05-30T14:20:53.000Z</time>
      </trkpt>
      <trkpt lat="46.19417" lon="-1.36236">
        <ele>11.75739</ele>
        <time>2023-05-30T14:20:54.000Z</time>
      </trkpt>
      <trkpt lat="46.19417" lon="-1.3623">
        <ele>11.77634</ele>
        <time>2023-05-30T14:20:55.000Z</time>
      </trkpt>
      <trkpt lat="46.19417" lon="-1.36225">
        <ele>11.80693</ele>
        <time>2023-05-30T14:20:56.000Z</time>
      </trkpt>
      <trkpt lat="46.19417" lon="-1.36219">
        <ele>11.84489</ele>
        <time>2023-05-30T14:20:57.000Z</time>
      </trkpt>
      <trkpt lat="46.19417" lon="-1.36213">
        <ele>11.86316</ele>
        <time>2023-05-30T14:20:58.000Z</time>
      </trkpt>
      <trkpt lat="46.19417" lon="-1.36207">
        <ele>11.87497</ele>
        <time>2023-05-30T14:20:59.000Z</time>
      </trkpt>
      <trkpt lat="46.19416" lon="-1.36201">
        <ele>11.93763</ele>
        <time>2023-05-30T14:21:00.000Z</time>
      </trkpt>
      <trkpt lat="46.19416" lon="-1.36195">
        <ele>12.04543</ele>
        <time>2023-05-30T14:21:01.000Z</time>
      </trkpt>
      <trkpt lat="46.19416" lon="-1.36189">
        <ele>12.06483</ele>
        <time>2023-05-30T14:21:02.000Z</time>
      </trkpt>
      <trkpt lat="46.19415" lon="-1.36182">
        <ele>12.10991</ele>
        <time>2023-05-30T14:21:03.000Z</time>
      </trkpt>
      <trkpt lat="46.19416" lon="-1.36177">
        <ele>12.17202</ele>
        <time>2023-05-30T14:21:04.000Z</time>
      </trkpt>
      <trkpt lat="46.19416" lon="-1.36171">
        <ele>12.21649</ele>
        <time>2023-05-30T14:21:05.000Z</time>
      </trkpt>
      <trkpt lat="46.19416" lon="-1.36165">
        <ele>12.28908</ele>
        <time>2023-05-30T14:21:06.000Z</time>
      </trkpt>
      <trkpt lat="46.19416" lon="-1.36159">
        <ele>12.36142</ele>
        <time>2023-05-30T14:21:07.000Z</time>
      </trkpt>
      <trkpt lat="46.19416" lon="-1.36154">
        <ele>12.44543</ele>
        <time>2023-05-30T14:21:08.000Z</time>
      </trkpt>
      <trkpt lat="46.19416" lon="-1.36148">
        <ele>12.54998</ele>
        <time>2023-05-30T14:21:09.000Z</time>
      </trkpt>
      <trkpt lat="46.19416" lon="-1.36142">
        <ele>12.59526</ele>
        <time>2023-05-30T14:21:10.000Z</time>
      </trkpt>
      <trkpt lat="46.19417" lon="-1.36136">
        <ele>12.59455</ele>
        <time>2023-05-30T14:21:11.000Z</time>
      </trkpt>
      <trkpt lat="46.19417" lon="-1.3613">
        <ele>12.58235</ele>
        <time>2023-05-30T14:21:12.000Z</time>
      </trkpt>
      <trkpt lat="46.19417" lon="-1.36125">
        <ele>12.72008</ele>
        <time>2023-05-30T14:21:13.000Z</time>
      </trkpt>
      <trkpt lat="46.19418" lon="-1.36119">
        <ele>12.83856</ele>
        <time>2023-05-30T14:21:14.000Z</time>
      </trkpt>
      <trkpt lat="46.19418" lon="-1.36113">
        <ele>12.95854</ele>
        <time>2023-05-30T14:21:15.000Z</time>
      </trkpt>
      <trkpt lat="46.19418" lon="-1.36107">
        <ele>13.06249</ele>
        <time>2023-05-30T14:21:16.000Z</time>
      </trkpt>
      <trkpt lat="46.19418" lon="-1.36101">
        <ele>13.14583</ele>
        <time>2023-05-30T14:21:17.000Z</time>
      </trkpt>
      <trkpt lat="46.19418" lon="-1.36094">
        <ele>13.24486</ele>
        <time>2023-05-30T14:21:18.000Z</time>
      </trkpt>
      <trkpt lat="46.19419" lon="-1.36088">
        <ele>13.33728</ele>
        <time>2023-05-30T14:21:19.000Z</time>
      </trkpt>
      <trkpt lat="46.19418" lon="-1.36082">
        <ele>13.42772</ele>
        <time>2023-05-30T14:21:20.000Z</time>
      </trkpt>
      <trkpt lat="46.19418" lon="-1.36076">
        <ele>13.52141</ele>
        <time>2023-05-30T14:21:21.000Z</time>
      </trkpt>
      <trkpt lat="46.19418" lon="-1.3607">
        <ele>13.5855</ele>
        <time>2023-05-30T14:21:22.000Z</time>
      </trkpt>
      <trkpt lat="46.19418" lon="-1.36064">
        <ele>13.64904</ele>
        <time>2023-05-30T14:21:23.000Z</time>
      </trkpt>
      <trkpt lat="46.19417" lon="-1.36058">
        <ele>13.68246</ele>
        <time>2023-05-30T14:21:24.000Z</time>
      </trkpt>
      <trkpt lat="46.19417" lon="-1.36052">
        <ele>13.73254</ele>
        <time>2023-05-30T14:21:25.000Z</time>
      </trkpt>
      <trkpt lat="46.19417" lon="-1.36045">
        <ele>13.7714</ele>
        <time>2023-05-30T14:21:26.000Z</time>
      </trkpt>
      <trkpt lat="46.19417" lon="-1.36039">
        <ele>13.80107</ele>
        <time>2023-05-30T14:21:27.000Z</time>
      </trkpt>
      <trkpt lat="46.19417" lon="-1.36031">
        <ele>13.82337</ele>
        <time>2023-05-30T14:21:28.000Z</time>
      </trkpt>
      <trkpt lat="46.19417" lon="-1.36025">
        <ele>13.82191</ele>
        <time>2023-05-30T14:21:29.000Z</time>
      </trkpt>
      <trkpt lat="46.19417" lon="-1.36019">
        <ele>13.89149</ele>
        <time>2023-05-30T14:21:30.000Z</time>
      </trkpt>
      <trkpt lat="46.19416" lon="-1.36013">
        <ele>13.99477</ele>
        <time>2023-05-30T14:21:31.000Z</time>
      </trkpt>
      <trkpt lat="46.19416" lon="-1.36008">
        <ele>14.09961</ele>
        <time>2023-05-30T14:21:32.000Z</time>
      </trkpt>
      <trkpt lat="46.19415" lon="-1.36002">
        <ele>14.05868</ele>
        <time>2023-05-30T14:21:33.000Z</time>
      </trkpt>
      <trkpt lat="46.19415" lon="-1.35996">
        <ele>14.05057</ele>
        <time>2023-05-30T14:21:34.000Z</time>
      </trkpt>
      <trkpt lat="46.19415" lon="-1.3599">
        <ele>14.02881</ele>
        <time>2023-05-30T14:21:35.000Z</time>
      </trkpt>
      <trkpt lat="46.19415" lon="-1.35983">
        <ele>14.02734</ele>
        <time>2023-05-30T14:21:36.000Z</time>
      </trkpt>
      <trkpt lat="46.19415" lon="-1.35977">
        <ele>13.98412</ele>
        <time>2023-05-30T14:21:37.000Z</time>
      </trkpt>
      <trkpt lat="46.19415" lon="-1.3597">
        <ele>13.95087</ele>
        <time>2023-05-30T14:21:38.000Z</time>
      </trkpt>
      <trkpt lat="46.19415" lon="-1.35964">
        <ele>13.86794</ele>
        <time>2023-05-30T14:21:39.000Z</time>
      </trkpt>
      <trkpt lat="46.19415" lon="-1.35957">
        <ele>13.7802</ele>
        <time>2023-05-30T14:21:40.000Z</time>
      </trkpt>
      <trkpt lat="46.19415" lon="-1.35951">
        <ele>13.81626</ele>
        <time>2023-05-30T14:21:41.000Z</time>
      </trkpt>
      <trkpt lat="46.19415" lon="-1.35945">
        <ele>13.84825</ele>
        <time>2023-05-30T14:21:42.000Z</time>
      </trkpt>
      <trkpt lat="46.19414" lon="-1.35938">
        <ele>13.87686</ele>
        <time>2023-05-30T14:21:43.000Z</time>
      </trkpt>
      <trkpt lat="46.19414" lon="-1.35932">
        <ele>13.91499</ele>
        <time>2023-05-30T14:21:44.000Z</time>
      </trkpt>
      <trkpt lat="46.19415" lon="-1.35926">
        <ele>13.92835</ele>
        <time>2023-05-30T14:21:45.000Z</time>
      </trkpt>
      <trkpt lat="46.19414" lon="-1.35919">
        <ele>13.94073</ele>
        <time>2023-05-30T14:21:46.000Z</time>
      </trkpt>
      <trkpt lat="46.19415" lon="-1.35913">
        <ele>13.95034</ele>
        <time>2023-05-30T14:21:47.000Z</time>
      </trkpt>
      <trkpt lat="46.19414" lon="-1.35907">
        <ele>13.94734</ele>
        <time>2023-05-30T14:21:48.000Z</time>
      </trkpt>
      <trkpt lat="46.19414" lon="-1.359">
        <ele>13.9536</ele>
        <time>2023-05-30T14:21:49.000Z</time>
      </trkpt>
      <trkpt lat="46.19415" lon="-1.35894">
        <ele>13.96388</ele>
        <time>2023-05-30T14:21:50.000Z</time>
      </trkpt>
      <trkpt lat="46.19415" lon="-1.35888">
        <ele>13.98286</ele>
        <time>2023-05-30T14:21:51.000Z</time>
      </trkpt>
      <trkpt lat="46.19415" lon="-1.35881">
        <ele>13.99329</ele>
        <time>2023-05-30T14:21:52.000Z</time>
      </trkpt>
      <trkpt lat="46.19416" lon="-1.35874">
        <ele>14.00105</ele>
        <time>2023-05-30T14:21:53.000Z</time>
      </trkpt>
      <trkpt lat="46.19416" lon="-1.35868">
        <ele>13.99551</ele>
        <time>2023-05-30T14:21:54.000Z</time>
      </trkpt>
      <trkpt lat="46.19416" lon="-1.35861">
        <ele>14.00962</ele>
        <time>2023-05-30T14:21:55.000Z</time>
      </trkpt>
      <trkpt lat="46.19416" lon="-1.35855">
        <ele>14.0106</ele>
        <time>2023-05-30T14:21:56.000Z</time>
      </trkpt>
      <trkpt lat="46.19417" lon="-1.35848">
        <ele>14.08138</ele>
        <time>2023-05-30T14:21:57.000Z</time>
      </trkpt>
      <trkpt lat="46.19416" lon="-1.35841">
        <ele>14.14234</ele>
        <time>2023-05-30T14:21:58.000Z</time>
      </trkpt>
      <trkpt lat="46.19417" lon="-1.35834">
        <ele>14.26867</ele>
        <time>2023-05-30T14:21:59.000Z</time>
      </trkpt>
      <trkpt lat="46.19417" lon="-1.35828">
        <ele>14.38786</ele>
        <time>2023-05-30T14:22:00.000Z</time>
      </trkpt>
      <trkpt lat="46.19417" lon="-1.35821">
        <ele>14.30237</ele>
        <time>2023-05-30T14:22:01.000Z</time>
      </trkpt>
      <trkpt lat="46.19417" lon="-1.35815">
        <ele>14.23475</ele>
        <time>2023-05-30T14:22:02.000Z</time>
      </trkpt>
      <trkpt lat="46.19418" lon="-1.35808">
        <ele>14.12186</ele>
        <time>2023-05-30T14:22:03.000Z</time>
      </trkpt>
      <trkpt lat="46.19417" lon="-1.35803">
        <ele>14.09961</ele>
        <time>2023-05-30T14:22:04.000Z</time>
      </trkpt>
      <trkpt lat="46.19417" lon="-1.35795">
        <ele>14.06424</ele>
        <time>2023-05-30T14:22:05.000Z</time>
      </trkpt>
      <trkpt lat="46.19417" lon="-1.35789">
        <ele>14.01701</ele>
        <time>2023-05-30T14:22:06.000Z</time>
      </trkpt>
      <trkpt lat="46.19417" lon="-1.35781">
        <ele>13.97394</ele>
        <time>2023-05-30T14:22:07.000Z</time>
      </trkpt>
      <trkpt lat="46.19417" lon="-1.35774">
        <ele>13.87622</ele>
        <time>2023-05-30T14:22:08.000Z</time>
      </trkpt>
      <trkpt lat="46.19417" lon="-1.35768">
        <ele>13.73206</ele>
        <time>2023-05-30T14:22:09.000Z</time>
      </trkpt>
      <trkpt lat="46.19416" lon="-1.35762">
        <ele>13.67309</ele>
        <time>2023-05-30T14:22:10.000Z</time>
      </trkpt>
      <trkpt lat="46.19417" lon="-1.35756">
        <ele>13.60395</ele>
        <time>2023-05-30T14:22:11.000Z</time>
      </trkpt>
      <trkpt lat="46.19416" lon="-1.3575">
        <ele>13.55116</ele>
        <time>2023-05-30T14:22:12.000Z</time>
      </trkpt>
      <trkpt lat="46.19416" lon="-1.35744">
        <ele>13.49931</ele>
        <time>2023-05-30T14:22:13.000Z</time>
      </trkpt>
      <trkpt lat="46.19416" lon="-1.35738">
        <ele>13.4558</ele>
        <time>2023-05-30T14:22:14.000Z</time>
      </trkpt>
      <trkpt lat="46.19415" lon="-1.35733">
        <ele>13.39944</ele>
        <time>2023-05-30T14:22:15.000Z</time>
      </trkpt>
      <trkpt lat="46.19415" lon="-1.35728">
        <ele>13.32225</ele>
        <time>2023-05-30T14:22:16.000Z</time>
      </trkpt>
      <trkpt lat="46.19414" lon="-1.35723">
        <ele>13.22408</ele>
        <time>2023-05-30T14:22:17.000Z</time>
      </trkpt>
      <trkpt lat="46.19414" lon="-1.35718">
        <ele>13.12699</ele>
        <time>2023-05-30T14:22:18.000Z</time>
      </trkpt>
      <trkpt lat="46.19413" lon="-1.35713">
        <ele>13.01031</ele>
        <time>2023-05-30T14:22:19.000Z</time>
      </trkpt>
      <trkpt lat="46.19413" lon="-1.35708">
        <ele>12.90083</ele>
        <time>2023-05-30T14:22:20.000Z</time>
      </trkpt>
      <trkpt lat="46.19413" lon="-1.35704">
        <ele>12.84436</ele>
        <time>2023-05-30T14:22:21.000Z</time>
      </trkpt>
      <trkpt lat="46.19412" lon="-1.35699">
        <ele>12.7272</ele>
        <time>2023-05-30T14:22:22.000Z</time>
      </trkpt>
      <trkpt lat="46.19412" lon="-1.35694">
        <ele>12.62152</ele>
        <time>2023-05-30T14:22:23.000Z</time>
      </trkpt>
      <trkpt lat="46.19411" lon="-1.35689">
        <ele>12.41559</ele>
        <time>2023-05-30T14:22:24.000Z</time>
      </trkpt>
      <trkpt lat="46.1941" lon="-1.35685">
        <ele>12.36637</ele>
        <time>2023-05-30T14:22:25.000Z</time>
      </trkpt>
      <trkpt lat="46.1941" lon="-1.3568">
        <ele>12.31995</ele>
        <time>2023-05-30T14:22:26.000Z</time>
      </trkpt>
      <trkpt lat="46.19409" lon="-1.35675">
        <ele>12.26622</ele>
        <time>2023-05-30T14:22:27.000Z</time>
      </trkpt>
      <trkpt lat="46.19408" lon="-1.35671">
        <ele>12.28546</ele>
        <time>2023-05-30T14:22:28.000Z</time>
      </trkpt>
      <trkpt lat="46.19408" lon="-1.35668">
        <ele>12.35348</ele>
        <time>2023-05-30T14:22:29.000Z</time>
      </trkpt>
      <trkpt lat="46.19408" lon="-1.35664">
        <ele>12.31718</ele>
        <time>2023-05-30T14:22:30.000Z</time>
      </trkpt>
      <trkpt lat="46.19407" lon="-1.35661">
        <ele>12.28611</ele>
        <time>2023-05-30T14:22:31.000Z</time>
      </trkpt>
      <trkpt lat="46.19407" lon="-1.35658">
        <ele>12.24375</ele>
        <time>2023-05-30T14:22:32.000Z</time>
      </trkpt>
      <trkpt lat="46.19407" lon="-1.35655">
        <ele>12.20491</ele>
        <time>2023-05-30T14:22:33.000Z</time>
      </trkpt>
      <trkpt lat="46.19407" lon="-1.35652">
        <ele>12.17143</ele>
        <time>2023-05-30T14:22:34.000Z</time>
      </trkpt>
      <trkpt lat="46.19406" lon="-1.35649">
        <ele>12.14037</ele>
        <time>2023-05-30T14:22:35.000Z</time>
      </trkpt>
      <trkpt lat="46.19406" lon="-1.35646">
        <ele>12.11868</ele>
        <time>2023-05-30T14:22:36.000Z</time>
      </trkpt>
      <trkpt lat="46.19406" lon="-1.35643">
        <ele>12.10499</ele>
        <time>2023-05-30T14:22:37.000Z</time>
      </trkpt>
      <trkpt lat="46.19406" lon="-1.3564">
        <ele>12.09138</ele>
        <time>2023-05-30T14:22:38.000Z</time>
      </trkpt>
      <trkpt lat="46.19405" lon="-1.35637">
        <ele>12.10052</ele>
        <time>2023-05-30T14:22:39.000Z</time>
      </trkpt>
      <trkpt lat="46.19405" lon="-1.35634">
        <ele>12.05528</ele>
        <time>2023-05-30T14:22:40.000Z</time>
      </trkpt>
      <trkpt lat="46.19405" lon="-1.35632">
        <ele>11.98357</ele>
        <time>2023-05-30T14:22:41.000Z</time>
      </trkpt>
      <trkpt lat="46.19404" lon="-1.35629">
        <ele>11.98613</ele>
        <time>2023-05-30T14:22:42.000Z</time>
      </trkpt>
      <trkpt lat="46.19402" lon="-1.35625">
        <ele>12.12195</ele>
        <time>2023-05-30T14:22:44.000Z</time>
      </trkpt>
      <trkpt lat="46.19403" lon="-1.35622">
        <ele>12.26818</ele>
        <time>2023-05-30T14:22:45.000Z</time>
      </trkpt>
      <trkpt lat="46.19404" lon="-1.35619">
        <ele>12.28297</ele>
        <time>2023-05-30T14:22:46.000Z</time>
      </trkpt>
      <trkpt lat="46.19406" lon="-1.35617">
        <ele>12.29808</ele>
        <time>2023-05-30T14:22:47.000Z</time>
      </trkpt>
      <trkpt lat="46.19406" lon="-1.35614">
        <ele>12.32857</ele>
        <time>2023-05-30T14:22:48.000Z</time>
      </trkpt>
      <trkpt lat="46.19405" lon="-1.35611">
        <ele>12.35123</ele>
        <time>2023-05-30T14:22:49.000Z</time>
      </trkpt>
      <trkpt lat="46.19403" lon="-1.35607">
        <ele>12.36453</ele>
        <time>2023-05-30T14:22:50.000Z</time>
      </trkpt>
      <trkpt lat="46.19401" lon="-1.35604">
        <ele>12.34446</ele>
        <time>2023-05-30T14:22:51.000Z</time>
      </trkpt>
      <trkpt lat="46.19399" lon="-1.35601">
        <ele>12.3332</ele>
        <time>2023-05-30T14:22:52.000Z</time>
      </trkpt>
      <trkpt lat="46.19397" lon="-1.35597">
        <ele>12.27957</ele>
        <time>2023-05-30T14:22:53.000Z</time>
      </trkpt>
      <trkpt lat="46.19396" lon="-1.35593">
        <ele>12.223</ele>
        <time>2023-05-30T14:22:54.000Z</time>
      </trkpt>
      <trkpt lat="46.19397" lon="-1.35589">
        <ele>12.29325</ele>
        <time>2023-05-30T14:22:55.000Z</time>
      </trkpt>
      <trkpt lat="46.19398" lon="-1.35585">
        <ele>12.34833</ele>
        <time>2023-05-30T14:22:56.000Z</time>
      </trkpt>
      <trkpt lat="46.19399" lon="-1.3558">
        <ele>12.39951</ele>
        <time>2023-05-30T14:22:57.000Z</time>
      </trkpt>
      <trkpt lat="46.194" lon="-1.35576">
        <ele>12.45937</ele>
        <time>2023-05-30T14:22:58.000Z</time>
      </trkpt>
      <trkpt lat="46.19401" lon="-1.35572">
        <ele>12.50848</ele>
        <time>2023-05-30T14:22:59.000Z</time>
      </trkpt>
      <trkpt lat="46.19401" lon="-1.35568">
        <ele>12.53164</ele>
        <time>2023-05-30T14:23:00.000Z</time>
      </trkpt>
      <trkpt lat="46.19401" lon="-1.35563">
        <ele>12.59773</ele>
        <time>2023-05-30T14:23:01.000Z</time>
      </trkpt>
      <trkpt lat="46.194" lon="-1.35559">
        <ele>12.6452</ele>
        <time>2023-05-30T14:23:02.000Z</time>
      </trkpt>
      <trkpt lat="46.194" lon="-1.35555">
        <ele>12.63934</ele>
        <time>2023-05-30T14:23:03.000Z</time>
      </trkpt>
      <trkpt lat="46.194" lon="-1.35552">
        <ele>12.52922</ele>
        <time>2023-05-30T14:23:04.000Z</time>
      </trkpt>
      <trkpt lat="46.194" lon="-1.35548">
        <ele>12.52678</ele>
        <time>2023-05-30T14:23:05.000Z</time>
      </trkpt>
      <trkpt lat="46.19401" lon="-1.35545">
        <ele>12.49844</ele>
        <time>2023-05-30T14:23:06.000Z</time>
      </trkpt>
      <trkpt lat="46.19401" lon="-1.35542">
        <ele>12.4825</ele>
        <time>2023-05-30T14:23:07.000Z</time>
      </trkpt>
      <trkpt lat="46.19401" lon="-1.35539">
        <ele>12.44929</ele>
        <time>2023-05-30T14:23:08.000Z</time>
      </trkpt>
      <trkpt lat="46.19401" lon="-1.35534">
        <ele>12.38909</ele>
        <time>2023-05-30T14:23:10.000Z</time>
      </trkpt>
      <trkpt lat="46.19399" lon="-1.35531">
        <ele>12.33034</ele>
        <time>2023-05-30T14:23:12.000Z</time>
      </trkpt>
      <trkpt lat="46.19398" lon="-1.35529">
        <ele>12.31812</ele>
        <time>2023-05-30T14:23:13.000Z</time>
      </trkpt>
      <trkpt lat="46.19398" lon="-1.35524">
        <ele>12.30181</ele>
        <time>2023-05-30T14:23:14.000Z</time>
      </trkpt>
      <trkpt lat="46.19398" lon="-1.3552">
        <ele>12.32592</ele>
        <time>2023-05-30T14:23:15.000Z</time>
      </trkpt>
      <trkpt lat="46.19397" lon="-1.35516">
        <ele>12.36575</ele>
        <time>2023-05-30T14:23:16.000Z</time>
      </trkpt>
      <trkpt lat="46.19397" lon="-1.35511">
        <ele>12.28113</ele>
        <time>2023-05-30T14:23:17.000Z</time>
      </trkpt>
      <trkpt lat="46.19397" lon="-1.35507">
        <ele>12.19103</ele>
        <time>2023-05-30T14:23:18.000Z</time>
      </trkpt>
      <trkpt lat="46.19396" lon="-1.35502">
        <ele>12.06169</ele>
        <time>2023-05-30T14:23:19.000Z</time>
      </trkpt>
      <trkpt lat="46.19396" lon="-1.35497">
        <ele>11.91728</ele>
        <time>2023-05-30T14:23:20.000Z</time>
      </trkpt>
      <trkpt lat="46.19396" lon="-1.35492">
        <ele>11.76335</ele>
        <time>2023-05-30T14:23:21.000Z</time>
      </trkpt>
      <trkpt lat="46.19395" lon="-1.35487">
        <ele>11.61605</ele>
        <time>2023-05-30T14:23:22.000Z</time>
      </trkpt>
      <trkpt lat="46.19395" lon="-1.35482">
        <ele>11.59516</ele>
        <time>2023-05-30T14:23:23.000Z</time>
      </trkpt>
      <trkpt lat="46.19394" lon="-1.35477">
        <ele>11.64329</ele>
        <time>2023-05-30T14:23:24.000Z</time>
      </trkpt>
      <trkpt lat="46.19394" lon="-1.35472">
        <ele>11.74052</ele>
        <time>2023-05-30T14:23:25.000Z</time>
      </trkpt>
      <trkpt lat="46.19393" lon="-1.35466">
        <ele>11.83946</ele>
        <time>2023-05-30T14:23:26.000Z</time>
      </trkpt>
      <trkpt lat="46.19393" lon="-1.35461">
        <ele>11.83119</ele>
        <time>2023-05-30T14:23:27.000Z</time>
      </trkpt>
      <trkpt lat="46.19393" lon="-1.35455">
        <ele>11.84722</ele>
        <time>2023-05-30T14:23:28.000Z</time>
      </trkpt>
      <trkpt lat="46.19393" lon="-1.3545">
        <ele>11.83921</ele>
        <time>2023-05-30T14:23:29.000Z</time>
      </trkpt>
      <trkpt lat="46.19392" lon="-1.35444">
        <ele>11.83425</ele>
        <time>2023-05-30T14:23:30.000Z</time>
      </trkpt>
      <trkpt lat="46.19391" lon="-1.35438">
        <ele>11.87215</ele>
        <time>2023-05-30T14:23:31.000Z</time>
      </trkpt>
      <trkpt lat="46.19391" lon="-1.35433">
        <ele>11.92144</ele>
        <time>2023-05-30T14:23:32.000Z</time>
      </trkpt>
      <trkpt lat="46.1939" lon="-1.35427">
        <ele>11.98578</ele>
        <time>2023-05-30T14:23:33.000Z</time>
      </trkpt>
      <trkpt lat="46.1939" lon="-1.35422">
        <ele>12.04697</ele>
        <time>2023-05-30T14:23:34.000Z</time>
      </trkpt>
      <trkpt lat="46.1939" lon="-1.35416">
        <ele>12.00301</ele>
        <time>2023-05-30T14:23:35.000Z</time>
      </trkpt>
      <trkpt lat="46.1939" lon="-1.3541">
        <ele>12.14496</ele>
        <time>2023-05-30T14:23:36.000Z</time>
      </trkpt>
      <trkpt lat="46.19389" lon="-1.35405">
        <ele>12.28627</ele>
        <time>2023-05-30T14:23:37.000Z</time>
      </trkpt>
      <trkpt lat="46.19389" lon="-1.35399">
        <ele>12.46037</ele>
        <time>2023-05-30T14:23:38.000Z</time>
      </trkpt>
      <trkpt lat="46.19389" lon="-1.35394">
        <ele>12.6978</ele>
        <time>2023-05-30T14:23:39.000Z</time>
      </trkpt>
      <trkpt lat="46.19389" lon="-1.35388">
        <ele>12.93825</ele>
        <time>2023-05-30T14:23:40.000Z</time>
      </trkpt>
      <trkpt lat="46.19388" lon="-1.35383">
        <ele>13.1778</ele>
        <time>2023-05-30T14:23:41.000Z</time>
      </trkpt>
      <trkpt lat="46.19388" lon="-1.35377">
        <ele>13.4225</ele>
        <time>2023-05-30T14:23:42.000Z</time>
      </trkpt>
      <trkpt lat="46.19388" lon="-1.35371">
        <ele>13.55905</ele>
        <time>2023-05-30T14:23:43.000Z</time>
      </trkpt>
      <trkpt lat="46.19388" lon="-1.35366">
        <ele>13.67525</ele>
        <time>2023-05-30T14:23:44.000Z</time>
      </trkpt>
      <trkpt lat="46.19388" lon="-1.3536">
        <ele>13.77867</ele>
        <time>2023-05-30T14:23:45.000Z</time>
      </trkpt>
      <trkpt lat="46.19387" lon="-1.35354">
        <ele>13.88247</ele>
        <time>2023-05-30T14:23:46.000Z</time>
      </trkpt>
      <trkpt lat="46.19387" lon="-1.35349">
        <ele>13.97416</ele>
        <time>2023-05-30T14:23:47.000Z</time>
      </trkpt>
      <trkpt lat="46.19387" lon="-1.35342">
        <ele>14.07329</ele>
        <time>2023-05-30T14:23:48.000Z</time>
      </trkpt>
      <trkpt lat="46.19387" lon="-1.35336">
        <ele>14.16049</ele>
        <time>2023-05-30T14:23:49.000Z</time>
      </trkpt>
      <trkpt lat="46.19387" lon="-1.3533">
        <ele>14.24659</ele>
        <time>2023-05-30T14:23:50.000Z</time>
      </trkpt>
      <trkpt lat="46.19387" lon="-1.35324">
        <ele>14.31614</ele>
        <time>2023-05-30T14:23:51.000Z</time>
      </trkpt>
      <trkpt lat="46.19387" lon="-1.35318">
        <ele>14.37443</ele>
        <time>2023-05-30T14:23:52.000Z</time>
      </trkpt>
      <trkpt lat="46.19386" lon="-1.35311">
        <ele>14.41745</ele>
        <time>2023-05-30T14:23:53.000Z</time>
      </trkpt>
      <trkpt lat="46.19386" lon="-1.35304">
        <ele>14.46555</ele>
        <time>2023-05-30T14:23:54.000Z</time>
      </trkpt>
      <trkpt lat="46.19385" lon="-1.35298">
        <ele>14.60641</ele>
        <time>2023-05-30T14:23:55.000Z</time>
      </trkpt>
      <trkpt lat="46.19384" lon="-1.35291">
        <ele>14.54554</ele>
        <time>2023-05-30T14:23:56.000Z</time>
      </trkpt>
      <trkpt lat="46.19385" lon="-1.35284">
        <ele>14.5406</ele>
        <time>2023-05-30T14:23:57.000Z</time>
      </trkpt>
      <trkpt lat="46.19385" lon="-1.35277">
        <ele>14.51484</ele>
        <time>2023-05-30T14:23:58.000Z</time>
      </trkpt>
      <trkpt lat="46.19385" lon="-1.35271">
        <ele>14.48857</ele>
        <time>2023-05-30T14:23:59.000Z</time>
      </trkpt>
      <trkpt lat="46.19384" lon="-1.35264">
        <ele>14.46181</ele>
        <time>2023-05-30T14:24:00.000Z</time>
      </trkpt>
      <trkpt lat="46.19384" lon="-1.35258">
        <ele>14.45135</ele>
        <time>2023-05-30T14:24:01.000Z</time>
      </trkpt>
      <trkpt lat="46.19385" lon="-1.35252">
        <ele>14.43631</ele>
        <time>2023-05-30T14:24:02.000Z</time>
      </trkpt>
      <trkpt lat="46.19384" lon="-1.35246">
        <ele>14.38817</ele>
        <time>2023-05-30T14:24:03.000Z</time>
      </trkpt>
      <trkpt lat="46.19383" lon="-1.35239">
        <ele>14.34294</ele>
        <time>2023-05-30T14:24:04.000Z</time>
      </trkpt>
      <trkpt lat="46.19383" lon="-1.35233">
        <ele>14.2969</ele>
        <time>2023-05-30T14:24:05.000Z</time>
      </trkpt>
      <trkpt lat="46.19382" lon="-1.35227">
        <ele>14.25068</ele>
        <time>2023-05-30T14:24:06.000Z</time>
      </trkpt>
      <trkpt lat="46.19382" lon="-1.35221">
        <ele>14.2061</ele>
        <time>2023-05-30T14:24:07.000Z</time>
      </trkpt>
      <trkpt lat="46.19382" lon="-1.35215">
        <ele>14.18576</ele>
        <time>2023-05-30T14:24:08.000Z</time>
      </trkpt>
      <trkpt lat="46.19383" lon="-1.3521">
        <ele>14.17124</ele>
        <time>2023-05-30T14:24:09.000Z</time>
      </trkpt>
      <trkpt lat="46.19383" lon="-1.35205">
        <ele>14.14128</ele>
        <time>2023-05-30T14:24:10.000Z</time>
      </trkpt>
      <trkpt lat="46.19385" lon="-1.35201">
        <ele>14.10847</ele>
        <time>2023-05-30T14:24:11.000Z</time>
      </trkpt>
      <trkpt lat="46.19386" lon="-1.35198">
        <ele>14.07787</ele>
        <time>2023-05-30T14:24:12.000Z</time>
      </trkpt>
      <trkpt lat="46.19388" lon="-1.35195">
        <ele>14.06636</ele>
        <time>2023-05-30T14:24:13.000Z</time>
      </trkpt>
      <trkpt lat="46.19391" lon="-1.35193">
        <ele>14.08537</ele>
        <time>2023-05-30T14:24:14.000Z</time>
      </trkpt>
      <trkpt lat="46.19393" lon="-1.35192">
        <ele>14.11218</ele>
        <time>2023-05-30T14:24:15.000Z</time>
      </trkpt>
      <trkpt lat="46.19396" lon="-1.35191">
        <ele>14.13021</ele>
        <time>2023-05-30T14:24:16.000Z</time>
      </trkpt>
      <trkpt lat="46.19399" lon="-1.35192">
        <ele>14.08434</ele>
        <time>2023-05-30T14:24:17.000Z</time>
      </trkpt>
      <trkpt lat="46.19402" lon="-1.35193">
        <ele>14.05849</ele>
        <time>2023-05-30T14:24:18.000Z</time>
      </trkpt>
      <trkpt lat="46.19405" lon="-1.35194">
        <ele>14.01895</ele>
        <time>2023-05-30T14:24:19.000Z</time>
      </trkpt>
      <trkpt lat="46.19408" lon="-1.35194">
        <ele>13.95278</ele>
        <time>2023-05-30T14:24:20.000Z</time>
      </trkpt>
      <trkpt lat="46.19412" lon="-1.35194">
        <ele>13.89203</ele>
        <time>2023-05-30T14:24:21.000Z</time>
      </trkpt>
      <trkpt lat="46.19415" lon="-1.35193">
        <ele>13.84091</ele>
        <time>2023-05-30T14:24:22.000Z</time>
      </trkpt>
      <trkpt lat="46.19419" lon="-1.35192">
        <ele>13.86821</ele>
        <time>2023-05-30T14:24:23.000Z</time>
      </trkpt>
      <trkpt lat="46.19423" lon="-1.35191">
        <ele>13.86963</ele>
        <time>2023-05-30T14:24:24.000Z</time>
      </trkpt>
      <trkpt lat="46.19426" lon="-1.35189">
        <ele>13.86322</ele>
        <time>2023-05-30T14:24:25.000Z</time>
      </trkpt>
      <trkpt lat="46.1943" lon="-1.35185">
        <ele>13.86695</ele>
        <time>2023-05-30T14:24:26.000Z</time>
      </trkpt>
      <trkpt lat="46.19433" lon="-1.35181">
        <ele>13.861</ele>
        <time>2023-05-30T14:24:27.000Z</time>
      </trkpt>
      <trkpt lat="46.19436" lon="-1.35177">
        <ele>13.82989</ele>
        <time>2023-05-30T14:24:28.000Z</time>
      </trkpt>
      <trkpt lat="46.1944" lon="-1.35175">
        <ele>13.81243</ele>
        <time>2023-05-30T14:24:29.000Z</time>
      </trkpt>
      <trkpt lat="46.19444" lon="-1.35174">
        <ele>13.83283</ele>
        <time>2023-05-30T14:24:30.000Z</time>
      </trkpt>
      <trkpt lat="46.19447" lon="-1.35173">
        <ele>13.83487</ele>
        <time>2023-05-30T14:24:31.000Z</time>
      </trkpt>
      <trkpt lat="46.19451" lon="-1.35172">
        <ele>13.83586</ele>
        <time>2023-05-30T14:24:32.000Z</time>
      </trkpt>
      <trkpt lat="46.19454" lon="-1.3517">
        <ele>13.80956</ele>
        <time>2023-05-30T14:24:33.000Z</time>
      </trkpt>
      <trkpt lat="46.19458" lon="-1.35169">
        <ele>13.7392</ele>
        <time>2023-05-30T14:24:34.000Z</time>
      </trkpt>
      <trkpt lat="46.19461" lon="-1.35167">
        <ele>13.66214</ele>
        <time>2023-05-30T14:24:35.000Z</time>
      </trkpt>
      <trkpt lat="46.19464" lon="-1.35166">
        <ele>13.59859</ele>
        <time>2023-05-30T14:24:36.000Z</time>
      </trkpt>
      <trkpt lat="46.19468" lon="-1.35165">
        <ele>13.52103</ele>
        <time>2023-05-30T14:24:37.000Z</time>
      </trkpt>
      <trkpt lat="46.19471" lon="-1.35163">
        <ele>13.42662</ele>
        <time>2023-05-30T14:24:38.000Z</time>
      </trkpt>
      <trkpt lat="46.19474" lon="-1.35163">
        <ele>13.33226</ele>
        <time>2023-05-30T14:24:39.000Z</time>
      </trkpt>
      <trkpt lat="46.19477" lon="-1.35162">
        <ele>13.26542</ele>
        <time>2023-05-30T14:24:40.000Z</time>
      </trkpt>
      <trkpt lat="46.19481" lon="-1.35161">
        <ele>13.21223</ele>
        <time>2023-05-30T14:24:41.000Z</time>
      </trkpt>
      <trkpt lat="46.19484" lon="-1.3516">
        <ele>13.16249</ele>
        <time>2023-05-30T14:24:42.000Z</time>
      </trkpt>
      <trkpt lat="46.19488" lon="-1.35158">
        <ele>13.05827</ele>
        <time>2023-05-30T14:24:43.000Z</time>
      </trkpt>
      <trkpt lat="46.19491" lon="-1.35157">
        <ele>13.00074</ele>
        <time>2023-05-30T14:24:44.000Z</time>
      </trkpt>
      <trkpt lat="46.19494" lon="-1.35156">
        <ele>12.93149</ele>
        <time>2023-05-30T14:24:45.000Z</time>
      </trkpt>
      <trkpt lat="46.19497" lon="-1.35156">
        <ele>12.83998</ele>
        <time>2023-05-30T14:24:46.000Z</time>
      </trkpt>
      <trkpt lat="46.195" lon="-1.35156">
        <ele>12.76838</ele>
        <time>2023-05-30T14:24:47.000Z</time>
      </trkpt>
      <trkpt lat="46.19503" lon="-1.35155">
        <ele>12.70177</ele>
        <time>2023-05-30T14:24:48.000Z</time>
      </trkpt>
      <trkpt lat="46.19506" lon="-1.35153">
        <ele>12.64316</ele>
        <time>2023-05-30T14:24:49.000Z</time>
      </trkpt>
      <trkpt lat="46.19508" lon="-1.3515">
        <ele>12.56081</ele>
        <time>2023-05-30T14:24:50.000Z</time>
      </trkpt>
      <trkpt lat="46.19509" lon="-1.35147">
        <ele>12.51872</ele>
        <time>2023-05-30T14:24:51.000Z</time>
      </trkpt>
      <trkpt lat="46.19511" lon="-1.35144">
        <ele>12.47233</ele>
        <time>2023-05-30T14:24:52.000Z</time>
      </trkpt>
      <trkpt lat="46.19513" lon="-1.35142">
        <ele>12.41212</ele>
        <time>2023-05-30T14:24:53.000Z</time>
      </trkpt>
      <trkpt lat="46.19515" lon="-1.3514">
        <ele>12.34679</ele>
        <time>2023-05-30T14:24:54.000Z</time>
      </trkpt>
      <trkpt lat="46.19517" lon="-1.35139">
        <ele>12.30095</ele>
        <time>2023-05-30T14:24:55.000Z</time>
      </trkpt>
      <trkpt lat="46.1952" lon="-1.35138">
        <ele>12.25691</ele>
        <time>2023-05-30T14:24:56.000Z</time>
      </trkpt>
      <trkpt lat="46.19522" lon="-1.35137">
        <ele>12.22843</ele>
        <time>2023-05-30T14:24:57.000Z</time>
      </trkpt>
      <trkpt lat="46.19524" lon="-1.35136">
        <ele>12.20402</ele>
        <time>2023-05-30T14:24:58.000Z</time>
      </trkpt>
      <trkpt lat="46.19527" lon="-1.35135">
        <ele>12.18951</ele>
        <time>2023-05-30T14:24:59.000Z</time>
      </trkpt>
      <trkpt lat="46.19529" lon="-1.35135">
        <ele>12.17021</ele>
        <time>2023-05-30T14:25:00.000Z</time>
      </trkpt>
      <trkpt lat="46.19532" lon="-1.35135">
        <ele>12.13629</ele>
        <time>2023-05-30T14:25:01.000Z</time>
      </trkpt>
      <trkpt lat="46.19534" lon="-1.35134">
        <ele>12.109</ele>
        <time>2023-05-30T14:25:02.000Z</time>
      </trkpt>
      <trkpt lat="46.19536" lon="-1.35133">
        <ele>12.08981</ele>
        <time>2023-05-30T14:25:03.000Z</time>
      </trkpt>
      <trkpt lat="46.19539" lon="-1.35132">
        <ele>12.06168</ele>
        <time>2023-05-30T14:25:04.000Z</time>
      </trkpt>
      <trkpt lat="46.19541" lon="-1.35131">
        <ele>12.04639</ele>
        <time>2023-05-30T14:25:05.000Z</time>
      </trkpt>
      <trkpt lat="46.19544" lon="-1.35131">
        <ele>12.03349</ele>
        <time>2023-05-30T14:25:06.000Z</time>
      </trkpt>
      <trkpt lat="46.19546" lon="-1.3513">
        <ele>12.019</ele>
        <time>2023-05-30T14:25:07.000Z</time>
      </trkpt>
      <trkpt lat="46.19548" lon="-1.35129">
        <ele>12.00974</ele>
        <time>2023-05-30T14:25:08.000Z</time>
      </trkpt>
      <trkpt lat="46.1955" lon="-1.35128">
        <ele>12.00552</ele>
        <time>2023-05-30T14:25:09.000Z</time>
      </trkpt>
      <trkpt lat="46.19552" lon="-1.35127">
        <ele>12.00867</ele>
        <time>2023-05-30T14:25:10.000Z</time>
      </trkpt>
      <trkpt lat="46.19554" lon="-1.35126">
        <ele>12.01405</ele>
        <time>2023-05-30T14:25:11.000Z</time>
      </trkpt>
      <trkpt lat="46.19557" lon="-1.35125">
        <ele>12.04238</ele>
        <time>2023-05-30T14:25:13.000Z</time>
      </trkpt>
      <trkpt lat="46.19558" lon="-1.35124">
        <ele>12.10497</ele>
        <time>2023-05-30T14:25:14.000Z</time>
      </trkpt>
      <trkpt lat="46.19561" lon="-1.35123">
        <ele>12.20725</ele>
        <time>2023-05-30T14:25:15.000Z</time>
      </trkpt>
      <trkpt lat="46.19563" lon="-1.35123">
        <ele>12.31846</ele>
        <time>2023-05-30T14:25:16.000Z</time>
      </trkpt>
      <trkpt lat="46.19566" lon="-1.35123">
        <ele>12.41968</ele>
        <time>2023-05-30T14:25:17.000Z</time>
      </trkpt>
      <trkpt lat="46.19569" lon="-1.35123">
        <ele>12.50269</ele>
        <time>2023-05-30T14:25:18.000Z</time>
      </trkpt>
      <trkpt lat="46.19572" lon="-1.35123">
        <ele>12.58051</ele>
        <time>2023-05-30T14:25:19.000Z</time>
      </trkpt>
      <trkpt lat="46.19575" lon="-1.35123">
        <ele>12.65065</ele>
        <time>2023-05-30T14:25:20.000Z</time>
      </trkpt>
      <trkpt lat="46.19579" lon="-1.35122">
        <ele>12.71642</ele>
        <time>2023-05-30T14:25:21.000Z</time>
      </trkpt>
      <trkpt lat="46.19582" lon="-1.35121">
        <ele>12.79462</ele>
        <time>2023-05-30T14:25:22.000Z</time>
      </trkpt>
      <trkpt lat="46.19585" lon="-1.35119">
        <ele>12.86663</ele>
        <time>2023-05-30T14:25:23.000Z</time>
      </trkpt>
      <trkpt lat="46.19588" lon="-1.35118">
        <ele>12.93038</ele>
        <time>2023-05-30T14:25:24.000Z</time>
      </trkpt>
      <trkpt lat="46.19591" lon="-1.35117">
        <ele>13.011</ele>
        <time>2023-05-30T14:25:25.000Z</time>
      </trkpt>
      <trkpt lat="46.19594" lon="-1.35116">
        <ele>13.10538</ele>
        <time>2023-05-30T14:25:26.000Z</time>
      </trkpt>
      <trkpt lat="46.19596" lon="-1.35115">
        <ele>13.20718</ele>
        <time>2023-05-30T14:25:27.000Z</time>
      </trkpt>
      <trkpt lat="46.19599" lon="-1.35114">
        <ele>13.30349</ele>
        <time>2023-05-30T14:25:28.000Z</time>
      </trkpt>
      <trkpt lat="46.19601" lon="-1.35112">
        <ele>13.37992</ele>
        <time>2023-05-30T14:25:29.000Z</time>
      </trkpt>
      <trkpt lat="46.19602" lon="-1.35111">
        <ele>13.45678</ele>
        <time>2023-05-30T14:25:30.000Z</time>
      </trkpt>
      <trkpt lat="46.19605" lon="-1.3511">
        <ele>13.50931</ele>
        <time>2023-05-30T14:25:32.000Z</time>
      </trkpt>
      <trkpt lat="46.19607" lon="-1.35109">
        <ele>13.56346</ele>
        <time>2023-05-30T14:25:34.000Z</time>
      </trkpt>
      <trkpt lat="46.1961" lon="-1.35105">
        <ele>13.58309</ele>
        <time>2023-05-30T14:25:36.000Z</time>
      </trkpt>
      <trkpt lat="46.19611" lon="-1.35102">
        <ele>13.62617</ele>
        <time>2023-05-30T14:25:38.000Z</time>
      </trkpt>
      <trkpt lat="46.19613" lon="-1.351">
        <ele>13.6523</ele>
        <time>2023-05-30T14:25:40.000Z</time>
      </trkpt>
      <trkpt lat="46.19615" lon="-1.351">
        <ele>13.62345</ele>
        <time>2023-05-30T14:25:44.000Z</time>
      </trkpt>
      <trkpt lat="46.19617" lon="-1.351">
        <ele>13.59105</ele>
        <time>2023-05-30T14:25:46.000Z</time>
      </trkpt>
      <trkpt lat="46.19619" lon="-1.35102">
        <ele>13.59055</ele>
        <time>2023-05-30T14:25:49.000Z</time>
      </trkpt>
      <trkpt lat="46.19617" lon="-1.35102">
        <ele>13.60623</ele>
        <time>2023-05-30T14:26:00.000Z</time>
      </trkpt>
      <trkpt lat="46.19618" lon="-1.35107">
        <ele>13.59659</ele>
        <time>2023-05-30T14:26:18.000Z</time>
      </trkpt>
      <trkpt lat="46.1962" lon="-1.3511">
        <ele>13.59485</ele>
        <time>2023-05-30T14:26:19.000Z</time>
      </trkpt>
      <trkpt lat="46.19621" lon="-1.35113">
        <ele>13.58676</ele>
        <time>2023-05-30T14:26:20.000Z</time>
      </trkpt>
      <trkpt lat="46.19622" lon="-1.35116">
        <ele>13.57541</ele>
        <time>2023-05-30T14:26:21.000Z</time>
      </trkpt>
      <trkpt lat="46.19622" lon="-1.35119">
        <ele>13.55254</ele>
        <time>2023-05-30T14:26:22.000Z</time>
      </trkpt>
      <trkpt lat="46.19622" lon="-1.35122">
        <ele>13.50986</ele>
        <time>2023-05-30T14:26:23.000Z</time>
      </trkpt>
      <trkpt lat="46.19623" lon="-1.35125">
        <ele>13.457</ele>
        <time>2023-05-30T14:26:24.000Z</time>
      </trkpt>
      <trkpt lat="46.19624" lon="-1.35127">
        <ele>13.37739</ele>
        <time>2023-05-30T14:26:25.000Z</time>
      </trkpt>
      <trkpt lat="46.19625" lon="-1.3513">
        <ele>13.29973</ele>
        <time>2023-05-30T14:26:26.000Z</time>
      </trkpt>
      <trkpt lat="46.19626" lon="-1.35132">
        <ele>13.27539</ele>
        <time>2023-05-30T14:26:27.000Z</time>
      </trkpt>
      <trkpt lat="46.19628" lon="-1.35135">
        <ele>13.24869</ele>
        <time>2023-05-30T14:26:28.000Z</time>
      </trkpt>
      <trkpt lat="46.19629" lon="-1.35137">
        <ele>13.25714</ele>
        <time>2023-05-30T14:26:29.000Z</time>
      </trkpt>
      <trkpt lat="46.1963" lon="-1.3514">
        <ele>13.21277</ele>
        <time>2023-05-30T14:26:30.000Z</time>
      </trkpt>
      <trkpt lat="46.1963" lon="-1.35142">
        <ele>13.16083</ele>
        <time>2023-05-30T14:26:31.000Z</time>
      </trkpt>
      <trkpt lat="46.19631" lon="-1.35145">
        <ele>13.08292</ele>
        <time>2023-05-30T14:26:32.000Z</time>
      </trkpt>
      <trkpt lat="46.19632" lon="-1.35148">
        <ele>12.98086</ele>
        <time>2023-05-30T14:26:33.000Z</time>
      </trkpt>
      <trkpt lat="46.19633" lon="-1.3515">
        <ele>12.89276</ele>
        <time>2023-05-30T14:26:34.000Z</time>
      </trkpt>
      <trkpt lat="46.19635" lon="-1.35151">
        <ele>12.85706</ele>
        <time>2023-05-30T14:26:35.000Z</time>
      </trkpt>
      <trkpt lat="46.19637" lon="-1.35152">
        <ele>12.81297</ele>
        <time>2023-05-30T14:26:36.000Z</time>
      </trkpt>
      <trkpt lat="46.19639" lon="-1.35151">
        <ele>12.76337</ele>
        <time>2023-05-30T14:26:37.000Z</time>
      </trkpt>
      <trkpt lat="46.19642" lon="-1.3515">
        <ele>12.69031</ele>
        <time>2023-05-30T14:26:38.000Z</time>
      </trkpt>
      <trkpt lat="46.19644" lon="-1.35148">
        <ele>12.56455</ele>
        <time>2023-05-30T14:26:39.000Z</time>
      </trkpt>
      <trkpt lat="46.19646" lon="-1.35147">
        <ele>12.45791</ele>
        <time>2023-05-30T14:26:40.000Z</time>
      </trkpt>
      <trkpt lat="46.19648" lon="-1.35146">
        <ele>12.3278</ele>
        <time>2023-05-30T14:26:41.000Z</time>
      </trkpt>
      <trkpt lat="46.19651" lon="-1.35148">
        <ele>12.26853</ele>
        <time>2023-05-30T14:26:43.000Z</time>
      </trkpt>
      <trkpt lat="46.19651" lon="-1.35151">
        <ele>12.21269</ele>
        <time>2023-05-30T14:26:45.000Z</time>
      </trkpt>
      <trkpt lat="46.19651" lon="-1.35151">
        <ele>12.21269</ele>
        <time>2023-05-30T14:54:33.000Z</time>
      </trkpt>
      <trkpt lat="46.1965" lon="-1.35147">
        <ele>12.10665</ele>
        <time>2023-05-30T14:55:04.000Z</time>
      </trkpt>
      <trkpt lat="46.19652" lon="-1.35146">
        <ele>12.13</ele>
        <time>2023-05-30T14:55:04.000Z</time>
      </trkpt>
      <trkpt lat="46.1965" lon="-1.35145">
        <ele>12.1746</ele>
        <time>2023-05-30T14:55:11.000Z</time>
      </trkpt>
      <trkpt lat="46.19648" lon="-1.35145">
        <ele>12.1383</ele>
        <time>2023-05-30T14:55:13.000Z</time>
      </trkpt>
      <trkpt lat="46.19646" lon="-1.35146">
        <ele>12.04657</ele>
        <time>2023-05-30T14:55:16.000Z</time>
      </trkpt>
      <trkpt lat="46.19643" lon="-1.35147">
        <ele>11.98761</ele>
        <time>2023-05-30T14:55:28.000Z</time>
      </trkpt>
      <trkpt lat="46.1964" lon="-1.35149">
        <ele>11.9923</ele>
        <time>2023-05-30T14:55:30.000Z</time>
      </trkpt>
      <trkpt lat="46.19639" lon="-1.3515">
        <ele>12.02503</ele>
        <time>2023-05-30T14:55:31.000Z</time>
      </trkpt>
      <trkpt lat="46.19637" lon="-1.3515">
        <ele>12.0411</ele>
        <time>2023-05-30T14:55:32.000Z</time>
      </trkpt>
      <trkpt lat="46.19635" lon="-1.35148">
        <ele>12.08582</ele>
        <time>2023-05-30T14:55:33.000Z</time>
      </trkpt>
      <trkpt lat="46.19634" lon="-1.35146">
        <ele>12.14918</ele>
        <time>2023-05-30T14:55:34.000Z</time>
      </trkpt>
      <trkpt lat="46.19633" lon="-1.35144">
        <ele>12.17199</ele>
        <time>2023-05-30T14:55:35.000Z</time>
      </trkpt>
      <trkpt lat="46.19632" lon="-1.35141">
        <ele>12.17447</ele>
        <time>2023-05-30T14:55:36.000Z</time>
      </trkpt>
      <trkpt lat="46.19631" lon="-1.35138">
        <ele>12.18043</ele>
        <time>2023-05-30T14:55:37.000Z</time>
      </trkpt>
      <trkpt lat="46.19631" lon="-1.35135">
        <ele>12.21115</ele>
        <time>2023-05-30T14:55:38.000Z</time>
      </trkpt>
      <trkpt lat="46.19631" lon="-1.35132">
        <ele>12.29131</ele>
        <time>2023-05-30T14:55:39.000Z</time>
      </trkpt>
      <trkpt lat="46.1963" lon="-1.35129">
        <ele>12.34392</ele>
        <time>2023-05-30T14:55:40.000Z</time>
      </trkpt>
      <trkpt lat="46.19629" lon="-1.35126">
        <ele>12.40476</ele>
        <time>2023-05-30T14:55:41.000Z</time>
      </trkpt>
      <trkpt lat="46.19628" lon="-1.35124">
        <ele>12.39907</ele>
        <time>2023-05-30T14:55:42.000Z</time>
      </trkpt>
      <trkpt lat="46.19626" lon="-1.35121">
        <ele>12.36657</ele>
        <time>2023-05-30T14:55:43.000Z</time>
      </trkpt>
      <trkpt lat="46.19624" lon="-1.35119">
        <ele>12.38344</ele>
        <time>2023-05-30T14:55:44.000Z</time>
      </trkpt>
      <trkpt lat="46.19622" lon="-1.35117">
        <ele>12.36344</ele>
        <time>2023-05-30T14:55:45.000Z</time>
      </trkpt>
      <trkpt lat="46.19621" lon="-1.35115">
        <ele>12.32639</ele>
        <time>2023-05-30T14:55:46.000Z</time>
      </trkpt>
      <trkpt lat="46.19619" lon="-1.35113">
        <ele>12.31378</ele>
        <time>2023-05-30T14:55:47.000Z</time>
      </trkpt>
      <trkpt lat="46.19616" lon="-1.3511">
        <ele>12.37164</ele>
        <time>2023-05-30T14:55:49.000Z</time>
      </trkpt>
      <trkpt lat="46.19614" lon="-1.35109">
        <ele>12.39319</ele>
        <time>2023-05-30T14:55:50.000Z</time>
      </trkpt>
      <trkpt lat="46.19612" lon="-1.35109">
        <ele>12.38652</ele>
        <time>2023-05-30T14:55:51.000Z</time>
      </trkpt>
      <trkpt lat="46.1961" lon="-1.3511">
        <ele>12.36749</ele>
        <time>2023-05-30T14:55:52.000Z</time>
      </trkpt>
      <trkpt lat="46.19607" lon="-1.35111">
        <ele>12.34428</ele>
        <time>2023-05-30T14:55:53.000Z</time>
      </trkpt>
      <trkpt lat="46.19605" lon="-1.35112">
        <ele>12.31983</ele>
        <time>2023-05-30T14:55:54.000Z</time>
      </trkpt>
      <trkpt lat="46.19603" lon="-1.35114">
        <ele>12.27796</ele>
        <time>2023-05-30T14:55:55.000Z</time>
      </trkpt>
      <trkpt lat="46.196" lon="-1.35115">
        <ele>12.22318</ele>
        <time>2023-05-30T14:55:56.000Z</time>
      </trkpt>
      <trkpt lat="46.19598" lon="-1.35117">
        <ele>12.19186</ele>
        <time>2023-05-30T14:55:57.000Z</time>
      </trkpt>
      <trkpt lat="46.19595" lon="-1.35118">
        <ele>12.17356</ele>
        <time>2023-05-30T14:55:58.000Z</time>
      </trkpt>
      <trkpt lat="46.19592" lon="-1.35119">
        <ele>12.1743</ele>
        <time>2023-05-30T14:55:59.000Z</time>
      </trkpt>
      <trkpt lat="46.19589" lon="-1.3512">
        <ele>12.16863</ele>
        <time>2023-05-30T14:56:00.000Z</time>
      </trkpt>
      <trkpt lat="46.19587" lon="-1.35122">
        <ele>12.13467</ele>
        <time>2023-05-30T14:56:01.000Z</time>
      </trkpt>
      <trkpt lat="46.19584" lon="-1.35123">
        <ele>12.12261</ele>
        <time>2023-05-30T14:56:02.000Z</time>
      </trkpt>
      <trkpt lat="46.19582" lon="-1.35124">
        <ele>12.11027</ele>
        <time>2023-05-30T14:56:03.000Z</time>
      </trkpt>
      <trkpt lat="46.19579" lon="-1.35126">
        <ele>12.13148</ele>
        <time>2023-05-30T14:56:04.000Z</time>
      </trkpt>
      <trkpt lat="46.19577" lon="-1.35128">
        <ele>12.15504</ele>
        <time>2023-05-30T14:56:05.000Z</time>
      </trkpt>
      <trkpt lat="46.19574" lon="-1.35129">
        <ele>12.122</ele>
        <time>2023-05-30T14:56:06.000Z</time>
      </trkpt>
      <trkpt lat="46.19572" lon="-1.35131">
        <ele>12.0877</ele>
        <time>2023-05-30T14:56:07.000Z</time>
      </trkpt>
      <trkpt lat="46.19569" lon="-1.35132">
        <ele>12.06529</ele>
        <time>2023-05-30T14:56:08.000Z</time>
      </trkpt>
      <trkpt lat="46.19566" lon="-1.35132">
        <ele>12.01412</ele>
        <time>2023-05-30T14:56:09.000Z</time>
      </trkpt>
      <trkpt lat="46.19563" lon="-1.35132">
        <ele>11.95219</ele>
        <time>2023-05-30T14:56:10.000Z</time>
      </trkpt>
      <trkpt lat="46.1956" lon="-1.35132">
        <ele>11.88988</ele>
        <time>2023-05-30T14:56:11.000Z</time>
      </trkpt>
      <trkpt lat="46.19558" lon="-1.35133">
        <ele>11.86535</ele>
        <time>2023-05-30T14:56:12.000Z</time>
      </trkpt>
      <trkpt lat="46.19555" lon="-1.35133">
        <ele>11.83069</ele>
        <time>2023-05-30T14:56:13.000Z</time>
      </trkpt>
      <trkpt lat="46.19552" lon="-1.35134">
        <ele>11.79959</ele>
        <time>2023-05-30T14:56:14.000Z</time>
      </trkpt>
      <trkpt lat="46.19549" lon="-1.35135">
        <ele>11.79005</ele>
        <time>2023-05-30T14:56:15.000Z</time>
      </trkpt>
      <trkpt lat="46.19546" lon="-1.35136">
        <ele>11.8542</ele>
        <time>2023-05-30T14:56:16.000Z</time>
      </trkpt>
      <trkpt lat="46.19543" lon="-1.35137">
        <ele>11.91548</ele>
        <time>2023-05-30T14:56:17.000Z</time>
      </trkpt>
      <trkpt lat="46.1954" lon="-1.35137">
        <ele>11.94133</ele>
        <time>2023-05-30T14:56:18.000Z</time>
      </trkpt>
      <trkpt lat="46.19537" lon="-1.35139">
        <ele>11.97703</ele>
        <time>2023-05-30T14:56:19.000Z</time>
      </trkpt>
      <trkpt lat="46.19534" lon="-1.3514">
        <ele>12.01871</ele>
        <time>2023-05-30T14:56:20.000Z</time>
      </trkpt>
      <trkpt lat="46.19531" lon="-1.35142">
        <ele>12.10397</ele>
        <time>2023-05-30T14:56:21.000Z</time>
      </trkpt>
      <trkpt lat="46.19528" lon="-1.35143">
        <ele>12.18315</ele>
        <time>2023-05-30T14:56:22.000Z</time>
      </trkpt>
      <trkpt lat="46.19525" lon="-1.35145">
        <ele>12.26968</ele>
        <time>2023-05-30T14:56:23.000Z</time>
      </trkpt>
      <trkpt lat="46.19522" lon="-1.35146">
        <ele>12.35998</ele>
        <time>2023-05-30T14:56:24.000Z</time>
      </trkpt>
      <trkpt lat="46.19519" lon="-1.35147">
        <ele>12.41363</ele>
        <time>2023-05-30T14:56:25.000Z</time>
      </trkpt>
      <trkpt lat="46.19516" lon="-1.35148">
        <ele>12.46102</ele>
        <time>2023-05-30T14:56:26.000Z</time>
      </trkpt>
      <trkpt lat="46.19513" lon="-1.35148">
        <ele>12.5592</ele>
        <time>2023-05-30T14:56:27.000Z</time>
      </trkpt>
      <trkpt lat="46.1951" lon="-1.35149">
        <ele>12.64993</ele>
        <time>2023-05-30T14:56:28.000Z</time>
      </trkpt>
      <trkpt lat="46.19507" lon="-1.3515">
        <ele>12.80336</ele>
        <time>2023-05-30T14:56:29.000Z</time>
      </trkpt>
      <trkpt lat="46.19504" lon="-1.35151">
        <ele>12.92059</ele>
        <time>2023-05-30T14:56:30.000Z</time>
      </trkpt>
      <trkpt lat="46.19501" lon="-1.35153">
        <ele>13.03688</ele>
        <time>2023-05-30T14:56:31.000Z</time>
      </trkpt>
      <trkpt lat="46.19498" lon="-1.35154">
        <ele>13.12672</ele>
        <time>2023-05-30T14:56:32.000Z</time>
      </trkpt>
      <trkpt lat="46.19495" lon="-1.35155">
        <ele>13.2312</ele>
        <time>2023-05-30T14:56:33.000Z</time>
      </trkpt>
      <trkpt lat="46.19492" lon="-1.35156">
        <ele>13.33335</ele>
        <time>2023-05-30T14:56:34.000Z</time>
      </trkpt>
      <trkpt lat="46.19489" lon="-1.35157">
        <ele>13.42375</ele>
        <time>2023-05-30T14:56:35.000Z</time>
      </trkpt>
      <trkpt lat="46.19486" lon="-1.35158">
        <ele>13.45598</ele>
        <time>2023-05-30T14:56:36.000Z</time>
      </trkpt>
      <trkpt lat="46.19482" lon="-1.35159">
        <ele>13.48896</ele>
        <time>2023-05-30T14:56:37.000Z</time>
      </trkpt>
      <trkpt lat="46.19479" lon="-1.3516">
        <ele>13.54592</ele>
        <time>2023-05-30T14:56:38.000Z</time>
      </trkpt>
      <trkpt lat="46.19476" lon="-1.35161">
        <ele>13.59012</ele>
        <time>2023-05-30T14:56:39.000Z</time>
      </trkpt>
      <trkpt lat="46.19473" lon="-1.35162">
        <ele>13.59772</ele>
        <time>2023-05-30T14:56:40.000Z</time>
      </trkpt>
      <trkpt lat="46.19469" lon="-1.35163">
        <ele>13.58802</ele>
        <time>2023-05-30T14:56:41.000Z</time>
      </trkpt>
      <trkpt lat="46.19467" lon="-1.35164">
        <ele>13.58203</ele>
        <time>2023-05-30T14:56:42.000Z</time>
      </trkpt>
      <trkpt lat="46.19463" lon="-1.35165">
        <ele>13.62823</ele>
        <time>2023-05-30T14:56:43.000Z</time>
      </trkpt>
      <trkpt lat="46.19461" lon="-1.35166">
        <ele>13.65617</ele>
        <time>2023-05-30T14:56:44.000Z</time>
      </trkpt>
      <trkpt lat="46.19458" lon="-1.35168">
        <ele>13.71849</ele>
        <time>2023-05-30T14:56:45.000Z</time>
      </trkpt>
      <trkpt lat="46.19454" lon="-1.35169">
        <ele>13.79243</ele>
        <time>2023-05-30T14:56:46.000Z</time>
      </trkpt>
      <trkpt lat="46.19451" lon="-1.35171">
        <ele>13.81521</ele>
        <time>2023-05-30T14:56:47.000Z</time>
      </trkpt>
      <trkpt lat="46.19448" lon="-1.35172">
        <ele>13.82782</ele>
        <time>2023-05-30T14:56:48.000Z</time>
      </trkpt>
      <trkpt lat="46.19444" lon="-1.35173">
        <ele>13.77563</ele>
        <time>2023-05-30T14:56:49.000Z</time>
      </trkpt>
      <trkpt lat="46.19441" lon="-1.35175">
        <ele>13.77078</ele>
        <time>2023-05-30T14:56:50.000Z</time>
      </trkpt>
      <trkpt lat="46.19437" lon="-1.35176">
        <ele>13.73969</ele>
        <time>2023-05-30T14:56:51.000Z</time>
      </trkpt>
      <trkpt lat="46.19434" lon="-1.35177">
        <ele>13.77209</ele>
        <time>2023-05-30T14:56:52.000Z</time>
      </trkpt>
      <trkpt lat="46.19431" lon="-1.35178">
        <ele>13.79873</ele>
        <time>2023-05-30T14:56:53.000Z</time>
      </trkpt>
      <trkpt lat="46.19428" lon="-1.35181">
        <ele>13.82229</ele>
        <time>2023-05-30T14:56:54.000Z</time>
      </trkpt>
      <trkpt lat="46.19425" lon="-1.35184">
        <ele>13.86095</ele>
        <time>2023-05-30T14:56:55.000Z</time>
      </trkpt>
      <trkpt lat="46.19423" lon="-1.35189">
        <ele>13.89468</ele>
        <time>2023-05-30T14:56:56.000Z</time>
      </trkpt>
      <trkpt lat="46.1942" lon="-1.35191">
        <ele>13.94747</ele>
        <time>2023-05-30T14:56:57.000Z</time>
      </trkpt>
      <trkpt lat="46.19417" lon="-1.35193">
        <ele>13.99193</ele>
        <time>2023-05-30T14:56:58.000Z</time>
      </trkpt>
      <trkpt lat="46.19413" lon="-1.35193">
        <ele>14.0601</ele>
        <time>2023-05-30T14:56:59.000Z</time>
      </trkpt>
      <trkpt lat="46.1941" lon="-1.35194">
        <ele>14.17089</ele>
        <time>2023-05-30T14:57:00.000Z</time>
      </trkpt>
      <trkpt lat="46.19407" lon="-1.35194">
        <ele>14.24012</ele>
        <time>2023-05-30T14:57:01.000Z</time>
      </trkpt>
      <trkpt lat="46.19403" lon="-1.35195">
        <ele>14.28723</ele>
        <time>2023-05-30T14:57:02.000Z</time>
      </trkpt>
      <trkpt lat="46.194" lon="-1.35194">
        <ele>14.28141</ele>
        <time>2023-05-30T14:57:03.000Z</time>
      </trkpt>
      <trkpt lat="46.19396" lon="-1.35193">
        <ele>14.30152</ele>
        <time>2023-05-30T14:57:04.000Z</time>
      </trkpt>
      <trkpt lat="46.19392" lon="-1.35193">
        <ele>14.3075</ele>
        <time>2023-05-30T14:57:05.000Z</time>
      </trkpt>
      <trkpt lat="46.19388" lon="-1.35194">
        <ele>14.30056</ele>
        <time>2023-05-30T14:57:06.000Z</time>
      </trkpt>
      <trkpt lat="46.19385" lon="-1.35197">
        <ele>14.28454</ele>
        <time>2023-05-30T14:57:07.000Z</time>
      </trkpt>
      <trkpt lat="46.19383" lon="-1.35201">
        <ele>14.27007</ele>
        <time>2023-05-30T14:57:08.000Z</time>
      </trkpt>
      <trkpt lat="46.19382" lon="-1.35206">
        <ele>14.32747</ele>
        <time>2023-05-30T14:57:09.000Z</time>
      </trkpt>
      <trkpt lat="46.19381" lon="-1.35211">
        <ele>14.33437</ele>
        <time>2023-05-30T14:57:10.000Z</time>
      </trkpt>
      <trkpt lat="46.19381" lon="-1.35216">
        <ele>14.36645</ele>
        <time>2023-05-30T14:57:11.000Z</time>
      </trkpt>
      <trkpt lat="46.19381" lon="-1.35222">
        <ele>14.35089</ele>
        <time>2023-05-30T14:57:12.000Z</time>
      </trkpt>
      <trkpt lat="46.19382" lon="-1.35227">
        <ele>14.29782</ele>
        <time>2023-05-30T14:57:13.000Z</time>
      </trkpt>
      <trkpt lat="46.19382" lon="-1.35232">
        <ele>14.23794</ele>
        <time>2023-05-30T14:57:14.000Z</time>
      </trkpt>
      <trkpt lat="46.19383" lon="-1.35238">
        <ele>14.18238</ele>
        <time>2023-05-30T14:57:15.000Z</time>
      </trkpt>
      <trkpt lat="46.19383" lon="-1.35243">
        <ele>14.13312</ele>
        <time>2023-05-30T14:57:16.000Z</time>
      </trkpt>
      <trkpt lat="46.19383" lon="-1.35249">
        <ele>14.04117</ele>
        <time>2023-05-30T14:57:17.000Z</time>
      </trkpt>
      <trkpt lat="46.19383" lon="-1.35254">
        <ele>13.94393</ele>
        <time>2023-05-30T14:57:18.000Z</time>
      </trkpt>
      <trkpt lat="46.19383" lon="-1.35259">
        <ele>13.83134</ele>
        <time>2023-05-30T14:57:19.000Z</time>
      </trkpt>
      <trkpt lat="46.19384" lon="-1.35264">
        <ele>13.71942</ele>
        <time>2023-05-30T14:57:20.000Z</time>
      </trkpt>
      <trkpt lat="46.19384" lon="-1.35268">
        <ele>13.65819</ele>
        <time>2023-05-30T14:57:21.000Z</time>
      </trkpt>
      <trkpt lat="46.19384" lon="-1.35273">
        <ele>13.62258</ele>
        <time>2023-05-30T14:57:22.000Z</time>
      </trkpt>
      <trkpt lat="46.19384" lon="-1.35278">
        <ele>13.57302</ele>
        <time>2023-05-30T14:57:23.000Z</time>
      </trkpt>
      <trkpt lat="46.19384" lon="-1.35282">
        <ele>13.51246</ele>
        <time>2023-05-30T14:57:24.000Z</time>
      </trkpt>
      <trkpt lat="46.19384" lon="-1.35287">
        <ele>13.4911</ele>
        <time>2023-05-30T14:57:25.000Z</time>
      </trkpt>
      <trkpt lat="46.19385" lon="-1.35292">
        <ele>13.49106</ele>
        <time>2023-05-30T14:57:26.000Z</time>
      </trkpt>
      <trkpt lat="46.19385" lon="-1.35297">
        <ele>13.49612</ele>
        <time>2023-05-30T14:57:27.000Z</time>
      </trkpt>
      <trkpt lat="46.19385" lon="-1.35302">
        <ele>13.49441</ele>
        <time>2023-05-30T14:57:28.000Z</time>
      </trkpt>
      <trkpt lat="46.19386" lon="-1.35307">
        <ele>13.42656</ele>
        <time>2023-05-30T14:57:29.000Z</time>
      </trkpt>
      <trkpt lat="46.19386" lon="-1.35312">
        <ele>13.4079</ele>
        <time>2023-05-30T14:57:30.000Z</time>
      </trkpt>
      <trkpt lat="46.19386" lon="-1.35317">
        <ele>13.38674</ele>
        <time>2023-05-30T14:57:31.000Z</time>
      </trkpt>
      <trkpt lat="46.19386" lon="-1.35322">
        <ele>13.35044</ele>
        <time>2023-05-30T14:57:32.000Z</time>
      </trkpt>
      <trkpt lat="46.19386" lon="-1.35327">
        <ele>13.3603</ele>
        <time>2023-05-30T14:57:33.000Z</time>
      </trkpt>
      <trkpt lat="46.19386" lon="-1.35331">
        <ele>13.37902</ele>
        <time>2023-05-30T14:57:34.000Z</time>
      </trkpt>
      <trkpt lat="46.19386" lon="-1.35336">
        <ele>13.4003</ele>
        <time>2023-05-30T14:57:35.000Z</time>
      </trkpt>
      <trkpt lat="46.19386" lon="-1.35341">
        <ele>13.42726</ele>
        <time>2023-05-30T14:57:36.000Z</time>
      </trkpt>
      <trkpt lat="46.19386" lon="-1.35345">
        <ele>13.53237</ele>
        <time>2023-05-30T14:57:37.000Z</time>
      </trkpt>
      <trkpt lat="46.19386" lon="-1.3535">
        <ele>13.64229</ele>
        <time>2023-05-30T14:57:38.000Z</time>
      </trkpt>
      <trkpt lat="46.19387" lon="-1.35355">
        <ele>13.77699</ele>
        <time>2023-05-30T14:57:39.000Z</time>
      </trkpt>
      <trkpt lat="46.19387" lon="-1.3536">
        <ele>13.92207</ele>
        <time>2023-05-30T14:57:40.000Z</time>
      </trkpt>
      <trkpt lat="46.19387" lon="-1.35365">
        <ele>14.06887</ele>
        <time>2023-05-30T14:57:41.000Z</time>
      </trkpt>
      <trkpt lat="46.19387" lon="-1.3537">
        <ele>14.2037</ele>
        <time>2023-05-30T14:57:42.000Z</time>
      </trkpt>
      <trkpt lat="46.19388" lon="-1.35375">
        <ele>14.35085</ele>
        <time>2023-05-30T14:57:43.000Z</time>
      </trkpt>
      <trkpt lat="46.19388" lon="-1.3538">
        <ele>14.49312</ele>
        <time>2023-05-30T14:57:44.000Z</time>
      </trkpt>
      <trkpt lat="46.19388" lon="-1.35385">
        <ele>14.5633</ele>
        <time>2023-05-30T14:57:45.000Z</time>
      </trkpt>
      <trkpt lat="46.19388" lon="-1.3539">
        <ele>14.6004</ele>
        <time>2023-05-30T14:57:46.000Z</time>
      </trkpt>
      <trkpt lat="46.19388" lon="-1.35395">
        <ele>14.62785</ele>
        <time>2023-05-30T14:57:47.000Z</time>
      </trkpt>
      <trkpt lat="46.19389" lon="-1.35399">
        <ele>14.75188</ele>
        <time>2023-05-30T14:57:48.000Z</time>
      </trkpt>
      <trkpt lat="46.19389" lon="-1.35404">
        <ele>14.8755</ele>
        <time>2023-05-30T14:57:49.000Z</time>
      </trkpt>
      <trkpt lat="46.19389" lon="-1.35409">
        <ele>14.9901</ele>
        <time>2023-05-30T14:57:50.000Z</time>
      </trkpt>
      <trkpt lat="46.1939" lon="-1.35414">
        <ele>15.09731</ele>
        <time>2023-05-30T14:57:51.000Z</time>
      </trkpt>
      <trkpt lat="46.1939" lon="-1.35419">
        <ele>15.22954</ele>
        <time>2023-05-30T14:57:52.000Z</time>
      </trkpt>
      <trkpt lat="46.19391" lon="-1.35424">
        <ele>15.35953</ele>
        <time>2023-05-30T14:57:53.000Z</time>
      </trkpt>
      <trkpt lat="46.19391" lon="-1.35429">
        <ele>15.37534</ele>
        <time>2023-05-30T14:57:54.000Z</time>
      </trkpt>
      <trkpt lat="46.19392" lon="-1.35435">
        <ele>15.38273</ele>
        <time>2023-05-30T14:57:55.000Z</time>
      </trkpt>
      <trkpt lat="46.19392" lon="-1.3544">
        <ele>15.39948</ele>
        <time>2023-05-30T14:57:56.000Z</time>
      </trkpt>
      <trkpt lat="46.19392" lon="-1.35446">
        <ele>15.36588</ele>
        <time>2023-05-30T14:57:57.000Z</time>
      </trkpt>
      <trkpt lat="46.19393" lon="-1.35451">
        <ele>15.35505</ele>
        <time>2023-05-30T14:57:58.000Z</time>
      </trkpt>
      <trkpt lat="46.19393" lon="-1.35456">
        <ele>15.32167</ele>
        <time>2023-05-30T14:57:59.000Z</time>
      </trkpt>
      <trkpt lat="46.19393" lon="-1.35462">
        <ele>15.2888</ele>
        <time>2023-05-30T14:58:00.000Z</time>
      </trkpt>
      <trkpt lat="46.19394" lon="-1.35467">
        <ele>15.2476</ele>
        <time>2023-05-30T14:58:01.000Z</time>
      </trkpt>
      <trkpt lat="46.19394" lon="-1.35472">
        <ele>15.23348</ele>
        <time>2023-05-30T14:58:02.000Z</time>
      </trkpt>
      <trkpt lat="46.19395" lon="-1.35477">
        <ele>15.21988</ele>
        <time>2023-05-30T14:58:03.000Z</time>
      </trkpt>
      <trkpt lat="46.19395" lon="-1.35482">
        <ele>15.20354</ele>
        <time>2023-05-30T14:58:04.000Z</time>
      </trkpt>
      <trkpt lat="46.19395" lon="-1.35486">
        <ele>15.24965</ele>
        <time>2023-05-30T14:58:05.000Z</time>
      </trkpt>
      <trkpt lat="46.19396" lon="-1.3549">
        <ele>15.31159</ele>
        <time>2023-05-30T14:58:06.000Z</time>
      </trkpt>
      <trkpt lat="46.19396" lon="-1.35494">
        <ele>15.38356</ele>
        <time>2023-05-30T14:58:07.000Z</time>
      </trkpt>
      <trkpt lat="46.19396" lon="-1.35498">
        <ele>15.39519</ele>
        <time>2023-05-30T14:58:08.000Z</time>
      </trkpt>
      <trkpt lat="46.19396" lon="-1.35501">
        <ele>15.40672</ele>
        <time>2023-05-30T14:58:09.000Z</time>
      </trkpt>
      <trkpt lat="46.19397" lon="-1.35504">
        <ele>15.40418</ele>
        <time>2023-05-30T14:58:10.000Z</time>
      </trkpt>
      <trkpt lat="46.19397" lon="-1.35509">
        <ele>15.38933</ele>
        <time>2023-05-30T14:58:12.000Z</time>
      </trkpt>
      <trkpt lat="46.19398" lon="-1.35511">
        <ele>15.36319</ele>
        <time>2023-05-30T14:58:13.000Z</time>
      </trkpt>
      <trkpt lat="46.19399" lon="-1.35514">
        <ele>15.20262</ele>
        <time>2023-05-30T14:58:14.000Z</time>
      </trkpt>
      <trkpt lat="46.19401" lon="-1.35516">
        <ele>15.11669</ele>
        <time>2023-05-30T14:58:15.000Z</time>
      </trkpt>
      <trkpt lat="46.19402" lon="-1.35519">
        <ele>15.21663</ele>
        <time>2023-05-30T14:58:16.000Z</time>
      </trkpt>
      <trkpt lat="46.19404" lon="-1.35522">
        <ele>15.2943</ele>
        <time>2023-05-30T14:58:17.000Z</time>
      </trkpt>
      <trkpt lat="46.19404" lon="-1.35526">
        <ele>15.34704</ele>
        <time>2023-05-30T14:58:18.000Z</time>
      </trkpt>
      <trkpt lat="46.19404" lon="-1.3553">
        <ele>15.38394</ele>
        <time>2023-05-30T14:58:19.000Z</time>
      </trkpt>
      <trkpt lat="46.19403" lon="-1.35533">
        <ele>15.39545</ele>
        <time>2023-05-30T14:58:20.000Z</time>
      </trkpt>
      <trkpt lat="46.19402" lon="-1.35537">
        <ele>15.39105</ele>
        <time>2023-05-30T14:58:21.000Z</time>
      </trkpt>
      <trkpt lat="46.19402" lon="-1.3554">
        <ele>15.30611</ele>
        <time>2023-05-30T14:58:22.000Z</time>
      </trkpt>
      <trkpt lat="46.19401" lon="-1.35542">
        <ele>15.12921</ele>
        <time>2023-05-30T14:58:23.000Z</time>
      </trkpt>
      <trkpt lat="46.19399" lon="-1.35545">
        <ele>14.96313</ele>
        <time>2023-05-30T14:58:24.000Z</time>
      </trkpt>
      <trkpt lat="46.19398" lon="-1.35548">
        <ele>14.95025</ele>
        <time>2023-05-30T14:58:25.000Z</time>
      </trkpt>
      <trkpt lat="46.19398" lon="-1.35552">
        <ele>14.90112</ele>
        <time>2023-05-30T14:58:26.000Z</time>
      </trkpt>
      <trkpt lat="46.19399" lon="-1.35556">
        <ele>14.83746</ele>
        <time>2023-05-30T14:58:27.000Z</time>
      </trkpt>
      <trkpt lat="46.194" lon="-1.3556">
        <ele>14.7657</ele>
        <time>2023-05-30T14:58:28.000Z</time>
      </trkpt>
      <trkpt lat="46.19401" lon="-1.35564">
        <ele>14.67065</ele>
        <time>2023-05-30T14:58:29.000Z</time>
      </trkpt>
      <trkpt lat="46.19402" lon="-1.35568">
        <ele>14.60181</ele>
        <time>2023-05-30T14:58:30.000Z</time>
      </trkpt>
      <trkpt lat="46.19402" lon="-1.35572">
        <ele>14.53109</ele>
        <time>2023-05-30T14:58:31.000Z</time>
      </trkpt>
      <trkpt lat="46.19402" lon="-1.35577">
        <ele>14.47133</ele>
        <time>2023-05-30T14:58:32.000Z</time>
      </trkpt>
      <trkpt lat="46.19401" lon="-1.3558">
        <ele>14.39614</ele>
        <time>2023-05-30T14:58:33.000Z</time>
      </trkpt>
      <trkpt lat="46.194" lon="-1.35584">
        <ele>14.44127</ele>
        <time>2023-05-30T14:58:34.000Z</time>
      </trkpt>
      <trkpt lat="46.19399" lon="-1.35587">
        <ele>14.5384</ele>
        <time>2023-05-30T14:58:35.000Z</time>
      </trkpt>
      <trkpt lat="46.19399" lon="-1.3559">
        <ele>14.45221</ele>
        <time>2023-05-30T14:58:36.000Z</time>
      </trkpt>
      <trkpt lat="46.19398" lon="-1.35593">
        <ele>14.37236</ele>
        <time>2023-05-30T14:58:37.000Z</time>
      </trkpt>
      <trkpt lat="46.19398" lon="-1.35595">
        <ele>14.33158</ele>
        <time>2023-05-30T14:58:38.000Z</time>
      </trkpt>
      <trkpt lat="46.19399" lon="-1.35599">
        <ele>14.28957</ele>
        <time>2023-05-30T14:58:39.000Z</time>
      </trkpt>
      <trkpt lat="46.19399" lon="-1.35602">
        <ele>14.25668</ele>
        <time>2023-05-30T14:58:40.000Z</time>
      </trkpt>
      <trkpt lat="46.19401" lon="-1.35605">
        <ele>14.25727</ele>
        <time>2023-05-30T14:58:41.000Z</time>
      </trkpt>
      <trkpt lat="46.19402" lon="-1.35608">
        <ele>14.35269</ele>
        <time>2023-05-30T14:58:42.000Z</time>
      </trkpt>
      <trkpt lat="46.19403" lon="-1.35611">
        <ele>14.51659</ele>
        <time>2023-05-30T14:58:43.000Z</time>
      </trkpt>
      <trkpt lat="46.19404" lon="-1.35613">
        <ele>14.68231</ele>
        <time>2023-05-30T14:58:44.000Z</time>
      </trkpt>
      <trkpt lat="46.19405" lon="-1.35615">
        <ele>14.60697</ele>
        <time>2023-05-30T14:58:46.000Z</time>
      </trkpt>
      <trkpt lat="46.19405" lon="-1.35618">
        <ele>14.58136</ele>
        <time>2023-05-30T14:59:15.000Z</time>
      </trkpt>
      <trkpt lat="46.19405" lon="-1.35621">
        <ele>14.55869</ele>
        <time>2023-05-30T14:59:16.000Z</time>
      </trkpt>
      <trkpt lat="46.19406" lon="-1.35625">
        <ele>14.53558</ele>
        <time>2023-05-30T14:59:17.000Z</time>
      </trkpt>
      <trkpt lat="46.19406" lon="-1.35629">
        <ele>14.53383</ele>
        <time>2023-05-30T14:59:18.000Z</time>
      </trkpt>
      <trkpt lat="46.19406" lon="-1.35633">
        <ele>14.49985</ele>
        <time>2023-05-30T14:59:19.000Z</time>
      </trkpt>
      <trkpt lat="46.19407" lon="-1.35638">
        <ele>14.48111</ele>
        <time>2023-05-30T14:59:20.000Z</time>
      </trkpt>
      <trkpt lat="46.19407" lon="-1.35642">
        <ele>14.41889</ele>
        <time>2023-05-30T14:59:21.000Z</time>
      </trkpt>
      <trkpt lat="46.19407" lon="-1.35647">
        <ele>14.31231</ele>
        <time>2023-05-30T14:59:22.000Z</time>
      </trkpt>
      <trkpt lat="46.19408" lon="-1.35652">
        <ele>14.37505</ele>
        <time>2023-05-30T14:59:23.000Z</time>
      </trkpt>
      <trkpt lat="46.19409" lon="-1.35658">
        <ele>14.38192</ele>
        <time>2023-05-30T14:59:24.000Z</time>
      </trkpt>
      <trkpt lat="46.1941" lon="-1.35664">
        <ele>14.37862</ele>
        <time>2023-05-30T14:59:25.000Z</time>
      </trkpt>
      <trkpt lat="46.1941" lon="-1.35669">
        <ele>14.37877</ele>
        <time>2023-05-30T14:59:26.000Z</time>
      </trkpt>
      <trkpt lat="46.19411" lon="-1.35675">
        <ele>14.34955</ele>
        <time>2023-05-30T14:59:27.000Z</time>
      </trkpt>
      <trkpt lat="46.19412" lon="-1.35681">
        <ele>14.30822</ele>
        <time>2023-05-30T14:59:28.000Z</time>
      </trkpt>
      <trkpt lat="46.19412" lon="-1.35686">
        <ele>14.26834</ele>
        <time>2023-05-30T14:59:29.000Z</time>
      </trkpt>
      <trkpt lat="46.19413" lon="-1.35692">
        <ele>14.20413</ele>
        <time>2023-05-30T14:59:30.000Z</time>
      </trkpt>
      <trkpt lat="46.19413" lon="-1.35696">
        <ele>14.13047</ele>
        <time>2023-05-30T14:59:31.000Z</time>
      </trkpt>
      <trkpt lat="46.19413" lon="-1.35701">
        <ele>14.03955</ele>
        <time>2023-05-30T14:59:32.000Z</time>
      </trkpt>
      <trkpt lat="46.19413" lon="-1.35705">
        <ele>13.93661</ele>
        <time>2023-05-30T14:59:33.000Z</time>
      </trkpt>
      <trkpt lat="46.19413" lon="-1.3571">
        <ele>13.9012</ele>
        <time>2023-05-30T14:59:34.000Z</time>
      </trkpt>
      <trkpt lat="46.19413" lon="-1.35715">
        <ele>13.77418</ele>
        <time>2023-05-30T14:59:35.000Z</time>
      </trkpt>
      <trkpt lat="46.19413" lon="-1.3572">
        <ele>13.65911</ele>
        <time>2023-05-30T14:59:36.000Z</time>
      </trkpt>
      <trkpt lat="46.19413" lon="-1.35725">
        <ele>13.56118</ele>
        <time>2023-05-30T14:59:37.000Z</time>
      </trkpt>
      <trkpt lat="46.19414" lon="-1.3573">
        <ele>13.43809</ele>
        <time>2023-05-30T14:59:38.000Z</time>
      </trkpt>
      <trkpt lat="46.19414" lon="-1.35735">
        <ele>13.27088</ele>
        <time>2023-05-30T14:59:39.000Z</time>
      </trkpt>
      <trkpt lat="46.19414" lon="-1.3574">
        <ele>13.27329</ele>
        <time>2023-05-30T14:59:40.000Z</time>
      </trkpt>
      <trkpt lat="46.19415" lon="-1.35746">
        <ele>13.31642</ele>
        <time>2023-05-30T14:59:41.000Z</time>
      </trkpt>
      <trkpt lat="46.19415" lon="-1.35751">
        <ele>13.38597</ele>
        <time>2023-05-30T14:59:42.000Z</time>
      </trkpt>
      <trkpt lat="46.19415" lon="-1.35756">
        <ele>13.3019</ele>
        <time>2023-05-30T14:59:43.000Z</time>
      </trkpt>
      <trkpt lat="46.19416" lon="-1.35762">
        <ele>13.27693</ele>
        <time>2023-05-30T14:59:44.000Z</time>
      </trkpt>
      <trkpt lat="46.19416" lon="-1.35767">
        <ele>13.27137</ele>
        <time>2023-05-30T14:59:45.000Z</time>
      </trkpt>
      <trkpt lat="46.19416" lon="-1.35773">
        <ele>13.2497</ele>
        <time>2023-05-30T14:59:46.000Z</time>
      </trkpt>
      <trkpt lat="46.19416" lon="-1.35779">
        <ele>13.23064</ele>
        <time>2023-05-30T14:59:47.000Z</time>
      </trkpt>
      <trkpt lat="46.19416" lon="-1.35785">
        <ele>13.21727</ele>
        <time>2023-05-30T14:59:48.000Z</time>
      </trkpt>
      <trkpt lat="46.19416" lon="-1.35791">
        <ele>13.20294</ele>
        <time>2023-05-30T14:59:49.000Z</time>
      </trkpt>
      <trkpt lat="46.19417" lon="-1.35797">
        <ele>13.19565</ele>
        <time>2023-05-30T14:59:50.000Z</time>
      </trkpt>
      <trkpt lat="46.19417" lon="-1.35803">
        <ele>13.19085</ele>
        <time>2023-05-30T14:59:51.000Z</time>
      </trkpt>
      <trkpt lat="46.19418" lon="-1.35809">
        <ele>13.20124</ele>
        <time>2023-05-30T14:59:52.000Z</time>
      </trkpt>
      <trkpt lat="46.19418" lon="-1.35815">
        <ele>13.22849</ele>
        <time>2023-05-30T14:59:53.000Z</time>
      </trkpt>
      <trkpt lat="46.19418" lon="-1.35821">
        <ele>13.27761</ele>
        <time>2023-05-30T14:59:54.000Z</time>
      </trkpt>
      <trkpt lat="46.19418" lon="-1.35827">
        <ele>13.39995</ele>
        <time>2023-05-30T14:59:55.000Z</time>
      </trkpt>
      <trkpt lat="46.19418" lon="-1.35834">
        <ele>13.53328</ele>
        <time>2023-05-30T14:59:56.000Z</time>
      </trkpt>
      <trkpt lat="46.19417" lon="-1.3584">
        <ele>13.63603</ele>
        <time>2023-05-30T14:59:57.000Z</time>
      </trkpt>
      <trkpt lat="46.19417" lon="-1.35847">
        <ele>13.76166</ele>
        <time>2023-05-30T14:59:58.000Z</time>
      </trkpt>
      <trkpt lat="46.19416" lon="-1.35853">
        <ele>13.93466</ele>
        <time>2023-05-30T14:59:59.000Z</time>
      </trkpt>
      <trkpt lat="46.19416" lon="-1.3586">
        <ele>13.94036</ele>
        <time>2023-05-30T15:00:00.000Z</time>
      </trkpt>
      <trkpt lat="46.19416" lon="-1.35866">
        <ele>13.97451</ele>
        <time>2023-05-30T15:00:01.000Z</time>
      </trkpt>
      <trkpt lat="46.19416" lon="-1.35873">
        <ele>14.01539</ele>
        <time>2023-05-30T15:00:02.000Z</time>
      </trkpt>
      <trkpt lat="46.19415" lon="-1.35879">
        <ele>14.0553</ele>
        <time>2023-05-30T15:00:03.000Z</time>
      </trkpt>
      <trkpt lat="46.19415" lon="-1.35885">
        <ele>14.07458</ele>
        <time>2023-05-30T15:00:04.000Z</time>
      </trkpt>
      <trkpt lat="46.19415" lon="-1.35892">
        <ele>14.07605</ele>
        <time>2023-05-30T15:00:05.000Z</time>
      </trkpt>
      <trkpt lat="46.19415" lon="-1.35899">
        <ele>14.07693</ele>
        <time>2023-05-30T15:00:06.000Z</time>
      </trkpt>
      <trkpt lat="46.19415" lon="-1.35906">
        <ele>14.07857</ele>
        <time>2023-05-30T15:00:07.000Z</time>
      </trkpt>
      <trkpt lat="46.19415" lon="-1.35913">
        <ele>14.11239</ele>
        <time>2023-05-30T15:00:08.000Z</time>
      </trkpt>
      <trkpt lat="46.19415" lon="-1.35919">
        <ele>14.15222</ele>
        <time>2023-05-30T15:00:09.000Z</time>
      </trkpt>
      <trkpt lat="46.19415" lon="-1.35927">
        <ele>14.17545</ele>
        <time>2023-05-30T15:00:10.000Z</time>
      </trkpt>
      <trkpt lat="46.19415" lon="-1.35933">
        <ele>14.17923</ele>
        <time>2023-05-30T15:00:11.000Z</time>
      </trkpt>
      <trkpt lat="46.19415" lon="-1.35941">
        <ele>14.19085</ele>
        <time>2023-05-30T15:00:12.000Z</time>
      </trkpt>
      <trkpt lat="46.19415" lon="-1.35947">
        <ele>14.18631</ele>
        <time>2023-05-30T15:00:13.000Z</time>
      </trkpt>
      <trkpt lat="46.19416" lon="-1.35954">
        <ele>14.16078</ele>
        <time>2023-05-30T15:00:14.000Z</time>
      </trkpt>
      <trkpt lat="46.19416" lon="-1.35961">
        <ele>14.13527</ele>
        <time>2023-05-30T15:00:15.000Z</time>
      </trkpt>
      <trkpt lat="46.19416" lon="-1.35969">
        <ele>14.09738</ele>
        <time>2023-05-30T15:00:16.000Z</time>
      </trkpt>
      <trkpt lat="46.19417" lon="-1.35976">
        <ele>14.076</ele>
        <time>2023-05-30T15:00:17.000Z</time>
      </trkpt>
      <trkpt lat="46.19417" lon="-1.35984">
        <ele>14.05497</ele>
        <time>2023-05-30T15:00:18.000Z</time>
      </trkpt>
      <trkpt lat="46.19418" lon="-1.35992">
        <ele>14.05874</ele>
        <time>2023-05-30T15:00:19.000Z</time>
      </trkpt>
      <trkpt lat="46.19418" lon="-1.35999">
        <ele>14.0696</ele>
        <time>2023-05-30T15:00:20.000Z</time>
      </trkpt>
      <trkpt lat="46.19418" lon="-1.36007">
        <ele>14.06349</ele>
        <time>2023-05-30T15:00:21.000Z</time>
      </trkpt>
      <trkpt lat="46.19418" lon="-1.36015">
        <ele>14.08447</ele>
        <time>2023-05-30T15:00:22.000Z</time>
      </trkpt>
      <trkpt lat="46.19418" lon="-1.36022">
        <ele>14.1187</ele>
        <time>2023-05-30T15:00:23.000Z</time>
      </trkpt>
      <trkpt lat="46.19418" lon="-1.36031">
        <ele>14.01268</ele>
        <time>2023-05-30T15:00:24.000Z</time>
      </trkpt>
      <trkpt lat="46.19419" lon="-1.36037">
        <ele>13.9056</ele>
        <time>2023-05-30T15:00:25.000Z</time>
      </trkpt>
      <trkpt lat="46.19419" lon="-1.36045">
        <ele>13.78309</ele>
        <time>2023-05-30T15:00:26.000Z</time>
      </trkpt>
      <trkpt lat="46.1942" lon="-1.36052">
        <ele>13.83972</ele>
        <time>2023-05-30T15:00:27.000Z</time>
      </trkpt>
      <trkpt lat="46.1942" lon="-1.3606">
        <ele>13.85071</ele>
        <time>2023-05-30T15:00:28.000Z</time>
      </trkpt>
      <trkpt lat="46.1942" lon="-1.36068">
        <ele>13.86243</ele>
        <time>2023-05-30T15:00:29.000Z</time>
      </trkpt>
      <trkpt lat="46.1942" lon="-1.36075">
        <ele>13.88236</ele>
        <time>2023-05-30T15:00:30.000Z</time>
      </trkpt>
      <trkpt lat="46.1942" lon="-1.36083">
        <ele>13.91014</ele>
        <time>2023-05-30T15:00:31.000Z</time>
      </trkpt>
      <trkpt lat="46.19421" lon="-1.3609">
        <ele>13.93296</ele>
        <time>2023-05-30T15:00:32.000Z</time>
      </trkpt>
      <trkpt lat="46.1942" lon="-1.36098">
        <ele>13.96004</ele>
        <time>2023-05-30T15:00:33.000Z</time>
      </trkpt>
      <trkpt lat="46.1942" lon="-1.36105">
        <ele>14.00609</ele>
        <time>2023-05-30T15:00:34.000Z</time>
      </trkpt>
      <trkpt lat="46.1942" lon="-1.36113">
        <ele>14.01732</ele>
        <time>2023-05-30T15:00:35.000Z</time>
      </trkpt>
      <trkpt lat="46.19419" lon="-1.36121">
        <ele>14.01271</ele>
        <time>2023-05-30T15:00:36.000Z</time>
      </trkpt>
      <trkpt lat="46.19419" lon="-1.36129">
        <ele>14.00854</ele>
        <time>2023-05-30T15:00:37.000Z</time>
      </trkpt>
      <trkpt lat="46.19418" lon="-1.36137">
        <ele>14.00698</ele>
        <time>2023-05-30T15:00:38.000Z</time>
      </trkpt>
      <trkpt lat="46.19418" lon="-1.36146">
        <ele>13.98933</ele>
        <time>2023-05-30T15:00:39.000Z</time>
      </trkpt>
      <trkpt lat="46.19418" lon="-1.36154">
        <ele>13.95955</ele>
        <time>2023-05-30T15:00:40.000Z</time>
      </trkpt>
      <trkpt lat="46.19417" lon="-1.36162">
        <ele>13.91156</ele>
        <time>2023-05-30T15:00:41.000Z</time>
      </trkpt>
      <trkpt lat="46.19417" lon="-1.3617">
        <ele>13.8604</ele>
        <time>2023-05-30T15:00:42.000Z</time>
      </trkpt>
      <trkpt lat="46.19417" lon="-1.36177">
        <ele>13.70242</ele>
        <time>2023-05-30T15:00:43.000Z</time>
      </trkpt>
      <trkpt lat="46.19417" lon="-1.36186">
        <ele>13.67903</ele>
        <time>2023-05-30T15:00:44.000Z</time>
      </trkpt>
      <trkpt lat="46.19418" lon="-1.36193">
        <ele>13.82218</ele>
        <time>2023-05-30T15:00:45.000Z</time>
      </trkpt>
      <trkpt lat="46.19418" lon="-1.36201">
        <ele>13.95416</ele>
        <time>2023-05-30T15:00:46.000Z</time>
      </trkpt>
      <trkpt lat="46.19419" lon="-1.3621">
        <ele>13.89843</ele>
        <time>2023-05-30T15:00:47.000Z</time>
      </trkpt>
      <trkpt lat="46.19419" lon="-1.36219">
        <ele>13.87747</ele>
        <time>2023-05-30T15:00:48.000Z</time>
      </trkpt>
      <trkpt lat="46.19418" lon="-1.36227">
        <ele>13.84306</ele>
        <time>2023-05-30T15:00:49.000Z</time>
      </trkpt>
      <trkpt lat="46.19418" lon="-1.36233">
        <ele>13.79609</ele>
        <time>2023-05-30T15:00:50.000Z</time>
      </trkpt>
      <trkpt lat="46.19418" lon="-1.36242">
        <ele>13.75744</ele>
        <time>2023-05-30T15:00:51.000Z</time>
      </trkpt>
      <trkpt lat="46.19418" lon="-1.36249">
        <ele>13.72253</ele>
        <time>2023-05-30T15:00:52.000Z</time>
      </trkpt>
      <trkpt lat="46.19417" lon="-1.36258">
        <ele>13.68462</ele>
        <time>2023-05-30T15:00:53.000Z</time>
      </trkpt>
      <trkpt lat="46.19417" lon="-1.36266">
        <ele>13.64089</ele>
        <time>2023-05-30T15:00:54.000Z</time>
      </trkpt>
      <trkpt lat="46.19416" lon="-1.36275">
        <ele>13.63592</ele>
        <time>2023-05-30T15:00:55.000Z</time>
      </trkpt>
      <trkpt lat="46.19416" lon="-1.36283">
        <ele>13.63361</ele>
        <time>2023-05-30T15:00:56.000Z</time>
      </trkpt>
      <trkpt lat="46.19416" lon="-1.36292">
        <ele>13.6413</ele>
        <time>2023-05-30T15:00:57.000Z</time>
      </trkpt>
      <trkpt lat="46.19415" lon="-1.363">
        <ele>13.65304</ele>
        <time>2023-05-30T15:00:58.000Z</time>
      </trkpt>
      <trkpt lat="46.19414" lon="-1.36308">
        <ele>13.65828</ele>
        <time>2023-05-30T15:00:59.000Z</time>
      </trkpt>
      <trkpt lat="46.19414" lon="-1.36316">
        <ele>13.67861</ele>
        <time>2023-05-30T15:01:00.000Z</time>
      </trkpt>
      <trkpt lat="46.19413" lon="-1.36324">
        <ele>13.70715</ele>
        <time>2023-05-30T15:01:01.000Z</time>
      </trkpt>
      <trkpt lat="46.19412" lon="-1.36332">
        <ele>13.75041</ele>
        <time>2023-05-30T15:01:02.000Z</time>
      </trkpt>
      <trkpt lat="46.19411" lon="-1.36341">
        <ele>13.77065</ele>
        <time>2023-05-30T15:01:03.000Z</time>
      </trkpt>
      <trkpt lat="46.1941" lon="-1.36349">
        <ele>13.81526</ele>
        <time>2023-05-30T15:01:04.000Z</time>
      </trkpt>
      <trkpt lat="46.19408" lon="-1.36358">
        <ele>13.68923</ele>
        <time>2023-05-30T15:01:05.000Z</time>
      </trkpt>
      <trkpt lat="46.19407" lon="-1.36366">
        <ele>13.58959</ele>
        <time>2023-05-30T15:01:06.000Z</time>
      </trkpt>
      <trkpt lat="46.19406" lon="-1.36375">
        <ele>13.45216</ele>
        <time>2023-05-30T15:01:07.000Z</time>
      </trkpt>
      <trkpt lat="46.19405" lon="-1.36383">
        <ele>13.46576</ele>
        <time>2023-05-30T15:01:08.000Z</time>
      </trkpt>
      <trkpt lat="46.19403" lon="-1.36391">
        <ele>13.4553</ele>
        <time>2023-05-30T15:01:09.000Z</time>
      </trkpt>
      <trkpt lat="46.19402" lon="-1.36399">
        <ele>13.45026</ele>
        <time>2023-05-30T15:01:10.000Z</time>
      </trkpt>
      <trkpt lat="46.19401" lon="-1.36408">
        <ele>13.4254</ele>
        <time>2023-05-30T15:01:11.000Z</time>
      </trkpt>
      <trkpt lat="46.19399" lon="-1.36416">
        <ele>13.39111</ele>
        <time>2023-05-30T15:01:12.000Z</time>
      </trkpt>
      <trkpt lat="46.19398" lon="-1.36424">
        <ele>13.34394</ele>
        <time>2023-05-30T15:01:13.000Z</time>
      </trkpt>
      <trkpt lat="46.19397" lon="-1.36433">
        <ele>13.28628</ele>
        <time>2023-05-30T15:01:14.000Z</time>
      </trkpt>
      <trkpt lat="46.19397" lon="-1.36442">
        <ele>13.20554</ele>
        <time>2023-05-30T15:01:15.000Z</time>
      </trkpt>
      <trkpt lat="46.19395" lon="-1.3645">
        <ele>13.14909</ele>
        <time>2023-05-30T15:01:16.000Z</time>
      </trkpt>
      <trkpt lat="46.19394" lon="-1.36459">
        <ele>13.0758</ele>
        <time>2023-05-30T15:01:17.000Z</time>
      </trkpt>
      <trkpt lat="46.19394" lon="-1.36468">
        <ele>12.97513</ele>
        <time>2023-05-30T15:01:18.000Z</time>
      </trkpt>
      <trkpt lat="46.19393" lon="-1.36476">
        <ele>12.88247</ele>
        <time>2023-05-30T15:01:19.000Z</time>
      </trkpt>
      <trkpt lat="46.19393" lon="-1.36484">
        <ele>12.78607</ele>
        <time>2023-05-30T15:01:20.000Z</time>
      </trkpt>
      <trkpt lat="46.19392" lon="-1.36494">
        <ele>12.7063</ele>
        <time>2023-05-30T15:01:21.000Z</time>
      </trkpt>
      <trkpt lat="46.19392" lon="-1.36502">
        <ele>12.57939</ele>
        <time>2023-05-30T15:01:22.000Z</time>
      </trkpt>
      <trkpt lat="46.19391" lon="-1.3651">
        <ele>12.57359</ele>
        <time>2023-05-30T15:01:23.000Z</time>
      </trkpt>
      <trkpt lat="46.1939" lon="-1.36519">
        <ele>12.47358</ele>
        <time>2023-05-30T15:01:24.000Z</time>
      </trkpt>
      <trkpt lat="46.19389" lon="-1.36527">
        <ele>12.37889</ele>
        <time>2023-05-30T15:01:25.000Z</time>
      </trkpt>
      <trkpt lat="46.19389" lon="-1.36536">
        <ele>12.29888</ele>
        <time>2023-05-30T15:01:26.000Z</time>
      </trkpt>
      <trkpt lat="46.19389" lon="-1.36543">
        <ele>12.2558</ele>
        <time>2023-05-30T15:01:27.000Z</time>
      </trkpt>
      <trkpt lat="46.19389" lon="-1.3655">
        <ele>12.20056</ele>
        <time>2023-05-30T15:01:28.000Z</time>
      </trkpt>
      <trkpt lat="46.19388" lon="-1.36556">
        <ele>12.16782</ele>
        <time>2023-05-30T15:01:29.000Z</time>
      </trkpt>
      <trkpt lat="46.19388" lon="-1.36563">
        <ele>12.15911</ele>
        <time>2023-05-30T15:01:30.000Z</time>
      </trkpt>
      <trkpt lat="46.19388" lon="-1.3657">
        <ele>12.16241</ele>
        <time>2023-05-30T15:01:31.000Z</time>
      </trkpt>
      <trkpt lat="46.19388" lon="-1.36578">
        <ele>12.15438</ele>
        <time>2023-05-30T15:01:32.000Z</time>
      </trkpt>
      <trkpt lat="46.19389" lon="-1.36585">
        <ele>12.14317</ele>
        <time>2023-05-30T15:01:33.000Z</time>
      </trkpt>
      <trkpt lat="46.19391" lon="-1.36593">
        <ele>12.14858</ele>
        <time>2023-05-30T15:01:34.000Z</time>
      </trkpt>
      <trkpt lat="46.19391" lon="-1.36601">
        <ele>12.15856</ele>
        <time>2023-05-30T15:01:35.000Z</time>
      </trkpt>
      <trkpt lat="46.19391" lon="-1.36608">
        <ele>12.18163</ele>
        <time>2023-05-30T15:01:36.000Z</time>
      </trkpt>
      <trkpt lat="46.19389" lon="-1.36616">
        <ele>12.23657</ele>
        <time>2023-05-30T15:01:37.000Z</time>
      </trkpt>
      <trkpt lat="46.19389" lon="-1.36625">
        <ele>12.30274</ele>
        <time>2023-05-30T15:01:38.000Z</time>
      </trkpt>
      <trkpt lat="46.19389" lon="-1.36633">
        <ele>12.39063</ele>
        <time>2023-05-30T15:01:39.000Z</time>
      </trkpt>
      <trkpt lat="46.19389" lon="-1.36642">
        <ele>12.50078</ele>
        <time>2023-05-30T15:01:40.000Z</time>
      </trkpt>
      <trkpt lat="46.19389" lon="-1.3665">
        <ele>12.61983</ele>
        <time>2023-05-30T15:01:41.000Z</time>
      </trkpt>
      <trkpt lat="46.19389" lon="-1.36658">
        <ele>12.73578</ele>
        <time>2023-05-30T15:01:42.000Z</time>
      </trkpt>
      <trkpt lat="46.1939" lon="-1.36666">
        <ele>12.86904</ele>
        <time>2023-05-30T15:01:43.000Z</time>
      </trkpt>
      <trkpt lat="46.19389" lon="-1.36674">
        <ele>13.06969</ele>
        <time>2023-05-30T15:01:44.000Z</time>
      </trkpt>
      <trkpt lat="46.19389" lon="-1.36681">
        <ele>13.18886</ele>
        <time>2023-05-30T15:01:45.000Z</time>
      </trkpt>
      <trkpt lat="46.19388" lon="-1.3669">
        <ele>13.28303</ele>
        <time>2023-05-30T15:01:46.000Z</time>
      </trkpt>
      <trkpt lat="46.19388" lon="-1.36698">
        <ele>13.36717</ele>
        <time>2023-05-30T15:01:47.000Z</time>
      </trkpt>
      <trkpt lat="46.19387" lon="-1.36707">
        <ele>13.28093</ele>
        <time>2023-05-30T15:01:48.000Z</time>
      </trkpt>
      <trkpt lat="46.19387" lon="-1.36715">
        <ele>13.21025</ele>
        <time>2023-05-30T15:01:49.000Z</time>
      </trkpt>
      <trkpt lat="46.19386" lon="-1.36723">
        <ele>13.26872</ele>
        <time>2023-05-30T15:01:50.000Z</time>
      </trkpt>
      <trkpt lat="46.19386" lon="-1.36732">
        <ele>13.31709</ele>
        <time>2023-05-30T15:01:51.000Z</time>
      </trkpt>
      <trkpt lat="46.19386" lon="-1.3674">
        <ele>13.36969</ele>
        <time>2023-05-30T15:01:52.000Z</time>
      </trkpt>
      <trkpt lat="46.19386" lon="-1.36749">
        <ele>13.42816</ele>
        <time>2023-05-30T15:01:53.000Z</time>
      </trkpt>
      <trkpt lat="46.19385" lon="-1.36759">
        <ele>13.46255</ele>
        <time>2023-05-30T15:01:54.000Z</time>
      </trkpt>
      <trkpt lat="46.19385" lon="-1.36767">
        <ele>13.53243</ele>
        <time>2023-05-30T15:01:55.000Z</time>
      </trkpt>
      <trkpt lat="46.19385" lon="-1.36776">
        <ele>13.59171</ele>
        <time>2023-05-30T15:01:56.000Z</time>
      </trkpt>
      <trkpt lat="46.19384" lon="-1.36784">
        <ele>13.62907</ele>
        <time>2023-05-30T15:01:57.000Z</time>
      </trkpt>
      <trkpt lat="46.19383" lon="-1.36793">
        <ele>13.65193</ele>
        <time>2023-05-30T15:01:58.000Z</time>
      </trkpt>
      <trkpt lat="46.19382" lon="-1.36802">
        <ele>13.55046</ele>
        <time>2023-05-30T15:01:59.000Z</time>
      </trkpt>
      <trkpt lat="46.19381" lon="-1.3681">
        <ele>13.40961</ele>
        <time>2023-05-30T15:02:00.000Z</time>
      </trkpt>
      <trkpt lat="46.1938" lon="-1.36818">
        <ele>13.23825</ele>
        <time>2023-05-30T15:02:01.000Z</time>
      </trkpt>
      <trkpt lat="46.1938" lon="-1.36825">
        <ele>13.09561</ele>
        <time>2023-05-30T15:02:02.000Z</time>
      </trkpt>
      <trkpt lat="46.19379" lon="-1.36832">
        <ele>13.08291</ele>
        <time>2023-05-30T15:02:03.000Z</time>
      </trkpt>
      <trkpt lat="46.19379" lon="-1.3684">
        <ele>13.05049</ele>
        <time>2023-05-30T15:02:04.000Z</time>
      </trkpt>
      <trkpt lat="46.19378" lon="-1.36849">
        <ele>13.11917</ele>
        <time>2023-05-30T15:02:05.000Z</time>
      </trkpt>
      <trkpt lat="46.19377" lon="-1.36856">
        <ele>13.2124</ele>
        <time>2023-05-30T15:02:06.000Z</time>
      </trkpt>
      <trkpt lat="46.19377" lon="-1.36864">
        <ele>13.31529</ele>
        <time>2023-05-30T15:02:07.000Z</time>
      </trkpt>
      <trkpt lat="46.19377" lon="-1.36872">
        <ele>13.4292</ele>
        <time>2023-05-30T15:02:08.000Z</time>
      </trkpt>
      <trkpt lat="46.19376" lon="-1.3688">
        <ele>13.54998</ele>
        <time>2023-05-30T15:02:09.000Z</time>
      </trkpt>
      <trkpt lat="46.19375" lon="-1.36887">
        <ele>13.50936</ele>
        <time>2023-05-30T15:02:10.000Z</time>
      </trkpt>
      <trkpt lat="46.19374" lon="-1.36893">
        <ele>13.44746</ele>
        <time>2023-05-30T15:02:11.000Z</time>
      </trkpt>
      <trkpt lat="46.19373" lon="-1.36899">
        <ele>13.41962</ele>
        <time>2023-05-30T15:02:12.000Z</time>
      </trkpt>
      <trkpt lat="46.19373" lon="-1.36905">
        <ele>13.40593</ele>
        <time>2023-05-30T15:02:13.000Z</time>
      </trkpt>
      <trkpt lat="46.19374" lon="-1.36911">
        <ele>13.40469</ele>
        <time>2023-05-30T15:02:14.000Z</time>
      </trkpt>
      <trkpt lat="46.19375" lon="-1.36915">
        <ele>13.38314</ele>
        <time>2023-05-30T15:02:15.000Z</time>
      </trkpt>
      <trkpt lat="46.19376" lon="-1.3692">
        <ele>13.33078</ele>
        <time>2023-05-30T15:02:16.000Z</time>
      </trkpt>
      <trkpt lat="46.19374" lon="-1.36925">
        <ele>13.28136</ele>
        <time>2023-05-30T15:02:17.000Z</time>
      </trkpt>
      <trkpt lat="46.19372" lon="-1.36928">
        <ele>13.2471</ele>
        <time>2023-05-30T15:02:18.000Z</time>
      </trkpt>
      <trkpt lat="46.1937" lon="-1.36931">
        <ele>13.31717</ele>
        <time>2023-05-30T15:02:19.000Z</time>
      </trkpt>
      <trkpt lat="46.19368" lon="-1.36933">
        <ele>13.38057</ele>
        <time>2023-05-30T15:02:20.000Z</time>
      </trkpt>
      <trkpt lat="46.19366" lon="-1.36937">
        <ele>13.45279</ele>
        <time>2023-05-30T15:02:21.000Z</time>
      </trkpt>
      <trkpt lat="46.19364" lon="-1.3694">
        <ele>13.52513</ele>
        <time>2023-05-30T15:02:22.000Z</time>
      </trkpt>
      <trkpt lat="46.19362" lon="-1.36944">
        <ele>13.45178</ele>
        <time>2023-05-30T15:02:23.000Z</time>
      </trkpt>
      <trkpt lat="46.19361" lon="-1.36948">
        <ele>13.40181</ele>
        <time>2023-05-30T15:02:24.000Z</time>
      </trkpt>
      <trkpt lat="46.19359" lon="-1.36953">
        <ele>13.33821</ele>
        <time>2023-05-30T15:02:25.000Z</time>
      </trkpt>
      <trkpt lat="46.19359" lon="-1.36957">
        <ele>13.2554</ele>
        <time>2023-05-30T15:02:26.000Z</time>
      </trkpt>
      <trkpt lat="46.1936" lon="-1.3696">
        <ele>13.18363</ele>
        <time>2023-05-30T15:02:27.000Z</time>
      </trkpt>
      <trkpt lat="46.19361" lon="-1.36963">
        <ele>13.1084</ele>
        <time>2023-05-30T15:02:28.000Z</time>
      </trkpt>
      <trkpt lat="46.19362" lon="-1.36966">
        <ele>13.02213</ele>
        <time>2023-05-30T15:02:29.000Z</time>
      </trkpt>
      <trkpt lat="46.19364" lon="-1.36968">
        <ele>12.95215</ele>
        <time>2023-05-30T15:02:30.000Z</time>
      </trkpt>
      <trkpt lat="46.19365" lon="-1.3697">
        <ele>12.91584</ele>
        <time>2023-05-30T15:02:31.000Z</time>
      </trkpt>
      <trkpt lat="46.19367" lon="-1.36973">
        <ele>12.84184</ele>
        <time>2023-05-30T15:02:32.000Z</time>
      </trkpt>
      <trkpt lat="46.19369" lon="-1.36975">
        <ele>12.67704</ele>
        <time>2023-05-30T15:02:33.000Z</time>
      </trkpt>
      <trkpt lat="46.1937" lon="-1.36979">
        <ele>12.51374</ele>
        <time>2023-05-30T15:02:34.000Z</time>
      </trkpt>
      <trkpt lat="46.19371" lon="-1.36983">
        <ele>12.34553</ele>
        <time>2023-05-30T15:02:35.000Z</time>
      </trkpt>
      <trkpt lat="46.1937" lon="-1.36987">
        <ele>12.18834</ele>
        <time>2023-05-30T15:02:36.000Z</time>
      </trkpt>
      <trkpt lat="46.19369" lon="-1.3699">
        <ele>12.0202</ele>
        <time>2023-05-30T15:02:37.000Z</time>
      </trkpt>
      <trkpt lat="46.19368" lon="-1.36994">
        <ele>11.84139</ele>
        <time>2023-05-30T15:02:38.000Z</time>
      </trkpt>
      <trkpt lat="46.19366" lon="-1.36997">
        <ele>11.79501</ele>
        <time>2023-05-30T15:02:39.000Z</time>
      </trkpt>
      <trkpt lat="46.19365" lon="-1.37001">
        <ele>11.74505</ele>
        <time>2023-05-30T15:02:40.000Z</time>
      </trkpt>
      <trkpt lat="46.19364" lon="-1.37005">
        <ele>11.7018</ele>
        <time>2023-05-30T15:02:41.000Z</time>
      </trkpt>
      <trkpt lat="46.19362" lon="-1.3701">
        <ele>11.65187</ele>
        <time>2023-05-30T15:02:42.000Z</time>
      </trkpt>
      <trkpt lat="46.19361" lon="-1.37015">
        <ele>11.60102</ele>
        <time>2023-05-30T15:02:43.000Z</time>
      </trkpt>
      <trkpt lat="46.19361" lon="-1.37021">
        <ele>11.57112</ele>
        <time>2023-05-30T15:02:44.000Z</time>
      </trkpt>
      <trkpt lat="46.19361" lon="-1.37027">
        <ele>11.57259</ele>
        <time>2023-05-30T15:02:45.000Z</time>
      </trkpt>
      <trkpt lat="46.19361" lon="-1.37032">
        <ele>11.6006</ele>
        <time>2023-05-30T15:02:46.000Z</time>
      </trkpt>
      <trkpt lat="46.1936" lon="-1.37038">
        <ele>11.63755</ele>
        <time>2023-05-30T15:02:47.000Z</time>
      </trkpt>
      <trkpt lat="46.19359" lon="-1.37044">
        <ele>11.69221</ele>
        <time>2023-05-30T15:02:48.000Z</time>
      </trkpt>
      <trkpt lat="46.19356" lon="-1.37049">
        <ele>11.73662</ele>
        <time>2023-05-30T15:02:49.000Z</time>
      </trkpt>
      <trkpt lat="46.19353" lon="-1.37054">
        <ele>11.66654</ele>
        <time>2023-05-30T15:02:50.000Z</time>
      </trkpt>
      <trkpt lat="46.1935" lon="-1.37059">
        <ele>11.56826</ele>
        <time>2023-05-30T15:02:51.000Z</time>
      </trkpt>
      <trkpt lat="46.19348" lon="-1.37063">
        <ele>11.4627</ele>
        <time>2023-05-30T15:02:52.000Z</time>
      </trkpt>
      <trkpt lat="46.19346" lon="-1.37067">
        <ele>11.58583</ele>
        <time>2023-05-30T15:02:53.000Z</time>
      </trkpt>
      <trkpt lat="46.19344" lon="-1.3707">
        <ele>11.69634</ele>
        <time>2023-05-30T15:02:54.000Z</time>
      </trkpt>
      <trkpt lat="46.19343" lon="-1.37073">
        <ele>11.82611</ele>
        <time>2023-05-30T15:02:55.000Z</time>
      </trkpt>
      <trkpt lat="46.19342" lon="-1.37075">
        <ele>11.95051</ele>
        <time>2023-05-30T15:02:56.000Z</time>
      </trkpt>
      <trkpt lat="46.19341" lon="-1.37077">
        <ele>12.07396</ele>
        <time>2023-05-30T15:02:57.000Z</time>
      </trkpt>
      <trkpt lat="46.1934" lon="-1.3708">
        <ele>12.20103</ele>
        <time>2023-05-30T15:02:58.000Z</time>
      </trkpt>
      <trkpt lat="46.19339" lon="-1.37083">
        <ele>12.20803</ele>
        <time>2023-05-30T15:03:00.000Z</time>
      </trkpt>
      <trkpt lat="46.19338" lon="-1.37086">
        <ele>12.22266</ele>
        <time>2023-05-30T15:03:03.000Z</time>
      </trkpt>
      <trkpt lat="46.19336" lon="-1.37089">
        <ele>12.26616</ele>
        <time>2023-05-30T15:03:37.000Z</time>
      </trkpt>
      <trkpt lat="46.19335" lon="-1.37094">
        <ele>12.3109</ele>
        <time>2023-05-30T15:03:39.000Z</time>
      </trkpt>
      <trkpt lat="46.19335" lon="-1.37098">
        <ele>12.34312</ele>
        <time>2023-05-30T15:03:40.000Z</time>
      </trkpt>
      <trkpt lat="46.19334" lon="-1.37101">
        <ele>12.35545</ele>
        <time>2023-05-30T15:03:41.000Z</time>
      </trkpt>
      <trkpt lat="46.19333" lon="-1.37105">
        <ele>12.32942</ele>
        <time>2023-05-30T15:03:42.000Z</time>
      </trkpt>
      <trkpt lat="46.19332" lon="-1.37109">
        <ele>12.28757</ele>
        <time>2023-05-30T15:03:43.000Z</time>
      </trkpt>
      <trkpt lat="46.19331" lon="-1.37114">
        <ele>12.23255</ele>
        <time>2023-05-30T15:03:44.000Z</time>
      </trkpt>
      <trkpt lat="46.1933" lon="-1.37118">
        <ele>12.16705</ele>
        <time>2023-05-30T15:03:45.000Z</time>
      </trkpt>
      <trkpt lat="46.19329" lon="-1.37123">
        <ele>12.11697</ele>
        <time>2023-05-30T15:03:46.000Z</time>
      </trkpt>
      <trkpt lat="46.19328" lon="-1.37128">
        <ele>12.16757</ele>
        <time>2023-05-30T15:03:47.000Z</time>
      </trkpt>
      <trkpt lat="46.19327" lon="-1.37133">
        <ele>12.24799</ele>
        <time>2023-05-30T15:03:48.000Z</time>
      </trkpt>
      <trkpt lat="46.19326" lon="-1.37138">
        <ele>12.35122</ele>
        <time>2023-05-30T15:03:49.000Z</time>
      </trkpt>
      <trkpt lat="46.19325" lon="-1.37143">
        <ele>12.3188</ele>
        <time>2023-05-30T15:03:50.000Z</time>
      </trkpt>
      <trkpt lat="46.19324" lon="-1.37149">
        <ele>12.30139</ele>
        <time>2023-05-30T15:03:51.000Z</time>
      </trkpt>
      <trkpt lat="46.19323" lon="-1.37155">
        <ele>12.23159</ele>
        <time>2023-05-30T15:03:52.000Z</time>
      </trkpt>
      <trkpt lat="46.19321" lon="-1.37161">
        <ele>12.18081</ele>
        <time>2023-05-30T15:03:53.000Z</time>
      </trkpt>
      <trkpt lat="46.1932" lon="-1.37167">
        <ele>12.15289</ele>
        <time>2023-05-30T15:03:54.000Z</time>
      </trkpt>
      <trkpt lat="46.19319" lon="-1.37173">
        <ele>12.13771</ele>
        <time>2023-05-30T15:03:55.000Z</time>
      </trkpt>
      <trkpt lat="46.19318" lon="-1.37179">
        <ele>12.11437</ele>
        <time>2023-05-30T15:03:56.000Z</time>
      </trkpt>
      <trkpt lat="46.19317" lon="-1.37185">
        <ele>12.09376</ele>
        <time>2023-05-30T15:03:57.000Z</time>
      </trkpt>
      <trkpt lat="46.19316" lon="-1.37191">
        <ele>12.04358</ele>
        <time>2023-05-30T15:03:58.000Z</time>
      </trkpt>
      <trkpt lat="46.19315" lon="-1.37199">
        <ele>12.00662</ele>
        <time>2023-05-30T15:03:59.000Z</time>
      </trkpt>
      <trkpt lat="46.19314" lon="-1.37205">
        <ele>11.951</ele>
        <time>2023-05-30T15:04:00.000Z</time>
      </trkpt>
      <trkpt lat="46.19313" lon="-1.37212">
        <ele>11.89438</ele>
        <time>2023-05-30T15:04:01.000Z</time>
      </trkpt>
      <trkpt lat="46.19311" lon="-1.37219">
        <ele>11.83861</ele>
        <time>2023-05-30T15:04:02.000Z</time>
      </trkpt>
      <trkpt lat="46.1931" lon="-1.37226">
        <ele>11.8036</ele>
        <time>2023-05-30T15:04:03.000Z</time>
      </trkpt>
      <trkpt lat="46.19309" lon="-1.37233">
        <ele>11.77065</ele>
        <time>2023-05-30T15:04:04.000Z</time>
      </trkpt>
      <trkpt lat="46.19308" lon="-1.37241">
        <ele>11.74354</ele>
        <time>2023-05-30T15:04:05.000Z</time>
      </trkpt>
      <trkpt lat="46.19307" lon="-1.37248">
        <ele>11.70162</ele>
        <time>2023-05-30T15:04:06.000Z</time>
      </trkpt>
      <trkpt lat="46.19305" lon="-1.37255">
        <ele>11.6636</ele>
        <time>2023-05-30T15:04:07.000Z</time>
      </trkpt>
      <trkpt lat="46.19304" lon="-1.37264">
        <ele>11.60282</ele>
        <time>2023-05-30T15:04:08.000Z</time>
      </trkpt>
      <trkpt lat="46.19303" lon="-1.37271">
        <ele>11.53554</ele>
        <time>2023-05-30T15:04:09.000Z</time>
      </trkpt>
      <trkpt lat="46.19302" lon="-1.37279">
        <ele>11.46714</ele>
        <time>2023-05-30T15:04:10.000Z</time>
      </trkpt>
      <trkpt lat="46.193" lon="-1.37286">
        <ele>11.40687</ele>
        <time>2023-05-30T15:04:11.000Z</time>
      </trkpt>
      <trkpt lat="46.19299" lon="-1.37293">
        <ele>11.5063</ele>
        <time>2023-05-30T15:04:12.000Z</time>
      </trkpt>
      <trkpt lat="46.19297" lon="-1.37301">
        <ele>11.61478</ele>
        <time>2023-05-30T15:04:13.000Z</time>
      </trkpt>
      <trkpt lat="46.19296" lon="-1.37308">
        <ele>11.70943</ele>
        <time>2023-05-30T15:04:14.000Z</time>
      </trkpt>
      <trkpt lat="46.19295" lon="-1.37316">
        <ele>11.67989</ele>
        <time>2023-05-30T15:04:15.000Z</time>
      </trkpt>
      <trkpt lat="46.19294" lon="-1.37323">
        <ele>11.6384</ele>
        <time>2023-05-30T15:04:16.000Z</time>
      </trkpt>
      <trkpt lat="46.19292" lon="-1.3733">
        <ele>11.59535</ele>
        <time>2023-05-30T15:04:17.000Z</time>
      </trkpt>
      <trkpt lat="46.19291" lon="-1.37336">
        <ele>11.54999</ele>
        <time>2023-05-30T15:04:18.000Z</time>
      </trkpt>
      <trkpt lat="46.1929" lon="-1.37342">
        <ele>11.48672</ele>
        <time>2023-05-30T15:04:19.000Z</time>
      </trkpt>
      <trkpt lat="46.19289" lon="-1.37347">
        <ele>11.46629</ele>
        <time>2023-05-30T15:04:20.000Z</time>
      </trkpt>
      <trkpt lat="46.19288" lon="-1.37353">
        <ele>11.44842</ele>
        <time>2023-05-30T15:04:21.000Z</time>
      </trkpt>
      <trkpt lat="46.19287" lon="-1.37359">
        <ele>11.43516</ele>
        <time>2023-05-30T15:04:22.000Z</time>
      </trkpt>
      <trkpt lat="46.19286" lon="-1.37365">
        <ele>11.40472</ele>
        <time>2023-05-30T15:04:23.000Z</time>
      </trkpt>
      <trkpt lat="46.19284" lon="-1.3737">
        <ele>11.37321</ele>
        <time>2023-05-30T15:04:24.000Z</time>
      </trkpt>
      <trkpt lat="46.19283" lon="-1.37376">
        <ele>11.35705</ele>
        <time>2023-05-30T15:04:25.000Z</time>
      </trkpt>
      <trkpt lat="46.19284" lon="-1.37381">
        <ele>11.35346</ele>
        <time>2023-05-30T15:04:26.000Z</time>
      </trkpt>
      <trkpt lat="46.19285" lon="-1.37386">
        <ele>11.35903</ele>
        <time>2023-05-30T15:04:27.000Z</time>
      </trkpt>
      <trkpt lat="46.19286" lon="-1.3739">
        <ele>11.26476</ele>
        <time>2023-05-30T15:04:28.000Z</time>
      </trkpt>
      <trkpt lat="46.19288" lon="-1.37393">
        <ele>11.34573</ele>
        <time>2023-05-30T15:04:29.000Z</time>
      </trkpt>
      <trkpt lat="46.19289" lon="-1.37397">
        <ele>11.42736</ele>
        <time>2023-05-30T15:04:30.000Z</time>
      </trkpt>
      <trkpt lat="46.1929" lon="-1.37401">
        <ele>11.50183</ele>
        <time>2023-05-30T15:04:31.000Z</time>
      </trkpt>
      <trkpt lat="46.19291" lon="-1.37407">
        <ele>11.43894</ele>
        <time>2023-05-30T15:04:32.000Z</time>
      </trkpt>
      <trkpt lat="46.19291" lon="-1.37412">
        <ele>11.39214</ele>
        <time>2023-05-30T15:04:33.000Z</time>
      </trkpt>
      <trkpt lat="46.19291" lon="-1.37418">
        <ele>11.2143</ele>
        <time>2023-05-30T15:04:34.000Z</time>
      </trkpt>
      <trkpt lat="46.1929" lon="-1.37424">
        <ele>11.14579</ele>
        <time>2023-05-30T15:04:35.000Z</time>
      </trkpt>
      <trkpt lat="46.19289" lon="-1.3743">
        <ele>11.07855</ele>
        <time>2023-05-30T15:04:36.000Z</time>
      </trkpt>
      <trkpt lat="46.19288" lon="-1.37435">
        <ele>11.04065</ele>
        <time>2023-05-30T15:04:37.000Z</time>
      </trkpt>
      <trkpt lat="46.19287" lon="-1.37441">
        <ele>11.01252</ele>
        <time>2023-05-30T15:04:38.000Z</time>
      </trkpt>
      <trkpt lat="46.19285" lon="-1.37447">
        <ele>10.96198</ele>
        <time>2023-05-30T15:04:39.000Z</time>
      </trkpt>
      <trkpt lat="46.19284" lon="-1.37453">
        <ele>10.91099</ele>
        <time>2023-05-30T15:04:40.000Z</time>
      </trkpt>
      <trkpt lat="46.19283" lon="-1.37459">
        <ele>10.86501</ele>
        <time>2023-05-30T15:04:41.000Z</time>
      </trkpt>
      <trkpt lat="46.19281" lon="-1.37464">
        <ele>10.83199</ele>
        <time>2023-05-30T15:04:42.000Z</time>
      </trkpt>
      <trkpt lat="46.1928" lon="-1.3747">
        <ele>10.78707</ele>
        <time>2023-05-30T15:04:43.000Z</time>
      </trkpt>
      <trkpt lat="46.19278" lon="-1.37475">
        <ele>10.73282</ele>
        <time>2023-05-30T15:04:44.000Z</time>
      </trkpt>
      <trkpt lat="46.19277" lon="-1.37481">
        <ele>10.67087</ele>
        <time>2023-05-30T15:04:45.000Z</time>
      </trkpt>
      <trkpt lat="46.19275" lon="-1.37487">
        <ele>10.61665</ele>
        <time>2023-05-30T15:04:46.000Z</time>
      </trkpt>
      <trkpt lat="46.19274" lon="-1.37493">
        <ele>10.55458</ele>
        <time>2023-05-30T15:04:47.000Z</time>
      </trkpt>
      <trkpt lat="46.19273" lon="-1.375">
        <ele>10.61977</ele>
        <time>2023-05-30T15:04:48.000Z</time>
      </trkpt>
      <trkpt lat="46.19271" lon="-1.37505">
        <ele>10.51227</ele>
        <time>2023-05-30T15:04:49.000Z</time>
      </trkpt>
      <trkpt lat="46.19269" lon="-1.37511">
        <ele>10.41745</ele>
        <time>2023-05-30T15:04:50.000Z</time>
      </trkpt>
      <trkpt lat="46.19268" lon="-1.37517">
        <ele>10.3295</ele>
        <time>2023-05-30T15:04:51.000Z</time>
      </trkpt>
      <trkpt lat="46.19267" lon="-1.37524">
        <ele>10.26262</ele>
        <time>2023-05-30T15:04:52.000Z</time>
      </trkpt>
      <trkpt lat="46.19266" lon="-1.37529">
        <ele>10.1696</ele>
        <time>2023-05-30T15:04:53.000Z</time>
      </trkpt>
      <trkpt lat="46.19265" lon="-1.37535">
        <ele>10.19708</ele>
        <time>2023-05-30T15:04:54.000Z</time>
      </trkpt>
      <trkpt lat="46.19263" lon="-1.37542">
        <ele>10.21619</ele>
        <time>2023-05-30T15:04:55.000Z</time>
      </trkpt>
      <trkpt lat="46.19261" lon="-1.37548">
        <ele>10.22181</ele>
        <time>2023-05-30T15:04:56.000Z</time>
      </trkpt>
      <trkpt lat="46.1926" lon="-1.37555">
        <ele>10.21324</ele>
        <time>2023-05-30T15:04:57.000Z</time>
      </trkpt>
      <trkpt lat="46.19259" lon="-1.37562">
        <ele>10.18186</ele>
        <time>2023-05-30T15:04:58.000Z</time>
      </trkpt>
      <trkpt lat="46.19258" lon="-1.37568">
        <ele>10.17308</ele>
        <time>2023-05-30T15:04:59.000Z</time>
      </trkpt>
      <trkpt lat="46.19256" lon="-1.37574">
        <ele>10.13727</ele>
        <time>2023-05-30T15:05:00.000Z</time>
      </trkpt>
      <trkpt lat="46.19255" lon="-1.37581">
        <ele>10.09348</ele>
        <time>2023-05-30T15:05:01.000Z</time>
      </trkpt>
      <trkpt lat="46.19254" lon="-1.37587">
        <ele>10.03425</ele>
        <time>2023-05-30T15:05:02.000Z</time>
      </trkpt>
      <trkpt lat="46.19253" lon="-1.37593">
        <ele>9.99384</ele>
        <time>2023-05-30T15:05:03.000Z</time>
      </trkpt>
      <trkpt lat="46.19252" lon="-1.37599">
        <ele>9.96938</ele>
        <time>2023-05-30T15:05:04.000Z</time>
      </trkpt>
      <trkpt lat="46.19252" lon="-1.37605">
        <ele>9.92963</ele>
        <time>2023-05-30T15:05:05.000Z</time>
      </trkpt>
      <trkpt lat="46.1925" lon="-1.37613">
        <ele>9.89166</ele>
        <time>2023-05-30T15:05:06.000Z</time>
      </trkpt>
      <trkpt lat="46.19249" lon="-1.3762">
        <ele>9.84726</ele>
        <time>2023-05-30T15:05:07.000Z</time>
      </trkpt>
      <trkpt lat="46.19249" lon="-1.37626">
        <ele>9.78789</ele>
        <time>2023-05-30T15:05:08.000Z</time>
      </trkpt>
      <trkpt lat="46.19248" lon="-1.37633">
        <ele>9.66516</ele>
        <time>2023-05-30T15:05:09.000Z</time>
      </trkpt>
      <trkpt lat="46.19247" lon="-1.3764">
        <ele>9.52466</ele>
        <time>2023-05-30T15:05:10.000Z</time>
      </trkpt>
      <trkpt lat="46.19247" lon="-1.37647">
        <ele>9.37631</ele>
        <time>2023-05-30T15:05:11.000Z</time>
      </trkpt>
      <trkpt lat="46.19247" lon="-1.37653">
        <ele>9.22676</ele>
        <time>2023-05-30T15:05:12.000Z</time>
      </trkpt>
      <trkpt lat="46.19246" lon="-1.3766">
        <ele>9.16631</ele>
        <time>2023-05-30T15:05:13.000Z</time>
      </trkpt>
      <trkpt lat="46.19246" lon="-1.37667">
        <ele>9.10923</ele>
        <time>2023-05-30T15:05:14.000Z</time>
      </trkpt>
      <trkpt lat="46.19245" lon="-1.37674">
        <ele>9.06035</ele>
        <time>2023-05-30T15:05:15.000Z</time>
      </trkpt>
      <trkpt lat="46.19244" lon="-1.37681">
        <ele>9.02756</ele>
        <time>2023-05-30T15:05:16.000Z</time>
      </trkpt>
      <trkpt lat="46.19244" lon="-1.37688">
        <ele>8.97926</ele>
        <time>2023-05-30T15:05:17.000Z</time>
      </trkpt>
      <trkpt lat="46.19243" lon="-1.37695">
        <ele>8.95181</ele>
        <time>2023-05-30T15:05:18.000Z</time>
      </trkpt>
      <trkpt lat="46.19241" lon="-1.37703">
        <ele>8.92619</ele>
        <time>2023-05-30T15:05:19.000Z</time>
      </trkpt>
      <trkpt lat="46.19241" lon="-1.37709">
        <ele>8.89113</ele>
        <time>2023-05-30T15:05:20.000Z</time>
      </trkpt>
      <trkpt lat="46.1924" lon="-1.37717">
        <ele>8.85073</ele>
        <time>2023-05-30T15:05:21.000Z</time>
      </trkpt>
      <trkpt lat="46.19239" lon="-1.37724">
        <ele>8.78697</ele>
        <time>2023-05-30T15:05:22.000Z</time>
      </trkpt>
      <trkpt lat="46.19238" lon="-1.37731">
        <ele>8.70085</ele>
        <time>2023-05-30T15:05:23.000Z</time>
      </trkpt>
      <trkpt lat="46.19238" lon="-1.37739">
        <ele>8.59235</ele>
        <time>2023-05-30T15:05:24.000Z</time>
      </trkpt>
      <trkpt lat="46.19236" lon="-1.37747">
        <ele>8.49392</ele>
        <time>2023-05-30T15:05:25.000Z</time>
      </trkpt>
      <trkpt lat="46.19234" lon="-1.37754">
        <ele>8.37619</ele>
        <time>2023-05-30T15:05:26.000Z</time>
      </trkpt>
      <trkpt lat="46.19233" lon="-1.37762">
        <ele>8.27352</ele>
        <time>2023-05-30T15:05:27.000Z</time>
      </trkpt>
      <trkpt lat="46.19231" lon="-1.37769">
        <ele>8.19517</ele>
        <time>2023-05-30T15:05:28.000Z</time>
      </trkpt>
      <trkpt lat="46.1923" lon="-1.37776">
        <ele>8.18456</ele>
        <time>2023-05-30T15:05:29.000Z</time>
      </trkpt>
      <trkpt lat="46.19229" lon="-1.37785">
        <ele>8.2007</ele>
        <time>2023-05-30T15:05:30.000Z</time>
      </trkpt>
      <trkpt lat="46.19226" lon="-1.37793">
        <ele>8.24305</ele>
        <time>2023-05-30T15:05:31.000Z</time>
      </trkpt>
      <trkpt lat="46.19224" lon="-1.37801">
        <ele>8.28095</ele>
        <time>2023-05-30T15:05:32.000Z</time>
      </trkpt>
      <trkpt lat="46.19223" lon="-1.37809">
        <ele>8.19956</ele>
        <time>2023-05-30T15:05:33.000Z</time>
      </trkpt>
      <trkpt lat="46.19222" lon="-1.37815">
        <ele>8.11616</ele>
        <time>2023-05-30T15:05:34.000Z</time>
      </trkpt>
      <trkpt lat="46.1922" lon="-1.37822">
        <ele>8.04552</ele>
        <time>2023-05-30T15:05:35.000Z</time>
      </trkpt>
      <trkpt lat="46.19218" lon="-1.37829">
        <ele>7.949</ele>
        <time>2023-05-30T15:05:36.000Z</time>
      </trkpt>
      <trkpt lat="46.19217" lon="-1.37837">
        <ele>7.87654</ele>
        <time>2023-05-30T15:05:37.000Z</time>
      </trkpt>
      <trkpt lat="46.19216" lon="-1.37844">
        <ele>7.77906</ele>
        <time>2023-05-30T15:05:38.000Z</time>
      </trkpt>
      <trkpt lat="46.19215" lon="-1.37852">
        <ele>7.69575</ele>
        <time>2023-05-30T15:05:39.000Z</time>
      </trkpt>
      <trkpt lat="46.19214" lon="-1.37859">
        <ele>7.63695</ele>
        <time>2023-05-30T15:05:40.000Z</time>
      </trkpt>
      <trkpt lat="46.19213" lon="-1.37865">
        <ele>7.59353</ele>
        <time>2023-05-30T15:05:41.000Z</time>
      </trkpt>
      <trkpt lat="46.19211" lon="-1.37872">
        <ele>7.57177</ele>
        <time>2023-05-30T15:05:42.000Z</time>
      </trkpt>
      <trkpt lat="46.1921" lon="-1.37878">
        <ele>7.56328</ele>
        <time>2023-05-30T15:05:43.000Z</time>
      </trkpt>
      <trkpt lat="46.19209" lon="-1.37885">
        <ele>7.54195</ele>
        <time>2023-05-30T15:05:44.000Z</time>
      </trkpt>
      <trkpt lat="46.19209" lon="-1.37891">
        <ele>7.72355</ele>
        <time>2023-05-30T15:05:45.000Z</time>
      </trkpt>
      <trkpt lat="46.19208" lon="-1.37897">
        <ele>7.90539</ele>
        <time>2023-05-30T15:05:46.000Z</time>
      </trkpt>
      <trkpt lat="46.19208" lon="-1.37903">
        <ele>8.07205</ele>
        <time>2023-05-30T15:05:47.000Z</time>
      </trkpt>
      <trkpt lat="46.19207" lon="-1.37909">
        <ele>8.23149</ele>
        <time>2023-05-30T15:05:48.000Z</time>
      </trkpt>
      <trkpt lat="46.19207" lon="-1.37915">
        <ele>8.36917</ele>
        <time>2023-05-30T15:05:49.000Z</time>
      </trkpt>
      <trkpt lat="46.19206" lon="-1.37921">
        <ele>8.48639</ele>
        <time>2023-05-30T15:05:50.000Z</time>
      </trkpt>
      <trkpt lat="46.19206" lon="-1.37927">
        <ele>8.58359</ele>
        <time>2023-05-30T15:05:51.000Z</time>
      </trkpt>
      <trkpt lat="46.19206" lon="-1.37932">
        <ele>8.46242</ele>
        <time>2023-05-30T15:05:52.000Z</time>
      </trkpt>
      <trkpt lat="46.19204" lon="-1.37937">
        <ele>8.34512</ele>
        <time>2023-05-30T15:05:53.000Z</time>
      </trkpt>
      <trkpt lat="46.19204" lon="-1.37942">
        <ele>8.25873</ele>
        <time>2023-05-30T15:05:54.000Z</time>
      </trkpt>
      <trkpt lat="46.19203" lon="-1.37947">
        <ele>8.18447</ele>
        <time>2023-05-30T15:05:55.000Z</time>
      </trkpt>
      <trkpt lat="46.19202" lon="-1.37953">
        <ele>8.13932</ele>
        <time>2023-05-30T15:05:56.000Z</time>
      </trkpt>
      <trkpt lat="46.19201" lon="-1.37958">
        <ele>8.08983</ele>
        <time>2023-05-30T15:05:57.000Z</time>
      </trkpt>
      <trkpt lat="46.19199" lon="-1.37963">
        <ele>8.14373</ele>
        <time>2023-05-30T15:05:58.000Z</time>
      </trkpt>
      <trkpt lat="46.19198" lon="-1.37968">
        <ele>8.17859</ele>
        <time>2023-05-30T15:05:59.000Z</time>
      </trkpt>
      <trkpt lat="46.19197" lon="-1.37973">
        <ele>8.24469</ele>
        <time>2023-05-30T15:06:00.000Z</time>
      </trkpt>
      <trkpt lat="46.19196" lon="-1.37979">
        <ele>8.30389</ele>
        <time>2023-05-30T15:06:01.000Z</time>
      </trkpt>
      <trkpt lat="46.19195" lon="-1.37984">
        <ele>8.34555</ele>
        <time>2023-05-30T15:06:02.000Z</time>
      </trkpt>
      <trkpt lat="46.19194" lon="-1.3799">
        <ele>8.40455</ele>
        <time>2023-05-30T15:06:03.000Z</time>
      </trkpt>
      <trkpt lat="46.19193" lon="-1.37996">
        <ele>8.47531</ele>
        <time>2023-05-30T15:06:04.000Z</time>
      </trkpt>
      <trkpt lat="46.19191" lon="-1.38002">
        <ele>8.34813</ele>
        <time>2023-05-30T15:06:05.000Z</time>
      </trkpt>
      <trkpt lat="46.1919" lon="-1.38007">
        <ele>8.22056</ele>
        <time>2023-05-30T15:06:06.000Z</time>
      </trkpt>
      <trkpt lat="46.19188" lon="-1.38013">
        <ele>8.11203</ele>
        <time>2023-05-30T15:06:07.000Z</time>
      </trkpt>
      <trkpt lat="46.19187" lon="-1.38019">
        <ele>7.98947</ele>
        <time>2023-05-30T15:06:08.000Z</time>
      </trkpt>
      <trkpt lat="46.19184" lon="-1.38025">
        <ele>7.88665</ele>
        <time>2023-05-30T15:06:09.000Z</time>
      </trkpt>
      <trkpt lat="46.19182" lon="-1.38029">
        <ele>7.77399</ele>
        <time>2023-05-30T15:06:10.000Z</time>
      </trkpt>
      <trkpt lat="46.19178" lon="-1.38032">
        <ele>7.64747</ele>
        <time>2023-05-30T15:06:11.000Z</time>
      </trkpt>
      <trkpt lat="46.19174" lon="-1.38034">
        <ele>7.76031</ele>
        <time>2023-05-30T15:06:12.000Z</time>
      </trkpt>
      <trkpt lat="46.19169" lon="-1.38034">
        <ele>7.88358</ele>
        <time>2023-05-30T15:06:13.000Z</time>
      </trkpt>
      <trkpt lat="46.19164" lon="-1.38033">
        <ele>7.97068</ele>
        <time>2023-05-30T15:06:14.000Z</time>
      </trkpt>
      <trkpt lat="46.1916" lon="-1.38033">
        <ele>7.98131</ele>
        <time>2023-05-30T15:06:15.000Z</time>
      </trkpt>
      <trkpt lat="46.19156" lon="-1.38033">
        <ele>7.99513</ele>
        <time>2023-05-30T15:06:16.000Z</time>
      </trkpt>
      <trkpt lat="46.19152" lon="-1.38033">
        <ele>8.00894</ele>
        <time>2023-05-30T15:06:17.000Z</time>
      </trkpt>
      <trkpt lat="46.19147" lon="-1.38032">
        <ele>7.92951</ele>
        <time>2023-05-30T15:06:18.000Z</time>
      </trkpt>
      <trkpt lat="46.19143" lon="-1.38031">
        <ele>7.86348</ele>
        <time>2023-05-30T15:06:19.000Z</time>
      </trkpt>
      <trkpt lat="46.19139" lon="-1.3803">
        <ele>7.84831</ele>
        <time>2023-05-30T15:06:20.000Z</time>
      </trkpt>
      <trkpt lat="46.19135" lon="-1.3803">
        <ele>7.84532</ele>
        <time>2023-05-30T15:06:21.000Z</time>
      </trkpt>
      <trkpt lat="46.19131" lon="-1.38029">
        <ele>7.86417</ele>
        <time>2023-05-30T15:06:22.000Z</time>
      </trkpt>
      <trkpt lat="46.19127" lon="-1.38029">
        <ele>7.85705</ele>
        <time>2023-05-30T15:06:23.000Z</time>
      </trkpt>
      <trkpt lat="46.19123" lon="-1.38029">
        <ele>7.86177</ele>
        <time>2023-05-30T15:06:24.000Z</time>
      </trkpt>
      <trkpt lat="46.19118" lon="-1.38029">
        <ele>7.85329</ele>
        <time>2023-05-30T15:06:25.000Z</time>
      </trkpt>
      <trkpt lat="46.19114" lon="-1.3803">
        <ele>7.84471</ele>
        <time>2023-05-30T15:06:26.000Z</time>
      </trkpt>
      <trkpt lat="46.1911" lon="-1.38031">
        <ele>7.82443</ele>
        <time>2023-05-30T15:06:27.000Z</time>
      </trkpt>
      <trkpt lat="46.19106" lon="-1.38034">
        <ele>7.83564</ele>
        <time>2023-05-30T15:06:28.000Z</time>
      </trkpt>
      <trkpt lat="46.19102" lon="-1.38037">
        <ele>7.85336</ele>
        <time>2023-05-30T15:06:29.000Z</time>
      </trkpt>
      <trkpt lat="46.19099" lon="-1.38042">
        <ele>7.86815</ele>
        <time>2023-05-30T15:06:30.000Z</time>
      </trkpt>
      <trkpt lat="46.19096" lon="-1.38047">
        <ele>7.88614</ele>
        <time>2023-05-30T15:06:31.000Z</time>
      </trkpt>
      <trkpt lat="46.19093" lon="-1.38051">
        <ele>7.88144</ele>
        <time>2023-05-30T15:06:32.000Z</time>
      </trkpt>
      <trkpt lat="46.1909" lon="-1.38057">
        <ele>7.88587</ele>
        <time>2023-05-30T15:06:33.000Z</time>
      </trkpt>
      <trkpt lat="46.19088" lon="-1.38062">
        <ele>7.91605</ele>
        <time>2023-05-30T15:06:34.000Z</time>
      </trkpt>
      <trkpt lat="46.19086" lon="-1.38067">
        <ele>8.00273</ele>
        <time>2023-05-30T15:06:35.000Z</time>
      </trkpt>
      <trkpt lat="46.19084" lon="-1.38072">
        <ele>8.0885</ele>
        <time>2023-05-30T15:06:36.000Z</time>
      </trkpt>
      <trkpt lat="46.19082" lon="-1.38078">
        <ele>8.11229</ele>
        <time>2023-05-30T15:06:37.000Z</time>
      </trkpt>
      <trkpt lat="46.19079" lon="-1.38083">
        <ele>8.15905</ele>
        <time>2023-05-30T15:06:38.000Z</time>
      </trkpt>
      <trkpt lat="46.19077" lon="-1.38088">
        <ele>8.20302</ele>
        <time>2023-05-30T15:06:39.000Z</time>
      </trkpt>
      <trkpt lat="46.19075" lon="-1.38094">
        <ele>8.17164</ele>
        <time>2023-05-30T15:06:40.000Z</time>
      </trkpt>
      <trkpt lat="46.19073" lon="-1.38099">
        <ele>8.12853</ele>
        <time>2023-05-30T15:06:41.000Z</time>
      </trkpt>
      <trkpt lat="46.19071" lon="-1.38104">
        <ele>8.08087</ele>
        <time>2023-05-30T15:06:42.000Z</time>
      </trkpt>
      <trkpt lat="46.19069" lon="-1.38109">
        <ele>8.04234</ele>
        <time>2023-05-30T15:06:43.000Z</time>
      </trkpt>
      <trkpt lat="46.19067" lon="-1.38114">
        <ele>7.99741</ele>
        <time>2023-05-30T15:06:44.000Z</time>
      </trkpt>
      <trkpt lat="46.19066" lon="-1.38118">
        <ele>7.96133</ele>
        <time>2023-05-30T15:06:45.000Z</time>
      </trkpt>
      <trkpt lat="46.19065" lon="-1.38123">
        <ele>7.92712</ele>
        <time>2023-05-30T15:06:46.000Z</time>
      </trkpt>
      <trkpt lat="46.19063" lon="-1.38128">
        <ele>7.88418</ele>
        <time>2023-05-30T15:06:47.000Z</time>
      </trkpt>
      <trkpt lat="46.19062" lon="-1.38133">
        <ele>7.907</ele>
        <time>2023-05-30T15:06:48.000Z</time>
      </trkpt>
      <trkpt lat="46.1906" lon="-1.38137">
        <ele>7.89591</ele>
        <time>2023-05-30T15:06:49.000Z</time>
      </trkpt>
      <trkpt lat="46.19058" lon="-1.38141">
        <ele>7.89282</ele>
        <time>2023-05-30T15:06:50.000Z</time>
      </trkpt>
      <trkpt lat="46.19057" lon="-1.38145">
        <ele>7.88129</ele>
        <time>2023-05-30T15:06:51.000Z</time>
      </trkpt>
      <trkpt lat="46.19056" lon="-1.3815">
        <ele>7.86548</ele>
        <time>2023-05-30T15:06:52.000Z</time>
      </trkpt>
      <trkpt lat="46.19054" lon="-1.38155">
        <ele>7.86759</ele>
        <time>2023-05-30T15:06:53.000Z</time>
      </trkpt>
      <trkpt lat="46.19053" lon="-1.3816">
        <ele>7.88062</ele>
        <time>2023-05-30T15:06:54.000Z</time>
      </trkpt>
      <trkpt lat="46.19051" lon="-1.38165">
        <ele>7.88995</ele>
        <time>2023-05-30T15:06:55.000Z</time>
      </trkpt>
      <trkpt lat="46.1905" lon="-1.38171">
        <ele>7.88878</ele>
        <time>2023-05-30T15:06:56.000Z</time>
      </trkpt>
      <trkpt lat="46.19049" lon="-1.38176">
        <ele>7.89858</ele>
        <time>2023-05-30T15:06:57.000Z</time>
      </trkpt>
      <trkpt lat="46.19047" lon="-1.38182">
        <ele>7.88545</ele>
        <time>2023-05-30T15:06:58.000Z</time>
      </trkpt>
      <trkpt lat="46.19046" lon="-1.38187">
        <ele>7.88518</ele>
        <time>2023-05-30T15:06:59.000Z</time>
      </trkpt>
      <trkpt lat="46.19044" lon="-1.38191">
        <ele>7.91601</ele>
        <time>2023-05-30T15:07:00.000Z</time>
      </trkpt>
      <trkpt lat="46.19042" lon="-1.38196">
        <ele>7.96686</ele>
        <time>2023-05-30T15:07:01.000Z</time>
      </trkpt>
      <trkpt lat="46.19039" lon="-1.38201">
        <ele>8.03684</ele>
        <time>2023-05-30T15:07:02.000Z</time>
      </trkpt>
      <trkpt lat="46.19036" lon="-1.38206">
        <ele>8.10896</ele>
        <time>2023-05-30T15:07:03.000Z</time>
      </trkpt>
      <trkpt lat="46.19033" lon="-1.3821">
        <ele>8.18102</ele>
        <time>2023-05-30T15:07:04.000Z</time>
      </trkpt>
      <trkpt lat="46.19029" lon="-1.38212">
        <ele>8.19939</ele>
        <time>2023-05-30T15:07:05.000Z</time>
      </trkpt>
      <trkpt lat="46.19026" lon="-1.38214">
        <ele>8.20254</ele>
        <time>2023-05-30T15:07:06.000Z</time>
      </trkpt>
      <trkpt lat="46.19022" lon="-1.38216">
        <ele>8.35901</ele>
        <time>2023-05-30T15:07:07.000Z</time>
      </trkpt>
      <trkpt lat="46.19018" lon="-1.38217">
        <ele>8.41161</ele>
        <time>2023-05-30T15:07:08.000Z</time>
      </trkpt>
      <trkpt lat="46.19014" lon="-1.38217">
        <ele>8.50205</ele>
        <time>2023-05-30T15:07:09.000Z</time>
      </trkpt>
      <trkpt lat="46.1901" lon="-1.38218">
        <ele>8.58392</ele>
        <time>2023-05-30T15:07:10.000Z</time>
      </trkpt>
      <trkpt lat="46.19006" lon="-1.38218">
        <ele>8.71569</ele>
        <time>2023-05-30T15:07:11.000Z</time>
      </trkpt>
      <trkpt lat="46.19002" lon="-1.38219">
        <ele>8.85178</ele>
        <time>2023-05-30T15:07:12.000Z</time>
      </trkpt>
      <trkpt lat="46.18998" lon="-1.38219">
        <ele>8.98553</ele>
        <time>2023-05-30T15:07:13.000Z</time>
      </trkpt>
      <trkpt lat="46.18994" lon="-1.3822">
        <ele>9.10354</ele>
        <time>2023-05-30T15:07:14.000Z</time>
      </trkpt>
      <trkpt lat="46.1899" lon="-1.38221">
        <ele>9.24194</ele>
        <time>2023-05-30T15:07:15.000Z</time>
      </trkpt>
      <trkpt lat="46.18987" lon="-1.38222">
        <ele>9.37085</ele>
        <time>2023-05-30T15:07:16.000Z</time>
      </trkpt>
      <trkpt lat="46.18983" lon="-1.38224">
        <ele>9.53365</ele>
        <time>2023-05-30T15:07:17.000Z</time>
      </trkpt>
      <trkpt lat="46.1898" lon="-1.38226">
        <ele>9.69751</ele>
        <time>2023-05-30T15:07:18.000Z</time>
      </trkpt>
      <trkpt lat="46.18976" lon="-1.38228">
        <ele>9.83886</ele>
        <time>2023-05-30T15:07:19.000Z</time>
      </trkpt>
      <trkpt lat="46.18973" lon="-1.3823">
        <ele>9.92504</ele>
        <time>2023-05-30T15:07:20.000Z</time>
      </trkpt>
      <trkpt lat="46.18969" lon="-1.38232">
        <ele>10.00228</ele>
        <time>2023-05-30T15:07:21.000Z</time>
      </trkpt>
      <trkpt lat="46.18965" lon="-1.38234">
        <ele>10.07028</ele>
        <time>2023-05-30T15:07:22.000Z</time>
      </trkpt>
      <trkpt lat="46.18961" lon="-1.38236">
        <ele>10.14503</ele>
        <time>2023-05-30T15:07:23.000Z</time>
      </trkpt>
      <trkpt lat="46.18957" lon="-1.38238">
        <ele>10.23195</ele>
        <time>2023-05-30T15:07:24.000Z</time>
      </trkpt>
      <trkpt lat="46.18953" lon="-1.38239">
        <ele>10.37134</ele>
        <time>2023-05-30T15:07:25.000Z</time>
      </trkpt>
      <trkpt lat="46.18949" lon="-1.38241">
        <ele>10.52228</ele>
        <time>2023-05-30T15:07:26.000Z</time>
      </trkpt>
      <trkpt lat="46.18946" lon="-1.38244">
        <ele>10.5331</ele>
        <time>2023-05-30T15:07:27.000Z</time>
      </trkpt>
      <trkpt lat="46.18942" lon="-1.38246">
        <ele>10.56758</ele>
        <time>2023-05-30T15:07:28.000Z</time>
      </trkpt>
      <trkpt lat="46.18938" lon="-1.38248">
        <ele>10.52299</ele>
        <time>2023-05-30T15:07:29.000Z</time>
      </trkpt>
      <trkpt lat="46.18934" lon="-1.3825">
        <ele>10.45444</ele>
        <time>2023-05-30T15:07:30.000Z</time>
      </trkpt>
      <trkpt lat="46.18929" lon="-1.38251">
        <ele>10.48349</ele>
        <time>2023-05-30T15:07:31.000Z</time>
      </trkpt>
      <trkpt lat="46.18925" lon="-1.38252">
        <ele>10.47633</ele>
        <time>2023-05-30T15:07:32.000Z</time>
      </trkpt>
      <trkpt lat="46.18921" lon="-1.38253">
        <ele>10.47327</ele>
        <time>2023-05-30T15:07:33.000Z</time>
      </trkpt>
      <trkpt lat="46.18917" lon="-1.38254">
        <ele>10.46553</ele>
        <time>2023-05-30T15:07:34.000Z</time>
      </trkpt>
      <trkpt lat="46.18913" lon="-1.38254">
        <ele>10.43726</ele>
        <time>2023-05-30T15:07:35.000Z</time>
      </trkpt>
      <trkpt lat="46.18909" lon="-1.38255">
        <ele>10.44827</ele>
        <time>2023-05-30T15:07:36.000Z</time>
      </trkpt>
      <trkpt lat="46.18905" lon="-1.38255">
        <ele>10.45402</ele>
        <time>2023-05-30T15:07:37.000Z</time>
      </trkpt>
      <trkpt lat="46.18901" lon="-1.38255">
        <ele>10.45206</ele>
        <time>2023-05-30T15:07:38.000Z</time>
      </trkpt>
      <trkpt lat="46.18898" lon="-1.38255">
        <ele>10.44418</ele>
        <time>2023-05-30T15:07:39.000Z</time>
      </trkpt>
      <trkpt lat="46.18894" lon="-1.38255">
        <ele>10.45491</ele>
        <time>2023-05-30T15:07:40.000Z</time>
      </trkpt>
      <trkpt lat="46.1889" lon="-1.38255">
        <ele>10.471</ele>
        <time>2023-05-30T15:07:41.000Z</time>
      </trkpt>
      <trkpt lat="46.18887" lon="-1.38255">
        <ele>10.48543</ele>
        <time>2023-05-30T15:07:42.000Z</time>
      </trkpt>
      <trkpt lat="46.18883" lon="-1.38255">
        <ele>10.49207</ele>
        <time>2023-05-30T15:07:43.000Z</time>
      </trkpt>
      <trkpt lat="46.18879" lon="-1.38255">
        <ele>10.49315</ele>
        <time>2023-05-30T15:07:44.000Z</time>
      </trkpt>
      <trkpt lat="46.18876" lon="-1.38255">
        <ele>10.47797</ele>
        <time>2023-05-30T15:07:45.000Z</time>
      </trkpt>
      <trkpt lat="46.18872" lon="-1.38256">
        <ele>10.47533</ele>
        <time>2023-05-30T15:07:46.000Z</time>
      </trkpt>
      <trkpt lat="46.18868" lon="-1.38256">
        <ele>10.46736</ele>
        <time>2023-05-30T15:07:47.000Z</time>
      </trkpt>
      <trkpt lat="46.18864" lon="-1.38257">
        <ele>10.41872</ele>
        <time>2023-05-30T15:07:48.000Z</time>
      </trkpt>
      <trkpt lat="46.18861" lon="-1.38258">
        <ele>10.4203</ele>
        <time>2023-05-30T15:07:49.000Z</time>
      </trkpt>
      <trkpt lat="46.1886" lon="-1.3826">
        <ele>10.44767</ele>
        <time>2023-05-30T15:07:50.000Z</time>
      </trkpt>
      <trkpt lat="46.18859" lon="-1.38264">
        <ele>10.34599</ele>
        <time>2023-05-30T15:07:51.000Z</time>
      </trkpt>
      <trkpt lat="46.18859" lon="-1.38269">
        <ele>10.2679</ele>
        <time>2023-05-30T15:07:52.000Z</time>
      </trkpt>
      <trkpt lat="46.18859" lon="-1.38274">
        <ele>10.15596</ele>
        <time>2023-05-30T15:07:53.000Z</time>
      </trkpt>
      <trkpt lat="46.18861" lon="-1.38279">
        <ele>10.05013</ele>
        <time>2023-05-30T15:07:54.000Z</time>
      </trkpt>
      <trkpt lat="46.18861" lon="-1.38284">
        <ele>9.93021</ele>
        <time>2023-05-30T15:07:55.000Z</time>
      </trkpt>
      <trkpt lat="46.18862" lon="-1.3829">
        <ele>9.78455</ele>
        <time>2023-05-30T15:07:56.000Z</time>
      </trkpt>
      <trkpt lat="46.18862" lon="-1.38295">
        <ele>9.65961</ele>
        <time>2023-05-30T15:07:57.000Z</time>
      </trkpt>
      <trkpt lat="46.18861" lon="-1.38301">
        <ele>9.54366</ele>
        <time>2023-05-30T15:07:58.000Z</time>
      </trkpt>
      <trkpt lat="46.1886" lon="-1.38306">
        <ele>9.43603</ele>
        <time>2023-05-30T15:07:59.000Z</time>
      </trkpt>
      <trkpt lat="46.18858" lon="-1.38311">
        <ele>9.27585</ele>
        <time>2023-05-30T15:08:00.000Z</time>
      </trkpt>
      <trkpt lat="46.18855" lon="-1.38315">
        <ele>9.0948</ele>
        <time>2023-05-30T15:08:01.000Z</time>
      </trkpt>
      <trkpt lat="46.18853" lon="-1.38319">
        <ele>8.87212</ele>
        <time>2023-05-30T15:08:02.000Z</time>
      </trkpt>
      <trkpt lat="46.1885" lon="-1.38323">
        <ele>8.74137</ele>
        <time>2023-05-30T15:08:03.000Z</time>
      </trkpt>
      <trkpt lat="46.18848" lon="-1.38327">
        <ele>8.60297</ele>
        <time>2023-05-30T15:08:04.000Z</time>
      </trkpt>
      <trkpt lat="46.18846" lon="-1.38331">
        <ele>8.48983</ele>
        <time>2023-05-30T15:08:05.000Z</time>
      </trkpt>
      <trkpt lat="46.18845" lon="-1.38334">
        <ele>8.37004</ele>
        <time>2023-05-30T15:08:06.000Z</time>
      </trkpt>
      <trkpt lat="46.18844" lon="-1.38336">
        <ele>8.24476</ele>
        <time>2023-05-30T15:08:07.000Z</time>
      </trkpt>
      <trkpt lat="46.18844" lon="-1.38341">
        <ele>8.18191</ele>
        <time>2023-05-30T15:08:09.000Z</time>
      </trkpt>
      <trkpt lat="46.18845" lon="-1.38343">
        <ele>8.15486</ele>
        <time>2023-05-30T15:08:11.000Z</time>
      </trkpt>
      <trkpt lat="46.18846" lon="-1.38347">
        <ele>8.10347</ele>
        <time>2023-05-30T15:08:21.000Z</time>
      </trkpt>
      <trkpt lat="46.18848" lon="-1.3835">
        <ele>8.07152</ele>
        <time>2023-05-30T15:08:22.000Z</time>
      </trkpt>
      <trkpt lat="46.18849" lon="-1.38353">
        <ele>8.03505</ele>
        <time>2023-05-30T15:08:23.000Z</time>
      </trkpt>
      <trkpt lat="46.18851" lon="-1.38356">
        <ele>8.00171</ele>
        <time>2023-05-30T15:08:24.000Z</time>
      </trkpt>
      <trkpt lat="46.18853" lon="-1.3836">
        <ele>7.95469</ele>
        <time>2023-05-30T15:08:25.000Z</time>
      </trkpt>
      <trkpt lat="46.18855" lon="-1.38365">
        <ele>7.90637</ele>
        <time>2023-05-30T15:08:26.000Z</time>
      </trkpt>
      <trkpt lat="46.18858" lon="-1.3837">
        <ele>7.82593</ele>
        <time>2023-05-30T15:08:27.000Z</time>
      </trkpt>
      <trkpt lat="46.1886" lon="-1.38376">
        <ele>7.69007</ele>
        <time>2023-05-30T15:08:28.000Z</time>
      </trkpt>
      <trkpt lat="46.18863" lon="-1.38381">
        <ele>7.53711</ele>
        <time>2023-05-30T15:08:29.000Z</time>
      </trkpt>
      <trkpt lat="46.18865" lon="-1.38389">
        <ele>7.46185</ele>
        <time>2023-05-30T15:08:30.000Z</time>
      </trkpt>
      <trkpt lat="46.18867" lon="-1.38395">
        <ele>7.40559</ele>
        <time>2023-05-30T15:08:31.000Z</time>
      </trkpt>
      <trkpt lat="46.18869" lon="-1.38401">
        <ele>7.34733</ele>
        <time>2023-05-30T15:08:32.000Z</time>
      </trkpt>
      <trkpt lat="46.18872" lon="-1.38406">
        <ele>7.329</ele>
        <time>2023-05-30T15:08:33.000Z</time>
      </trkpt>
      <trkpt lat="46.18873" lon="-1.38411">
        <ele>7.20362</ele>
        <time>2023-05-30T15:08:34.000Z</time>
      </trkpt>
      <trkpt lat="46.18875" lon="-1.38416">
        <ele>7.10274</ele>
        <time>2023-05-30T15:08:35.000Z</time>
      </trkpt>
      <trkpt lat="46.18877" lon="-1.38421">
        <ele>6.98539</ele>
        <time>2023-05-30T15:08:36.000Z</time>
      </trkpt>
      <trkpt lat="46.18879" lon="-1.38425">
        <ele>6.85935</ele>
        <time>2023-05-30T15:08:37.000Z</time>
      </trkpt>
      <trkpt lat="46.18882" lon="-1.38429">
        <ele>6.67737</ele>
        <time>2023-05-30T15:08:38.000Z</time>
      </trkpt>
      <trkpt lat="46.18884" lon="-1.38433">
        <ele>6.45306</ele>
        <time>2023-05-30T15:08:39.000Z</time>
      </trkpt>
      <trkpt lat="46.18885" lon="-1.38437">
        <ele>6.2077</ele>
        <time>2023-05-30T15:08:40.000Z</time>
      </trkpt>
      <trkpt lat="46.18887" lon="-1.38439">
        <ele>5.99284</ele>
        <time>2023-05-30T15:08:41.000Z</time>
      </trkpt>
      <trkpt lat="46.18889" lon="-1.38439">
        <ele>5.73784</ele>
        <time>2023-05-30T15:08:42.000Z</time>
      </trkpt>
      <trkpt lat="46.18891" lon="-1.38438">
        <ele>5.57194</ele>
        <time>2023-05-30T15:08:43.000Z</time>
      </trkpt>
      <trkpt lat="46.18893" lon="-1.38436">
        <ele>5.36466</ele>
        <time>2023-05-30T15:08:44.000Z</time>
      </trkpt>
      <trkpt lat="46.18894" lon="-1.38433">
        <ele>5.25533</ele>
        <time>2023-05-30T15:08:45.000Z</time>
      </trkpt>
      <trkpt lat="46.18893" lon="-1.38431">
        <ele>5.15472</ele>
        <time>2023-05-30T15:08:46.000Z</time>
      </trkpt>
      <trkpt lat="46.18891" lon="-1.3843">
        <ele>5.09243</ele>
        <time>2023-05-30T15:08:47.000Z</time>
      </trkpt>
      <trkpt lat="46.18889" lon="-1.38431">
        <ele>5.08183</ele>
        <time>2023-05-30T15:08:48.000Z</time>
      </trkpt>
      <trkpt lat="46.18887" lon="-1.38433">
        <ele>5.12654</ele>
        <time>2023-05-30T15:08:49.000Z</time>
      </trkpt>
      <trkpt lat="46.18887" lon="-1.38437">
        <ele>5.09669</ele>
        <time>2023-05-30T15:08:50.000Z</time>
      </trkpt>
      <trkpt lat="46.18887" lon="-1.38441">
        <ele>5.02646</ele>
        <time>2023-05-30T15:08:51.000Z</time>
      </trkpt>
      <trkpt lat="46.18888" lon="-1.38445">
        <ele>4.93505</ele>
        <time>2023-05-30T15:08:52.000Z</time>
      </trkpt>
      <trkpt lat="46.1889" lon="-1.38449">
        <ele>4.93378</ele>
        <time>2023-05-30T15:08:53.000Z</time>
      </trkpt>
      <trkpt lat="46.18892" lon="-1.38454">
        <ele>4.93384</ele>
        <time>2023-05-30T15:08:54.000Z</time>
      </trkpt>
      <trkpt lat="46.18894" lon="-1.38458">
        <ele>4.92856</ele>
        <time>2023-05-30T15:08:55.000Z</time>
      </trkpt>
      <trkpt lat="46.18896" lon="-1.38463">
        <ele>4.9155</ele>
        <time>2023-05-30T15:08:56.000Z</time>
      </trkpt>
      <trkpt lat="46.18899" lon="-1.38467">
        <ele>4.93253</ele>
        <time>2023-05-30T15:08:57.000Z</time>
      </trkpt>
      <trkpt lat="46.18901" lon="-1.38472">
        <ele>5.00628</ele>
        <time>2023-05-30T15:08:58.000Z</time>
      </trkpt>
      <trkpt lat="46.18903" lon="-1.38477">
        <ele>5.08164</ele>
        <time>2023-05-30T15:08:59.000Z</time>
      </trkpt>
      <trkpt lat="46.18905" lon="-1.38482">
        <ele>5.15633</ele>
        <time>2023-05-30T15:09:00.000Z</time>
      </trkpt>
      <trkpt lat="46.18908" lon="-1.38487">
        <ele>5.23077</ele>
        <time>2023-05-30T15:09:01.000Z</time>
      </trkpt>
      <trkpt lat="46.1891" lon="-1.38492">
        <ele>5.31406</ele>
        <time>2023-05-30T15:09:02.000Z</time>
      </trkpt>
      <trkpt lat="46.18912" lon="-1.38497">
        <ele>5.32392</ele>
        <time>2023-05-30T15:09:03.000Z</time>
      </trkpt>
      <trkpt lat="46.18914" lon="-1.38502">
        <ele>5.38993</ele>
        <time>2023-05-30T15:09:04.000Z</time>
      </trkpt>
      <trkpt lat="46.18917" lon="-1.38508">
        <ele>5.36415</ele>
        <time>2023-05-30T15:09:05.000Z</time>
      </trkpt>
      <trkpt lat="46.18919" lon="-1.38513">
        <ele>5.36767</ele>
        <time>2023-05-30T15:09:06.000Z</time>
      </trkpt>
      <trkpt lat="46.18921" lon="-1.38519">
        <ele>5.36333</ele>
        <time>2023-05-30T15:09:07.000Z</time>
      </trkpt>
      <trkpt lat="46.18923" lon="-1.38524">
        <ele>5.36028</ele>
        <time>2023-05-30T15:09:08.000Z</time>
      </trkpt>
      <trkpt lat="46.18925" lon="-1.38529">
        <ele>5.32397</ele>
        <time>2023-05-30T15:09:09.000Z</time>
      </trkpt>
      <trkpt lat="46.18927" lon="-1.38533">
        <ele>5.28644</ele>
        <time>2023-05-30T15:09:10.000Z</time>
      </trkpt>
      <trkpt lat="46.18929" lon="-1.38538">
        <ele>5.32173</ele>
        <time>2023-05-30T15:09:11.000Z</time>
      </trkpt>
      <trkpt lat="46.1893" lon="-1.38542">
        <ele>5.4076</ele>
        <time>2023-05-30T15:09:12.000Z</time>
      </trkpt>
      <trkpt lat="46.18931" lon="-1.38546">
        <ele>5.40526</ele>
        <time>2023-05-30T15:09:13.000Z</time>
      </trkpt>
      <trkpt lat="46.1893" lon="-1.38549">
        <ele>5.41996</ele>
        <time>2023-05-30T15:09:14.000Z</time>
      </trkpt>
      <trkpt lat="46.1893" lon="-1.38552">
        <ele>5.45656</ele>
        <time>2023-05-30T15:09:15.000Z</time>
      </trkpt>
      <trkpt lat="46.18929" lon="-1.38556">
        <ele>5.504</ele>
        <time>2023-05-30T15:09:16.000Z</time>
      </trkpt>
      <trkpt lat="46.18928" lon="-1.3856">
        <ele>5.54109</ele>
        <time>2023-05-30T15:09:17.000Z</time>
      </trkpt>
      <trkpt lat="46.18928" lon="-1.38565">
        <ele>5.58488</ele>
        <time>2023-05-30T15:09:18.000Z</time>
      </trkpt>
      <trkpt lat="46.18927" lon="-1.38569">
        <ele>5.63485</ele>
        <time>2023-05-30T15:09:19.000Z</time>
      </trkpt>
      <trkpt lat="46.18927" lon="-1.38574">
        <ele>5.68282</ele>
        <time>2023-05-30T15:09:20.000Z</time>
      </trkpt>
      <trkpt lat="46.18926" lon="-1.38579">
        <ele>5.73139</ele>
        <time>2023-05-30T15:09:21.000Z</time>
      </trkpt>
      <trkpt lat="46.18926" lon="-1.38583">
        <ele>5.78234</ele>
        <time>2023-05-30T15:09:22.000Z</time>
      </trkpt>
      <trkpt lat="46.18926" lon="-1.38588">
        <ele>5.82794</ele>
        <time>2023-05-30T15:09:23.000Z</time>
      </trkpt>
      <trkpt lat="46.18926" lon="-1.38593">
        <ele>5.85695</ele>
        <time>2023-05-30T15:09:24.000Z</time>
      </trkpt>
      <trkpt lat="46.18926" lon="-1.38599">
        <ele>5.88764</ele>
        <time>2023-05-30T15:09:25.000Z</time>
      </trkpt>
      <trkpt lat="46.18926" lon="-1.38604">
        <ele>5.9058</ele>
        <time>2023-05-30T15:09:26.000Z</time>
      </trkpt>
      <trkpt lat="46.18925" lon="-1.3861">
        <ele>5.91457</ele>
        <time>2023-05-30T15:09:27.000Z</time>
      </trkpt>
      <trkpt lat="46.18925" lon="-1.38615">
        <ele>5.92118</ele>
        <time>2023-05-30T15:09:28.000Z</time>
      </trkpt>
      <trkpt lat="46.18925" lon="-1.3862">
        <ele>5.92506</ele>
        <time>2023-05-30T15:09:29.000Z</time>
      </trkpt>
      <trkpt lat="46.18924" lon="-1.38626">
        <ele>5.93641</ele>
        <time>2023-05-30T15:09:30.000Z</time>
      </trkpt>
      <trkpt lat="46.18923" lon="-1.3863">
        <ele>5.95125</ele>
        <time>2023-05-30T15:09:31.000Z</time>
      </trkpt>
      <trkpt lat="46.18922" lon="-1.38635">
        <ele>5.93396</ele>
        <time>2023-05-30T15:09:32.000Z</time>
      </trkpt>
      <trkpt lat="46.18921" lon="-1.38639">
        <ele>5.92715</ele>
        <time>2023-05-30T15:09:33.000Z</time>
      </trkpt>
      <trkpt lat="46.18919" lon="-1.38643">
        <ele>5.90694</ele>
        <time>2023-05-30T15:09:34.000Z</time>
      </trkpt>
      <trkpt lat="46.18919" lon="-1.38648">
        <ele>5.86586</ele>
        <time>2023-05-30T15:09:35.000Z</time>
      </trkpt>
      <trkpt lat="46.18919" lon="-1.38654">
        <ele>5.81723</ele>
        <time>2023-05-30T15:09:36.000Z</time>
      </trkpt>
      <trkpt lat="46.18919" lon="-1.38659">
        <ele>5.7693</ele>
        <time>2023-05-30T15:09:37.000Z</time>
      </trkpt>
      <trkpt lat="46.18919" lon="-1.38665">
        <ele>5.71114</ele>
        <time>2023-05-30T15:09:38.000Z</time>
      </trkpt>
      <trkpt lat="46.18919" lon="-1.38671">
        <ele>5.65896</ele>
        <time>2023-05-30T15:09:39.000Z</time>
      </trkpt>
      <trkpt lat="46.1892" lon="-1.38677">
        <ele>5.61546</ele>
        <time>2023-05-30T15:09:40.000Z</time>
      </trkpt>
      <trkpt lat="46.1892" lon="-1.38683">
        <ele>5.58219</ele>
        <time>2023-05-30T15:09:41.000Z</time>
      </trkpt>
      <trkpt lat="46.1892" lon="-1.38689">
        <ele>5.55548</ele>
        <time>2023-05-30T15:09:42.000Z</time>
      </trkpt>
      <trkpt lat="46.18921" lon="-1.38695">
        <ele>5.53227</ele>
        <time>2023-05-30T15:09:43.000Z</time>
      </trkpt>
      <trkpt lat="46.18921" lon="-1.38701">
        <ele>5.51407</ele>
        <time>2023-05-30T15:09:44.000Z</time>
      </trkpt>
      <trkpt lat="46.18921" lon="-1.38707">
        <ele>5.48902</ele>
        <time>2023-05-30T15:09:45.000Z</time>
      </trkpt>
      <trkpt lat="46.18922" lon="-1.38713">
        <ele>5.46722</ele>
        <time>2023-05-30T15:09:46.000Z</time>
      </trkpt>
      <trkpt lat="46.18922" lon="-1.3872">
        <ele>5.45579</ele>
        <time>2023-05-30T15:09:47.000Z</time>
      </trkpt>
      <trkpt lat="46.18923" lon="-1.38726">
        <ele>5.43859</ele>
        <time>2023-05-30T15:09:48.000Z</time>
      </trkpt>
      <trkpt lat="46.18923" lon="-1.38731">
        <ele>5.43746</ele>
        <time>2023-05-30T15:09:49.000Z</time>
      </trkpt>
      <trkpt lat="46.18924" lon="-1.38737">
        <ele>5.44534</ele>
        <time>2023-05-30T15:09:50.000Z</time>
      </trkpt>
      <trkpt lat="46.18924" lon="-1.38743">
        <ele>5.43835</ele>
        <time>2023-05-30T15:09:51.000Z</time>
      </trkpt>
      <trkpt lat="46.18925" lon="-1.38749">
        <ele>5.4551</ele>
        <time>2023-05-30T15:09:52.000Z</time>
      </trkpt>
      <trkpt lat="46.18926" lon="-1.38754">
        <ele>5.45482</ele>
        <time>2023-05-30T15:09:53.000Z</time>
      </trkpt>
      <trkpt lat="46.18926" lon="-1.3876">
        <ele>5.47964</ele>
        <time>2023-05-30T15:09:54.000Z</time>
      </trkpt>
      <trkpt lat="46.18926" lon="-1.38765">
        <ele>5.49978</ele>
        <time>2023-05-30T15:09:55.000Z</time>
      </trkpt>
      <trkpt lat="46.18927" lon="-1.3877">
        <ele>5.53683</ele>
        <time>2023-05-30T15:09:56.000Z</time>
      </trkpt>
      <trkpt lat="46.18927" lon="-1.38775">
        <ele>5.57109</ele>
        <time>2023-05-30T15:09:57.000Z</time>
      </trkpt>
      <trkpt lat="46.18927" lon="-1.38779">
        <ele>5.6213</ele>
        <time>2023-05-30T15:09:58.000Z</time>
      </trkpt>
      <trkpt lat="46.18927" lon="-1.38784">
        <ele>5.6753</ele>
        <time>2023-05-30T15:09:59.000Z</time>
      </trkpt>
      <trkpt lat="46.18927" lon="-1.38789">
        <ele>5.73147</ele>
        <time>2023-05-30T15:10:00.000Z</time>
      </trkpt>
      <trkpt lat="46.18926" lon="-1.38794">
        <ele>5.771</ele>
        <time>2023-05-30T15:10:01.000Z</time>
      </trkpt>
      <trkpt lat="46.18927" lon="-1.38799">
        <ele>5.8167</ele>
        <time>2023-05-30T15:10:02.000Z</time>
      </trkpt>
      <trkpt lat="46.18927" lon="-1.38804">
        <ele>5.85577</ele>
        <time>2023-05-30T15:10:03.000Z</time>
      </trkpt>
      <trkpt lat="46.18927" lon="-1.38809">
        <ele>5.90565</ele>
        <time>2023-05-30T15:10:04.000Z</time>
      </trkpt>
      <trkpt lat="46.18927" lon="-1.38814">
        <ele>5.97531</ele>
        <time>2023-05-30T15:10:05.000Z</time>
      </trkpt>
      <trkpt lat="46.18928" lon="-1.38818">
        <ele>6.0325</ele>
        <time>2023-05-30T15:10:06.000Z</time>
      </trkpt>
      <trkpt lat="46.18929" lon="-1.38823">
        <ele>6.09308</ele>
        <time>2023-05-30T15:10:07.000Z</time>
      </trkpt>
      <trkpt lat="46.1893" lon="-1.38828">
        <ele>6.14539</ele>
        <time>2023-05-30T15:10:08.000Z</time>
      </trkpt>
      <trkpt lat="46.18931" lon="-1.38833">
        <ele>6.20472</ele>
        <time>2023-05-30T15:10:09.000Z</time>
      </trkpt>
      <trkpt lat="46.18933" lon="-1.38838">
        <ele>6.25995</ele>
        <time>2023-05-30T15:10:10.000Z</time>
      </trkpt>
      <trkpt lat="46.18933" lon="-1.38843">
        <ele>6.23876</ele>
        <time>2023-05-30T15:10:11.000Z</time>
      </trkpt>
      <trkpt lat="46.18934" lon="-1.38847">
        <ele>6.3216</ele>
        <time>2023-05-30T15:10:12.000Z</time>
      </trkpt>
      <trkpt lat="46.18935" lon="-1.38852">
        <ele>6.40443</ele>
        <time>2023-05-30T15:10:13.000Z</time>
      </trkpt>
      <trkpt lat="46.18936" lon="-1.38857">
        <ele>6.47728</ele>
        <time>2023-05-30T15:10:14.000Z</time>
      </trkpt>
      <trkpt lat="46.18936" lon="-1.38862">
        <ele>6.53653</ele>
        <time>2023-05-30T15:10:15.000Z</time>
      </trkpt>
      <trkpt lat="46.18937" lon="-1.38867">
        <ele>6.59295</ele>
        <time>2023-05-30T15:10:16.000Z</time>
      </trkpt>
      <trkpt lat="46.18938" lon="-1.38871">
        <ele>6.63297</ele>
        <time>2023-05-30T15:10:17.000Z</time>
      </trkpt>
      <trkpt lat="46.18939" lon="-1.38875">
        <ele>6.66403</ele>
        <time>2023-05-30T15:10:18.000Z</time>
      </trkpt>
      <trkpt lat="46.1894" lon="-1.38879">
        <ele>6.71344</ele>
        <time>2023-05-30T15:10:19.000Z</time>
      </trkpt>
      <trkpt lat="46.1894" lon="-1.38882">
        <ele>6.75864</ele>
        <time>2023-05-30T15:10:20.000Z</time>
      </trkpt>
      <trkpt lat="46.18941" lon="-1.38885">
        <ele>6.80693</ele>
        <time>2023-05-30T15:10:21.000Z</time>
      </trkpt>
      <trkpt lat="46.18941" lon="-1.3889">
        <ele>6.77322</ele>
        <time>2023-05-30T15:10:23.000Z</time>
      </trkpt>
      <trkpt lat="46.18941" lon="-1.38894">
        <ele>6.74543</ele>
        <time>2023-05-30T15:10:25.000Z</time>
      </trkpt>
      <trkpt lat="46.18941" lon="-1.38898">
        <ele>6.75537</ele>
        <time>2023-05-30T15:10:27.000Z</time>
      </trkpt>
      <trkpt lat="46.18939" lon="-1.38901">
        <ele>6.74775</ele>
        <time>2023-05-30T15:10:28.000Z</time>
      </trkpt>
      <trkpt lat="46.18937" lon="-1.38903">
        <ele>6.74003</ele>
        <time>2023-05-30T15:10:29.000Z</time>
      </trkpt>
      <trkpt lat="46.18935" lon="-1.38904">
        <ele>6.72992</ele>
        <time>2023-05-30T15:10:30.000Z</time>
      </trkpt>
      <trkpt lat="46.18932" lon="-1.38905">
        <ele>6.74771</ele>
        <time>2023-05-30T15:10:31.000Z</time>
      </trkpt>
      <trkpt lat="46.1893" lon="-1.38907">
        <ele>6.74345</ele>
        <time>2023-05-30T15:10:32.000Z</time>
      </trkpt>
      <trkpt lat="46.18927" lon="-1.38909">
        <ele>6.7581</ele>
        <time>2023-05-30T15:10:33.000Z</time>
      </trkpt>
      <trkpt lat="46.18924" lon="-1.3891">
        <ele>6.87642</ele>
        <time>2023-05-30T15:10:34.000Z</time>
      </trkpt>
      <trkpt lat="46.18921" lon="-1.38912">
        <ele>6.886</ele>
        <time>2023-05-30T15:10:35.000Z</time>
      </trkpt>
      <trkpt lat="46.18918" lon="-1.38914">
        <ele>6.91119</ele>
        <time>2023-05-30T15:10:36.000Z</time>
      </trkpt>
      <trkpt lat="46.18914" lon="-1.38916">
        <ele>6.94748</ele>
        <time>2023-05-30T15:10:37.000Z</time>
      </trkpt>
      <trkpt lat="46.18911" lon="-1.38918">
        <ele>7.00771</ele>
        <time>2023-05-30T15:10:38.000Z</time>
      </trkpt>
      <trkpt lat="46.18908" lon="-1.3892">
        <ele>7.05233</ele>
        <time>2023-05-30T15:10:39.000Z</time>
      </trkpt>
      <trkpt lat="46.18905" lon="-1.38922">
        <ele>7.12292</ele>
        <time>2023-05-30T15:10:40.000Z</time>
      </trkpt>
      <trkpt lat="46.18902" lon="-1.38924">
        <ele>7.19339</ele>
        <time>2023-05-30T15:10:41.000Z</time>
      </trkpt>
      <trkpt lat="46.18899" lon="-1.38926">
        <ele>7.23986</ele>
        <time>2023-05-30T15:10:42.000Z</time>
      </trkpt>
      <trkpt lat="46.18897" lon="-1.38927">
        <ele>7.30145</ele>
        <time>2023-05-30T15:10:43.000Z</time>
      </trkpt>
      <trkpt lat="46.18895" lon="-1.38928">
        <ele>7.36108</ele>
        <time>2023-05-30T15:10:44.000Z</time>
      </trkpt>
      <trkpt lat="46.18893" lon="-1.38929">
        <ele>7.49448</ele>
        <time>2023-05-30T15:10:45.000Z</time>
      </trkpt>
      <trkpt lat="46.1889" lon="-1.3893">
        <ele>7.61926</ele>
        <time>2023-05-30T15:10:46.000Z</time>
      </trkpt>
      <trkpt lat="46.18888" lon="-1.38932">
        <ele>7.71382</ele>
        <time>2023-05-30T15:10:47.000Z</time>
      </trkpt>
      <trkpt lat="46.18886" lon="-1.38933">
        <ele>7.80796</ele>
        <time>2023-05-30T15:10:48.000Z</time>
      </trkpt>
      <trkpt lat="46.18885" lon="-1.38934">
        <ele>7.90428</ele>
        <time>2023-05-30T15:10:49.000Z</time>
      </trkpt>
      <trkpt lat="46.18883" lon="-1.38936">
        <ele>8.0072</ele>
        <time>2023-05-30T15:10:50.000Z</time>
      </trkpt>
      <trkpt lat="46.18881" lon="-1.38937">
        <ele>8.09448</ele>
        <time>2023-05-30T15:10:51.000Z</time>
      </trkpt>
      <trkpt lat="46.18878" lon="-1.38938">
        <ele>8.20033</ele>
        <time>2023-05-30T15:10:52.000Z</time>
      </trkpt>
      <trkpt lat="46.18876" lon="-1.38939">
        <ele>8.28317</ele>
        <time>2023-05-30T15:10:53.000Z</time>
      </trkpt>
      <trkpt lat="46.18874" lon="-1.38938">
        <ele>8.35739</ele>
        <time>2023-05-30T15:10:54.000Z</time>
      </trkpt>
      <trkpt lat="46.18871" lon="-1.38939">
        <ele>8.49016</ele>
        <time>2023-05-30T15:10:55.000Z</time>
      </trkpt>
      <trkpt lat="46.18869" lon="-1.3894">
        <ele>8.60968</ele>
        <time>2023-05-30T15:10:56.000Z</time>
      </trkpt>
      <trkpt lat="46.18866" lon="-1.38941">
        <ele>8.62284</ele>
        <time>2023-05-30T15:10:58.000Z</time>
      </trkpt>
    </trkseg>
  </trk>
</gpx>